GFSCGP_sfc_wetblb_000.txt.gz
Wetbulb
36.89 33.96 32.66 36.90 35.69 35.29 30.77 30.26 30.08 33.17 37.18 33.15 36.84 37.42 39.10 40.63 39.82 41.67 42.73 42.73 43.02 44.18 46.07 46.45 43.78 41.86 40.43 38.93 39.85 39.98 38.38 40.10 40.86 39.67 37.19 36.13 37.57 36.25 36.00 36.30 36.20 35.69 35.18 34.29
33.78 31.55 38.24 36.73 35.21 34.44 32.51 31.99 33.03 36.17 37.99 33.38 34.70 35.33 39.12 40.32 41.02 41.80 42.45 43.28 43.30 43.55 44.31 45.05 40.93 39.29 38.67 39.73 39.27 38.81 38.26 38.55 40.24 40.26 39.98 37.45 39.70 36.04 37.60 35.53 33.89 34.82 33.45 33.36
35.31 37.59 38.46 36.41 33.48 33.62 31.11 30.34 33.50 32.47 33.70 32.78 31.03 32.63 33.02 37.25 37.62 40.54 41.30 42.80 40.76 41.22 43.21 44.42 39.68 39.13 38.02 37.26 37.09 38.79 38.42 38.07 39.54 39.08 37.61 31.38 31.06 30.13 30.44 30.66 32.12 31.97 33.32 32.97
33.77 37.15 36.86 32.73 33.35 34.60 32.70 35.54 34.87 33.22 29.35 27.16 31.00 27.08 30.63 35.72 37.22 38.11 39.96 38.28 39.08 40.04 40.18 40.25 39.62 38.37 38.57 38.94 37.40 37.58 37.12 36.94 38.44 38.30 36.93 36.05 35.57 34.79 35.40 36.79 36.13 33.81 32.86 32.45
33.73 32.30 31.89 32.14 34.75 34.99 33.86 34.92 32.72 29.92 28.21 26.27 26.05 24.33 29.69 32.10 34.02 36.79 38.30 39.08 38.54 39.37 39.02 39.38 39.44 39.26 38.91 37.54 36.16 35.62 36.00 35.94 37.54 37.83 37.38 37.03 36.84 37.25 31.88 32.16 33.19 32.44 31.11 31.52
34.21 33.95 35.42 35.79 35.29 35.68 34.20 31.54 29.77 27.92 27.35 22.63 28.51 27.41 33.64 30.36 32.72 35.08 38.64 42.31 39.77 39.82 39.66 39.11 38.41 37.59 37.25 34.53 33.23 33.35 34.38 34.66 35.81 36.69 36.47 36.90 36.56 30.86 31.42 30.13 31.65 30.67 29.99 29.21
30.74 32.18 33.42 35.28 31.90 31.84 31.67 28.65 22.20 19.79 18.71 22.24 26.75 24.95 34.17 36.90 39.30 37.42 38.03 38.32 38.84 38.59 37.60 37.88 37.81 36.80 36.22 33.37 32.01 32.14 32.64 32.55 33.74 34.96 35.39 35.72 35.69 32.61 33.38 31.59 32.70 30.60 30.02 29.87
28.82 31.75 32.15 33.80 34.76 32.54 30.11 31.57 23.81 19.65 17.87 26.68 23.97 24.31 35.24 38.27 38.79 38.80 36.83 37.58 36.53 37.87 37.81 37.56 38.14 35.73 35.17 34.19 31.88 32.57 32.39 32.14 32.24 33.57 34.27 33.83 33.95 33.60 33.56 31.92 32.56 31.49 31.95 31.96
27.35 28.83 31.68 33.43 33.51 34.40 28.99 28.10 33.49 27.67 29.36 23.07 30.01 31.70 36.95 40.03 36.10 35.02 34.24 35.60 36.61 38.05 37.82 38.54 38.30 36.34 34.50 33.40 32.55 32.07 31.93 32.43 31.99 32.60 32.76 32.79 33.12 32.89 32.45 30.25 30.50 31.26 31.57 30.77
34.87 30.13 33.74 32.05 32.37 32.80 32.78 33.13 26.18 25.41 20.80 19.85 25.44 28.49 31.04 36.72 39.62 37.57 36.42 35.78 38.92 38.12 37.60 37.71 38.95 38.03 35.49 33.86 32.68 32.16 32.09 32.23 31.92 32.17 33.52 33.90 33.71 34.06 32.73 30.66 30.58 30.06 30.37 28.69
34.85 33.16 31.55 31.75 30.06 31.96 30.81 28.70 28.76 29.25 28.28 24.60 23.36 28.72 37.28 39.10 40.13 34.96 35.59 38.11 38.20 35.26 35.05 35.81 36.70 37.18 37.40 36.49 34.22 32.78 31.82 31.28 31.11 30.90 32.04 31.48 30.80 31.65 31.50 30.50 30.75 30.68 29.46 28.27
35.66 36.51 31.63 32.75 34.90 34.73 33.07 34.04 32.41 27.70 26.16 27.33 27.56 27.78 38.97 38.17 38.90 35.46 32.02 32.23 33.61 33.51 33.03 34.26 34.92 35.27 35.86 36.78 37.97 37.48 34.88 32.83 32.82 32.07 31.81 30.48 31.25 30.32 30.06 30.45 30.38 30.01 28.98 28.15
39.38 34.15 28.21 28.88 30.69 32.49 31.59 34.14 34.96 34.71 31.96 28.44 25.44 26.95 39.53 36.66 28.55 30.75 28.79 28.34 29.46 30.81 31.71 32.58 33.71 34.26 35.02 35.51 36.02 35.96 36.10 36.07 34.88 34.87 31.77 31.10 30.87 29.77 30.99 31.70 31.03 29.89 29.69 28.26
40.22 34.04 31.48 26.32 28.74 32.99 31.87 33.33 34.48 33.46 29.10 28.42 28.65 30.24 35.02 25.61 25.40 25.19 27.60 27.20 28.03 29.15 30.63 31.62 32.45 33.59 34.75 35.44 35.44 35.14 34.83 34.89 34.26 33.50 32.10 31.28 30.33 31.01 32.61 32.93 31.55 29.50 29.67 28.34
36.43 30.74 32.43 32.72 34.31 33.21 31.40 29.84 29.53 28.38 29.99 26.44 28.48 29.56 27.53 21.81 23.39 24.89 27.70 27.70 27.50 28.31 30.17 31.72 32.26 33.27 34.58 34.15 34.66 34.39 34.54 33.66 33.19 32.42 32.82 32.99 32.28 30.91 31.54 31.56 31.68 29.09 28.72 28.90
34.28 26.99 28.02 23.92 27.14 26.85 25.80 27.99 27.77 28.14 27.69 28.06 28.69 25.63 22.82 24.32 26.08 25.52 26.53 26.62 26.10 27.41 30.23 32.80 31.86 34.20 32.70 33.04 33.07 32.79 33.48 33.17 32.42 31.49 31.27 32.33 32.15 31.39 29.77 31.09 30.74 28.00 27.79 27.69
28.35 26.89 23.77 19.15 23.82 22.87 17.72 23.11 25.42 26.83 28.80 24.63 20.76 19.47 21.53 21.55 23.58 24.75 26.00 27.06 25.76 26.76 29.03 31.67 30.18 30.54 30.66 32.15 33.08 31.37 32.21 32.72 31.35 30.93 31.22 30.44 30.06 29.81 30.58 28.29 27.56 27.06 26.71 27.28
25.98 23.79 20.05 18.83 14.68 10.21 20.96 24.83 25.16 23.10 22.66 23.47 22.01 19.69 21.73 22.61 23.88 25.55 28.72 25.15 25.18 27.17 29.83 29.55 28.65 28.03 28.97 29.69 30.59 31.05 32.25 31.15 30.94 30.29 29.72 29.45 28.25 27.78 27.48 25.20 26.20 25.16 25.10 25.64
27.76 24.05 13.14 11.45 5.65 16.37 21.56 20.65 19.72 20.13 19.72 22.28 21.88 23.93 24.34 23.83 23.04 22.24 26.05 26.73 26.42 26.75 29.72 27.25 26.72 26.79 27.22 27.17 28.67 29.40 26.79 28.46 30.15 30.22 29.93 28.82 27.20 25.90 25.36 23.52 23.80 24.47 24.99 25.11
23.67 25.70 20.84 8.96 7.60 0.05 17.26 21.84 24.27 23.61 11.96 18.20 20.72 21.51 21.96 21.41 13.52 18.43 24.80 25.86 26.42 28.73 26.17 24.31 23.78 23.88 24.50 25.57 27.76 24.82 24.04 25.40 25.25 27.47 28.67 27.50 25.18 23.03 22.65 21.48 20.08 21.92 24.52 24.72
1.45 -0.38 7.75 4.42 1.02 5.69 16.28 19.65 22.29 5.37 8.74 15.46 20.75 22.01 21.25 18.60 19.30 23.28 25.39 23.74 24.73 24.59 22.38 22.39 21.84 21.06 22.42 25.69 23.34 21.19 22.30 21.64 23.11 23.37 23.24 27.47 27.00 23.59 22.42 23.20 18.67 20.15 21.23 20.05
11.03 1.51 -4.00 -6.23 -6.25 -1.82 20.41 19.01 12.97 16.23 20.01 19.79 21.30 24.17 23.21 23.26 24.13 24.50 22.83 22.54 22.52 20.68 20.78 21.21 19.83 19.77 21.17 21.11 19.53 18.86 18.38 20.27 20.06 20.59 21.50 23.37 25.05 24.78 22.34 20.94 19.63 19.91 20.09 18.77
7.91 13.35 4.75 8.23 7.06 21.08 23.38 21.27 25.36 23.77 20.27 21.88 23.49 25.63 23.91 23.41 22.70 22.21 20.32 20.68 20.62 20.10 19.76 20.05 16.98 16.95 18.79 18.17 16.95 14.79 16.09 16.25 15.91 16.55 17.55 18.70 21.28 25.17 22.37 21.28 20.37 18.77 19.02 17.83
16.65 20.12 16.38 16.51 20.19 21.24 23.45 25.63 24.19 25.00 24.42 24.99 24.70 23.88 23.38 21.65 20.60 19.11 18.94 18.73 18.46 18.23 17.03 17.09 15.43 14.26 14.16 15.68 15.46 13.91 13.71 13.12 11.48 11.33 11.81 13.51 15.51 18.88 22.91 20.77 21.11 19.39 18.55 18.06
18.85 18.03 14.52 16.28 20.87 22.33 23.60 24.61 25.53 25.65 25.19 22.44 21.87 20.62 19.53 18.21 17.30 17.27 16.38 15.93 16.14 15.82 15.31 14.53 13.22 12.24 11.79 12.75 11.65 10.83 10.16 8.69 7.14 7.79 8.46 9.35 12.02 14.42 20.06 20.45 20.11 19.21 20.74 21.02
21.56 19.15 15.71 14.31 22.61 22.11 22.91 25.73 23.59 22.29 21.43 18.17 16.87 16.12 17.25 16.86 15.44 15.26 13.55 14.20 13.51 12.45 12.63 11.19 9.93 8.79 8.08 7.52 6.59 6.43 6.17 4.95 3.78 3.43 4.82 6.74 9.31 11.86 15.62 19.59 18.91 23.48 24.44 24.30

GFSCGP_sfc_wetblb_003.txt.gz
Wetbulb
37.34 34.34 32.85 36.33 35.70 34.47 32.37 30.73 29.85 32.76 36.68 34.21 36.97 37.06 38.69 40.88 39.76 41.39 42.70 43.52 43.78 43.81 46.10 45.59 45.03 45.24 44.38 42.67 42.61 43.15 41.72 45.06 47.70 47.58 45.77 43.12 43.02 44.52 42.13 43.30 42.41 41.30 40.87 39.62
33.97 32.38 38.42 37.06 35.30 34.46 32.73 31.46 32.08 34.80 37.17 33.44 34.41 35.76 39.49 40.78 41.46 42.34 42.55 42.98 42.15 42.34 44.42 44.89 43.11 43.59 42.75 42.73 41.45 41.69 40.84 42.19 45.28 46.31 46.29 44.86 45.22 44.05 43.27 42.05 40.60 41.14 40.01 39.19
34.04 36.52 37.75 36.36 33.53 33.28 31.23 30.84 33.01 31.88 33.15 33.67 31.38 31.83 33.30 38.74 38.00 39.81 41.27 41.36 41.17 40.70 41.11 42.11 42.32 41.80 42.07 41.39 40.39 40.40 40.45 40.58 43.24 44.33 43.51 36.18 37.10 35.85 37.07 36.72 37.39 38.12 38.56 38.31
33.88 36.42 36.43 33.26 33.79 33.83 30.82 35.01 33.89 32.00 29.93 27.11 32.67 26.64 31.24 37.12 37.84 38.57 39.44 39.24 39.42 40.37 41.08 40.26 39.59 41.60 40.12 40.79 40.31 39.58 39.78 39.15 41.39 41.95 40.99 40.69 40.07 38.40 38.35 40.28 39.51 37.84 37.91 37.68
34.36 33.53 32.24 32.18 34.78 34.84 33.66 33.80 31.95 31.05 29.12 27.29 27.72 24.97 30.36 33.18 34.77 37.07 38.80 40.54 40.48 39.94 40.48 41.03 40.27 40.38 39.47 37.62 37.91 38.49 38.43 38.11 40.07 40.15 40.74 40.17 40.01 40.03 37.72 38.93 37.98 36.85 36.08 36.78
33.76 34.71 35.30 35.74 34.48 35.00 34.32 32.29 29.91 28.79 28.44 23.10 28.66 28.11 30.06 32.01 35.05 35.54 38.70 41.15 39.79 40.02 40.03 41.89 39.99 39.10 38.86 37.23 35.90 36.16 36.54 36.34 37.84 38.84 39.18 39.33 39.45 37.69 36.18 36.32 36.43 35.35 34.60 34.35
30.58 31.85 33.02 34.54 31.58 31.80 33.12 29.97 23.61 21.35 19.73 22.21 27.08 25.59 31.85 36.17 39.85 37.88 39.32 38.15 37.96 39.00 39.08 39.59 38.72 38.32 37.81 37.04 35.33 35.18 34.55 34.56 35.45 36.67 37.30 38.15 38.42 36.47 37.03 36.26 36.77 34.32 33.41 33.05
29.76 32.14 32.70 34.02 34.73 32.53 30.14 31.15 26.46 20.29 20.98 26.90 23.92 26.30 35.48 37.46 39.61 38.59 36.73 36.69 37.90 37.17 36.67 36.27 36.72 37.16 37.31 37.18 36.18 34.91 33.87 33.93 34.35 34.76 35.35 36.19 36.70 36.67 36.31 35.55 36.10 34.79 34.72 34.70
29.03 28.13 31.32 32.47 33.34 35.13 29.09 27.81 33.32 27.80 26.47 25.06 30.14 31.80 38.27 40.71 36.49 35.12 33.90 31.96 31.44 32.76 33.83 34.49 35.67 36.22 37.07 37.48 36.64 35.68 34.51 34.39 34.35 34.02 34.24 34.57 34.84 35.19 34.97 33.89 34.53 35.28 35.76 35.06
34.59 31.20 33.31 32.50 32.39 32.00 32.41 33.45 26.59 25.38 19.03 20.32 26.31 29.23 31.15 35.87 31.16 29.57 29.50 28.93 29.59 30.95 31.73 33.56 34.82 35.31 36.23 37.15 37.42 37.28 36.93 35.69 35.08 34.60 34.13 34.38 34.59 34.71 34.46 32.99 32.51 33.18 33.94 33.12
33.88 33.04 31.29 33.08 30.19 30.29 29.16 28.18 28.68 29.32 27.05 23.60 22.57 27.96 35.43 28.27 28.36 27.28 26.28 26.91 27.95 29.46 31.09 32.38 33.94 35.23 35.88 36.47 36.41 35.87 36.09 35.50 35.44 35.92 35.84 33.99 33.74 34.05 33.91 31.95 32.07 32.71 32.64 31.62
35.67 34.49 28.67 31.11 35.62 33.71 32.93 33.21 33.29 28.42 26.41 26.75 28.47 27.80 28.26 26.70 27.03 26.49 24.57 26.77 28.31 29.68 31.17 32.34 33.18 34.59 35.41 35.12 35.46 35.02 35.12 34.63 34.55 35.17 35.36 35.06 34.22 33.00 32.20 32.79 32.47 32.37 31.74 31.13
38.02 32.09 26.45 26.78 30.28 32.63 32.04 32.73 33.25 33.55 31.94 27.73 24.52 27.63 28.56 25.14 25.69 26.67 27.22 26.57 27.62 28.89 30.19 32.13 32.63 32.89 34.98 34.16 34.29 34.16 34.07 34.40 34.13 34.09 33.62 34.27 34.31 34.39 33.26 32.93 33.33 32.10 32.24 31.11
39.57 34.04 31.52 25.31 26.91 30.65 29.23 30.96 32.30 32.22 27.87 27.14 28.52 30.39 31.96 23.76 22.78 24.77 26.82 27.72 27.00 27.67 28.67 30.59 31.61 31.49 34.06 32.50 32.83 33.59 33.54 34.52 33.83 33.20 32.59 32.51 32.81 33.15 33.59 33.95 33.99 33.26 31.88 31.47
35.93 30.39 31.92 32.15 32.55 31.01 28.70 27.50 26.90 25.29 27.04 23.56 26.67 25.92 30.37 20.30 21.87 24.25 25.95 28.44 26.92 26.31 27.42 28.96 31.50 30.08 30.85 30.87 31.23 32.35 32.51 33.16 34.06 32.34 31.84 31.79 32.17 32.32 32.29 32.55 32.81 33.24 32.07 31.47
32.99 28.22 25.93 20.58 26.97 26.13 24.73 25.85 26.01 25.86 25.92 25.93 26.82 26.84 22.65 23.97 24.83 23.78 24.60 27.62 25.35 24.93 26.69 28.43 31.62 29.07 29.17 28.99 29.41 30.44 30.97 31.50 31.35 31.39 31.20 31.68 31.40 30.79 30.44 31.33 30.85 31.02 31.52 30.88
28.91 27.59 22.63 20.56 23.21 22.41 18.20 21.02 23.87 24.91 26.48 24.22 20.42 18.84 19.64 20.26 22.49 22.79 22.82 27.40 24.74 24.67 25.93 26.78 29.82 27.52 27.21 27.39 27.65 27.75 29.01 30.45 28.31 29.40 30.31 30.86 30.84 29.35 28.65 29.48 29.49 28.94 29.90 30.28
26.90 23.33 23.50 18.68 13.18 10.83 21.08 22.44 25.00 23.12 21.21 20.45 18.66 17.34 20.33 22.47 25.06 25.47 26.49 26.56 24.42 25.44 26.03 26.60 28.27 26.03 25.87 26.54 26.37 26.57 28.40 26.35 25.95 27.42 27.45 28.49 27.02 26.36 27.56 27.58 27.76 27.86 28.08 28.26
27.07 23.31 11.66 12.01 7.25 15.96 20.29 21.46 20.33 19.70 17.27 21.13 18.32 20.21 22.44 24.66 23.13 21.78 25.01 25.53 25.09 25.38 26.52 27.46 26.26 24.98 24.42 24.22 24.80 24.57 25.89 23.78 23.75 24.31 24.52 24.67 23.96 22.75 26.00 26.15 26.19 26.47 25.62 26.29
23.43 24.56 19.60 3.31 3.65 -2.61 15.22 21.77 24.19 21.50 8.38 17.84 16.29 16.23 17.29 21.28 14.00 18.65 23.50 24.78 25.30 25.50 25.92 25.65 23.61 22.44 21.98 22.25 22.91 23.22 22.29 20.25 20.70 22.31 22.54 21.89 21.38 21.76 25.28 25.15 25.83 26.03 24.31 24.96
0.14 3.23 15.10 14.02 12.75 8.60 15.66 18.76 22.47 4.56 9.16 16.99 17.15 19.77 19.86 19.42 21.82 24.31 24.63 24.04 24.39 24.18 24.47 22.75 21.29 20.40 20.78 21.03 20.31 19.41 19.07 17.94 19.58 19.36 18.44 17.36 18.13 19.20 21.29 22.47 24.75 24.71 23.58 23.50
11.23 0.98 -5.77 -7.40 -3.91 1.72 19.10 18.28 12.79 16.88 20.45 20.17 20.65 22.49 21.97 23.79 25.36 25.52 24.88 24.48 22.96 21.76 22.22 22.08 20.09 20.11 20.94 20.58 18.41 17.08 16.46 18.27 16.58 14.74 13.75 13.41 13.59 15.31 17.62 18.23 21.11 23.37 22.16 21.84
8.74 13.44 6.35 8.50 7.49 20.52 21.78 21.47 25.15 25.57 22.34 23.30 21.87 23.84 23.52 23.84 24.30 24.34 22.02 20.59 20.66 20.97 20.72 20.46 17.44 16.64 17.79 17.28 16.08 13.93 14.99 14.76 12.62 9.71 8.54 8.99 9.96 11.19 12.74 13.81 16.60 20.88 22.33 19.97
15.73 18.98 15.03 16.62 20.31 20.92 23.91 26.01 25.52 24.98 23.83 24.55 23.96 23.34 23.66 22.84 22.20 20.15 18.71 19.33 19.04 18.69 17.08 16.53 14.37 12.82 12.12 13.68 13.66 11.76 10.98 10.03 6.89 4.76 4.99 6.01 6.03 7.19 8.95 11.50 14.51 17.72 21.25 20.92
18.84 17.66 15.23 16.26 20.90 22.32 23.37 24.63 25.64 25.97 25.13 22.89 21.45 20.88 19.84 18.57 17.76 17.17 16.67 16.40 16.06 15.06 14.26 12.90 10.87 9.61 8.77 9.17 7.72 6.80 6.14 4.50 2.19 1.90 2.39 2.39 3.19 3.95 5.67 8.68 11.60 15.53 21.14 22.52
21.85 19.16 16.20 14.61 22.51 21.92 22.90 25.83 23.43 23.03 22.24 18.25 17.26 16.21 17.36 17.18 15.61 14.77 12.81 12.97 12.07 10.69 9.85 7.30 5.99 4.65 3.67 3.02 2.14 1.98 1.75 0.80 -0.78 -1.37 -0.70 -0.14 0.82 1.90 3.43 4.79 7.23 15.59 19.91 24.16

GFSCGP_sfc_wetblb_006.txt.gz
Wetbulb
44.57 42.86 41.38 44.49 44.61 44.47 41.60 39.96 39.40 42.06 44.49 41.87 41.22 41.93 43.64 45.75 46.15 45.93 46.64 47.80 48.43 49.25 50.31 50.68 50.61 50.69 50.73 51.27 50.51 50.48 50.76 51.54 54.31 54.34 54.38 55.04 54.60 54.59 54.59 55.08 53.52 52.59 50.79 48.43
41.73 40.22 45.33 43.65 42.33 40.97 40.95 38.81 39.16 42.64 43.53 39.88 41.28 40.61 43.45 45.05 45.46 46.67 46.69 47.16 47.81 47.61 48.19 48.56 48.31 48.51 47.82 47.94 48.55 48.63 48.85 49.20 51.79 53.22 53.86 54.28 53.58 53.91 53.75 53.47 52.02 51.59 50.13 47.99
41.77 44.30 44.30 41.43 41.66 39.47 40.33 38.43 39.77 39.51 41.04 41.96 39.49 40.91 41.67 45.55 44.66 45.73 46.08 46.65 46.62 46.39 45.95 46.10 45.69 45.03 45.16 44.37 45.06 45.83 47.20 47.43 48.82 51.02 51.82 51.46 48.57 49.24 50.10 50.43 49.87 48.91 49.15 47.55
40.82 41.77 40.23 39.52 39.07 41.23 37.41 42.61 40.17 38.22 36.94 36.11 39.49 34.35 42.10 44.12 44.11 44.62 45.63 46.30 46.05 45.63 45.27 44.07 43.13 42.97 42.78 42.33 43.56 44.40 45.11 45.29 45.86 48.43 48.55 47.88 46.42 45.39 46.72 47.13 47.54 47.53 47.57 47.03
40.92 38.58 37.64 37.58 39.95 40.78 39.77 39.49 37.54 36.47 36.41 35.16 37.08 33.82 41.06 40.86 40.37 43.20 44.23 43.65 44.75 43.35 42.56 41.72 41.88 42.33 42.54 42.58 42.58 42.38 43.36 43.18 44.44 45.05 46.37 46.04 46.08 47.39 47.27 45.53 46.08 45.88 45.60 45.51
41.25 40.64 40.61 41.76 40.09 40.00 39.08 38.37 36.99 36.35 36.14 31.83 37.33 35.46 38.57 40.15 41.05 42.44 41.73 40.70 40.24 40.59 41.08 41.19 41.79 42.23 41.72 41.98 41.45 41.58 41.33 40.70 41.85 42.97 44.00 43.84 44.18 44.78 44.36 43.47 43.74 44.25 43.99 43.19
40.48 38.70 40.40 40.20 38.76 38.61 38.65 36.91 33.59 31.72 31.74 31.44 36.05 33.10 38.00 42.37 40.24 40.05 38.82 38.20 38.47 39.45 39.61 39.54 39.35 39.84 40.26 40.12 40.63 40.34 40.17 39.27 40.32 40.62 41.31 41.82 42.13 42.78 42.84 42.88 42.94 43.08 42.13 41.15
36.81 35.81 38.83 40.19 41.05 41.63 37.68 38.16 33.73 26.48 29.08 33.02 30.75 31.53 39.13 41.95 39.09 38.09 37.71 37.19 37.11 37.43 38.74 38.95 39.42 39.46 39.48 39.43 39.44 39.90 39.45 39.04 39.64 39.79 39.64 40.23 40.24 40.85 41.70 42.10 42.29 42.33 42.28 42.14
38.18 37.87 38.23 37.69 39.38 40.45 36.15 33.53 39.09 32.88 33.00 29.45 34.72 38.81 43.10 42.62 36.36 36.16 34.76 35.13 34.33 35.14 35.89 37.19 38.43 39.20 38.46 38.67 38.70 38.74 38.34 38.25 39.10 39.26 39.55 39.29 39.71 39.52 39.57 40.14 40.47 40.97 41.67 41.08
39.73 34.47 40.99 39.74 38.32 38.87 37.58 39.70 32.70 32.75 24.86 24.34 30.82 33.37 35.50 38.20 34.85 33.37 32.21 32.13 33.07 34.36 34.82 35.50 37.12 37.99 38.34 38.37 38.66 38.56 38.65 37.31 37.44 38.45 38.71 39.22 39.26 39.08 38.91 39.12 38.21 38.36 39.69 39.79
41.27 37.91 37.58 37.78 37.60 36.93 36.60 33.76 33.62 33.38 31.54 25.93 24.94 30.71 37.70 34.95 32.21 30.95 30.37 31.03 32.04 33.09 34.28 35.22 35.84 37.65 38.17 37.53 37.59 37.39 37.10 36.80 36.14 36.54 37.27 37.62 38.02 38.37 38.38 37.68 38.37 38.10 37.98 38.04
41.15 35.76 32.01 35.36 41.41 39.81 38.70 36.77 36.67 30.67 28.54 31.95 30.13 29.78 33.80 32.71 31.07 29.93 28.42 29.44 30.93 32.41 33.14 34.53 35.68 35.48 36.95 35.79 35.80 36.02 36.23 35.77 35.92 35.69 35.58 35.25 35.67 36.04 35.95 36.65 37.56 37.93 37.16 37.60
40.46 35.34 30.13 31.43 34.99 36.14 34.85 36.70 37.01 36.83 34.25 30.14 27.34 28.97 32.78 31.90 31.03 30.23 30.87 30.18 30.28 31.03 31.17 32.61 35.16 34.07 34.19 34.19 34.27 34.65 35.09 34.53 35.31 35.00 34.69 34.36 33.97 33.93 33.53 33.42 35.54 36.27 36.48 35.35
40.17 35.39 32.39 27.39 31.56 35.40 32.13 34.04 35.78 34.13 28.60 29.17 30.09 32.15 37.07 33.49 32.08 31.02 30.47 30.74 31.16 30.28 29.97 31.23 32.98 33.85 33.54 33.88 33.39 33.34 33.46 33.87 33.77 33.18 33.67 33.34 33.42 33.21 32.69 32.18 32.75 33.85 34.96 35.39
37.33 31.52 33.16 33.96 34.36 34.55 33.37 32.85 32.79 30.89 30.92 26.10 29.64 29.84 33.56 36.19 31.67 29.47 29.08 29.32 30.05 28.60 29.17 29.97 30.61 32.86 32.60 32.36 32.13 32.49 32.53 32.75 33.07 31.52 31.97 32.34 33.42 33.58 32.51 31.87 31.68 32.52 32.47 32.93
35.56 29.23 30.60 26.83 31.76 31.37 28.83 30.93 31.23 30.06 29.14 28.42 28.64 28.09 35.54 28.10 28.31 27.76 27.82 27.86 29.19 28.30 29.08 29.82 30.43 31.34 31.81 31.23 30.56 30.77 30.96 31.03 32.13 29.81 29.52 31.10 31.77 31.49 29.92 29.79 29.98 30.49 30.63 31.22
30.84 29.20 27.01 22.71 28.70 26.41 21.94 25.59 27.71 29.16 31.35 30.29 25.27 28.33 26.46 24.64 26.34 27.68 27.88 28.01 28.97 28.36 29.05 29.55 30.11 30.59 31.87 31.30 29.67 29.58 29.81 29.79 30.32 28.52 28.31 29.03 29.20 28.31 27.51 27.22 28.62 29.38 28.85 30.33
28.00 27.49 26.91 21.65 23.08 14.00 26.42 29.60 28.85 27.08 28.47 25.90 23.61 23.32 25.51 26.26 28.10 29.29 29.72 28.61 29.29 29.07 29.52 30.25 30.73 30.92 31.81 31.05 29.22 29.28 28.74 27.81 28.47 27.71 26.65 27.70 27.34 25.59 25.00 24.81 25.66 28.73 29.03 28.63
30.23 27.00 22.45 18.05 17.44 21.85 24.36 27.22 25.57 23.89 24.65 26.40 25.26 24.74 25.91 27.08 27.85 27.52 30.63 30.96 30.47 30.58 30.80 30.94 31.08 30.56 29.72 28.20 27.98 26.58 26.08 25.94 26.54 25.68 25.11 25.85 25.49 22.85 21.73 20.32 22.17 25.24 26.24 27.43
25.86 27.45 22.07 14.73 12.01 9.27 22.63 24.51 27.25 25.78 17.35 26.03 24.17 24.07 24.52 24.97 19.79 25.06 30.83 30.65 30.79 31.20 31.17 29.64 29.31 28.47 27.36 27.76 26.83 24.06 23.21 22.85 22.66 23.59 23.69 24.06 23.26 20.11 18.53 19.74 19.94 21.99 24.02 25.39
16.22 17.40 16.33 17.52 15.06 18.65 23.99 24.26 27.12 14.16 17.96 26.01 25.29 25.28 25.29 23.13 26.28 29.47 30.94 30.23 30.88 30.44 29.19 28.37 27.65 26.15 25.85 26.13 24.12 21.49 21.20 20.08 21.76 21.89 21.19 20.27 19.67 17.87 17.36 17.08 18.05 18.70 19.45 20.93
17.71 15.42 13.04 10.56 10.56 9.29 24.76 22.98 19.05 24.98 27.67 27.54 27.07 27.22 26.27 27.67 28.42 28.77 29.71 29.92 30.09 27.76 26.67 26.55 24.70 24.00 24.21 22.98 20.78 18.47 17.53 19.62 18.96 17.16 15.50 14.88 14.22 14.12 14.30 12.66 13.37 14.23 15.45 16.22
14.81 20.10 17.70 15.98 18.14 24.62 26.39 26.23 28.34 29.26 27.09 28.22 27.82 28.88 28.30 27.06 27.22 28.64 28.48 27.79 25.63 24.78 24.15 23.16 20.37 18.69 19.29 18.47 17.30 14.45 15.19 14.93 13.02 10.71 8.72 8.62 9.28 9.43 9.64 9.19 9.70 11.13 12.80 14.02
22.08 25.16 19.04 19.92 23.29 25.25 27.39 29.08 29.71 29.91 28.94 29.76 29.33 28.48 28.09 26.15 27.12 26.02 24.54 23.20 22.10 20.97 19.03 18.39 15.83 13.54 12.47 13.76 13.05 11.54 10.89 10.00 6.87 4.71 4.60 5.34 4.68 5.35 6.09 7.67 8.31 8.36 9.79 11.50
22.77 22.42 19.86 19.99 23.61 25.45 26.86 28.32 29.19 29.52 30.12 29.02 27.76 25.77 24.52 22.82 22.61 21.16 19.71 18.17 17.55 16.39 15.35 13.85 11.29 9.62 8.96 9.78 8.32 7.79 7.14 5.56 3.22 2.67 2.83 2.92 3.41 3.03 3.46 4.90 5.64 6.96 9.21 11.07
24.59 21.55 18.89 17.75 25.32 24.83 25.59 28.96 30.07 27.54 27.03 24.20 21.73 20.10 19.13 17.74 17.03 16.24 14.67 14.79 13.24 11.77 10.91 8.52 7.34 6.40 5.66 5.15 4.44 4.49 4.36 3.45 1.83 1.62 2.09 2.54 2.45 2.71 2.97 2.73 3.07 8.61 11.03 13.36

GFSCGP_sfc_wetblb_009.txt.gz
Wetbulb
47.32 43.67 41.75 45.80 47.16 46.02 44.80 42.97 41.85 44.52 47.35 45.33 43.75 43.60 45.42 48.19 48.48 48.83 49.64 49.41 49.21 48.50 49.58 48.73 48.21 47.90 47.42 48.16 48.18 49.56 50.89 52.77 54.14 56.17 56.33 57.57 57.82 58.79 59.06 59.22 58.98 57.94 56.41 54.20
43.16 40.73 46.14 47.65 44.88 43.66 43.40 41.66 41.51 44.91 46.51 43.02 43.24 42.89 45.78 47.50 47.82 48.41 47.68 48.11 47.72 47.90 47.03 46.64 46.55 46.28 45.46 44.81 45.66 46.97 48.24 50.24 51.32 54.48 55.51 55.97 56.47 57.42 57.74 57.69 57.19 56.45 55.70 53.32
42.76 46.41 47.42 45.20 44.06 42.07 42.44 40.74 41.29 41.38 43.69 44.55 42.72 41.32 45.68 47.79 48.80 47.40 47.29 47.62 46.78 44.86 44.26 44.76 44.70 44.32 44.45 43.92 44.47 44.61 45.95 47.09 48.80 51.44 52.53 53.27 53.14 50.55 50.68 53.85 54.65 54.12 53.88 52.93
44.09 46.01 42.80 42.15 41.10 42.83 39.16 44.96 42.85 41.08 38.96 37.19 42.06 34.34 42.47 46.18 46.22 45.15 45.43 45.31 43.93 43.83 44.03 43.81 43.29 42.83 42.75 43.05 44.57 44.53 44.60 44.49 46.10 48.39 49.07 49.25 48.76 47.22 49.04 49.44 51.18 51.88 52.18 51.76
42.62 41.19 40.35 40.32 41.79 44.01 41.70 41.82 40.64 39.84 38.52 38.29 39.36 36.03 41.20 44.60 43.15 42.98 43.49 42.85 42.97 43.02 42.68 42.19 42.53 42.73 42.88 43.30 43.31 44.31 43.78 43.46 43.96 44.84 45.86 45.88 45.96 47.40 48.80 47.57 46.67 48.65 49.27 49.49
43.08 43.25 42.77 43.55 43.53 42.95 41.59 40.48 40.98 40.71 38.85 33.03 39.43 38.86 38.81 41.65 42.52 41.18 41.26 41.25 41.60 42.08 42.51 42.56 42.97 42.80 42.11 42.87 42.52 43.06 42.61 42.20 43.39 43.06 42.99 42.76 42.74 43.41 44.42 45.57 45.11 45.99 46.82 47.49
43.39 42.78 43.57 42.60 40.58 41.54 40.04 38.48 33.85 33.52 33.53 31.89 40.79 36.08 39.58 43.67 42.29 43.20 40.84 39.72 40.62 41.42 41.51 41.37 41.16 40.89 40.94 40.75 41.30 40.99 40.95 40.52 41.84 42.06 41.70 41.63 41.42 41.75 41.95 42.73 43.39 44.07 44.65 44.98
38.18 36.62 42.41 42.53 41.81 41.09 41.40 40.40 34.87 28.10 30.37 34.47 35.30 33.72 39.48 41.54 41.13 40.49 39.90 39.30 39.34 39.16 39.81 39.80 40.19 40.15 40.03 40.03 40.09 40.44 39.69 38.57 39.97 40.49 40.96 41.65 41.53 41.01 41.08 41.24 41.49 41.99 42.78 43.73
38.07 38.15 42.63 41.59 42.67 41.85 39.39 35.32 39.47 32.03 33.45 30.67 35.02 39.77 43.99 39.98 38.39 38.29 37.43 37.41 36.82 37.42 38.04 38.49 39.40 39.91 39.16 39.11 39.05 38.96 38.70 38.09 37.81 38.47 39.74 39.60 39.87 40.02 39.93 40.20 40.33 39.95 40.48 40.87
41.20 34.70 42.70 40.85 40.71 41.62 40.32 43.15 33.95 32.95 25.23 24.50 32.10 34.17 35.90 40.90 38.98 36.76 35.70 35.75 36.16 36.99 37.36 37.82 37.93 39.05 38.84 38.58 38.77 38.62 38.18 37.02 36.93 36.91 37.38 37.56 37.46 37.97 38.20 39.36 39.05 39.20 39.42 39.16
41.59 38.26 37.49 41.57 38.87 37.38 37.06 34.92 35.90 35.92 32.97 26.45 25.27 31.09 40.86 39.03 38.89 36.82 34.89 34.20 34.74 35.25 35.53 36.17 37.06 37.02 38.26 37.32 36.84 37.01 36.73 35.88 35.56 35.89 36.06 36.17 35.78 35.61 35.79 35.11 36.19 36.87 37.79 38.07
42.20 36.63 32.43 35.35 41.82 43.26 40.42 37.52 37.40 30.32 28.32 32.18 30.00 30.10 43.57 37.88 37.47 35.13 33.47 33.02 33.53 34.08 33.30 34.25 36.36 35.43 35.42 35.63 35.58 35.26 35.35 35.04 34.96 34.80 35.10 35.14 35.15 34.84 33.87 32.97 33.40 34.61 34.94 36.13
40.88 34.70 29.27 30.82 35.90 38.08 36.20 37.86 38.07 37.59 34.99 29.84 26.93 29.55 39.92 35.91 34.06 34.42 34.52 33.52 33.35 32.87 32.10 33.00 34.77 34.90 34.21 34.49 34.38 34.26 34.16 34.30 34.53 34.09 33.83 34.17 34.00 33.85 32.92 32.15 32.18 32.48 33.13 33.22
41.41 35.37 31.85 27.24 30.56 35.55 32.63 34.54 36.31 34.31 29.69 30.07 30.64 32.68 37.58 37.71 35.93 37.56 35.88 34.82 34.34 33.54 31.41 31.94 32.48 33.78 34.41 33.97 33.74 33.48 33.49 33.94 33.98 33.51 32.50 32.21 32.68 32.82 32.90 31.83 31.37 31.23 32.01 31.95
38.78 30.94 32.75 33.14 34.31 34.39 32.86 31.64 32.03 30.80 32.10 27.15 30.28 30.81 34.80 36.86 37.14 37.25 37.92 33.33 32.18 32.03 30.61 30.90 31.22 31.87 33.33 33.59 33.14 32.99 33.01 33.30 33.02 31.87 31.65 31.10 31.52 31.73 31.77 30.64 29.64 29.71 30.66 31.36
36.66 28.48 30.42 26.48 30.59 30.52 28.00 30.44 31.09 31.52 31.85 31.69 31.63 30.43 37.16 36.78 32.35 31.52 31.87 30.41 29.99 31.71 30.54 30.98 31.50 31.78 31.79 32.72 33.01 32.17 31.81 32.28 32.06 29.91 29.67 29.89 29.16 29.39 29.19 28.83 27.85 27.48 28.09 29.83
30.86 28.98 25.23 20.46 27.01 26.72 21.69 26.55 28.68 30.27 32.25 31.09 26.14 29.18 28.76 29.43 29.15 29.96 30.48 30.58 29.37 30.97 30.78 30.68 31.27 31.69 31.95 32.33 32.69 31.23 30.92 31.20 29.33 28.14 28.43 28.57 27.87 27.41 27.68 27.24 26.06 25.31 25.32 26.94
27.82 26.64 26.25 20.77 22.45 13.26 26.34 32.89 30.61 27.50 28.54 29.87 28.95 26.09 26.76 27.24 29.25 30.00 31.31 30.33 30.05 30.66 31.48 31.40 31.97 32.19 32.48 32.41 31.22 30.34 29.44 28.33 27.36 26.75 26.19 27.35 26.88 25.44 26.00 25.31 23.80 23.25 23.98 24.04
31.29 27.28 21.26 18.07 18.02 22.69 25.77 28.72 27.87 24.65 24.75 30.66 27.91 26.06 26.80 28.13 28.54 28.68 32.46 32.66 31.88 32.01 32.54 33.16 32.81 31.78 31.21 30.30 30.07 27.71 26.17 25.97 25.20 24.44 24.44 24.83 24.85 23.26 23.25 21.85 21.16 21.45 21.29 21.29
27.37 28.82 23.50 20.84 14.06 10.63 23.31 28.02 28.63 27.75 17.81 29.28 26.65 25.19 25.45 26.61 20.22 25.43 31.71 32.21 32.01 32.45 32.96 32.76 31.34 30.20 29.69 29.11 28.04 24.15 23.17 22.54 21.92 22.57 22.61 22.73 22.13 20.57 19.41 19.75 19.11 19.59 18.87 18.52
19.28 20.55 18.36 18.56 16.37 19.62 28.93 26.70 28.29 15.62 19.98 29.05 27.61 27.15 26.87 24.13 26.99 30.31 32.10 31.47 32.48 32.57 31.58 30.33 29.49 27.75 27.60 26.75 23.36 20.72 20.50 19.11 20.28 19.83 18.91 17.76 17.50 16.04 15.65 15.33 15.72 15.00 14.19 14.66
19.33 17.50 16.75 16.82 12.85 10.01 27.24 25.31 19.99 26.33 29.24 29.08 28.33 28.81 28.15 29.13 29.73 30.22 30.59 30.57 31.09 29.98 28.97 28.31 25.62 24.65 24.42 22.69 19.68 17.19 16.21 18.09 16.56 14.36 12.53 11.46 10.49 10.53 11.00 9.12 9.30 9.43 9.26 8.79
15.85 21.53 18.83 20.05 19.53 27.25 28.14 27.59 30.57 31.29 29.13 29.22 29.06 30.24 29.78 28.81 28.50 29.38 29.39 29.78 28.29 26.89 25.03 23.05 20.18 18.33 19.05 17.75 16.41 13.37 13.99 13.53 11.43 8.82 6.56 6.16 6.53 6.57 6.56 5.44 5.23 5.13 5.96 6.06
24.30 27.27 21.29 21.27 24.13 26.19 28.52 30.54 31.25 31.55 30.24 30.90 31.05 30.54 30.01 28.00 28.58 28.15 27.89 25.93 23.89 22.28 19.76 18.49 15.97 13.95 12.69 13.67 13.29 11.71 10.76 9.89 6.55 4.26 4.17 4.74 4.07 4.23 4.63 5.35 5.35 4.11 3.67 3.65
25.32 25.23 22.07 21.55 24.90 26.73 28.09 29.39 30.11 30.32 30.96 30.49 30.83 30.12 27.96 27.08 25.82 25.21 22.88 20.18 19.34 17.79 16.27 14.97 12.30 10.76 10.22 11.04 9.55 8.79 8.11 6.47 4.13 3.50 3.42 3.18 3.56 3.36 3.66 4.70 4.49 4.48 5.55 5.90
26.41 23.62 20.75 19.26 26.69 26.18 27.07 30.22 31.16 29.21 29.06 29.11 27.34 25.28 22.30 20.98 20.16 18.94 17.18 17.09 15.18 13.41 12.20 10.22 9.36 8.21 7.64 7.02 6.14 6.08 5.74 4.85 2.15 0.93 1.12 1.23 1.06 1.43 2.19 2.15 2.57 8.61 10.80 12.34

GFSCGP_sfc_wetblb_012.txt.gz
Wetbulb
44.67 39.39 37.03 40.55 42.51 42.89 41.01 39.50 38.09 40.50 44.17 40.63 40.49 39.95 42.30 45.06 45.91 43.48 41.54 43.32 43.21 42.80 44.06 43.93 43.40 42.74 42.26 42.43 42.39 43.74 44.64 45.97 47.86 50.96 51.42 52.29 52.55 54.12 55.45 55.92 55.49 55.81 53.58 52.28
40.32 36.96 43.42 45.16 44.41 41.55 39.76 37.68 37.20 41.17 43.56 39.35 39.74 39.23 42.90 44.88 45.09 43.22 43.05 41.93 41.45 41.58 41.95 42.37 41.32 40.98 40.85 40.96 40.93 41.57 42.61 43.54 46.03 48.59 49.33 50.20 48.25 49.76 50.65 54.35 53.98 54.01 53.50 51.46
39.54 43.32 46.14 43.83 41.85 40.75 39.53 37.18 37.54 37.75 40.89 39.17 37.85 36.46 39.69 44.35 44.14 44.01 43.24 42.22 41.55 40.26 39.82 39.84 39.85 39.39 39.37 39.51 39.96 40.81 41.14 41.59 43.22 44.58 47.16 47.80 47.33 45.48 45.99 46.44 49.53 52.36 52.35 50.87
41.30 44.75 42.58 40.25 39.87 40.36 36.58 41.25 40.30 38.63 34.74 30.55 37.63 29.05 37.58 42.01 39.65 41.19 40.37 38.94 38.77 38.87 39.75 39.86 38.83 38.27 38.56 38.58 39.52 40.40 40.80 40.88 41.73 41.99 41.97 41.04 42.01 41.88 43.68 44.39 44.40 45.17 48.90 48.75
40.34 38.90 37.66 38.22 39.90 41.36 38.52 39.25 37.16 36.49 33.93 32.75 33.72 29.63 35.05 39.35 36.84 38.13 38.23 38.84 38.52 38.41 38.71 38.31 38.01 38.83 38.68 38.24 37.93 38.66 39.43 40.16 40.42 40.10 39.62 38.76 38.19 39.31 40.33 41.09 40.92 41.38 44.03 45.81
40.92 39.93 40.02 40.56 41.34 40.99 40.11 37.52 36.96 35.34 33.75 26.36 33.95 33.81 32.69 35.45 37.50 35.97 37.36 37.88 38.60 38.41 38.36 38.63 39.03 38.89 37.42 37.35 36.61 36.45 37.32 38.05 38.79 38.93 38.64 37.31 36.48 36.28 36.48 37.17 37.51 38.93 40.29 41.82
38.78 39.24 40.04 40.70 36.75 37.97 37.14 34.63 27.44 25.53 24.62 25.28 34.67 31.36 34.82 37.41 39.13 38.43 36.63 36.00 36.77 37.17 36.56 36.55 36.01 35.95 36.29 35.71 36.07 36.47 35.19 35.12 36.44 36.78 36.89 36.97 36.64 36.20 36.17 36.00 36.10 35.78 36.40 37.78
34.85 32.84 39.62 39.96 38.56 37.00 37.58 36.87 30.00 23.51 21.82 25.64 32.17 27.34 35.25 37.44 37.78 37.78 37.09 35.89 36.01 35.18 35.77 35.65 35.97 35.18 35.00 35.29 34.73 34.36 34.07 33.40 33.95 34.51 35.09 35.54 35.67 36.19 36.60 36.20 36.15 35.58 35.50 35.75
35.28 35.09 38.31 40.39 40.28 40.05 35.77 32.50 37.58 29.06 25.47 24.31 29.71 34.95 38.45 36.54 35.01 34.71 34.29 34.37 33.15 33.84 34.29 34.30 35.71 34.77 34.12 33.88 33.91 33.56 32.92 32.75 32.81 33.04 33.06 32.89 33.25 32.94 32.65 33.32 34.46 34.98 35.52 36.91
38.96 32.95 40.01 37.93 38.66 38.17 36.55 39.78 30.31 30.78 23.56 19.74 26.68 28.89 31.60 33.80 33.33 33.60 32.67 32.27 32.88 33.58 33.53 33.59 33.30 34.50 33.43 33.32 33.46 33.12 32.71 32.08 31.72 31.97 32.22 32.48 31.90 31.72 31.17 30.79 30.48 31.55 32.94 33.99
39.33 36.96 34.98 38.42 36.30 35.46 34.41 32.09 35.08 34.29 29.75 21.61 21.46 25.51 34.83 35.03 35.41 33.06 33.10 33.21 32.36 31.89 31.15 32.14 32.31 32.02 32.39 32.17 31.70 31.21 31.52 31.10 30.84 30.75 31.39 31.13 31.13 31.42 30.88 29.32 29.63 30.20 30.92 31.87
39.43 35.83 29.07 32.62 38.87 40.19 36.94 35.34 34.69 28.57 26.94 29.21 28.39 27.98 40.40 36.17 34.36 34.67 31.95 32.32 31.14 31.81 30.07 30.86 32.06 31.18 31.68 31.26 30.49 30.10 30.21 30.08 30.75 30.55 29.92 30.62 30.86 30.44 29.57 29.18 29.15 29.02 30.23 31.22
38.98 31.77 25.62 25.26 31.25 34.61 33.58 34.28 34.58 33.95 30.33 26.86 24.51 25.38 38.10 32.78 31.85 33.12 32.59 31.39 31.76 32.67 30.74 30.06 30.02 30.12 29.65 29.59 29.70 29.28 29.80 29.88 30.62 30.35 28.98 28.50 28.19 27.97 28.01 27.95 27.70 28.03 28.50 29.52
41.15 33.83 28.11 22.65 26.22 31.69 28.64 31.14 32.90 31.91 27.51 26.17 26.48 29.01 33.60 35.93 36.48 37.59 34.48 33.28 32.23 31.51 30.81 28.51 28.29 28.21 28.86 29.36 28.57 28.49 28.50 29.03 28.65 28.42 27.45 25.98 26.10 26.80 27.09 27.53 27.14 25.98 26.56 26.53
36.87 25.86 29.16 30.94 32.17 31.56 29.89 28.82 29.78 27.99 28.94 25.16 27.03 26.91 30.93 33.01 31.35 28.87 31.61 32.27 30.40 30.88 29.10 28.57 28.10 27.97 27.86 28.48 29.32 29.23 28.32 28.67 28.51 27.08 25.61 26.03 26.79 26.78 26.11 25.21 25.57 25.23 24.67 25.23
34.52 21.60 26.04 20.34 27.46 27.40 25.01 26.91 27.28 27.20 27.23 26.82 27.54 27.03 32.69 28.69 28.74 28.83 29.85 29.71 27.66 27.75 29.37 28.77 28.98 28.96 28.96 28.86 29.16 30.37 28.76 27.63 27.13 25.25 24.60 25.93 26.23 26.66 25.81 25.46 25.55 25.25 24.29 23.03
26.61 21.79 13.77 16.47 23.38 22.50 13.53 22.64 24.85 26.24 28.62 27.99 22.92 24.82 23.33 24.58 26.72 26.00 25.92 27.75 27.49 26.71 28.16 28.14 28.52 28.78 29.15 28.43 29.00 27.74 27.22 25.92 22.97 22.31 22.52 22.98 23.90 24.59 24.83 24.32 24.10 24.20 23.43 23.19
25.04 18.82 16.66 10.10 11.32 3.41 21.35 27.95 26.02 24.20 25.06 24.37 23.19 19.22 22.68 23.32 25.00 25.81 27.05 26.78 27.20 27.99 28.19 28.81 28.31 28.19 28.34 28.12 27.23 26.26 25.31 22.88 22.91 21.98 21.00 21.23 22.41 21.70 22.12 21.89 21.43 21.66 21.90 21.24
28.95 25.10 19.89 9.49 8.00 17.33 22.26 24.55 23.05 20.57 19.13 23.65 22.27 23.73 23.34 24.22 23.84 23.50 28.14 28.40 26.61 27.52 28.66 28.48 28.29 27.75 26.55 25.81 24.16 22.78 22.05 22.24 21.71 21.18 21.01 20.92 20.22 18.65 18.62 17.29 17.54 18.25 17.74 17.37
25.16 26.50 20.99 8.60 6.25 -0.73 17.48 23.89 26.00 24.38 11.95 19.41 20.21 17.61 19.96 21.69 13.94 18.42 26.88 27.90 27.91 28.80 28.18 26.44 25.57 25.59 24.54 22.36 21.09 20.42 19.31 17.83 17.92 18.69 18.66 18.02 16.59 14.04 13.30 13.73 13.24 13.66 13.05 13.65
8.27 8.88 12.27 14.50 11.02 12.05 20.47 21.99 24.55 7.87 13.90 20.65 20.60 21.91 21.97 18.92 21.80 25.12 27.10 27.17 27.91 26.70 26.08 25.47 24.08 22.83 21.85 20.43 19.20 17.23 16.64 15.02 16.20 15.30 14.07 12.46 11.88 9.87 9.31 8.93 9.12 8.35 7.72 8.64
13.92 7.14 5.18 4.61 0.62 4.02 22.39 21.14 15.82 19.90 25.61 24.87 25.01 24.47 24.26 24.90 25.50 26.00 26.19 25.98 25.47 24.85 24.05 22.26 20.60 20.24 19.01 18.58 15.82 13.81 12.81 14.63 12.73 10.79 9.01 7.44 6.04 6.12 7.03 4.60 4.64 4.50 4.16 3.58
10.43 17.42 9.57 13.70 12.18 23.36 24.68 23.86 26.61 27.02 23.71 25.81 25.62 26.17 25.49 24.74 24.42 25.15 24.64 24.36 24.18 21.77 20.51 19.34 15.25 15.32 16.46 13.14 12.15 10.57 11.33 10.87 9.18 6.23 4.11 3.73 4.29 4.62 4.67 3.09 2.74 2.47 2.82 2.02
19.41 22.41 16.74 16.15 21.13 23.00 25.78 26.94 26.83 26.72 25.66 26.10 25.68 25.26 25.48 24.48 24.68 24.42 24.21 22.47 20.93 18.64 16.27 14.82 11.85 9.48 9.02 9.38 11.22 7.06 8.55 8.12 4.52 2.22 2.70 3.60 2.76 2.20 2.35 3.34 3.79 2.44 1.70 1.41
21.28 20.95 17.96 18.07 22.88 24.64 25.86 26.43 27.45 27.71 27.63 25.75 25.93 25.78 25.40 24.56 23.60 22.27 20.21 18.13 17.75 15.98 14.45 12.05 9.22 8.43 7.95 8.63 6.98 3.28 6.36 4.10 2.40 2.59 2.59 1.50 1.39 0.43 0.38 1.32 1.19 2.14 4.01 5.38
24.42 21.89 18.78 17.07 24.56 24.03 24.79 26.61 26.88 25.93 25.53 25.35 24.75 22.79 21.53 21.43 20.58 19.04 16.72 16.51 14.60 12.68 11.21 8.86 6.83 6.00 4.84 2.72 2.99 2.87 -1.23 -0.11 1.17 0.91 1.19 0.79 0.49 0.13 0.35 0.21 0.64 7.70 10.50 12.52

GFSCGP_sfc_wetblb_015.txt.gz
Wetbulb
40.82 36.13 33.39 36.69 38.43 37.86 35.86 35.12 34.23 37.43 42.09 37.99 39.25 37.79 40.71 42.73 42.58 40.56 38.54 38.98 39.04 38.88 40.06 40.13 40.14 39.63 39.71 39.76 39.98 40.32 41.24 42.69 45.08 47.66 48.94 50.10 50.68 51.62 54.04 55.69 55.84 55.97 55.86 55.06
36.92 33.82 39.82 40.99 40.60 39.40 37.52 35.14 34.26 37.98 40.94 37.96 37.92 37.69 40.04 42.46 42.28 40.37 38.57 37.98 38.21 38.31 38.36 38.93 38.40 38.23 38.18 38.33 38.75 39.43 39.82 40.37 41.80 44.22 45.62 46.37 45.07 45.59 49.26 50.35 52.59 53.66 53.47 53.04
35.46 39.83 42.80 41.06 38.98 38.10 36.43 34.96 34.46 35.55 38.03 37.45 34.88 33.66 38.16 41.11 39.45 40.00 39.37 39.31 38.80 37.52 36.70 36.53 36.96 36.08 36.08 36.77 36.22 38.58 39.19 39.61 39.64 40.48 41.81 42.65 43.01 42.89 43.11 46.17 47.44 47.16 50.32 50.81
37.22 41.93 40.81 38.33 38.19 38.53 34.16 38.85 37.87 36.92 32.65 29.42 35.68 26.86 34.63 38.12 36.41 36.97 36.69 35.83 36.09 36.65 37.01 36.81 35.97 35.66 35.36 35.35 35.92 37.31 38.72 39.04 39.46 39.17 38.27 37.03 37.03 36.71 38.48 39.64 39.83 41.04 43.35 46.88
37.73 37.16 36.07 36.28 37.98 39.47 36.55 37.57 35.49 34.48 31.45 30.15 30.46 27.67 32.10 35.64 33.36 34.28 34.60 35.41 35.36 35.80 36.01 35.66 35.61 36.65 36.39 35.46 34.18 34.90 37.31 37.88 38.15 38.17 37.74 36.96 35.78 35.79 35.90 36.74 36.61 37.53 39.02 40.96
37.40 38.36 38.12 38.42 38.99 38.84 38.60 35.59 34.52 34.24 31.86 24.58 30.80 30.21 29.95 31.77 34.80 33.69 34.77 35.37 35.95 35.57 35.43 35.70 36.37 36.45 35.20 34.96 33.78 33.47 34.45 35.40 36.57 36.39 35.95 35.62 35.16 35.46 35.25 35.23 35.12 35.72 36.03 36.91
36.24 36.72 37.67 39.15 35.45 37.25 36.28 33.32 27.09 24.24 22.51 24.18 32.12 28.94 32.71 34.40 36.17 35.80 34.29 33.74 34.33 34.44 33.97 33.47 33.39 33.56 33.60 32.85 32.89 33.92 32.84 32.69 33.42 33.97 33.92 33.70 33.44 33.56 33.93 33.59 33.87 33.71 34.23 34.20
32.28 30.88 36.73 38.69 37.57 35.92 34.33 35.41 29.48 23.54 21.32 23.75 30.58 26.91 32.90 33.52 34.66 34.98 34.81 33.87 34.94 34.90 34.88 34.03 33.22 32.75 32.54 32.49 31.82 31.64 31.49 31.28 31.83 31.98 31.73 31.83 31.79 31.50 31.63 31.92 32.08 32.43 32.42 33.34
34.32 34.01 37.85 38.66 38.80 40.15 34.51 32.12 35.82 28.78 21.42 22.90 28.53 31.61 34.12 34.31 32.85 33.29 32.90 33.13 32.27 32.49 32.57 33.24 33.13 32.43 32.34 31.84 31.07 30.76 30.40 30.22 30.73 31.04 30.92 30.33 30.29 29.60 28.94 29.03 29.50 30.10 30.60 32.33
36.51 30.93 38.00 36.52 38.01 37.58 36.69 39.13 30.05 29.62 18.14 16.26 24.40 26.53 28.64 31.57 31.08 31.51 30.55 30.19 31.01 32.02 31.44 31.19 32.24 31.86 31.62 31.60 31.13 30.71 30.91 29.80 29.41 29.86 30.34 30.41 30.13 30.17 29.05 28.05 27.45 27.89 28.83 29.30
37.77 35.63 33.21 36.05 34.10 33.72 33.62 31.25 33.99 33.45 28.61 19.99 17.17 23.85 32.59 33.80 32.97 31.04 30.68 31.07 30.23 29.78 30.19 31.74 30.35 30.81 30.65 30.20 29.52 29.37 29.48 29.38 28.80 28.86 29.25 29.38 29.09 29.28 28.73 27.60 27.40 27.15 27.11 27.96
37.46 34.53 25.62 31.96 36.24 37.13 35.90 33.83 33.34 28.71 24.49 25.43 28.35 26.68 33.48 31.42 31.50 31.51 30.35 31.25 30.67 30.52 29.40 31.23 30.56 30.40 30.87 29.82 29.37 28.74 28.32 28.49 28.80 28.62 27.84 27.76 28.42 28.10 27.05 27.25 26.89 26.22 25.90 26.31
39.15 31.03 21.84 24.52 29.25 34.34 32.01 33.07 32.85 33.44 31.20 27.31 24.66 25.59 32.31 30.84 30.99 31.49 30.51 30.93 31.94 31.98 29.74 29.91 28.80 27.42 27.45 27.08 27.25 27.23 27.28 27.58 28.09 27.86 27.00 26.47 26.21 25.74 25.78 25.78 26.63 26.86 25.94 25.14
41.31 34.49 26.77 22.79 23.87 29.38 27.26 28.79 30.14 30.63 26.03 22.92 24.79 26.87 31.49 32.10 31.45 31.50 32.15 32.78 30.05 30.43 29.34 27.77 27.18 27.08 27.14 27.18 26.71 26.90 27.10 26.94 26.79 26.20 25.32 23.93 24.06 24.59 24.82 25.09 24.89 25.06 25.16 24.11
36.29 25.69 29.37 29.68 30.33 29.24 28.43 27.85 28.59 26.37 27.60 23.09 26.01 25.47 29.60 31.31 25.91 26.44 27.49 30.36 30.23 29.25 27.76 27.31 26.86 26.84 26.40 26.94 27.83 27.85 27.43 27.56 27.08 25.98 25.14 24.52 24.67 25.53 25.14 24.68 24.89 24.66 24.19 24.51
34.12 22.40 25.68 19.04 27.34 27.28 24.60 25.94 25.97 26.12 26.04 25.44 25.97 24.88 31.57 26.02 26.92 26.24 27.75 27.93 26.82 27.41 27.61 27.06 27.07 27.09 27.16 27.23 27.44 28.37 27.37 26.64 26.12 24.51 23.83 24.75 24.30 25.01 24.90 24.64 24.82 24.62 24.19 23.65
28.07 22.19 15.46 14.71 24.10 21.51 12.56 21.70 23.71 24.49 26.02 24.06 20.37 24.68 21.74 23.26 25.49 24.05 23.82 24.95 25.17 25.54 26.14 26.11 26.44 26.92 26.97 26.79 27.53 26.35 25.46 24.48 21.86 20.97 20.01 20.82 22.02 22.05 22.57 22.73 22.27 21.42 20.59 20.88
25.79 19.48 13.65 7.88 7.61 0.98 20.09 24.70 25.49 23.86 24.04 22.65 21.71 17.78 20.54 23.40 23.84 25.42 25.43 24.79 25.46 26.13 26.80 27.49 26.78 26.20 26.36 26.14 25.43 24.73 23.82 21.64 21.86 20.12 18.68 18.86 20.43 18.61 18.77 18.26 17.39 17.26 17.42 17.01
29.22 23.49 9.14 7.02 -1.13 13.62 20.68 23.40 22.43 21.58 18.26 21.53 19.40 21.26 22.45 23.43 21.56 20.70 25.34 25.80 25.23 26.16 27.18 26.65 26.19 25.65 24.80 23.17 21.82 21.73 20.91 21.24 20.60 19.67 19.29 18.26 16.17 13.96 14.19 12.26 12.46 13.14 12.78 12.39
25.22 26.91 18.53 5.82 8.16 1.51 16.23 22.90 24.99 23.39 12.66 17.44 15.15 17.88 18.48 21.25 13.36 16.77 25.24 26.85 27.11 27.49 26.96 25.69 24.69 24.12 21.98 19.28 20.18 19.38 18.50 16.96 16.31 17.16 16.61 15.46 13.75 9.86 9.63 9.92 8.88 9.20 8.62 9.35
5.48 4.73 16.36 15.99 13.52 11.70 18.61 21.15 24.56 7.44 13.36 16.95 18.68 19.95 21.13 18.45 20.41 24.01 25.51 25.41 26.89 26.02 25.51 24.46 22.35 20.35 19.03 18.65 17.53 15.76 14.99 13.22 14.43 13.56 12.30 10.68 10.15 7.81 6.92 6.54 6.86 5.86 5.04 5.95
13.01 7.90 1.92 -0.55 -3.96 3.95 22.55 20.23 16.26 19.89 24.21 23.51 23.11 23.69 23.68 24.21 24.56 24.75 25.23 25.14 25.21 24.61 22.62 21.80 20.19 18.95 17.48 16.76 14.45 12.69 11.69 13.31 10.56 8.44 6.94 5.81 3.54 3.96 6.02 3.14 3.35 3.24 2.70 1.88
11.77 16.14 9.04 13.02 11.42 22.29 23.37 22.68 25.18 25.76 22.31 24.86 24.17 25.08 24.71 24.31 23.79 24.56 24.05 23.96 24.16 23.13 20.81 18.70 15.21 14.92 15.22 11.90 11.44 9.28 9.92 9.33 7.54 1.32 -1.13 -0.54 1.77 3.65 3.69 1.38 0.91 0.57 1.08 0.87
18.00 20.34 16.28 15.04 19.82 21.28 23.13 24.60 25.35 25.73 25.14 25.80 25.69 25.51 24.89 23.54 23.96 23.69 23.80 23.26 21.12 18.18 16.03 13.90 10.89 8.40 7.49 8.57 10.50 6.16 6.70 6.35 -3.93 -5.67 0.14 2.67 2.38 1.53 1.40 2.41 2.12 0.21 -0.60 -0.61
18.99 19.81 14.76 15.94 22.03 22.56 23.69 24.78 26.34 25.28 25.65 24.61 24.23 23.97 24.16 23.81 23.42 23.05 21.96 19.86 18.38 16.30 13.93 11.00 8.69 8.04 7.12 7.44 4.88 1.42 4.02 -0.62 -1.91 -0.43 1.94 1.63 1.91 0.88 0.82 1.71 1.12 1.89 3.89 5.31
23.58 21.53 18.34 16.73 24.50 23.18 24.37 26.51 25.86 25.03 25.14 25.00 24.20 22.95 23.24 23.19 22.82 20.69 17.98 16.99 15.03 12.54 10.53 8.43 6.94 5.59 3.07 0.07 -0.71 -1.85 -4.15 -6.62 -5.88 -0.49 1.15 1.21 1.01 0.86 0.91 0.17 0.05 7.24 10.24 12.59

GFSCGP_sfc_wetblb_018.txt.gz
Wetbulb
39.38 35.45 32.77 35.82 37.84 36.18 34.57 33.51 33.24 35.75 40.32 37.18 37.47 36.52 39.40 41.94 38.13 35.96 35.99 36.44 36.20 36.21 37.58 37.95 37.89 37.33 37.54 37.72 38.33 38.67 38.99 39.52 42.49 44.66 46.19 46.37 45.66 46.47 50.47 52.51 52.88 54.39 56.03 55.33
36.03 32.90 38.77 38.74 38.02 37.24 35.15 33.20 33.51 36.49 39.43 36.90 36.35 36.52 39.50 39.52 39.55 37.74 36.76 35.84 35.74 35.57 35.62 36.50 36.14 36.29 36.34 36.27 36.79 37.79 38.19 38.32 39.10 40.47 42.80 43.83 42.97 43.60 45.62 46.47 45.53 45.57 50.85 52.07
34.81 38.83 40.97 39.19 36.99 36.03 34.41 33.43 33.02 34.88 36.59 36.08 33.53 32.79 37.10 36.46 36.93 37.58 37.13 36.78 36.13 34.63 33.85 34.20 34.56 33.85 34.91 35.03 35.34 37.11 37.57 37.91 37.86 38.02 39.04 38.92 39.29 38.51 38.84 38.96 39.24 40.27 44.15 47.23
35.79 40.13 39.18 36.72 36.90 37.40 33.32 38.33 37.57 35.70 31.90 28.78 33.13 25.59 32.60 35.74 33.87 34.56 34.39 33.58 33.54 33.65 34.24 34.37 33.86 33.41 33.28 32.85 34.47 35.82 36.69 36.76 37.69 37.48 36.86 35.72 34.86 34.06 34.79 35.21 36.04 37.38 38.18 38.17
36.49 35.92 34.99 35.70 37.12 38.51 36.24 36.37 34.58 33.08 30.36 27.89 29.15 26.65 30.39 33.61 31.05 32.31 32.33 33.23 33.08 33.25 33.51 33.17 33.28 34.15 33.41 32.74 31.96 32.59 34.77 35.18 35.22 35.44 36.26 35.66 34.55 34.55 35.05 35.06 34.86 35.23 36.05 36.34
36.91 37.69 37.71 37.59 37.33 36.98 37.40 34.94 33.81 31.76 29.77 23.64 29.46 29.00 27.78 30.47 33.15 32.03 32.93 33.08 33.58 33.07 33.06 33.20 33.77 33.64 32.09 31.67 31.15 31.52 32.21 32.31 33.02 33.04 32.91 32.70 32.29 31.71 31.59 31.47 31.46 32.31 33.77 33.91
34.71 35.54 37.24 38.22 34.99 35.08 34.31 32.05 25.92 23.99 21.73 23.62 29.95 26.74 30.89 32.86 33.58 35.06 32.75 32.07 32.63 32.40 31.99 31.77 31.47 30.88 30.67 30.05 29.92 31.51 30.78 30.59 31.05 30.90 30.65 30.65 30.13 30.07 29.54 30.00 29.95 29.71 30.28 30.87
31.80 30.85 35.68 37.49 36.84 34.77 32.70 33.60 28.25 23.56 20.23 23.41 28.15 26.13 31.40 31.59 32.72 33.92 33.83 32.77 32.92 33.93 33.93 32.57 32.09 31.51 30.67 30.25 29.39 29.39 29.63 29.55 29.91 29.72 29.44 29.40 28.98 29.08 28.97 28.55 28.69 28.97 28.89 29.56
30.89 32.23 35.87 36.55 36.92 38.43 33.19 30.70 34.71 29.27 21.24 20.92 27.36 29.36 31.08 32.26 30.87 31.37 31.20 31.77 31.41 31.91 32.53 32.46 32.71 32.18 31.41 30.28 30.03 29.70 28.91 28.82 29.52 29.60 29.32 28.93 29.09 28.11 27.22 27.12 27.30 27.35 27.87 29.59
35.98 30.44 35.68 35.28 37.06 36.33 34.53 37.56 28.72 28.11 19.16 15.88 23.75 25.47 27.63 29.14 29.04 30.05 29.75 29.80 30.35 30.68 30.89 31.75 30.93 30.60 30.62 30.50 30.30 29.54 29.28 28.04 27.82 28.41 28.45 28.51 28.21 28.24 27.59 26.89 26.14 25.90 26.50 26.80
37.34 35.19 32.00 34.37 33.26 33.11 31.78 30.80 32.61 32.04 26.84 19.35 15.83 22.92 30.93 32.22 31.56 30.08 29.50 30.42 29.99 30.04 30.20 30.12 30.99 30.70 31.07 31.01 30.27 29.42 28.75 28.19 27.88 27.48 27.13 27.07 27.18 26.85 26.62 25.95 25.71 25.49 25.33 25.53
36.90 33.63 25.58 31.16 34.39 35.85 34.28 32.78 32.09 25.99 23.53 25.34 25.24 25.99 33.53 33.59 32.81 31.57 30.35 31.09 31.09 31.69 30.43 30.31 28.72 28.57 28.05 28.30 27.63 27.95 27.76 28.06 27.78 27.48 26.52 26.15 25.90 25.51 25.22 24.64 25.06 25.28 25.18 25.66
38.00 30.43 19.92 26.02 29.80 33.91 31.32 32.30 32.02 31.56 28.63 21.34 22.25 24.30 32.30 29.98 30.67 31.64 30.80 30.21 31.01 30.57 27.99 28.85 27.05 26.54 26.43 25.76 26.12 25.57 26.20 26.67 27.09 26.74 26.00 25.25 24.92 24.31 24.18 24.28 24.66 24.80 24.65 24.44
41.76 33.42 28.70 26.47 25.81 29.73 27.40 28.53 29.23 29.77 24.23 22.72 24.43 26.14 29.30 29.79 30.74 31.16 31.03 31.18 29.96 29.61 28.07 26.06 25.59 25.34 25.45 25.38 25.50 25.36 25.34 25.91 26.14 25.26 25.04 23.88 23.44 23.81 23.97 24.25 23.60 23.32 23.47 22.95
37.08 27.86 30.34 30.41 30.63 29.89 29.20 28.59 28.06 26.77 27.01 22.74 26.23 24.45 28.91 29.09 28.70 28.68 29.27 29.47 30.04 27.96 26.73 26.23 25.70 25.29 25.07 25.55 25.93 25.39 25.50 25.59 25.78 25.16 24.91 24.23 24.13 24.03 23.61 23.19 22.93 23.19 23.32 23.10
33.88 25.30 25.94 19.56 27.92 27.77 24.64 26.58 26.51 27.28 27.13 26.18 27.13 26.24 32.90 28.81 25.84 25.50 27.19 26.95 26.96 27.35 27.28 26.27 26.22 26.13 25.52 25.49 25.84 26.55 26.37 25.93 25.71 23.85 22.63 22.91 22.47 22.60 22.44 22.25 22.05 21.43 20.74 20.18
28.86 24.92 18.41 14.84 23.05 21.47 13.57 19.68 24.54 25.90 26.04 24.49 20.18 23.85 21.21 24.45 26.15 24.96 24.58 25.37 25.57 25.10 26.29 26.34 25.72 25.85 26.08 26.02 26.55 25.14 24.92 23.91 21.17 19.87 18.30 18.59 20.05 19.68 19.80 18.91 18.15 17.49 16.67 16.98
26.48 20.13 19.66 12.84 9.68 1.58 21.50 22.87 24.21 23.23 23.58 21.85 21.59 17.16 20.64 24.12 23.25 24.92 23.75 24.34 25.07 25.65 25.96 25.64 25.07 24.83 25.07 25.14 24.54 23.61 22.98 21.27 20.53 18.41 16.25 16.82 18.20 15.30 15.67 15.02 13.98 13.88 13.89 13.29
28.99 24.92 16.32 10.24 4.55 13.70 20.71 23.15 22.34 20.94 18.87 20.91 20.54 18.96 22.56 22.85 21.13 19.99 24.47 25.13 24.91 24.79 26.20 26.40 26.09 25.18 23.58 22.61 22.11 21.27 20.01 20.07 18.85 17.78 17.77 16.20 14.11 11.16 12.03 9.43 10.02 10.70 10.14 9.51
25.89 25.85 19.72 1.95 1.64 2.23 16.70 22.93 24.40 22.99 12.13 16.20 16.21 16.28 18.19 20.38 12.60 17.27 24.11 26.16 26.49 26.77 26.19 25.75 24.78 23.21 20.80 19.48 20.08 18.73 17.50 15.97 15.32 16.56 15.22 13.97 12.44 6.20 7.73 8.43 7.30 7.76 6.94 8.01
9.61 12.38 17.53 13.87 1.85 8.19 18.12 20.45 23.35 8.96 14.48 15.04 17.18 20.23 19.87 17.97 21.77 23.56 25.12 24.81 26.03 26.14 25.60 24.86 23.02 20.78 18.93 18.19 17.20 15.53 14.78 12.89 13.93 12.80 11.53 9.82 9.41 6.71 5.99 5.48 5.88 4.90 4.09 5.21
13.33 10.37 9.73 9.14 9.28 6.34 21.91 20.35 16.62 20.06 22.11 22.60 22.86 23.27 23.00 24.40 24.54 24.54 24.65 24.53 24.96 24.54 24.29 22.90 19.74 17.88 16.83 16.16 14.41 12.59 11.75 12.78 10.11 8.19 6.24 4.84 2.24 3.32 5.63 1.69 2.16 2.13 1.48 0.61
11.39 16.91 9.18 13.26 12.90 22.83 23.15 23.11 25.79 24.79 22.72 24.80 23.88 24.43 24.87 24.27 23.73 24.28 23.97 23.85 24.03 24.36 22.35 20.81 17.96 16.12 15.28 12.65 11.13 9.50 10.00 8.70 6.70 0.78 -3.69 -3.08 -0.36 2.33 3.01 -0.24 0.55 0.09 0.10 -0.81
17.01 19.80 15.19 14.46 19.09 21.07 23.68 26.06 24.83 25.46 25.28 25.94 25.96 25.46 24.59 24.10 24.31 24.18 23.21 23.17 22.62 20.45 18.11 14.29 12.10 9.84 8.85 8.99 10.96 7.55 5.77 5.40 -6.09 -10.15 -4.21 -0.36 -1.16 -0.01 -0.59 2.15 2.46 0.55 -0.70 -0.91
18.14 18.94 14.25 15.17 21.02 20.81 22.67 23.73 25.04 25.39 25.16 24.71 24.59 24.87 24.95 24.12 23.32 22.79 22.23 21.70 20.97 18.06 14.85 12.24 10.20 9.20 8.00 8.48 7.02 1.68 3.44 -2.16 -4.74 -5.46 -0.72 -1.16 -0.92 -3.13 0.03 1.50 1.40 1.99 3.86 5.21
21.28 20.93 16.95 14.48 25.03 24.17 23.73 25.70 26.18 25.15 24.90 24.60 24.29 23.19 22.63 23.02 23.14 22.36 21.02 19.95 17.79 14.60 11.30 9.15 7.63 6.63 4.66 2.83 3.83 -0.07 -5.70 -7.46 -9.10 -3.58 -0.69 -0.69 -0.05 -0.30 0.50 -0.05 -0.01 7.24 10.44 12.82

GFSCGP_sfc_wetblb_021.txt.gz
Wetbulb
38.30 34.86 32.69 35.29 36.56 34.66 33.29 32.35 32.51 34.01 38.50 35.27 36.15 35.36 38.34 38.90 36.31 34.06 33.78 33.78 33.84 34.31 35.60 35.91 35.84 35.58 36.16 36.58 37.06 37.23 37.48 37.91 39.46 42.81 44.65 44.50 42.94 45.34 43.76 44.11 44.29 48.29 50.79 53.57
35.15 32.19 38.13 37.58 36.89 36.05 33.22 31.04 32.00 35.11 37.65 36.31 35.46 35.30 38.44 37.39 35.90 35.36 34.52 33.43 33.54 33.22 33.31 34.21 33.87 33.93 33.84 34.23 35.42 36.20 36.68 36.94 37.50 38.46 39.24 40.69 40.22 39.73 38.87 39.46 39.33 39.71 40.61 42.94
33.82 37.75 39.45 37.88 35.32 34.15 32.84 31.96 31.47 33.64 35.49 34.42 32.45 31.22 35.26 34.20 35.12 35.75 35.15 34.52 33.55 32.25 31.81 31.95 32.03 31.11 31.52 32.04 32.75 34.64 35.10 35.98 36.52 37.47 37.67 37.55 37.47 36.80 36.55 36.32 36.57 36.89 37.50 37.64
34.89 38.54 38.23 34.88 35.11 35.44 31.71 36.60 36.15 34.81 31.52 28.56 32.02 25.50 31.06 33.63 32.13 32.96 32.64 31.62 31.44 31.68 32.18 32.15 31.31 30.31 30.15 30.42 31.73 33.16 33.84 34.17 35.32 36.15 35.94 34.80 33.52 32.54 33.45 34.08 34.43 34.77 34.89 34.83
35.69 35.65 34.25 34.21 36.01 37.77 35.30 35.59 34.19 32.01 29.45 27.00 28.13 25.87 29.40 32.35 30.01 30.57 30.91 31.42 31.08 31.20 31.48 31.28 31.21 31.58 30.56 30.22 29.24 29.81 31.76 31.73 32.03 32.50 32.96 31.98 31.08 31.30 31.03 31.08 30.87 31.75 32.27 32.45
36.36 36.82 36.55 37.43 36.25 37.24 36.74 34.07 32.88 30.61 28.73 22.86 29.03 28.76 26.60 29.97 32.00 30.47 31.19 31.52 31.78 31.36 31.08 31.09 31.32 30.94 29.51 29.12 28.91 29.14 30.06 29.75 30.06 30.33 29.94 29.43 28.77 28.70 28.79 28.74 28.59 29.32 30.21 30.69
32.87 34.93 35.98 36.87 33.50 33.85 33.39 31.46 25.47 23.56 21.58 23.29 28.12 25.61 30.26 31.54 31.60 32.89 31.74 30.88 31.04 30.99 29.78 29.60 29.35 28.78 28.41 28.03 28.59 29.52 28.88 28.35 28.62 28.67 28.52 28.30 27.72 27.49 27.09 27.03 27.14 27.13 27.58 27.89
30.55 30.30 34.84 36.53 36.19 33.46 31.58 32.34 26.37 20.02 19.93 23.08 27.29 25.60 31.18 30.07 31.01 33.24 33.35 32.22 31.14 30.33 30.79 30.14 29.63 29.03 28.56 28.33 28.09 28.35 28.47 28.11 28.40 28.54 28.00 27.68 27.32 27.08 26.71 26.46 26.47 26.32 26.40 26.83
30.21 31.69 34.39 35.38 36.38 37.19 31.61 29.19 33.44 28.47 16.91 20.04 27.05 28.59 29.53 30.47 29.64 30.21 30.27 30.47 30.02 30.48 30.48 30.64 30.99 29.95 29.00 28.32 28.18 28.36 28.37 28.73 28.24 28.08 27.68 27.28 27.17 26.50 25.77 25.73 25.54 25.25 25.62 27.76
35.35 30.24 34.49 33.92 35.65 34.71 33.76 36.02 28.28 26.88 18.57 16.32 23.94 25.05 27.62 27.62 28.65 29.44 29.45 30.03 29.85 30.53 31.04 30.93 30.88 30.52 29.89 28.89 28.30 27.60 27.36 27.26 27.66 27.70 27.38 27.08 26.36 26.41 25.64 24.79 24.45 24.26 24.47 24.93
36.36 34.34 30.95 33.14 32.28 31.87 31.55 30.44 31.23 30.64 26.95 20.49 16.31 24.07 30.11 30.78 30.15 29.66 30.35 30.70 29.88 29.86 30.55 30.76 30.06 29.99 29.91 29.09 28.29 27.61 27.43 26.96 26.38 26.74 26.00 25.65 25.05 24.95 25.16 24.41 23.81 23.98 24.07 24.38
37.29 33.26 25.60 30.47 33.44 33.51 32.28 32.06 32.41 28.11 24.37 24.41 24.72 26.92 32.32 32.87 31.95 31.57 30.69 31.04 30.63 30.79 30.02 29.75 30.43 28.93 28.45 28.35 27.77 27.02 26.31 26.00 26.05 25.76 24.80 25.14 24.53 24.39 23.84 23.57 23.79 23.93 23.71 24.29
37.97 30.23 21.14 28.41 29.70 31.25 30.26 30.61 30.82 30.69 28.61 23.13 22.75 25.30 32.07 30.28 31.01 31.65 30.89 30.30 30.80 31.11 29.99 29.17 27.61 27.05 26.64 26.01 25.64 25.58 25.74 25.83 26.27 25.34 24.82 24.59 24.33 23.45 23.20 23.46 23.90 23.82 23.52 23.12
41.40 33.23 31.05 27.76 27.47 29.54 27.75 28.74 29.24 29.12 24.13 27.66 28.21 27.65 27.55 29.95 30.50 30.75 30.87 30.92 30.63 30.31 29.05 26.46 25.08 25.24 25.37 24.82 24.65 24.25 24.52 25.34 25.65 24.71 24.43 23.70 23.14 23.06 22.73 23.16 22.61 22.21 22.16 21.16
37.53 29.20 29.21 29.90 28.96 30.07 29.17 28.39 27.91 27.04 26.32 23.66 25.49 24.61 27.77 29.87 30.65 30.57 31.68 31.26 29.78 30.25 27.34 26.08 26.81 25.13 23.80 23.84 24.15 24.07 24.11 24.55 24.44 23.56 23.72 23.23 23.04 22.79 22.11 21.60 21.26 20.68 20.13 19.70
32.76 25.45 27.09 24.50 29.23 30.15 29.44 29.95 29.38 30.29 30.01 27.90 28.50 26.99 32.88 28.94 28.92 25.82 27.56 27.72 27.77 28.34 27.08 25.83 25.54 25.62 25.11 24.95 25.01 25.01 24.57 24.28 24.23 23.50 21.99 21.64 21.27 21.20 20.61 19.67 18.73 18.22 17.85 17.12
30.85 25.99 24.71 26.03 23.85 24.44 20.98 21.96 25.33 27.20 27.56 26.91 23.43 27.58 20.91 24.45 25.92 25.47 25.23 26.05 26.01 25.72 27.40 26.58 25.86 25.82 25.80 24.97 26.16 24.39 24.16 23.96 20.87 19.60 16.95 17.14 18.47 17.71 17.00 16.34 15.83 15.29 14.30 14.48
28.20 25.97 23.93 18.74 13.97 14.29 23.95 22.81 24.79 24.15 23.96 23.03 21.94 18.82 20.93 24.56 24.23 25.96 24.48 24.66 25.25 25.44 25.36 25.42 25.35 24.91 25.13 24.85 24.01 23.73 23.41 20.91 19.69 17.28 14.92 15.90 16.23 13.79 13.88 13.09 12.17 12.05 12.03 11.38
29.76 27.20 18.78 18.43 10.63 17.66 22.09 23.08 21.75 20.88 19.82 22.25 22.87 21.11 22.95 23.07 20.02 19.13 23.92 23.86 24.14 24.09 25.12 25.63 25.57 24.99 23.57 23.34 23.12 21.83 20.03 19.63 18.15 17.18 16.83 14.95 13.28 10.65 10.84 7.43 8.53 9.45 8.90 8.30
25.28 26.43 24.92 9.79 9.47 8.61 18.94 22.81 24.37 24.10 12.89 17.42 18.92 18.29 19.06 20.13 13.64 18.41 23.26 25.13 25.06 25.78 25.89 25.76 25.20 23.86 22.27 20.96 20.98 19.28 17.27 15.57 14.67 16.33 15.51 13.63 12.23 6.01 5.55 7.69 6.68 7.11 5.03 7.45
13.67 17.35 19.75 16.73 15.29 11.46 17.34 20.55 23.71 10.15 16.34 16.01 18.33 20.16 19.45 17.39 21.67 23.89 24.19 23.90 25.68 26.07 25.95 25.02 23.35 22.38 20.81 18.74 17.75 16.44 14.84 13.18 14.32 12.76 11.49 10.56 9.41 5.46 5.16 3.83 4.74 3.74 2.95 4.74
14.18 11.20 11.17 10.05 2.79 6.28 22.01 20.88 17.76 20.89 21.32 21.66 21.58 23.37 22.33 23.22 24.60 24.02 24.30 24.31 24.85 24.93 24.68 25.30 22.16 19.92 17.30 17.06 15.78 14.04 12.52 13.28 10.64 8.98 8.88 6.50 0.55 1.74 3.79 -5.40 -0.86 -1.53 -1.06 -1.20
14.97 19.14 13.92 16.76 15.47 22.59 23.31 23.74 25.90 24.58 22.58 23.56 23.92 24.65 24.69 24.00 23.45 24.36 23.47 23.17 24.06 24.66 24.00 22.99 19.95 16.96 15.74 13.22 12.11 11.38 11.25 10.28 8.41 3.70 2.06 -3.75 -1.48 0.84 0.72 -5.59 -1.28 -1.04 -2.73 -2.81
17.48 19.33 15.98 16.57 19.38 20.54 23.13 25.17 24.59 25.18 25.13 25.84 25.93 25.64 24.63 24.06 23.72 23.65 23.03 23.29 22.90 21.62 20.04 17.23 15.13 13.75 11.17 9.37 11.36 7.99 8.72 7.51 0.57 -0.31 0.26 -0.71 -2.32 -2.03 -2.25 1.45 1.91 -0.33 -1.81 -1.60
19.00 19.49 14.92 14.83 20.43 20.52 23.12 24.45 25.82 25.58 25.03 24.33 24.42 24.96 24.48 23.63 23.79 22.58 22.99 22.11 22.13 20.69 16.63 14.90 15.24 13.50 10.33 8.82 7.14 5.80 6.43 2.30 -0.90 -1.05 0.59 -1.21 -2.89 -4.33 -1.43 0.13 0.45 1.28 2.77 4.03
20.62 20.37 16.70 14.56 23.22 23.34 24.56 25.17 26.62 25.23 25.07 24.34 23.35 22.70 22.65 23.00 23.70 23.25 22.58 22.46 20.83 17.96 13.57 12.25 10.20 8.96 6.57 4.88 3.89 2.83 -1.15 -2.52 -2.88 -0.10 0.70 -1.36 -1.48 -1.52 -0.12 -0.59 -0.78 6.59 10.90 13.36

GFSCGP_sfc_wetblb_024.txt.gz
Wetbulb
37.06 34.52 32.63 35.03 35.76 34.15 32.63 30.91 31.89 32.78 36.62 34.85 35.72 35.14 38.50 38.72 34.90 32.56 31.73 32.10 32.06 32.21 33.33 33.47 33.53 33.03 33.53 34.29 34.88 35.44 36.37 36.84 39.03 40.98 41.88 41.55 37.75 40.02 39.16 38.74 38.89 39.87 40.73 43.00
34.18 32.02 37.55 37.02 36.28 34.82 32.35 30.65 30.86 34.05 35.96 35.29 34.59 34.12 37.29 35.56 34.45 33.84 32.74 31.77 31.83 31.23 31.49 32.29 31.72 31.38 31.30 31.70 32.59 34.06 35.16 35.70 36.95 37.30 37.36 37.73 37.02 36.94 37.38 36.89 35.68 36.11 36.93 37.74
32.96 36.70 37.91 36.80 33.82 33.07 31.76 31.26 30.20 32.61 33.70 33.54 31.39 30.90 34.11 33.06 33.82 33.94 33.38 32.66 31.84 30.81 30.23 29.95 30.19 29.39 29.49 29.58 29.84 32.33 33.41 34.58 35.54 36.31 36.87 36.13 35.62 34.42 33.63 32.66 32.29 32.35 33.45 34.49
33.81 37.29 37.44 33.59 33.75 34.10 29.85 34.83 34.67 33.10 30.94 28.17 30.92 24.95 30.16 31.75 31.01 31.68 31.31 30.31 30.17 30.30 30.24 29.99 29.24 28.66 28.54 28.68 29.25 30.17 31.30 32.36 33.36 34.13 33.44 31.97 30.80 29.21 29.35 29.37 30.24 30.95 31.44 31.57
35.56 34.49 33.29 33.64 34.82 35.94 33.95 35.31 33.71 31.77 29.20 26.43 27.11 25.19 29.34 31.47 30.27 29.94 30.16 29.96 29.61 29.34 29.55 29.35 28.90 29.55 28.60 28.44 27.45 27.68 29.17 29.75 30.15 30.44 31.03 30.46 28.77 28.62 28.11 28.06 28.56 28.67 29.49 30.04
35.35 36.39 36.41 36.57 34.99 36.14 35.78 33.66 32.02 29.27 28.09 22.07 28.93 28.53 26.49 28.77 31.17 29.69 30.63 30.48 30.51 30.13 29.70 28.61 29.23 29.11 27.92 27.50 27.35 27.26 27.81 27.79 28.42 28.77 28.42 27.91 27.10 26.47 26.97 26.35 26.66 26.90 27.52 28.10
32.68 34.45 35.57 36.13 33.06 32.85 32.46 30.62 25.21 23.07 21.27 23.19 27.29 24.88 29.04 30.48 30.88 31.57 31.70 30.38 30.08 30.05 28.87 28.28 27.45 27.04 27.09 26.79 27.21 28.13 27.24 26.74 26.92 27.24 27.07 26.79 25.98 25.65 25.31 25.16 25.12 25.06 25.21 25.13
29.31 29.05 34.51 36.48 36.17 32.73 30.94 31.58 26.24 19.90 19.61 23.08 26.52 24.72 30.65 29.73 30.67 31.40 32.89 31.24 30.36 29.30 29.25 28.74 28.49 27.50 27.01 27.24 26.93 27.14 27.03 26.89 27.22 26.88 26.28 26.18 26.09 26.34 25.71 25.00 24.50 24.56 24.31 24.57
29.68 31.40 33.57 34.32 35.28 36.69 30.69 28.65 32.34 26.95 14.88 18.82 26.58 28.62 29.31 29.93 29.04 29.27 29.28 29.83 29.05 29.12 29.18 29.30 29.12 28.05 27.00 26.66 27.12 27.48 27.51 27.38 27.05 26.96 26.71 25.93 25.88 25.15 24.57 24.41 24.44 23.88 24.60 26.11
35.08 30.06 33.27 32.92 35.18 33.93 33.02 34.91 27.71 26.25 18.44 17.41 23.80 24.61 28.26 28.95 29.15 28.42 28.48 28.88 29.16 29.59 29.78 29.76 29.60 28.98 28.59 28.96 29.20 28.53 28.51 27.24 26.83 26.82 26.25 25.75 25.49 25.06 24.22 24.21 23.84 23.63 23.93 24.32
35.27 34.03 29.95 32.48 31.13 30.71 31.24 29.74 30.34 30.06 27.15 22.43 17.06 24.81 29.51 30.38 29.59 28.71 29.41 30.59 29.84 29.91 30.23 30.17 29.76 29.64 28.77 27.92 26.65 26.08 26.08 26.26 25.72 25.78 24.79 24.47 24.00 23.40 23.33 23.22 22.87 22.91 23.16 23.19
36.55 32.33 25.66 30.13 32.04 32.91 31.67 31.60 31.75 28.29 24.27 23.43 24.61 27.96 30.33 30.19 30.54 31.27 30.60 31.13 30.76 30.72 30.34 30.29 30.14 29.20 28.37 27.77 27.04 26.42 25.94 25.57 25.26 24.29 23.98 24.56 23.62 23.53 22.91 22.63 22.90 23.14 22.67 23.34
37.55 30.95 21.82 26.07 29.98 29.89 29.63 30.53 30.78 30.16 28.39 23.12 25.25 26.32 31.05 29.01 29.74 31.33 31.11 30.74 31.01 31.03 29.96 29.35 28.82 28.44 27.58 26.69 26.75 25.90 25.56 25.18 25.48 24.25 23.69 23.55 23.53 22.93 22.61 22.71 23.05 22.99 22.33 21.76
40.84 31.93 28.50 26.96 27.16 30.45 28.10 29.46 29.76 31.31 28.86 29.95 28.98 30.67 28.44 30.30 31.46 31.16 30.84 30.82 30.37 29.99 30.17 28.20 26.44 26.93 26.66 26.53 25.25 24.87 24.62 24.78 25.27 24.07 23.55 23.19 22.81 22.64 22.02 22.15 21.75 21.12 20.61 19.27
38.47 28.84 29.83 30.08 29.27 29.22 29.17 29.23 28.09 28.02 30.16 29.36 30.98 29.13 29.56 32.66 31.78 31.07 31.05 30.55 29.16 29.32 28.51 27.44 27.16 26.69 26.06 24.11 24.03 23.90 24.07 24.18 24.07 23.08 23.10 22.92 23.24 22.03 21.11 20.29 19.30 18.77 18.52 18.09
34.29 31.42 29.59 24.33 29.58 28.70 27.35 29.46 28.03 30.36 30.26 28.28 27.51 27.73 33.23 31.84 29.38 27.69 30.36 30.40 28.44 28.41 29.38 29.20 26.99 26.56 25.52 25.08 24.64 24.96 23.75 23.45 23.51 22.68 22.62 22.22 21.06 20.79 19.41 18.43 17.72 17.28 16.64 15.72
31.67 27.82 23.14 25.94 23.66 25.19 24.78 27.01 28.88 29.11 29.02 30.77 27.36 31.19 23.85 25.52 27.29 27.13 26.63 26.44 27.11 27.50 28.31 28.30 26.74 25.60 25.55 24.72 26.03 23.61 24.19 23.02 21.54 20.88 18.40 18.03 18.14 17.15 16.11 15.52 15.14 14.54 13.36 13.39
30.78 27.19 26.60 20.20 20.80 16.99 24.73 21.22 25.88 30.22 30.05 28.00 23.16 20.79 22.44 23.88 24.55 26.67 25.86 26.05 26.31 26.08 25.49 25.79 26.09 24.52 24.70 24.76 24.08 23.68 23.81 21.73 20.63 18.65 15.80 15.71 15.66 13.42 13.39 12.40 11.62 11.54 11.34 10.52
30.96 28.39 20.94 21.17 18.26 21.84 24.19 22.27 21.63 22.25 22.09 22.74 25.02 24.34 23.86 23.63 20.89 20.73 24.42 24.48 25.15 24.43 25.10 25.01 24.71 24.18 23.07 23.32 23.39 22.22 20.82 20.65 19.32 17.49 16.62 14.83 13.05 10.25 10.27 6.78 8.04 8.84 8.12 7.68
27.77 29.59 29.24 15.74 15.52 15.44 18.96 22.47 24.72 24.88 15.98 19.60 23.04 22.22 19.34 20.49 14.76 19.19 23.94 24.44 24.54 24.69 24.91 25.15 25.09 24.37 23.61 23.02 21.77 20.21 18.84 17.66 16.72 16.62 16.53 13.88 11.62 6.33 5.45 7.87 6.09 6.32 3.37 7.42
20.20 21.01 23.18 19.92 20.39 19.76 20.25 21.41 24.28 14.80 20.05 17.13 19.26 20.29 19.68 18.73 21.91 24.32 24.39 23.40 24.88 25.03 25.08 24.70 23.62 23.38 23.04 20.80 18.89 18.20 16.24 15.66 14.68 13.83 11.78 10.18 9.40 5.28 4.53 3.53 4.03 1.01 -0.10 4.37
18.02 17.76 13.24 15.39 16.18 15.90 22.37 21.59 19.89 23.01 22.09 22.89 22.20 22.67 22.92 23.81 24.61 23.91 24.22 24.35 24.01 24.30 24.70 25.16 23.08 22.43 20.91 18.53 17.65 16.32 15.07 13.81 11.49 9.73 8.90 8.06 3.43 5.39 4.06 -5.39 -3.91 -4.54 -5.09 -3.95
16.77 19.91 16.28 19.53 18.39 22.52 24.23 23.73 25.63 25.33 22.89 22.67 23.17 24.26 24.34 23.39 23.10 23.90 23.26 22.86 23.48 23.74 23.84 23.31 21.83 21.01 18.26 15.47 15.60 14.55 12.93 10.72 7.97 5.25 4.60 2.21 3.03 3.44 3.80 -2.73 -0.60 -3.72 -7.19 -5.89
17.95 19.97 16.83 17.58 19.43 21.20 23.50 25.12 24.65 24.88 25.07 25.57 25.40 24.57 24.19 24.15 24.14 23.55 22.87 22.59 22.23 21.58 21.75 18.61 15.27 15.41 15.07 11.38 13.30 10.38 9.70 8.08 1.55 -1.67 2.82 3.64 2.02 1.95 1.71 3.01 2.54 -5.29 -5.93 -2.85
20.18 19.55 15.55 15.97 20.18 21.61 23.66 24.31 26.20 25.50 25.25 24.02 24.05 24.98 24.88 23.53 23.07 22.31 21.78 21.17 21.37 21.41 18.87 16.05 17.09 16.99 15.56 10.72 8.35 5.78 6.27 3.44 0.01 -0.61 3.02 2.57 2.85 1.25 1.38 1.21 -0.24 0.75 1.64 2.26
20.69 19.25 17.25 15.29 23.38 23.63 24.43 26.67 26.75 25.06 24.97 24.30 23.50 22.18 22.04 22.76 23.04 22.24 21.68 21.89 21.22 20.34 15.04 13.92 13.38 12.44 8.97 7.55 5.53 1.81 1.19 0.73 -0.50 1.51 2.86 2.64 2.09 1.56 1.03 -0.34 -0.76 6.68 11.32 14.16

GFSCGP_sfc_wetblb_027.txt.gz
Wetbulb
37.62 35.60 33.77 35.68 36.28 35.51 34.13 32.32 33.18 33.93 37.36 36.63 36.41 35.84 39.36 38.55 36.30 33.96 33.09 33.45 33.25 33.35 34.47 34.32 34.27 34.37 34.99 35.71 36.41 37.06 38.94 39.63 42.88 43.19 42.95 40.76 38.66 38.68 37.72 37.77 38.32 39.54 40.52 41.32
34.56 32.65 37.37 37.18 36.13 35.05 32.87 31.85 31.98 34.56 36.31 36.16 35.19 35.28 38.63 38.15 36.63 35.63 33.94 32.95 32.81 32.80 32.76 32.97 32.98 32.92 32.82 33.14 33.80 35.42 36.85 38.18 40.04 40.29 39.82 39.42 37.61 36.09 35.52 35.66 35.10 35.86 37.08 37.89
32.87 36.40 37.21 36.77 33.88 33.38 32.28 31.79 30.90 33.21 34.29 34.55 33.01 32.78 34.96 35.26 34.95 34.17 34.15 33.59 32.74 32.16 31.45 31.56 31.77 31.10 31.73 31.34 30.98 32.53 34.02 35.76 37.30 38.89 38.58 37.36 36.61 35.56 34.05 33.22 33.01 33.28 34.11 34.62
33.73 36.74 37.04 33.42 33.45 33.86 29.96 34.45 34.20 33.15 31.81 29.17 32.83 27.56 32.77 33.22 32.72 32.48 31.57 31.08 31.11 31.31 31.42 31.38 30.78 30.32 30.42 30.05 30.73 31.13 31.87 32.68 33.56 34.82 34.52 33.76 32.51 30.55 30.76 31.03 31.80 31.97 32.45 32.56
36.26 34.45 33.73 33.62 34.70 35.45 34.20 34.36 33.30 32.78 31.06 29.16 29.68 27.46 30.90 31.92 32.53 31.28 30.85 30.64 30.93 31.14 31.01 30.47 30.11 30.05 29.71 29.77 29.41 29.74 30.83 31.02 31.47 32.06 32.82 31.71 30.12 30.52 30.60 30.65 30.63 30.56 30.86 31.14
35.88 36.45 36.59 36.98 35.22 35.57 35.16 33.51 31.95 30.03 28.97 23.10 29.32 29.62 28.84 30.98 32.91 31.51 31.54 31.19 31.18 30.81 30.69 30.43 30.47 29.94 29.00 29.23 29.47 29.67 29.69 29.18 30.07 30.76 30.71 30.69 29.89 29.45 29.44 29.23 29.09 29.08 29.26 29.39
32.86 34.43 35.05 36.02 33.09 33.27 32.11 31.02 25.48 23.84 22.52 23.85 27.75 26.10 30.59 33.52 33.33 33.71 32.62 31.16 30.87 31.03 30.20 29.57 29.15 28.68 28.64 28.62 28.83 29.39 28.99 27.93 28.71 29.18 29.12 29.28 29.02 29.08 28.47 28.32 28.16 27.99 27.80 27.47
29.73 28.53 34.59 36.58 34.96 32.36 30.60 31.50 26.88 20.85 20.65 24.20 25.99 25.09 31.29 32.25 31.64 32.01 33.07 32.38 31.10 30.17 30.04 29.53 29.27 28.78 28.63 28.94 28.79 28.71 28.40 27.91 28.31 28.70 28.43 28.77 28.69 28.46 27.83 27.76 27.63 27.23 27.30 27.11
28.96 29.90 33.04 33.68 34.34 35.93 30.97 29.01 32.49 26.37 15.56 21.30 27.34 29.57 33.24 31.15 30.75 30.39 30.17 30.35 30.10 30.32 29.96 29.87 29.68 28.76 28.47 28.47 28.55 28.76 28.37 28.14 28.35 28.17 28.25 27.89 28.04 27.60 26.82 26.65 27.17 26.98 27.16 27.32
34.69 29.91 32.67 32.87 34.94 34.30 33.11 34.83 28.34 26.63 18.39 16.02 24.21 26.61 30.21 30.15 30.91 29.59 28.95 29.54 30.10 30.19 29.90 30.18 30.06 29.64 28.81 28.93 29.14 29.07 29.18 28.49 28.13 28.03 27.98 27.48 27.02 26.80 26.43 26.48 25.74 25.67 26.06 26.24
35.79 34.41 30.69 32.62 31.32 31.23 31.29 29.56 30.09 30.42 27.66 21.66 18.33 25.17 31.28 32.76 32.23 30.66 30.40 30.99 31.04 30.86 30.95 31.08 31.01 30.58 29.74 28.85 28.12 28.17 28.11 27.67 27.39 27.44 26.77 26.73 26.11 25.76 25.99 25.87 25.72 25.64 25.70 25.37
37.21 33.57 26.70 29.77 31.79 32.64 32.09 31.57 31.72 27.56 24.31 23.81 24.78 27.76 31.63 31.35 32.34 32.24 31.18 31.68 31.77 32.30 32.13 31.89 31.76 30.66 29.14 28.23 27.43 27.02 27.28 27.37 27.47 26.96 26.33 26.37 25.76 25.71 25.41 25.10 25.10 25.41 24.69 24.82
37.11 31.86 24.81 27.42 30.40 30.24 29.87 30.69 31.16 30.31 28.47 23.51 23.48 25.40 31.05 30.28 30.51 31.37 31.28 31.07 32.18 32.42 31.15 31.33 30.71 29.85 29.40 28.13 27.54 26.86 26.62 26.71 26.80 26.08 25.96 25.33 25.19 24.92 24.80 24.71 24.81 24.59 23.74 23.06
41.35 32.73 30.58 31.11 29.56 31.12 28.41 29.57 30.25 31.25 24.23 26.28 29.27 31.36 28.76 30.84 31.76 30.79 31.12 31.82 31.28 31.46 31.71 30.54 28.71 29.76 28.96 28.45 28.11 26.95 26.36 26.46 26.59 25.56 25.12 24.96 24.79 24.74 24.47 24.31 23.55 22.70 22.08 20.94
39.14 31.88 29.38 30.38 30.14 30.66 30.98 30.05 29.08 29.06 31.47 29.52 31.68 30.69 30.71 32.73 32.38 31.94 31.37 30.84 30.33 30.49 29.86 29.79 29.44 28.57 27.61 27.22 27.41 27.03 26.95 26.16 26.12 25.23 24.90 24.96 25.51 24.34 23.38 22.50 21.22 20.40 19.83 19.44
36.30 32.97 30.04 26.81 29.79 29.21 27.89 29.12 29.66 31.48 31.26 30.30 31.51 30.13 33.71 33.95 31.40 30.48 31.21 30.90 30.05 30.04 30.29 30.35 29.50 28.69 28.04 27.51 27.43 27.03 26.62 26.05 25.80 25.18 25.09 24.73 23.95 22.36 21.33 20.14 19.33 18.51 17.72 16.86
34.56 30.57 30.75 29.56 24.81 28.01 26.69 28.59 28.69 29.61 29.49 32.09 26.48 33.41 29.27 29.46 30.61 30.10 29.92 30.22 30.24 29.37 29.22 29.54 29.30 28.13 27.65 26.49 27.64 26.20 25.63 24.46 24.10 23.33 21.64 21.64 21.29 20.57 19.13 17.72 16.82 16.09 14.81 14.50
32.09 31.54 31.90 19.53 23.02 20.52 25.48 22.01 29.28 31.05 30.24 27.91 27.02 24.30 28.25 30.10 27.87 28.20 28.17 27.98 27.58 28.12 28.27 28.03 28.51 27.55 26.63 26.20 25.09 24.85 24.20 22.86 22.72 22.14 20.57 18.94 18.83 17.06 15.32 14.12 13.50 13.09 12.87 11.97
32.20 30.87 23.37 21.38 21.72 24.11 22.84 21.95 25.19 26.76 25.57 26.98 30.45 28.78 25.69 24.49 23.32 23.22 25.79 26.03 27.67 27.56 27.11 26.48 26.69 26.63 25.03 24.89 24.90 23.27 22.16 22.32 21.54 21.05 20.17 18.39 16.93 13.93 13.14 10.75 10.69 10.81 10.20 9.80
30.05 32.46 30.72 20.79 19.81 18.39 20.41 22.44 25.15 26.45 20.76 22.16 30.33 28.61 20.51 21.43 16.70 21.70 24.67 25.77 26.07 25.86 25.84 26.00 25.50 24.53 23.83 23.78 23.03 21.29 20.65 19.53 19.74 20.35 19.64 16.75 14.19 10.20 9.01 10.54 8.84 9.00 7.38 9.48
22.51 22.80 25.90 22.34 21.04 23.94 21.75 20.79 24.77 18.84 23.15 19.30 21.80 20.88 20.96 21.09 24.46 25.34 25.46 23.73 24.99 25.36 24.99 24.99 24.05 24.22 24.41 22.51 20.37 19.96 18.55 18.40 18.79 17.07 15.27 12.98 11.84 8.89 8.54 6.90 7.45 5.22 4.46 5.92
21.57 22.02 20.25 21.26 19.39 19.23 23.30 22.41 22.07 25.87 22.91 22.22 22.15 23.15 23.20 24.19 24.80 24.63 24.90 25.23 24.55 24.35 24.31 25.64 23.23 23.13 23.11 20.67 19.55 18.89 17.98 17.03 14.78 13.10 11.33 9.40 6.01 8.79 6.83 1.39 2.37 1.42 1.15 0.95
20.54 25.65 22.28 23.96 23.10 23.43 26.22 25.64 26.82 26.52 24.78 23.34 23.78 24.30 24.66 24.09 23.77 24.35 23.83 23.51 24.14 23.95 23.81 23.72 22.73 22.17 21.80 18.23 17.94 18.13 16.76 13.81 10.79 8.79 5.95 3.71 3.59 4.84 3.82 0.14 1.84 2.98 0.89 0.50
19.51 21.42 20.15 21.06 20.72 22.35 24.78 25.44 25.53 25.67 25.36 25.55 25.45 24.81 24.23 24.07 23.79 23.63 23.15 23.31 22.72 21.85 20.50 20.13 17.52 17.52 18.48 15.23 16.53 16.10 12.96 11.04 6.48 4.25 4.39 3.77 2.80 3.87 2.31 5.53 4.54 2.31 1.35 1.91
21.97 21.03 17.13 17.81 20.79 22.28 24.36 25.04 26.41 26.50 25.70 24.42 23.78 24.46 24.42 23.72 22.79 22.70 21.97 21.29 21.03 21.04 19.32 16.87 18.74 19.82 20.00 14.68 12.70 9.92 10.24 8.15 5.48 3.98 4.82 4.46 2.98 2.15 4.30 4.74 4.35 4.59 4.86 3.80
20.98 19.09 18.42 17.18 23.96 24.46 25.39 27.79 26.86 26.11 26.15 24.17 23.46 22.45 22.52 23.50 23.65 22.19 21.37 21.21 20.72 19.91 17.09 15.43 16.21 15.29 15.44 11.14 9.28 5.78 4.97 5.44 4.36 3.88 3.57 3.14 3.39 2.77 3.46 3.13 3.06 8.08 11.89 14.20

GFSCGP_sfc_wetblb_030.txt.gz
Wetbulb
44.98 44.09 41.55 44.89 45.52 44.63 43.02 41.71 41.96 42.46 42.96 42.44 44.02 44.14 46.60 46.14 44.64 44.63 44.13 42.42 41.30 39.37 39.28 40.31 40.64 41.80 43.62 44.48 46.44 44.92 45.00 45.01 47.38 46.39 45.54 45.04 44.58 43.93 43.07 43.10 44.45 45.35 46.26 47.09
42.77 41.17 46.38 43.82 43.12 42.12 40.87 41.02 41.52 42.36 41.57 41.81 42.69 41.72 45.31 45.74 44.99 45.51 44.69 42.15 40.62 39.17 39.34 39.25 40.32 41.24 41.75 42.17 43.73 44.97 44.42 44.23 46.63 47.31 46.16 44.77 42.05 40.99 40.88 40.68 40.37 41.12 41.53 42.25
42.74 43.06 43.29 42.27 40.26 39.54 40.33 40.12 41.00 40.20 40.19 41.28 40.27 41.16 43.71 44.33 41.08 40.36 41.75 42.30 40.46 40.03 39.16 38.98 38.74 39.07 40.26 40.08 40.78 41.70 43.04 43.94 44.61 44.03 42.93 41.69 41.41 40.83 39.35 38.51 37.79 38.06 38.86 39.11
42.06 42.49 40.65 39.95 40.00 41.48 38.73 41.89 40.64 39.17 38.17 36.84 40.40 37.13 42.39 42.89 40.54 38.74 38.52 39.55 39.25 38.75 38.61 38.19 38.23 38.43 38.65 38.41 39.65 40.71 41.40 41.87 42.07 43.45 43.73 42.94 40.62 36.85 36.54 36.60 36.73 36.49 37.16 36.98
42.16 38.91 38.87 39.43 40.99 41.27 40.94 40.47 39.86 39.12 38.35 36.94 37.81 36.40 41.22 38.85 39.37 38.88 38.32 38.79 38.85 39.18 38.81 37.52 37.12 36.47 36.09 37.77 37.93 38.54 38.97 38.84 39.53 40.29 40.41 39.19 37.05 36.51 36.73 36.38 35.56 35.37 35.43 35.75
42.60 42.15 42.01 42.45 39.49 41.26 39.86 38.92 38.16 37.77 37.21 31.96 37.84 37.53 39.18 40.81 41.45 39.99 39.38 38.17 37.97 37.70 37.50 37.07 36.63 36.06 35.66 36.45 36.97 37.44 37.31 36.82 37.86 38.45 38.58 37.91 36.45 35.81 35.45 35.28 34.55 34.39 34.44 34.18
38.92 40.15 40.87 40.84 38.01 38.70 39.46 38.79 33.54 31.15 30.42 31.03 33.78 33.86 40.01 43.06 40.18 40.60 39.27 38.09 37.73 37.47 36.98 36.21 35.06 35.09 35.18 35.17 35.66 36.07 36.08 34.81 36.09 36.39 36.42 36.57 36.33 36.27 35.35 34.92 34.32 33.65 33.07 32.85
36.51 35.18 38.91 40.75 41.96 39.06 37.76 40.16 35.99 28.74 28.82 33.00 30.71 30.94 38.33 37.79 37.37 37.53 39.12 39.39 37.72 36.96 37.20 36.49 36.06 35.52 34.63 34.26 35.06 34.92 34.61 33.80 34.90 35.19 34.90 35.45 35.51 35.28 34.61 34.21 33.84 33.39 32.99 32.32
35.74 36.13 38.87 38.29 39.75 42.61 36.42 34.19 39.85 31.88 25.83 31.23 36.00 36.75 40.31 35.90 35.99 35.98 36.69 37.18 36.43 36.66 36.68 36.28 35.94 35.41 34.67 34.62 34.58 34.89 34.32 34.03 34.40 34.36 34.41 34.05 34.15 33.67 32.92 32.95 33.34 32.99 32.72 31.48
40.73 35.76 36.81 37.03 40.37 39.57 38.73 40.58 33.16 34.08 28.93 27.65 32.56 33.81 38.13 35.43 37.03 35.67 34.79 35.88 36.55 36.83 36.98 37.11 36.54 36.03 35.65 35.45 35.22 35.06 34.91 34.03 33.94 33.92 33.95 33.34 33.15 33.12 32.98 33.04 32.23 31.95 31.39 31.38
41.07 39.04 34.59 36.71 36.12 37.14 35.26 35.30 35.40 36.48 34.71 30.98 30.59 34.84 40.85 41.61 40.23 37.58 38.18 37.54 37.72 37.40 37.63 37.41 37.28 36.89 35.93 35.67 35.03 34.64 34.35 33.66 33.03 33.24 33.11 32.60 32.30 32.40 32.70 32.29 32.03 31.73 31.29 30.97
41.09 37.98 33.45 34.57 37.01 37.11 40.27 38.48 37.28 34.50 29.92 31.76 30.67 34.87 36.98 38.55 40.65 40.53 40.28 38.34 39.16 39.02 38.59 38.37 37.90 37.02 35.49 34.72 34.65 34.43 34.24 33.32 33.44 33.36 32.51 32.21 32.22 32.10 32.12 31.86 31.51 31.19 30.40 29.68
40.48 36.71 33.22 33.24 34.70 35.16 34.34 35.57 37.86 39.34 34.79 33.46 31.80 34.20 36.04 36.28 37.25 38.64 39.78 38.80 38.22 38.38 38.40 38.43 38.22 37.30 36.63 35.48 34.11 33.96 33.96 33.57 33.42 32.68 32.26 31.72 31.54 31.75 31.78 31.04 30.46 29.91 29.02 28.30
43.36 38.24 36.35 33.84 37.08 38.41 33.31 34.34 35.71 36.75 33.73 34.46 33.86 36.38 35.03 36.81 36.98 38.38 38.17 39.28 38.81 37.52 37.65 38.15 38.06 38.20 37.94 36.77 35.08 34.02 33.64 33.81 32.58 31.98 31.65 31.21 31.45 31.48 31.26 30.51 29.46 28.43 27.60 26.66
40.97 35.11 37.88 39.02 38.23 37.62 36.65 36.09 34.37 34.47 37.28 34.48 37.42 35.74 37.97 38.77 38.32 40.47 40.82 39.11 37.89 37.11 37.19 37.73 37.48 37.76 37.99 36.59 35.73 35.18 34.09 33.04 32.55 31.20 31.09 31.24 31.38 31.08 30.37 28.79 27.49 26.01 25.11 25.22
39.49 35.71 37.62 33.49 36.04 35.15 33.28 36.10 35.34 35.76 37.40 37.46 37.67 36.91 42.63 41.83 41.19 38.39 37.66 36.98 36.30 36.94 37.24 37.82 37.73 36.98 36.38 36.48 36.13 35.44 33.76 32.92 32.43 31.32 30.62 31.60 30.49 28.86 27.44 26.72 24.89 23.74 23.04 22.24
36.32 36.14 32.52 31.79 33.11 30.53 28.80 32.75 34.39 35.38 37.88 37.43 33.03 38.58 37.62 36.57 36.43 38.20 38.20 37.23 36.99 37.51 37.47 36.65 36.70 36.10 36.25 36.43 35.36 34.29 34.23 33.39 30.73 29.87 29.75 28.77 28.62 27.02 26.28 24.83 22.86 21.83 21.21 21.05
36.42 35.39 34.24 31.93 28.50 23.90 32.73 31.57 38.55 36.53 37.57 37.53 35.41 35.42 36.77 38.57 38.33 38.56 38.78 38.50 37.38 36.56 36.37 36.18 36.16 35.88 35.17 34.85 33.36 33.83 32.87 31.06 29.38 29.28 28.82 27.72 27.12 26.20 24.57 21.98 20.82 20.82 20.06 18.96
34.72 34.76 27.74 24.79 26.12 31.78 23.72 27.49 32.59 32.40 34.00 35.67 36.59 35.41 33.10 29.97 32.68 33.38 33.53 35.42 37.04 35.87 35.64 36.04 36.71 35.31 33.07 32.16 31.72 29.54 28.13 28.37 28.18 28.05 27.96 26.97 25.95 24.28 22.04 19.60 19.31 19.32 18.44 17.57
31.79 34.68 32.00 25.28 25.95 24.86 29.89 28.37 31.49 35.03 28.79 31.11 35.69 34.11 28.48 30.19 30.92 36.84 32.48 33.01 33.09 34.03 34.55 32.69 31.75 30.83 31.70 31.18 30.18 27.88 27.75 27.10 26.91 27.23 27.38 26.46 25.02 22.36 20.14 19.36 17.77 18.22 16.98 16.20
26.61 26.73 28.77 26.55 26.36 28.24 32.63 27.54 29.64 25.96 31.49 30.51 34.70 32.32 28.25 30.43 34.95 33.57 32.23 31.87 33.55 33.03 31.40 30.73 30.14 30.29 30.51 29.33 26.66 27.25 26.89 25.66 27.90 26.64 24.61 22.74 21.85 19.60 19.13 17.58 16.80 15.00 14.12 13.56
26.25 25.95 26.06 27.08 25.47 24.32 27.63 26.29 27.95 31.77 27.75 30.05 29.29 29.85 29.21 30.41 29.49 29.49 30.48 30.17 29.48 29.26 29.11 29.71 28.68 28.67 29.36 27.53 26.25 26.35 25.17 27.53 24.53 23.21 21.37 19.47 17.28 17.50 15.59 13.40 13.23 11.40 11.31 10.14
25.20 29.96 28.04 29.36 29.21 26.16 29.40 29.35 30.55 30.43 29.97 27.74 30.38 29.86 30.20 28.83 28.19 29.04 28.39 28.95 28.71 28.89 28.56 28.61 28.03 26.95 27.25 25.84 25.40 25.84 27.19 23.04 20.11 19.00 17.49 15.65 14.12 14.61 13.36 11.36 11.22 11.50 11.18 10.94
24.31 25.31 26.23 26.99 25.24 25.63 27.80 27.68 28.58 29.22 30.14 30.17 30.73 30.32 29.89 29.55 29.10 28.88 28.87 28.39 27.64 27.04 25.80 25.85 25.38 24.74 25.26 24.62 23.41 25.63 22.24 20.12 17.08 16.97 14.95 13.18 11.20 11.90 10.66 12.08 12.27 12.14 12.56 12.31
26.21 25.38 22.36 21.54 23.14 25.44 27.45 27.53 29.40 29.15 29.19 28.77 28.07 29.91 30.33 29.92 28.54 28.98 27.20 26.94 26.85 26.70 25.27 24.49 24.45 25.17 25.91 26.04 23.89 22.96 20.15 17.27 16.86 15.94 14.24 14.31 13.54 11.12 12.69 12.06 13.32 12.54 13.46 13.44
24.78 22.69 22.76 23.44 26.71 27.64 28.19 30.61 29.78 28.75 28.96 28.81 27.92 26.24 26.32 27.55 27.54 26.46 26.17 26.75 26.30 25.66 24.82 22.87 23.34 23.34 24.98 23.06 22.38 18.49 16.84 15.78 16.04 15.23 14.28 15.01 14.25 12.89 12.43 12.31 11.87 14.24 15.40 16.10

GFSCGP_sfc_wetblb_033.txt.gz
Wetbulb
49.05 45.47 43.19 46.39 47.44 47.46 46.12 44.54 44.05 47.03 46.03 43.95 45.49 46.10 47.94 48.07 47.00 47.51 48.78 47.83 46.32 44.57 43.81 44.18 44.64 46.41 48.07 50.07 47.12 47.93 48.01 47.98 48.31 47.55 47.48 46.82 45.96 45.91 44.88 45.09 46.18 46.52 47.47 48.57
44.54 42.21 47.93 49.00 47.56 46.12 44.40 43.07 43.54 46.74 45.23 43.18 44.51 44.56 47.42 48.74 47.64 48.17 48.72 48.13 46.46 43.76 42.75 42.90 43.96 45.56 47.11 48.52 47.07 46.51 46.39 47.94 49.16 49.73 48.59 46.86 45.09 44.13 43.01 42.76 42.24 42.71 42.88 43.44
44.20 45.97 45.95 45.32 43.99 42.55 43.46 42.52 43.43 43.57 43.20 43.52 43.08 41.97 44.53 47.85 49.18 49.12 47.70 49.24 47.17 44.11 42.80 42.07 42.47 44.18 45.81 46.56 47.26 46.81 47.25 48.43 48.33 47.18 45.64 44.13 43.54 43.08 41.07 40.00 39.16 39.65 40.02 40.31
45.07 47.81 43.67 43.29 43.14 44.24 41.31 46.31 43.80 42.64 40.73 38.38 43.72 36.68 44.87 47.44 45.10 44.60 44.68 45.66 44.90 44.05 43.47 42.65 41.70 42.80 44.01 43.95 45.07 45.95 46.08 46.40 46.54 46.61 45.64 44.74 42.88 39.29 38.89 38.00 38.11 37.93 38.52 38.45
43.66 41.65 41.34 41.41 43.50 45.28 42.96 44.05 43.26 42.80 40.50 40.31 41.07 36.85 42.98 47.10 45.03 44.11 43.75 43.90 44.13 43.60 42.45 41.34 41.57 41.17 41.29 42.39 43.18 43.78 43.39 43.07 44.10 45.02 44.94 42.73 39.59 39.11 38.45 37.85 36.73 36.45 36.68 37.02
44.66 44.38 44.34 44.59 42.08 44.23 44.04 42.14 40.85 40.78 40.33 33.40 38.98 38.96 40.84 43.14 42.50 45.72 43.85 43.26 43.10 42.07 41.74 41.42 40.99 39.95 39.67 40.08 40.88 41.66 41.11 40.66 41.38 41.84 41.78 40.41 38.83 37.98 37.34 36.87 36.02 35.65 35.65 35.55
42.63 42.33 44.04 43.91 40.77 41.24 42.43 40.32 35.68 33.08 31.77 32.20 37.59 37.83 41.63 45.62 43.06 44.77 42.93 42.24 42.04 41.66 40.86 39.72 38.38 38.48 38.59 38.58 38.89 38.93 38.79 37.92 39.39 39.86 39.97 39.73 38.90 38.51 37.21 36.55 35.83 35.01 34.37 33.90
39.08 37.54 42.90 43.35 44.03 41.79 39.46 41.26 36.78 30.07 31.86 35.20 33.21 32.38 39.84 44.90 43.31 42.02 45.22 42.96 41.73 40.22 40.21 39.44 39.01 38.49 37.64 37.13 37.38 37.41 37.37 36.65 37.73 38.17 38.18 38.60 38.57 37.79 37.07 36.64 36.10 35.17 34.15 33.53
40.07 40.13 43.76 43.17 44.42 45.57 39.17 36.99 43.26 35.34 30.44 32.10 37.05 39.26 43.78 39.61 38.64 39.71 41.42 41.08 39.49 39.08 39.42 39.55 39.22 38.50 36.80 36.45 36.55 37.05 36.58 36.51 36.84 36.82 36.79 36.66 36.85 36.23 35.43 35.47 35.36 34.55 34.15 33.17
44.61 38.76 40.59 40.34 41.54 42.13 41.22 43.47 33.95 35.43 30.72 29.55 36.20 37.94 38.83 36.98 38.68 38.79 38.51 38.95 39.16 39.51 39.87 39.72 38.58 37.65 37.48 37.32 37.22 37.11 36.77 35.84 36.16 36.19 36.18 35.61 35.47 35.36 35.06 34.86 33.97 33.69 32.55 32.76
45.17 41.64 36.54 38.16 37.47 38.56 36.89 36.90 38.22 39.03 37.34 33.20 31.76 37.05 45.45 44.56 43.24 40.20 39.35 40.22 40.25 39.95 39.93 39.59 38.94 38.28 37.90 37.80 36.97 36.32 36.06 35.63 35.24 35.45 35.15 34.78 34.28 34.38 34.46 34.14 33.75 33.31 32.88 32.48
44.23 41.76 38.20 37.87 40.93 42.89 42.46 40.09 39.44 34.69 31.24 33.96 34.90 36.69 41.41 46.30 46.15 43.30 41.67 41.37 41.99 41.24 40.76 40.45 39.80 38.53 37.29 36.69 36.37 35.99 35.94 35.53 35.20 35.06 34.53 34.09 33.82 33.74 33.54 33.24 33.29 33.40 32.06 32.02
42.56 38.05 34.95 36.36 36.99 37.13 35.75 38.81 39.44 39.25 36.41 34.25 32.82 36.56 40.52 40.82 43.01 43.41 42.82 41.50 41.57 41.01 40.81 40.55 39.78 38.33 37.23 36.64 36.17 35.77 35.73 35.19 35.20 34.71 34.04 33.36 32.98 32.96 33.10 33.04 32.64 32.54 31.38 30.29
44.01 39.94 37.83 35.16 38.89 40.16 34.91 36.20 38.08 37.98 33.40 34.79 35.96 39.12 37.22 38.86 39.70 41.11 42.50 41.93 41.43 40.84 40.37 40.40 39.92 39.23 38.46 37.44 36.68 36.33 36.13 36.23 34.90 34.34 33.30 32.84 32.60 32.89 33.33 32.59 31.56 30.88 30.44 29.06
41.72 36.03 39.69 40.09 41.45 41.87 39.57 37.51 36.66 35.05 37.16 35.02 38.63 39.12 42.96 40.84 41.10 42.34 42.76 42.71 41.20 39.85 39.89 39.85 39.66 40.07 39.80 38.75 37.65 36.72 36.59 36.02 35.35 33.45 32.72 32.63 33.08 33.18 32.94 31.13 30.18 29.07 28.27 27.98
39.78 34.95 37.79 35.20 39.61 39.78 37.35 39.30 39.05 37.03 37.64 38.22 39.49 39.94 46.90 44.04 43.88 43.19 42.65 41.81 40.61 40.29 39.85 39.89 39.84 39.62 39.65 39.45 38.62 37.08 36.28 35.37 34.73 32.87 32.10 32.88 32.13 30.93 30.06 29.00 28.08 26.67 25.72 25.06
36.70 35.25 33.74 31.73 36.77 36.03 29.78 35.09 37.63 39.03 39.39 39.58 35.86 40.78 41.32 42.14 40.82 41.30 41.75 40.40 39.94 40.50 40.45 39.69 39.39 39.03 39.25 40.25 38.52 38.06 37.57 36.10 32.66 31.12 30.42 30.11 30.39 28.74 28.15 27.87 26.28 24.92 24.27 24.15
36.24 34.38 34.60 32.50 32.69 26.12 36.65 43.53 41.27 39.65 41.07 41.16 40.47 38.66 39.78 39.75 40.80 41.48 43.61 40.91 39.91 39.68 39.80 39.84 39.90 40.00 39.48 40.28 38.95 38.78 36.86 34.35 31.35 30.51 29.97 29.31 28.80 27.55 27.34 26.04 24.50 24.09 23.91 22.57
39.70 36.72 32.82 30.12 30.25 35.28 37.63 31.07 35.90 36.39 37.18 42.43 40.51 38.40 35.61 34.63 36.80 37.37 41.11 41.96 41.29 40.31 40.15 39.73 40.43 40.31 39.17 37.06 36.10 33.38 31.76 31.91 30.28 29.46 29.50 28.52 28.03 26.96 26.01 23.91 23.13 23.43 22.65 21.60
32.19 38.42 33.90 28.51 29.05 28.45 35.43 34.68 36.46 39.65 32.19 38.33 38.97 36.28 32.50 33.86 33.52 40.17 36.22 36.35 37.89 39.20 37.13 36.71 36.84 35.23 34.44 33.80 32.24 29.34 28.91 28.56 28.31 29.22 29.53 29.04 28.17 26.61 25.03 23.98 22.59 23.15 22.22 21.41
28.69 32.04 30.26 31.39 30.00 31.86 34.53 30.60 35.88 30.23 33.36 33.94 38.37 34.98 32.42 33.96 37.36 35.89 35.24 34.96 35.35 35.01 33.02 32.83 31.90 31.71 32.55 31.61 28.71 28.20 28.18 27.49 29.21 28.33 27.31 26.69 26.49 25.30 24.81 23.53 22.84 20.97 19.49 18.79
29.81 28.45 28.46 31.16 29.22 27.64 30.37 29.26 32.06 33.73 31.59 33.28 35.93 33.87 33.22 33.63 32.23 32.91 33.36 32.36 31.87 30.30 30.30 30.83 30.19 30.33 30.98 28.68 28.20 27.70 27.12 28.62 27.34 26.12 24.64 23.28 22.67 23.02 22.38 20.04 19.24 18.08 17.09 15.41
27.89 32.39 31.99 32.66 31.32 27.66 30.13 29.15 31.48 31.62 33.69 30.70 32.88 33.79 34.35 31.24 30.07 31.12 30.46 29.60 29.33 30.00 29.89 30.06 29.46 28.33 28.66 27.50 27.58 26.91 27.67 25.97 23.59 22.52 20.95 20.26 19.42 20.33 19.14 17.13 16.60 14.96 14.85 14.99
26.62 28.23 29.92 30.35 26.48 28.32 28.13 29.35 29.94 31.27 31.48 32.36 32.53 32.19 32.42 31.30 30.10 29.41 29.62 29.56 29.14 28.41 27.69 27.46 26.90 25.81 25.34 25.75 25.67 27.89 25.83 23.52 20.92 20.56 19.12 18.11 16.32 17.29 15.93 16.93 17.24 16.12 16.34 15.06
27.90 27.73 27.17 23.49 24.35 26.22 28.79 29.35 30.95 31.01 30.44 30.38 30.52 31.72 31.47 30.88 29.22 29.57 28.36 28.03 28.03 28.22 26.82 26.18 25.75 25.72 26.31 26.25 25.57 25.25 23.06 20.88 20.71 20.49 18.58 18.75 17.35 15.56 15.62 15.70 16.59 15.91 17.28 18.24
26.85 25.24 24.52 25.09 27.85 30.39 29.59 32.46 32.46 29.97 29.86 29.82 29.24 27.24 28.04 29.80 28.89 28.28 27.81 28.39 28.07 27.28 25.94 24.41 24.59 24.08 25.55 25.59 24.54 23.47 21.72 19.92 20.19 19.73 18.66 19.14 18.22 16.56 16.77 16.07 14.74 19.42 19.73 19.27

GFSCGP_sfc_wetblb_036.txt.gz
Wetbulb
46.26 41.01 38.75 42.00 43.78 44.17 42.60 40.15 39.42 41.94 42.83 41.02 41.19 41.65 44.32 43.87 43.01 42.54 43.25 42.94 42.12 41.68 40.81 41.36 42.38 43.75 46.46 45.96 47.27 47.52 46.66 46.82 47.18 46.89 45.86 45.15 43.13 42.28 40.62 41.44 41.87 41.81 43.50 44.59
41.35 38.47 44.95 46.81 45.68 43.49 42.22 39.36 38.80 42.57 42.56 39.92 40.18 40.43 43.61 44.81 43.41 44.15 44.33 43.49 42.46 39.94 38.90 40.36 40.87 42.62 45.27 44.72 45.77 46.53 47.27 47.63 48.16 48.43 46.11 44.61 41.46 38.85 38.25 37.98 38.27 38.83 39.00 39.41
40.93 43.56 46.31 45.04 41.89 41.33 40.11 38.73 38.63 39.49 40.36 39.07 36.84 35.91 40.46 44.18 46.40 45.25 45.19 44.51 43.98 40.02 38.31 38.62 39.59 40.60 42.69 44.71 45.15 45.28 46.06 47.34 46.66 44.24 42.06 40.14 39.02 37.31 35.66 34.62 34.32 35.76 36.63 36.79
42.30 46.11 42.88 41.89 41.38 41.90 37.69 42.31 42.19 40.36 36.36 31.91 37.87 29.58 39.02 42.89 43.47 44.96 43.06 41.46 40.97 39.79 39.59 38.87 39.08 39.87 41.05 41.59 45.09 45.66 45.80 44.82 44.22 42.18 39.97 38.50 36.74 33.89 33.39 33.16 33.38 33.87 34.39 34.39
40.30 40.19 39.62 39.77 41.19 43.41 39.82 41.99 39.82 38.65 36.15 34.37 34.35 32.23 36.65 42.66 41.65 42.55 40.05 40.68 40.22 39.41 38.64 37.77 37.97 39.98 39.62 39.72 40.10 41.82 40.23 40.89 41.86 42.05 40.31 36.94 34.47 33.48 32.88 32.48 31.96 31.62 32.06 32.81
40.31 42.09 41.53 41.37 40.54 41.52 42.37 39.78 38.10 36.66 35.50 28.22 35.27 34.99 34.23 40.17 42.43 42.38 41.31 40.90 40.25 39.01 37.69 37.69 37.76 37.42 37.01 37.22 37.85 37.84 37.82 37.74 38.56 38.19 36.99 35.15 33.32 32.68 32.20 31.16 30.42 30.15 30.26 30.73
38.77 39.40 41.13 42.28 37.81 39.36 39.69 36.71 29.47 27.02 25.49 26.55 33.78 33.36 37.25 40.23 39.93 41.61 41.84 40.59 40.02 38.49 37.19 36.35 34.73 34.42 34.70 35.00 35.86 36.43 35.83 35.47 36.51 36.39 35.99 35.31 33.93 33.11 31.90 30.98 30.24 29.52 28.92 28.50
34.71 33.18 39.88 41.03 41.31 37.37 36.33 37.75 31.09 25.26 25.93 27.69 29.15 27.72 35.10 39.08 39.30 39.96 42.17 41.31 39.38 37.63 37.33 35.83 35.01 34.51 34.32 34.67 34.34 34.10 33.98 33.89 34.62 34.74 34.35 34.31 34.08 32.53 31.94 31.59 30.65 29.56 28.66 28.59
37.65 37.08 41.80 41.37 42.02 42.06 36.16 33.51 40.74 31.51 23.68 24.42 31.16 33.85 39.06 36.85 36.07 36.80 38.56 38.74 37.69 37.50 36.79 36.05 35.76 34.29 33.67 33.41 32.91 33.42 33.10 33.09 33.51 33.34 32.93 32.56 32.15 31.63 30.86 30.91 30.36 29.17 28.92 30.00
42.02 35.36 39.44 37.33 39.89 40.32 38.03 40.06 30.67 30.87 20.65 21.58 29.64 32.42 33.91 33.44 35.54 35.63 37.27 37.48 37.74 37.78 37.07 36.70 36.20 34.90 34.02 33.70 33.37 33.18 33.06 32.70 32.74 32.66 32.16 31.82 31.41 31.18 30.70 30.09 28.62 28.52 27.72 28.21
41.89 38.29 33.06 36.21 34.23 35.63 34.74 33.22 35.38 35.70 32.00 26.11 24.41 30.59 38.74 39.59 39.07 36.19 37.57 38.49 37.80 37.27 37.28 37.11 36.21 35.25 34.08 33.46 32.79 32.27 32.13 32.20 31.62 31.75 31.35 30.32 29.70 30.09 29.89 28.64 28.31 27.51 27.35 27.54
42.23 39.66 29.75 32.53 36.89 38.26 37.41 36.29 36.42 30.02 28.57 31.69 28.36 33.31 38.57 39.96 40.80 39.31 38.21 38.99 38.51 37.87 37.45 37.37 36.02 34.68 33.64 33.28 32.83 32.49 31.39 31.36 30.84 30.97 30.21 29.20 29.22 28.67 28.26 28.08 28.08 27.40 26.76 26.68
41.92 36.33 31.56 31.85 33.21 34.61 33.90 36.27 38.62 38.44 33.12 31.87 27.38 31.95 37.36 37.65 38.55 39.26 37.88 38.04 38.53 37.95 37.71 37.32 36.10 34.49 33.78 33.26 32.52 31.82 31.57 31.04 30.85 30.22 29.08 28.27 27.47 27.38 27.40 27.14 27.13 27.05 26.02 25.11
44.47 38.40 36.01 32.97 34.74 36.97 31.06 33.72 36.99 36.44 30.83 30.68 33.28 35.89 32.34 35.53 36.16 38.02 38.42 39.06 38.88 38.40 38.01 37.11 36.06 34.90 34.00 33.38 32.64 32.14 31.47 31.48 30.21 29.72 28.20 27.08 26.96 27.11 27.22 26.86 26.44 26.04 25.50 24.19
41.69 34.60 36.98 38.92 40.00 38.12 34.32 33.88 35.14 33.81 35.23 32.17 35.52 35.81 40.02 38.57 36.89 38.72 39.31 38.82 38.26 37.67 37.37 37.20 36.38 35.48 34.27 33.28 32.94 32.75 32.33 31.61 31.19 29.62 27.68 27.40 27.38 27.51 27.19 26.31 25.86 25.34 24.76 24.19
39.33 34.17 36.40 34.49 37.74 36.84 35.66 38.44 35.63 35.37 35.91 36.43 37.24 36.64 41.26 42.28 40.58 37.81 39.36 38.73 37.79 37.59 37.94 37.91 37.09 35.82 34.86 34.07 33.30 33.28 32.63 30.86 30.61 29.00 28.14 27.64 27.60 27.19 26.46 25.93 25.42 24.27 23.68 22.81
35.76 34.53 32.72 31.63 34.61 34.06 31.77 35.56 37.64 37.74 37.39 37.27 32.80 38.84 40.97 41.09 38.57 38.63 38.78 39.00 38.26 38.18 38.52 37.41 37.07 36.89 36.21 35.60 34.56 32.91 32.48 30.50 29.31 27.84 26.88 26.39 27.14 26.24 25.84 25.45 24.21 23.01 21.79 21.52
35.00 34.74 33.93 32.62 33.15 26.53 35.81 39.92 40.85 39.09 40.16 40.86 39.02 38.99 37.16 39.58 39.38 40.33 40.88 39.50 38.71 37.61 37.22 37.62 37.76 37.44 36.00 34.85 34.24 32.70 30.69 29.10 28.08 27.64 26.42 25.27 25.99 25.18 23.90 23.45 22.47 21.16 21.18 20.16
40.30 36.28 32.54 30.58 31.24 34.14 35.80 30.22 34.78 35.21 36.51 41.79 40.90 40.80 36.24 35.01 36.38 35.07 38.39 39.48 38.81 37.83 38.87 38.60 38.10 37.23 36.42 34.64 33.62 32.24 29.90 28.47 27.97 26.83 26.41 25.61 25.52 23.53 23.33 22.30 21.01 20.60 19.76 18.47
38.62 40.35 33.72 30.42 28.86 27.40 29.71 29.16 34.54 37.92 32.12 37.43 39.63 40.39 31.99 34.58 33.80 35.21 36.27 36.35 37.62 37.94 36.04 35.22 35.14 33.72 33.67 31.43 31.80 30.89 28.82 28.01 26.53 26.39 27.11 26.08 24.26 23.75 23.20 22.68 20.33 19.44 17.35 19.24
29.89 33.35 31.90 31.79 31.39 32.85 28.55 26.22 32.35 29.77 29.75 27.72 32.11 33.74 32.79 34.86 36.00 36.70 34.46 34.42 34.28 32.86 32.15 31.33 31.70 31.97 30.51 29.17 28.78 27.62 26.34 27.07 26.74 25.20 24.68 23.82 24.10 24.04 23.81 21.26 18.04 17.90 15.92 17.76
30.68 30.56 31.34 32.23 30.77 28.62 29.59 27.79 32.08 30.29 27.97 30.16 30.94 30.73 30.78 29.64 30.56 30.63 30.80 30.69 30.29 29.76 29.91 29.17 28.59 27.97 27.23 27.16 27.17 25.21 25.40 25.45 23.58 23.30 22.41 21.67 21.17 23.17 21.82 20.34 14.55 15.25 14.83 11.98
28.01 31.01 32.33 31.29 30.14 26.64 27.80 28.46 30.02 29.66 29.64 29.90 32.76 32.15 30.59 28.87 28.82 29.48 28.81 28.49 27.87 27.93 27.47 27.22 26.49 25.70 25.76 23.97 24.78 24.39 23.96 23.19 21.54 20.33 18.73 17.36 17.67 18.58 17.58 16.64 14.63 11.70 10.68 11.86
27.12 29.36 29.39 29.22 26.79 27.25 29.73 32.29 30.81 30.08 29.70 29.74 30.32 31.82 31.19 29.51 27.98 26.95 26.56 26.59 26.51 25.75 25.65 23.74 23.92 22.35 21.43 20.66 23.19 20.46 21.36 20.62 19.37 17.99 17.39 15.86 15.82 13.48 12.71 14.70 14.32 12.94 11.51 10.78
28.29 29.16 26.24 22.87 25.74 27.64 29.79 30.87 32.16 32.53 29.09 27.89 27.75 27.97 28.66 27.38 26.22 26.33 26.04 25.64 25.86 25.77 23.98 23.39 23.26 22.42 22.33 19.89 20.10 17.44 19.02 19.61 18.31 16.77 15.22 13.75 12.34 12.98 11.19 11.81 10.92 12.84 10.35 13.05
25.76 26.98 26.72 25.60 28.55 30.81 30.61 32.68 32.93 31.40 29.36 27.20 26.51 25.77 27.19 27.88 26.82 26.18 25.48 25.62 25.47 24.71 21.46 20.92 19.89 19.55 19.67 19.74 17.15 17.12 18.35 18.06 17.13 14.52 14.70 14.38 13.92 11.26 11.45 10.41 7.99 19.77 20.01 21.17

GFSCGP_sfc_wetblb_039.txt.gz
Wetbulb
41.93 37.49 35.45 38.44 39.42 39.72 37.93 36.15 35.54 38.24 41.36 39.15 38.31 38.51 41.07 42.44 40.63 39.54 39.28 39.29 39.68 39.27 38.72 39.94 41.53 44.18 44.33 44.58 45.61 46.30 46.36 46.52 47.23 46.62 45.21 43.44 41.09 41.01 40.50 39.66 39.16 39.88 41.24 41.50
38.54 35.46 41.16 42.75 41.75 40.62 38.86 36.55 35.95 39.13 40.49 38.88 37.99 38.02 40.77 41.74 41.07 42.23 42.07 41.29 40.89 37.10 37.37 38.92 40.06 42.70 43.27 43.69 44.91 45.84 46.71 46.97 47.48 47.10 45.24 43.00 39.86 38.05 36.77 36.12 36.15 36.68 37.29 37.54
36.97 40.98 44.07 42.39 40.23 39.39 38.06 36.41 35.61 37.38 37.99 37.37 35.32 33.95 37.63 41.19 42.98 42.03 43.21 43.56 42.47 38.82 37.19 37.63 39.16 40.43 42.25 41.77 42.90 46.61 47.28 47.50 44.71 42.83 41.15 39.17 38.00 36.89 34.16 32.96 33.19 33.94 35.06 35.57
39.38 43.82 41.84 40.19 39.48 40.23 35.35 39.82 39.96 38.30 34.85 30.61 35.25 28.68 35.77 40.24 40.90 40.65 42.74 40.57 41.46 38.28 37.78 38.32 39.03 39.19 41.69 41.59 42.89 45.73 46.45 44.28 42.86 42.13 39.78 36.74 35.19 32.84 31.58 31.24 31.66 32.36 33.31 33.53
38.19 39.61 38.98 38.60 39.79 41.27 37.70 39.96 37.90 36.94 33.50 31.76 31.87 29.76 34.25 39.83 39.50 42.94 42.40 41.55 39.46 37.91 37.62 37.56 38.75 40.47 40.88 40.63 41.96 44.19 44.02 43.11 42.07 40.84 38.40 36.01 33.19 32.93 32.26 31.29 30.66 30.46 31.43 31.84
38.85 40.27 40.48 40.32 38.67 40.22 40.39 38.32 37.25 35.25 33.34 26.40 32.63 32.72 31.40 37.75 40.77 42.26 38.92 38.02 37.81 36.92 36.86 37.18 38.16 38.85 37.99 37.87 37.98 38.74 41.27 41.27 41.20 38.34 35.75 34.82 32.89 31.87 30.79 30.09 29.63 29.70 29.59 29.85
36.42 37.46 39.05 40.62 37.13 39.01 38.41 35.48 27.67 25.98 24.39 27.02 32.37 30.77 36.45 39.83 40.62 41.41 41.61 38.57 37.22 36.92 35.75 35.71 35.69 36.35 35.75 35.66 35.70 36.22 36.25 35.61 35.69 35.84 34.82 34.09 33.00 32.37 31.10 30.04 29.76 29.14 28.40 27.81
33.49 30.15 37.86 40.13 38.85 36.28 34.77 35.61 29.23 23.54 23.82 26.12 28.96 27.05 34.31 40.15 40.20 39.00 41.52 40.68 37.25 35.66 36.17 35.44 35.23 35.18 35.36 35.46 34.84 35.21 34.21 33.72 34.15 34.69 34.11 33.79 33.17 32.74 31.87 30.87 30.13 28.90 28.36 27.83
33.24 33.21 38.67 39.20 41.35 41.58 34.29 32.80 38.58 30.93 19.61 22.29 29.37 32.68 37.34 36.94 36.84 35.64 37.02 37.60 36.82 36.26 35.23 34.16 33.93 34.01 34.00 33.93 33.61 33.57 32.83 32.67 33.39 34.14 33.86 33.26 32.56 32.23 31.48 30.08 29.21 28.55 27.95 28.65
39.83 34.02 36.72 35.82 40.20 38.08 37.18 38.87 31.62 29.98 20.03 19.13 26.81 29.06 33.91 34.15 36.42 35.30 35.70 36.28 36.52 36.38 34.72 34.16 33.62 33.09 33.62 33.84 32.98 31.90 32.60 32.98 33.05 32.98 33.23 32.62 31.63 31.33 30.59 29.89 28.17 27.84 27.14 27.17
40.58 38.23 31.70 35.09 33.55 34.70 34.47 32.89 35.23 35.87 30.32 24.89 22.73 29.71 37.03 39.63 39.70 36.08 37.03 37.41 37.12 36.13 35.36 34.49 34.18 33.55 33.37 33.15 32.18 32.29 32.26 31.96 31.46 31.86 30.71 30.23 29.75 30.00 29.53 28.37 27.60 26.73 26.24 26.21
41.51 38.11 27.07 31.32 35.39 37.18 37.72 35.64 34.19 29.91 28.50 28.09 27.31 33.14 37.17 38.04 39.41 38.09 37.90 38.29 37.99 37.93 36.54 35.16 34.19 32.98 32.46 32.35 31.81 31.53 31.77 31.63 31.68 31.00 30.16 29.12 29.15 28.54 27.93 27.48 26.51 25.97 26.15 26.03
40.91 36.20 29.08 30.09 32.53 33.67 33.18 35.43 38.41 37.34 31.17 29.35 26.11 32.80 36.36 36.11 37.58 37.52 35.98 36.39 36.97 36.45 35.07 34.82 33.34 32.26 32.33 32.33 32.06 31.73 31.44 31.13 30.33 29.95 29.04 27.75 27.39 26.99 26.91 26.46 26.35 25.92 25.30 24.78
44.44 37.65 36.11 33.08 33.46 34.45 31.50 34.13 36.80 37.21 29.61 30.88 33.44 36.15 34.86 34.65 36.69 36.59 36.03 37.18 36.29 36.34 35.94 35.07 33.59 33.66 33.30 32.80 32.33 31.52 30.98 30.99 29.92 29.28 28.27 27.22 26.95 26.90 26.96 26.53 26.02 25.71 25.17 24.32
42.41 34.55 35.49 37.98 37.48 36.62 34.12 33.86 34.95 33.56 35.54 31.92 36.12 35.56 39.82 40.52 37.86 38.68 37.58 36.28 35.86 35.81 35.67 35.59 34.93 34.25 33.26 32.37 31.97 31.75 31.47 31.23 30.46 29.08 27.70 27.27 26.74 26.58 26.01 26.04 25.92 25.49 25.25 23.51
39.95 34.63 36.56 34.97 35.88 36.09 34.27 35.08 35.51 35.68 36.08 35.89 37.20 36.53 40.33 42.05 41.96 37.23 37.84 37.39 36.56 36.49 36.74 36.87 36.61 34.98 33.18 32.67 32.37 32.34 31.49 31.00 30.32 28.73 27.72 26.93 26.78 26.89 26.61 26.53 26.46 25.44 24.03 22.85
36.27 34.69 32.72 32.24 35.10 34.00 31.49 35.57 37.55 36.30 37.76 36.68 33.11 38.55 39.83 41.23 41.70 37.92 37.27 37.83 37.81 38.13 37.76 37.21 36.60 35.75 34.73 33.77 33.77 32.46 32.25 30.67 29.21 27.85 26.84 26.60 26.99 26.70 26.46 26.43 25.57 23.77 22.87 21.79
35.52 35.30 33.87 32.15 32.86 26.24 35.77 39.25 41.31 39.22 39.96 39.42 38.52 40.59 40.44 41.57 42.77 40.20 40.48 39.05 38.54 38.72 38.28 38.02 37.55 37.13 35.27 34.82 33.98 33.76 31.62 29.28 28.80 27.47 27.11 26.44 27.24 26.64 25.59 24.98 23.57 21.93 21.35 20.75
40.67 36.60 32.62 30.54 30.86 33.71 36.03 33.34 35.71 34.95 36.63 42.07 41.38 42.13 42.58 39.01 36.42 36.60 37.77 40.65 41.20 40.25 40.19 39.46 38.97 37.84 35.30 33.78 33.43 31.57 29.84 29.48 28.55 27.66 27.78 27.64 27.37 26.23 24.45 23.66 22.16 21.14 20.69 19.03
37.98 39.53 33.99 30.30 29.17 27.14 35.64 31.89 34.91 38.63 33.58 40.52 41.39 41.58 41.66 36.41 35.58 40.33 37.05 37.26 36.63 37.68 38.13 36.56 36.03 35.87 36.13 34.45 32.69 30.74 29.16 28.56 28.12 28.43 28.52 27.69 26.91 25.82 24.06 23.95 21.33 17.70 18.66 21.18
33.97 34.75 30.91 31.82 31.35 33.29 29.66 27.85 35.63 31.75 32.08 24.85 29.73 35.29 35.73 36.88 41.12 36.68 35.69 35.49 35.44 35.40 34.80 34.59 35.34 36.05 35.40 33.02 32.09 30.40 28.85 28.21 29.22 27.47 25.40 24.92 24.99 24.50 24.19 22.43 18.84 16.87 18.33 17.65
32.49 32.64 33.00 33.34 31.07 29.44 29.33 30.22 34.34 31.70 26.84 28.15 29.08 28.62 29.68 31.00 29.56 31.57 32.41 31.75 31.92 32.28 32.46 32.27 31.77 30.86 30.19 30.95 32.18 29.58 29.08 28.82 24.66 24.78 23.93 23.02 22.29 23.09 21.17 20.21 15.07 15.90 16.71 16.79
30.28 31.56 33.57 34.27 32.19 27.44 28.98 28.75 29.97 29.99 29.07 29.14 30.24 28.74 28.12 28.83 28.22 29.65 29.64 29.89 29.95 30.52 29.47 29.16 29.69 27.45 26.92 26.87 30.11 28.71 27.79 23.48 22.14 21.84 21.18 20.20 17.42 19.04 18.86 18.56 16.11 15.44 15.61 17.01
28.94 29.90 28.87 28.82 27.59 27.71 30.17 32.37 32.13 31.17 29.28 29.12 30.41 30.47 29.26 28.47 28.37 28.76 28.60 27.80 27.32 26.62 25.67 23.50 25.05 24.73 24.00 22.29 23.10 20.75 22.19 21.25 20.05 19.31 17.08 14.86 16.67 13.74 12.20 16.42 17.14 16.98 14.61 13.95
29.31 30.25 26.55 25.06 26.89 28.26 30.95 31.92 33.17 34.14 31.27 28.94 28.29 28.95 29.14 28.45 27.48 27.17 26.30 25.76 26.07 25.72 23.94 23.88 23.81 22.79 21.77 19.68 18.91 16.98 20.39 20.20 19.05 15.02 14.95 14.77 14.24 15.20 13.09 13.65 13.35 14.42 11.15 15.32
27.88 27.88 27.77 27.79 30.29 31.32 31.99 33.97 34.49 32.88 31.60 28.29 27.72 27.05 27.52 27.09 26.88 26.02 25.00 25.16 25.16 24.33 21.61 20.96 19.34 19.39 17.44 16.01 15.82 14.86 17.31 18.44 17.18 14.89 14.71 14.31 14.44 11.90 11.41 10.96 8.25 20.56 19.90 21.70

GFSCGP_sfc_wetblb_042.txt.gz
Wetbulb
40.21 36.81 34.61 37.80 37.78 37.81 36.33 34.29 34.18 36.37 40.54 38.23 37.35 37.30 40.01 40.52 39.17 38.67 38.17 38.05 38.55 39.05 38.44 38.94 40.36 43.99 44.20 44.33 44.47 44.81 44.31 45.95 46.57 45.83 44.80 43.40 42.04 40.88 40.67 41.38 42.13 40.52 41.04 41.25
37.41 35.06 40.49 40.87 39.76 38.13 36.01 34.21 33.98 37.54 39.71 38.04 37.29 36.62 39.25 40.07 40.23 41.33 41.73 39.86 39.97 37.51 36.61 38.02 39.39 42.52 43.15 43.66 44.10 44.22 44.85 44.86 46.35 47.13 44.24 41.85 39.80 37.16 37.59 37.31 35.90 36.84 36.97 36.68
36.03 40.15 42.47 41.30 38.82 37.43 36.21 34.64 33.94 36.50 36.31 36.05 33.89 32.95 36.91 40.80 40.52 41.21 41.72 43.53 42.07 40.01 37.71 37.63 39.09 42.42 42.25 42.97 43.36 44.63 45.24 45.90 46.03 43.39 40.48 38.05 37.67 36.92 35.75 32.81 32.67 33.43 34.70 34.65
37.81 42.01 40.72 38.85 38.09 39.10 34.39 39.29 38.59 36.82 34.12 29.92 34.65 28.72 33.53 38.12 39.31 40.05 42.03 40.95 41.65 39.70 38.75 38.47 39.13 41.00 42.41 43.04 43.29 45.16 45.85 44.74 41.96 41.16 39.81 38.05 34.96 32.89 32.59 30.68 31.09 31.79 32.70 32.92
37.53 38.33 38.56 37.81 38.89 40.70 37.68 39.26 36.97 35.19 31.96 30.21 30.41 28.51 32.36 36.64 36.83 40.59 44.29 41.62 40.51 39.19 38.35 37.86 39.06 41.57 42.79 42.29 42.88 43.83 43.07 40.67 41.14 41.51 40.01 37.02 32.64 31.88 31.26 30.62 30.27 30.24 30.73 31.49
37.86 39.62 40.41 40.55 39.13 40.51 39.38 37.39 35.76 33.68 31.94 26.26 32.47 31.26 30.36 35.43 39.71 40.05 41.25 40.23 39.53 38.18 38.18 38.85 39.41 40.85 41.49 40.14 40.79 41.18 40.45 41.25 40.92 39.91 38.03 35.17 32.12 31.38 30.43 29.52 29.26 29.06 29.28 29.22
35.88 36.95 38.18 39.56 37.53 38.25 37.41 34.26 26.64 25.53 24.03 26.33 30.67 28.68 35.97 38.91 40.37 41.70 42.97 41.04 37.07 36.81 36.88 36.40 37.09 39.23 39.89 39.17 39.18 40.35 40.61 40.11 39.57 37.72 35.67 34.17 33.02 32.40 30.87 29.67 29.60 28.57 28.18 26.95
32.93 30.38 37.26 39.20 38.92 36.62 35.71 34.18 27.76 22.08 22.61 25.17 29.07 26.91 33.58 39.42 42.22 39.30 39.51 39.57 35.80 34.13 35.74 36.06 37.61 38.90 39.60 38.36 37.23 39.16 38.12 38.54 36.50 34.41 33.27 33.09 32.61 31.87 31.11 29.90 29.72 29.05 27.85 27.56
31.01 31.48 36.17 36.96 38.93 41.21 33.70 32.22 37.15 30.14 17.15 22.09 29.19 32.31 36.94 37.71 37.80 37.78 37.39 36.08 33.32 33.50 34.29 35.31 36.31 37.53 37.58 37.21 36.86 36.06 34.95 35.42 34.71 33.95 32.88 32.01 31.73 30.94 30.11 29.22 28.52 27.72 26.79 27.62
37.73 30.88 34.42 35.29 38.40 36.62 36.00 38.30 30.08 28.61 19.78 18.68 26.79 27.94 32.91 34.01 36.81 38.99 37.57 35.64 34.72 33.64 33.18 33.77 35.00 35.58 36.05 36.66 35.47 33.59 34.92 34.23 33.73 33.31 32.92 32.20 31.80 31.22 30.02 28.86 26.91 27.07 26.54 26.57
39.86 37.24 31.04 34.64 33.42 33.71 33.65 32.54 33.36 33.85 28.99 23.66 20.67 28.55 35.56 39.51 39.22 38.69 38.69 37.43 35.46 34.53 33.88 33.54 33.71 33.95 34.57 34.47 33.01 33.88 32.65 31.85 31.80 32.55 32.27 30.79 29.41 29.35 29.27 28.10 27.20 26.95 26.31 26.01
39.67 37.91 28.93 31.08 34.20 34.55 34.45 33.73 34.25 29.07 26.55 27.78 27.11 33.62 37.17 37.80 38.64 38.55 39.22 37.81 36.07 36.19 34.88 34.25 33.40 32.35 31.89 32.69 32.73 32.68 31.98 31.70 31.95 31.95 30.92 30.34 29.65 28.74 27.97 27.42 27.11 26.31 26.54 25.85
39.99 34.64 26.25 29.00 32.06 32.16 31.88 34.48 38.21 34.84 30.12 30.35 26.07 32.57 35.61 36.24 36.82 38.33 38.55 36.93 35.53 35.12 34.10 33.03 32.03 31.75 32.14 32.19 32.03 31.60 31.49 31.73 30.92 29.91 29.56 28.20 28.20 28.12 27.87 27.10 26.36 26.17 25.64 25.31
43.65 37.31 33.29 30.94 32.63 33.51 30.14 32.29 34.86 36.77 31.56 31.60 32.06 36.15 34.59 36.09 38.05 38.61 37.13 35.97 34.66 34.78 34.62 33.13 32.43 32.21 32.29 32.18 32.08 31.86 31.06 31.31 29.60 29.36 28.56 27.92 27.48 27.88 27.29 26.59 25.89 26.10 25.92 25.13
41.75 35.12 36.74 38.03 36.33 34.48 32.43 34.40 34.82 33.71 35.81 32.13 36.94 36.39 40.50 40.36 38.25 38.56 38.94 36.07 34.30 33.90 33.79 33.93 33.39 32.64 32.23 31.95 32.28 32.05 31.25 30.70 30.06 28.96 27.84 27.48 27.62 27.28 26.23 26.07 26.05 26.00 25.66 25.39
39.89 35.40 37.27 34.48 37.21 34.71 33.83 33.23 34.50 35.79 36.70 36.33 37.50 36.93 40.89 39.80 39.07 37.23 38.06 36.90 35.32 35.21 35.57 35.74 35.38 33.89 32.87 32.41 32.01 31.71 31.22 29.90 29.82 29.09 27.94 27.31 27.10 26.91 26.82 26.79 26.15 25.39 24.98 23.53
36.98 36.99 34.62 32.38 35.57 32.92 31.02 35.36 34.43 34.89 37.45 36.70 33.07 38.86 38.46 39.81 40.29 40.27 38.61 37.27 37.34 37.44 37.40 36.58 35.92 35.14 34.61 33.55 33.38 32.16 31.55 30.56 29.24 28.16 27.95 27.05 27.39 27.02 26.79 26.78 25.96 24.96 24.35 23.79
36.10 36.49 35.69 32.67 33.32 26.74 35.82 40.11 41.48 39.20 39.20 38.43 38.47 40.12 39.83 40.44 42.46 42.43 39.79 37.60 38.31 39.53 39.02 37.90 37.44 36.98 36.08 34.88 33.91 33.08 30.52 29.26 29.08 28.05 28.19 28.12 27.42 27.06 26.65 25.85 25.41 24.68 24.43 23.47
41.61 37.70 33.22 30.72 31.07 33.14 35.91 33.58 35.15 35.28 37.22 42.33 41.33 42.41 43.54 43.20 37.89 41.43 39.28 42.13 43.16 40.99 41.04 40.57 39.36 37.82 36.14 34.16 33.23 31.35 28.95 28.80 28.74 27.89 28.05 28.21 28.00 27.52 25.70 25.50 25.14 24.73 23.93 22.63
39.80 40.13 34.81 30.63 28.89 27.02 36.07 34.97 39.21 37.99 33.78 40.72 41.55 42.19 42.20 38.16 35.56 41.41 44.94 39.60 38.47 38.86 37.53 35.78 34.30 33.07 33.70 32.61 31.98 29.85 28.41 28.22 27.83 28.53 28.80 28.48 28.76 28.51 26.65 26.83 25.79 25.02 24.18 23.24
34.50 35.19 32.16 32.27 31.35 32.01 31.54 28.82 38.49 32.06 33.07 26.42 33.34 38.00 36.90 38.69 42.44 36.02 34.43 34.32 33.71 33.78 33.73 33.51 34.45 33.91 32.89 31.67 30.66 29.28 28.74 28.61 30.02 30.04 28.88 28.45 28.40 28.42 27.90 27.48 25.15 21.98 21.78 20.26
33.04 32.43 31.89 32.09 30.20 28.35 28.98 30.38 34.44 32.10 27.32 27.95 29.16 29.24 30.80 32.55 31.37 31.45 31.49 31.18 32.15 32.49 32.31 32.51 32.35 31.77 31.89 31.04 31.26 29.52 29.16 30.96 30.55 29.42 27.41 27.04 27.70 27.53 26.32 25.05 21.42 20.57 21.06 20.06
31.37 35.84 34.61 34.87 33.42 27.64 29.19 27.56 29.52 28.91 25.76 27.07 29.52 29.11 29.72 29.52 28.56 29.22 28.98 29.39 29.82 30.33 30.07 30.40 31.45 30.12 30.36 31.77 32.63 31.31 30.02 27.15 26.12 26.70 26.84 26.33 25.03 24.25 23.70 22.66 19.26 17.58 17.63 18.88
28.72 30.79 31.44 31.82 30.10 28.01 29.53 32.22 32.61 29.56 28.36 28.60 29.14 30.47 30.13 29.48 28.60 28.93 28.00 27.78 28.22 27.03 28.19 27.21 29.50 28.50 25.86 26.53 27.55 28.64 26.35 25.85 26.58 26.18 23.15 21.92 22.23 19.55 19.11 19.82 19.00 18.45 17.14 16.55
27.21 31.03 26.27 24.52 27.75 28.55 30.10 32.08 34.06 32.34 31.63 30.65 29.23 29.12 28.85 27.74 27.17 28.14 27.33 26.74 25.98 25.66 24.59 26.24 27.10 26.31 25.04 23.43 22.45 21.07 22.57 23.70 24.14 22.55 19.33 18.93 18.91 18.41 15.46 14.39 15.68 17.24 11.96 17.95
28.26 27.94 26.24 26.70 30.49 32.71 32.13 33.80 34.68 33.47 31.52 29.96 28.20 27.63 27.62 27.99 27.48 26.75 25.52 25.33 25.05 24.09 22.11 22.20 19.96 20.74 17.80 19.98 20.15 20.03 21.06 22.25 20.28 17.60 16.70 16.09 15.61 13.28 12.59 11.93 8.59 21.10 20.46 23.03

GFSCGP_sfc_wetblb_045.txt.gz
Wetbulb
39.03 35.88 34.08 36.62 36.75 36.03 35.01 32.63 32.82 35.08 38.86 37.02 36.55 36.47 39.65 39.58 37.66 37.46 37.96 37.71 38.35 39.25 41.16 38.86 39.27 41.59 43.90 44.41 44.51 44.55 44.79 45.41 45.04 44.42 43.93 43.72 42.92 42.24 42.01 42.64 44.50 44.48 43.90 42.17
36.75 34.10 39.24 39.23 37.68 36.16 34.24 32.64 33.02 35.83 37.92 37.12 36.35 36.30 38.72 38.22 38.77 40.43 40.67 40.48 40.17 40.13 36.71 38.22 38.03 41.28 43.24 44.57 44.46 44.09 44.83 44.55 45.17 45.14 42.58 41.47 40.50 36.77 38.50 39.16 39.92 40.70 38.79 38.24
35.50 38.92 40.74 39.86 36.65 35.75 34.64 33.10 33.01 34.91 35.45 34.67 33.70 32.44 35.86 39.82 39.25 39.70 40.84 43.30 43.33 41.84 39.98 38.66 37.76 40.63 42.68 43.49 44.07 44.72 44.70 44.66 45.20 42.75 38.73 36.94 36.54 37.76 37.02 36.10 36.45 35.99 35.23 35.03
37.25 40.53 39.52 37.30 36.34 37.66 32.85 37.83 36.86 35.23 33.09 29.19 33.10 27.26 33.07 36.70 38.83 38.72 41.74 41.92 42.32 40.98 40.51 39.48 38.66 39.73 42.30 44.02 44.02 44.81 44.94 44.83 41.88 39.59 38.21 38.81 36.34 33.94 35.18 34.63 34.44 32.24 32.78 32.72
36.46 37.17 37.22 36.27 37.49 39.12 36.14 37.59 35.73 33.57 31.31 29.05 29.75 27.80 32.13 34.33 36.53 39.93 42.53 43.15 41.45 40.43 39.93 38.88 39.05 40.51 42.79 43.61 43.76 44.33 44.45 42.53 40.53 40.40 40.97 40.02 37.04 31.73 31.49 33.18 32.68 30.57 30.72 31.31
36.48 38.36 39.47 39.34 38.17 39.54 38.96 36.44 34.42 32.32 30.98 25.59 31.93 30.62 30.57 34.13 38.07 39.42 41.27 42.32 41.28 39.55 37.73 38.57 39.20 39.77 41.90 42.46 43.06 43.02 43.55 40.72 40.02 40.92 40.25 38.44 35.67 32.03 30.78 30.45 31.41 29.27 28.84 28.94
34.52 36.17 37.31 39.27 36.93 37.36 36.76 33.79 26.28 24.41 23.06 25.65 29.35 28.11 36.01 37.82 39.47 41.31 43.12 41.81 39.84 36.26 35.21 35.27 35.80 38.22 40.57 40.85 41.98 43.09 42.62 39.54 39.17 39.40 38.65 37.09 35.90 34.55 32.21 30.95 30.19 28.46 27.28 26.69
31.70 29.11 36.60 38.65 39.05 36.41 34.79 34.13 27.75 21.16 21.16 23.99 28.48 26.42 33.35 37.95 40.29 39.87 40.28 40.26 37.40 35.36 34.65 35.28 36.63 38.46 40.26 41.06 41.56 42.57 41.40 39.58 37.94 37.68 37.67 36.35 35.41 34.96 33.77 31.65 30.55 29.98 28.68 27.18
31.04 31.22 35.50 36.42 37.80 40.60 33.54 30.77 35.80 29.90 17.00 21.65 28.72 31.96 36.22 37.89 37.72 37.85 38.86 37.86 36.64 35.91 33.75 33.93 35.49 38.00 39.66 40.47 40.68 42.44 40.88 38.52 37.43 36.67 35.59 34.99 34.64 33.67 32.28 29.32 28.94 27.90 26.46 27.77
36.52 30.05 33.61 34.34 37.68 36.15 35.26 37.31 29.52 27.81 18.92 16.67 25.43 27.30 31.92 36.00 37.30 39.80 38.53 38.93 36.31 34.45 32.80 32.99 34.62 36.57 38.64 39.79 40.21 39.66 39.31 37.20 36.07 34.09 33.59 33.25 32.73 32.56 31.51 29.36 27.85 26.90 26.13 26.62
38.72 35.09 30.14 33.47 32.66 32.61 32.87 31.74 31.94 32.29 28.39 22.97 19.93 28.74 34.73 39.14 38.84 38.90 39.73 40.13 37.37 34.96 32.97 32.80 34.03 35.35 36.60 37.26 36.22 35.80 35.95 34.77 33.90 33.04 32.14 30.82 29.90 30.53 29.39 28.69 27.67 26.85 26.75 26.08
38.49 36.33 27.58 30.41 33.54 34.52 32.87 32.30 34.25 27.63 25.64 26.89 26.18 31.97 36.08 37.42 39.28 38.45 39.66 39.67 36.04 35.53 33.90 32.93 32.88 33.23 33.62 34.66 34.32 35.99 35.06 33.63 33.53 32.68 31.45 30.48 29.56 28.78 28.27 27.65 27.06 26.72 26.34 26.11
39.86 34.17 22.54 27.84 31.35 31.61 31.16 33.53 36.55 34.20 29.78 29.74 24.27 32.13 34.24 34.93 36.52 38.10 38.96 37.85 36.96 34.83 32.81 31.92 30.90 31.70 32.53 33.29 34.27 34.75 33.61 32.95 31.52 31.01 30.73 29.34 28.61 28.15 27.79 26.98 26.58 26.79 26.02 25.52
42.69 36.33 31.36 30.33 30.16 32.42 29.49 31.43 34.56 35.12 29.12 30.96 32.09 35.91 35.40 36.34 35.94 37.74 38.48 38.01 35.52 34.51 33.40 31.78 31.48 31.74 32.56 33.18 33.49 33.64 33.13 32.53 30.97 30.74 29.69 28.50 28.07 28.46 28.11 27.20 26.30 26.48 25.96 25.43
41.11 34.43 35.19 36.95 37.38 33.33 32.07 31.69 33.57 33.32 35.26 31.43 35.77 35.78 40.32 40.30 38.36 39.05 40.11 37.89 35.72 34.63 33.06 32.91 32.84 32.64 32.35 32.22 32.86 33.27 33.19 31.52 30.86 29.77 29.07 29.11 28.61 28.67 27.42 26.14 26.24 26.07 25.63 26.08
39.78 34.40 35.99 33.95 36.76 36.11 33.06 32.69 33.78 34.92 36.44 36.62 37.33 37.01 40.08 39.66 38.39 37.61 39.60 38.85 36.65 35.92 35.06 34.97 34.53 33.32 32.64 32.63 32.60 32.88 32.47 30.77 30.76 29.67 29.29 29.11 27.87 27.43 27.19 26.94 26.35 26.12 25.73 24.93
37.66 35.61 33.14 31.35 34.80 34.48 30.16 34.31 35.74 34.76 36.99 36.84 33.18 38.77 38.56 41.54 41.05 41.71 42.60 37.28 37.60 38.10 38.70 36.87 35.32 34.90 34.36 33.67 33.99 32.65 32.44 31.07 29.66 29.04 28.41 27.47 27.79 27.16 27.10 26.94 26.09 25.75 25.14 24.99
36.04 36.01 34.71 32.17 32.96 26.27 35.78 41.25 40.21 38.18 38.70 38.63 38.67 40.90 42.16 42.17 43.64 42.68 39.52 39.53 39.27 39.45 38.85 38.11 37.36 36.50 35.78 35.01 33.93 33.35 31.33 29.35 29.37 28.43 27.89 27.77 27.84 27.43 26.70 26.34 25.86 25.25 25.06 24.13
42.33 37.87 33.69 31.24 31.25 34.19 34.64 35.54 34.76 34.12 36.48 41.68 39.86 40.86 41.78 42.62 38.46 41.93 39.62 42.25 42.82 41.06 40.59 40.93 40.19 38.30 35.71 33.84 33.27 31.43 29.08 28.83 28.75 27.68 27.74 27.87 28.07 27.37 26.33 26.06 25.50 25.26 24.94 24.19
39.99 40.79 35.62 30.38 29.17 27.48 36.03 37.42 39.69 38.20 33.19 41.66 41.10 41.83 41.89 40.20 35.68 41.55 41.23 39.13 39.16 39.09 38.02 37.33 35.17 33.49 33.38 32.04 31.57 29.52 28.03 28.09 27.92 28.17 28.35 28.52 28.57 28.33 26.96 26.88 26.00 26.15 26.17 25.42
34.41 35.07 32.64 32.64 31.17 32.26 32.47 29.58 36.91 31.70 32.41 27.82 31.54 37.64 39.01 38.79 41.28 34.85 34.56 35.06 33.09 32.89 32.09 31.55 32.05 31.97 30.29 30.21 29.56 27.98 27.21 27.53 29.35 28.96 28.10 27.98 28.39 28.69 28.03 27.79 27.13 26.38 25.64 24.87
32.99 31.81 31.98 33.09 30.50 28.66 29.65 32.43 33.85 31.65 28.04 27.39 28.90 29.07 30.41 33.18 33.13 31.29 30.89 30.90 31.35 30.86 31.07 30.99 29.66 28.03 28.09 28.55 28.76 27.12 27.06 28.02 28.37 28.24 27.91 28.30 29.16 28.96 28.77 28.57 27.25 26.31 25.83 24.57
31.97 34.79 32.94 33.34 33.50 31.06 29.82 29.52 29.51 28.62 25.51 26.72 27.62 27.37 28.78 28.70 28.41 29.26 29.05 29.00 29.43 30.03 30.15 29.63 28.97 27.91 27.69 26.55 28.26 27.44 29.27 30.16 29.99 30.22 30.59 30.50 29.87 29.68 29.74 29.17 27.50 24.74 24.44 23.19
29.51 30.55 34.07 33.67 30.98 26.49 28.66 30.67 30.56 28.33 27.36 27.49 27.98 28.86 29.96 29.91 30.11 30.21 29.21 28.88 28.46 25.68 25.27 25.38 29.53 28.76 27.80 29.21 29.86 30.67 29.84 29.72 30.62 29.64 28.39 28.32 28.06 26.27 26.03 26.38 23.89 23.54 21.63 21.31
29.92 32.12 30.89 31.54 25.55 28.19 28.43 29.68 31.88 31.79 32.31 31.45 28.53 28.42 29.16 29.91 29.46 28.99 27.36 25.95 26.21 26.19 26.20 27.81 27.87 25.91 23.92 24.27 24.34 25.26 25.82 27.74 27.44 25.80 22.85 23.41 23.35 22.75 20.47 19.25 20.03 20.78 16.85 21.77
29.35 30.08 31.14 30.52 30.67 31.78 30.59 32.44 33.96 32.71 32.68 32.50 28.73 27.30 26.90 27.74 26.97 26.89 25.76 25.70 24.84 24.08 22.43 23.11 22.59 22.73 20.57 21.06 19.84 20.20 21.85 24.75 23.60 20.60 20.17 20.24 19.57 18.24 18.31 16.99 13.08 22.62 21.98 25.09

GFSCGP_sfc_wetblb_048.txt.gz
Wetbulb
37.95 35.53 33.59 35.74 35.32 34.83 33.36 31.32 31.97 33.29 37.10 35.09 35.15 35.09 38.01 39.58 36.87 37.66 37.62 37.18 38.62 39.61 43.35 39.90 39.57 39.34 42.17 43.60 44.39 44.84 45.41 48.25 48.02 47.01 46.55 45.12 45.35 44.54 44.54 45.76 47.75 48.34 47.97 48.01
35.57 33.29 37.95 38.30 36.46 35.19 33.23 31.79 31.78 34.62 36.06 35.36 35.19 35.52 38.83 38.25 37.89 39.26 40.90 39.95 40.23 40.02 38.52 38.48 37.95 38.24 41.63 43.68 44.63 44.28 45.42 47.76 47.99 47.23 43.04 42.05 40.87 37.81 40.74 41.27 41.92 42.96 43.19 43.78
34.09 37.07 39.09 38.58 35.19 34.83 33.44 32.01 31.56 33.72 34.50 34.08 32.22 31.86 34.45 38.14 37.69 38.54 39.38 42.66 42.29 41.92 41.90 39.15 37.11 38.43 40.66 42.95 44.25 45.17 45.37 45.84 47.58 45.58 38.75 36.94 38.51 38.97 38.79 38.34 38.78 38.70 39.94 39.74
35.63 38.73 38.17 35.28 34.77 36.52 31.28 36.32 35.30 33.57 31.90 28.09 31.52 26.22 31.67 36.56 38.37 38.61 41.66 40.05 41.41 42.26 41.28 40.47 38.39 37.67 40.05 42.72 44.92 45.73 45.30 45.12 45.17 41.88 40.54 40.80 37.33 36.24 36.30 37.46 36.46 35.62 36.48 35.74
35.38 36.14 35.62 34.82 36.23 37.74 34.94 36.73 34.79 33.22 30.60 27.72 27.27 27.00 31.06 33.26 35.60 39.24 42.60 41.62 41.08 41.72 40.20 39.98 38.57 39.88 40.58 42.38 44.05 45.06 44.49 44.46 43.29 41.04 42.00 41.41 39.10 33.67 33.05 35.40 34.56 33.90 33.32 32.18
35.10 37.91 38.25 38.33 37.10 37.91 38.13 35.55 33.45 31.21 30.04 25.15 29.91 29.80 29.92 32.54 36.81 37.54 41.53 42.71 41.43 39.43 38.56 37.69 37.71 37.86 39.06 41.39 43.07 43.67 43.80 43.81 40.76 40.06 39.73 41.66 37.20 33.34 33.46 33.63 33.36 32.52 31.74 29.22
33.21 34.94 36.35 38.01 35.75 36.14 35.10 33.58 26.47 23.12 21.99 24.64 28.18 27.40 35.59 36.05 39.17 38.31 40.61 41.53 39.14 38.40 37.06 35.85 35.38 35.73 38.47 40.54 42.25 43.40 43.69 42.14 40.32 39.89 39.32 38.54 37.68 36.70 36.65 34.01 33.43 31.18 29.89 27.10
30.21 27.52 35.42 37.73 38.00 35.18 33.96 33.85 26.72 19.96 19.54 23.03 27.45 26.00 32.21 37.44 38.81 39.07 38.60 39.79 37.78 37.90 36.72 35.70 35.01 35.67 38.40 40.23 41.67 43.37 43.64 41.94 39.43 39.88 38.45 36.91 37.38 38.01 37.66 35.52 33.47 32.69 32.01 29.28
29.30 29.88 34.48 35.50 36.40 39.60 32.99 31.06 34.95 29.31 15.64 21.32 27.55 29.86 35.49 36.77 37.54 37.99 38.00 37.62 38.35 37.21 37.07 35.64 34.25 35.28 37.46 39.60 41.02 42.81 42.86 42.02 39.26 39.20 37.77 35.72 36.90 36.67 35.49 33.96 32.84 31.37 30.41 28.70
35.14 29.37 32.74 34.22 36.41 35.55 34.81 36.91 29.44 27.68 19.82 15.98 24.75 26.06 30.33 35.27 37.35 38.48 37.71 38.64 39.06 36.26 36.62 34.31 33.50 34.80 37.08 39.27 40.80 42.23 42.70 41.39 38.64 37.83 36.80 35.90 35.64 35.88 34.75 32.92 31.65 30.05 29.81 27.38
37.80 34.34 29.65 33.00 32.22 32.13 32.95 31.82 30.95 31.77 27.86 21.62 18.52 28.78 33.49 37.01 38.50 37.93 39.70 39.14 38.00 37.71 36.64 35.32 33.18 34.52 36.38 37.67 39.31 40.94 40.71 37.75 36.30 36.17 34.11 32.96 34.07 34.16 32.69 32.11 31.03 30.18 29.19 26.24
37.86 35.01 27.22 30.33 32.29 32.97 31.20 31.74 32.23 26.69 23.91 25.50 25.06 31.27 35.90 37.05 38.14 37.32 38.85 38.90 37.33 36.45 36.33 34.33 32.97 33.81 34.52 35.87 36.52 37.71 38.82 37.45 37.10 34.46 32.52 31.61 31.75 32.24 31.52 31.39 30.17 28.94 28.28 26.67
38.33 34.25 24.33 28.47 30.51 30.64 30.44 32.44 34.34 32.47 29.71 27.93 22.95 31.45 34.56 33.80 35.89 36.57 37.27 38.05 37.83 36.06 34.44 32.87 31.36 31.99 33.40 34.89 35.84 36.83 37.36 36.97 35.27 32.94 31.97 30.09 29.59 30.74 30.92 30.19 29.52 28.70 27.28 26.25
42.61 36.19 32.80 30.01 30.06 31.60 28.92 30.74 33.74 35.66 29.29 31.25 30.46 35.14 35.49 35.27 36.46 37.64 38.10 38.41 37.57 37.24 35.59 32.84 31.21 31.13 32.75 34.01 35.11 36.03 36.19 36.25 33.27 32.51 31.27 29.80 29.37 30.21 30.36 29.61 28.58 28.30 26.63 25.61
41.05 33.82 34.06 36.52 34.66 31.96 31.41 30.87 32.61 33.65 34.92 29.74 34.97 34.73 39.28 40.66 40.28 41.43 40.69 38.29 37.94 36.60 35.03 34.01 33.31 32.51 31.56 32.35 33.80 35.06 35.79 34.23 32.52 31.76 30.94 30.68 29.71 29.77 30.07 28.71 27.96 27.60 26.33 26.41
39.97 33.75 35.58 32.98 35.89 34.53 32.93 31.79 33.76 33.65 35.31 35.64 36.05 35.47 42.91 43.62 39.63 37.82 38.88 40.02 39.91 37.85 37.00 37.11 35.15 33.06 32.43 32.56 33.28 34.14 34.60 33.59 32.22 31.81 31.05 30.73 29.05 28.87 28.85 28.00 27.12 26.56 25.93 25.47
37.55 34.79 32.90 31.17 34.19 33.63 30.90 33.89 35.73 35.98 37.39 36.59 32.11 37.96 42.23 41.51 41.82 42.28 42.15 39.62 39.52 39.64 41.28 37.95 36.87 35.98 35.40 34.22 34.29 33.41 34.03 32.73 31.01 31.59 30.56 29.10 28.63 27.54 27.96 27.75 26.66 26.16 25.41 25.60
35.62 35.01 34.18 31.88 30.79 25.46 35.31 38.45 39.32 37.35 38.35 38.89 38.60 40.23 42.06 42.42 43.23 42.68 41.26 40.15 41.06 39.80 39.47 39.57 39.28 37.29 36.47 35.15 33.64 33.56 32.27 30.53 30.24 30.43 29.32 28.52 28.27 28.09 27.52 26.74 26.37 26.12 25.54 24.97
40.74 37.32 33.58 30.79 30.29 33.14 34.09 34.60 34.90 33.36 35.19 40.38 39.16 40.56 41.66 42.64 37.95 42.01 41.22 40.66 42.37 41.69 40.13 39.75 39.33 38.21 35.78 33.46 32.81 30.93 29.45 29.21 29.05 28.96 28.60 28.22 28.70 27.70 26.69 26.47 25.99 25.82 25.19 24.97
39.67 40.38 34.70 31.88 28.27 26.02 35.24 39.78 38.21 37.41 31.86 41.06 40.81 41.05 41.07 38.95 34.72 40.62 37.93 36.44 35.83 35.44 35.67 35.91 35.50 34.65 34.03 31.31 29.90 29.16 28.08 27.43 27.54 28.20 27.97 28.02 29.07 28.47 27.49 27.38 26.16 26.09 26.28 25.55
33.37 34.47 32.43 32.45 30.29 29.68 33.10 29.53 36.88 31.28 32.49 27.21 32.18 37.71 34.12 38.40 40.65 33.33 33.06 32.65 31.80 31.92 31.59 31.00 30.69 30.56 29.29 28.67 28.31 26.63 25.76 26.17 26.61 26.94 26.77 26.63 27.66 28.39 28.37 27.26 26.84 26.53 26.26 25.44
32.74 31.47 31.21 33.11 30.22 28.18 31.57 31.69 33.68 33.55 27.89 28.78 29.42 29.58 31.08 33.09 32.55 30.16 29.69 30.50 30.50 30.44 30.19 29.40 27.69 26.78 26.77 27.08 27.03 24.81 24.77 25.56 25.29 25.46 25.13 26.33 28.15 28.02 27.96 27.56 27.15 26.92 26.25 25.39
30.70 33.56 31.85 33.58 32.99 36.66 32.03 34.57 32.88 30.15 28.44 28.97 29.62 27.69 28.80 29.23 29.00 29.13 29.44 28.96 29.29 29.76 29.16 27.61 26.09 25.92 25.89 24.25 25.32 24.51 23.47 25.08 25.25 25.72 26.18 27.91 28.40 28.54 28.92 28.13 27.29 26.16 26.60 25.93
31.42 32.04 33.65 33.49 33.55 33.01 33.19 31.00 30.95 29.40 29.49 29.42 29.60 29.32 29.75 30.07 29.78 29.23 29.18 28.81 27.97 24.92 25.25 25.06 27.61 25.25 25.83 28.25 29.87 29.79 29.45 29.70 30.41 29.83 29.75 29.53 29.17 29.05 29.61 29.95 28.62 27.90 26.14 25.37
28.73 32.29 32.68 31.46 30.88 28.68 30.78 29.36 31.25 30.01 30.69 29.82 29.28 28.74 29.52 31.59 29.43 29.21 27.20 27.43 26.73 27.01 27.21 28.80 28.39 25.83 23.52 24.10 25.11 27.16 28.44 31.30 30.37 28.67 26.48 27.96 27.78 27.55 26.34 24.67 25.64 25.57 22.97 26.68
29.31 29.76 31.12 31.88 32.05 33.97 33.38 32.11 31.85 32.60 33.15 31.19 28.76 27.42 26.34 27.77 27.55 26.19 25.82 25.67 25.66 25.36 24.48 25.08 22.38 20.92 19.11 18.06 16.41 16.82 20.41 24.64 24.84 22.05 22.53 23.21 22.69 21.91 21.28 20.11 18.42 24.34 24.23 27.25

GFSCGP_sfc_wetblb_051.txt.gz
Wetbulb
38.23 36.11 34.40 35.81 35.92 34.53 33.91 32.19 32.35 34.06 37.55 36.62 35.99 35.90 38.32 41.39 38.96 39.14 40.37 40.54 41.31 41.43 45.16 43.41 42.70 42.91 42.61 44.67 46.10 47.37 48.29 50.27 51.10 50.19 50.09 48.88 49.46 49.52 50.11 50.42 51.36 52.23 52.86 53.40
35.43 33.75 37.31 38.05 36.39 35.68 33.81 31.95 32.90 34.95 36.32 36.64 35.69 36.24 38.91 39.40 42.00 41.78 42.92 43.19 42.51 43.28 41.90 41.97 41.19 41.42 42.04 43.98 45.67 46.71 48.00 49.14 50.34 51.43 48.73 48.21 46.30 45.31 47.22 46.31 47.48 48.46 49.44 49.55
33.75 36.20 37.93 37.89 34.43 34.51 33.10 32.22 31.76 34.24 34.63 34.55 33.45 33.05 35.26 38.70 39.13 39.98 40.87 43.71 43.90 44.02 44.63 43.25 39.74 40.67 41.45 42.61 44.79 46.49 47.50 49.00 50.15 50.18 43.85 40.70 40.83 41.93 42.41 42.64 43.44 43.68 45.95 46.16
35.08 37.68 37.11 35.06 34.16 35.81 31.19 35.48 34.73 33.25 32.69 29.11 32.88 26.84 33.13 36.96 37.79 39.10 41.26 41.41 42.42 43.74 42.61 42.01 39.89 40.05 40.55 42.50 45.03 46.79 47.31 48.63 49.47 46.57 45.47 44.86 46.14 42.26 43.10 43.02 42.86 40.64 41.92 42.54
34.73 35.45 35.15 34.06 35.63 36.94 34.33 35.89 34.40 33.24 31.61 29.96 29.54 28.70 32.96 34.19 36.17 38.74 41.87 43.17 43.97 41.42 41.40 42.20 40.61 41.38 41.57 42.30 43.97 46.14 46.82 47.35 48.80 45.98 47.53 46.37 43.66 41.70 40.54 39.96 39.54 39.02 37.90 39.65
34.41 36.73 37.41 37.47 36.35 36.59 36.91 34.98 33.25 31.49 30.80 25.70 29.61 30.90 30.11 33.17 36.76 38.69 40.98 42.08 42.01 40.98 40.52 40.44 40.38 39.73 39.54 41.04 43.58 45.42 45.70 46.14 46.89 46.65 46.45 46.35 45.79 39.20 38.70 37.45 37.98 37.05 35.98 35.71
32.82 34.19 35.81 37.79 35.06 35.82 34.18 32.88 25.97 23.34 22.61 25.29 28.31 28.09 34.81 36.82 38.46 38.92 41.59 42.41 40.78 40.81 40.72 40.31 38.97 37.68 37.77 39.79 42.44 44.25 44.94 45.27 44.44 44.09 45.18 45.18 43.77 41.43 40.93 38.95 38.60 35.59 33.99 32.86
29.74 27.14 34.84 37.40 37.19 34.65 33.27 33.10 26.52 19.86 19.33 23.02 27.39 25.92 32.73 37.42 39.09 38.97 38.66 39.72 38.69 39.08 39.48 39.74 39.22 37.95 37.48 39.62 41.71 43.38 44.28 45.06 43.23 43.49 43.39 43.97 44.04 41.94 41.47 40.46 39.65 37.87 37.05 35.73
27.97 28.90 33.90 35.04 36.02 38.77 32.68 30.92 34.21 28.36 15.67 21.62 26.71 29.94 35.09 36.08 37.27 38.20 40.20 37.88 39.00 39.42 39.42 39.34 38.74 36.91 36.99 39.31 41.12 42.75 43.91 44.87 42.60 42.70 42.54 41.27 41.82 41.32 40.56 39.66 38.26 36.96 35.72 34.49
33.39 28.02 32.00 33.53 36.29 35.16 34.22 36.49 29.53 27.62 19.66 16.71 24.77 26.18 31.58 35.02 37.97 39.37 38.13 39.55 39.18 39.03 39.48 38.98 37.40 36.18 36.57 39.03 40.57 42.25 43.83 44.20 42.19 42.10 41.15 40.58 40.32 39.51 39.01 37.35 35.83 32.94 32.08 31.09
37.19 33.56 29.17 32.65 31.73 31.82 32.86 31.29 30.56 31.13 27.84 21.50 18.71 28.44 33.24 36.78 37.85 38.14 38.83 38.94 39.15 39.86 39.75 39.10 37.30 35.78 36.45 38.35 39.52 41.17 42.43 42.44 40.31 40.35 39.39 38.79 38.69 37.37 36.09 35.76 35.42 33.04 31.56 30.37
37.26 34.14 26.24 29.61 31.87 32.85 31.67 31.29 31.95 27.21 23.86 25.37 24.85 30.98 35.23 37.61 38.21 37.64 38.44 39.14 39.12 39.11 39.61 38.08 36.76 35.34 35.43 37.00 38.38 39.94 41.51 40.96 40.17 39.44 37.63 37.14 36.83 36.15 34.36 35.15 33.84 31.93 30.69 30.01
38.39 33.65 23.24 27.80 30.28 30.16 30.07 31.60 33.14 31.69 29.43 26.27 24.67 31.36 34.71 35.84 37.54 37.97 38.63 38.71 38.74 38.51 38.44 36.86 35.16 34.53 34.68 35.61 37.12 38.60 40.08 40.61 38.85 37.45 35.83 34.87 34.34 34.79 34.72 34.28 32.64 31.04 30.47 29.46
41.98 36.44 31.89 29.49 29.73 31.27 28.61 30.05 33.21 34.99 28.68 31.44 28.97 34.96 38.28 34.82 36.41 37.99 38.90 39.70 39.55 39.14 38.38 36.85 35.16 34.39 34.02 34.79 36.02 37.14 38.19 39.62 37.50 35.65 35.05 33.89 33.53 33.85 33.90 33.17 31.75 30.51 30.21 28.78
39.88 33.39 35.22 35.97 35.92 31.97 31.56 30.93 31.67 32.90 34.77 31.25 34.86 34.65 38.67 40.54 39.19 41.71 42.06 40.57 39.84 40.56 37.94 37.04 37.04 36.42 33.71 33.44 34.71 36.25 37.47 37.80 36.58 35.30 34.64 34.28 33.49 32.83 32.80 31.65 30.80 30.25 29.11 29.04
38.43 33.81 34.06 32.66 35.49 35.37 31.82 31.97 32.13 33.36 35.00 35.08 35.98 35.18 42.50 41.31 40.30 37.55 39.64 39.50 40.04 39.73 39.54 39.51 38.01 36.16 35.17 34.32 34.47 35.13 36.31 36.49 35.26 35.53 34.85 34.62 31.83 30.90 31.12 30.56 29.29 28.50 27.65 27.49
36.56 33.90 32.90 30.65 34.01 32.26 29.80 33.47 34.62 35.22 35.06 34.95 31.30 37.28 41.33 40.59 41.37 42.30 41.32 38.80 40.97 41.17 42.58 42.01 40.45 38.45 37.57 36.78 35.60 34.36 35.38 35.64 33.24 34.23 33.77 32.25 30.66 29.99 29.87 29.63 28.26 27.35 26.86 26.88
35.91 34.85 33.99 31.00 30.39 25.00 34.43 38.72 38.90 36.89 38.06 38.85 38.35 39.56 41.32 42.25 44.46 44.18 41.61 41.13 41.40 40.48 40.23 41.00 41.58 39.98 38.51 36.80 34.41 34.18 33.22 33.35 32.22 32.51 32.03 30.71 29.79 29.43 28.22 27.80 27.74 27.26 26.84 26.09
40.18 36.57 31.54 29.33 29.52 32.48 31.01 33.83 34.91 33.48 35.17 40.28 39.80 41.27 42.45 43.10 37.92 41.66 43.22 41.14 43.51 42.14 39.83 39.54 39.00 38.54 37.99 35.98 33.86 31.83 30.66 30.66 30.41 30.72 30.64 29.68 29.40 28.16 27.38 26.87 27.22 27.12 26.55 26.01
37.10 38.91 33.51 31.37 27.66 25.16 33.02 38.44 38.05 36.73 31.40 40.93 40.24 40.39 40.97 39.17 34.77 40.44 37.15 35.76 35.52 35.40 34.87 34.40 33.60 34.06 34.48 33.05 31.06 30.05 28.52 27.93 27.81 28.86 29.08 28.51 28.68 27.20 26.84 27.36 26.98 27.46 27.24 26.40
31.24 31.93 29.97 30.47 29.39 31.83 33.61 30.07 35.97 30.01 31.72 29.20 36.97 40.37 40.02 38.21 41.35 35.77 32.92 33.32 32.25 32.59 32.10 31.02 29.75 29.79 29.26 29.25 28.58 27.26 26.29 26.23 27.11 27.15 26.75 26.75 27.48 26.67 26.94 26.30 26.91 27.00 26.00 25.62
28.44 28.37 29.04 31.13 28.43 26.41 30.25 31.54 32.18 34.89 30.06 28.82 30.95 33.18 34.08 35.16 34.98 32.37 31.32 31.17 30.85 30.80 30.19 29.12 27.68 26.85 26.94 27.23 27.09 25.18 25.23 25.40 24.98 24.82 24.64 24.63 25.38 26.87 27.55 26.62 26.72 27.10 26.46 25.77
29.54 31.84 30.77 32.63 32.13 35.00 36.70 36.20 39.16 34.23 32.09 30.90 31.83 32.43 30.72 30.96 31.02 30.65 30.46 30.00 29.14 29.06 28.01 26.11 25.31 25.30 25.03 23.60 24.97 24.81 23.36 23.88 23.21 22.82 22.98 25.28 25.81 26.89 27.68 27.27 26.79 26.43 26.89 26.04
30.32 34.15 29.92 30.20 32.24 34.93 36.92 39.22 39.73 33.09 31.32 31.06 31.32 30.49 29.53 30.90 30.77 29.75 29.30 28.34 27.39 25.44 25.82 25.43 26.86 27.35 27.09 27.25 27.38 26.89 27.38 28.04 28.43 27.46 27.29 27.41 26.78 27.27 27.67 28.19 28.11 28.08 28.02 27.84
29.38 28.58 30.78 31.32 31.97 32.32 35.50 33.72 35.81 30.62 30.38 29.91 30.33 30.34 30.00 30.80 30.10 29.15 27.44 25.52 26.23 27.48 27.86 28.42 26.91 24.91 22.85 23.59 23.32 25.57 29.57 31.54 30.58 29.54 28.02 28.65 28.83 28.25 28.25 27.26 28.70 28.51 28.96 30.42
28.49 30.34 29.18 28.97 30.02 32.64 32.79 32.19 32.74 31.47 30.20 30.41 29.34 26.81 27.00 30.10 29.33 27.36 25.38 25.54 26.65 26.34 26.00 23.23 20.68 18.55 15.66 15.67 14.06 14.50 18.91 28.39 27.84 25.26 26.35 26.49 26.42 26.13 24.64 24.01 22.13 27.37 27.58 30.55

GFSCGP_sfc_wetblb_054.txt.gz
Wetbulb
44.96 44.50 42.61 44.86 45.61 42.35 42.38 41.18 40.74 42.39 43.54 42.92 44.25 44.63 46.51 48.74 48.95 47.99 49.25 50.25 51.01 51.28 53.14 53.21 52.55 52.18 52.53 53.43 52.93 53.16 53.52 54.61 56.05 56.14 54.65 54.62 55.98 54.89 56.43 59.35 59.87 58.81 58.33 58.32
43.51 41.49 45.87 44.34 42.86 42.28 41.77 40.99 41.45 42.52 41.95 42.19 43.48 42.97 46.41 47.75 48.06 49.44 49.90 50.48 51.16 52.02 52.63 52.33 51.38 51.15 50.63 51.31 51.98 52.49 52.91 53.96 55.67 55.74 55.48 56.30 56.29 53.69 55.33 55.07 54.46 54.69 55.08 55.88
41.99 42.80 43.46 43.22 40.76 40.40 41.18 40.82 40.92 40.37 40.95 42.29 40.88 41.59 44.77 46.75 46.89 47.96 49.04 50.18 50.78 51.34 51.82 52.74 51.13 50.21 50.95 50.45 51.12 51.46 52.40 53.40 54.66 55.39 55.39 52.59 51.38 47.31 47.96 49.07 49.74 50.30 51.94 51.24
42.62 43.66 41.41 40.96 40.43 42.20 39.11 42.79 40.82 39.51 39.74 37.24 40.56 35.46 42.60 45.53 45.63 46.51 48.46 50.14 50.69 51.06 51.35 51.42 52.02 50.05 50.26 50.92 51.73 51.65 52.14 52.80 53.90 54.95 53.57 51.73 52.27 50.00 49.58 50.82 49.42 47.93 48.97 49.97
41.45 40.31 40.03 40.01 41.67 42.85 40.72 41.38 40.68 39.76 39.80 37.60 38.50 36.14 41.04 41.08 42.69 45.26 48.28 49.84 51.19 52.18 51.62 50.82 50.93 50.62 50.91 51.08 50.72 51.16 51.63 52.03 53.13 54.17 53.31 53.29 53.15 54.51 49.38 50.71 50.24 48.37 47.02 46.97
40.93 42.46 42.99 43.30 40.90 42.47 41.64 41.01 40.02 39.62 38.83 33.72 38.90 37.33 39.03 41.95 43.27 45.00 47.34 49.06 50.37 50.21 50.01 49.66 49.89 48.87 48.96 49.82 49.43 50.27 50.48 50.80 52.30 53.12 52.68 52.78 53.01 52.25 48.70 51.10 50.02 48.12 47.40 46.59
38.66 40.02 41.74 42.35 40.18 41.30 41.57 40.44 34.05 32.45 31.62 32.04 34.90 34.23 39.19 43.44 45.34 45.34 46.73 49.16 49.40 48.48 49.21 49.82 49.64 48.78 47.28 46.58 47.47 48.57 49.33 49.28 50.77 52.03 51.88 52.58 52.91 51.93 50.84 50.69 51.16 49.19 47.49 46.02
35.26 33.18 39.67 42.31 42.55 40.33 39.53 40.85 35.25 28.50 29.41 33.90 32.09 32.16 39.82 44.45 45.85 46.18 46.65 47.68 48.11 47.42 48.46 49.09 49.89 49.32 47.67 45.88 46.72 47.65 47.82 48.41 49.47 50.30 50.88 51.99 52.47 52.15 51.02 49.15 50.92 49.29 48.38 47.10
34.80 34.42 39.40 39.35 41.56 43.41 38.18 35.79 42.01 35.50 27.79 30.90 36.33 39.90 42.90 43.88 42.93 43.87 45.51 46.81 47.64 48.92 49.31 49.23 49.88 48.68 47.36 46.14 46.22 47.02 47.44 47.91 48.76 48.49 49.94 50.31 50.78 49.61 48.95 47.54 48.26 47.82 48.48 45.64
39.05 33.96 36.80 38.52 41.45 40.75 39.94 42.24 34.28 35.44 29.98 27.71 34.59 35.28 37.47 42.75 44.20 46.14 45.17 46.47 47.54 48.33 47.42 48.61 48.64 47.21 46.01 45.72 46.31 46.85 47.53 47.55 48.25 47.71 48.65 49.25 48.90 48.54 47.91 46.71 45.39 46.07 44.25 42.09
42.03 37.85 34.27 37.45 37.00 37.01 37.30 36.42 36.19 37.35 35.04 31.36 30.00 35.71 43.57 43.95 45.30 45.16 45.89 45.64 46.84 47.69 47.94 47.75 47.30 45.52 44.63 44.53 45.15 45.84 46.54 46.95 47.13 46.79 47.63 47.61 47.91 47.61 47.03 45.40 44.46 42.68 39.58 39.02
41.42 37.68 33.85 35.18 37.61 38.14 38.60 38.87 38.75 34.13 30.29 32.54 31.36 35.86 42.42 45.30 46.32 45.16 45.79 45.96 47.03 46.67 46.97 46.48 46.04 45.09 44.17 43.94 44.36 44.85 45.84 46.33 46.87 46.53 46.54 46.10 46.63 46.49 45.51 43.50 41.88 39.70 38.14 37.80
41.03 35.17 31.69 33.52 35.66 36.56 35.69 37.96 39.61 39.84 35.90 33.96 31.87 36.03 43.29 43.51 44.20 45.89 45.77 46.48 46.51 46.74 48.37 47.70 47.01 47.12 46.14 45.11 44.23 44.32 44.95 45.65 46.17 45.77 45.17 44.75 44.92 44.77 44.28 43.25 41.21 38.98 39.03 36.78
42.92 36.50 34.49 31.76 36.55 38.05 33.88 35.87 37.63 37.93 33.45 34.09 35.60 38.26 43.04 43.91 43.96 46.26 45.91 46.64 48.11 47.79 46.75 47.86 48.55 48.63 47.24 45.06 44.59 44.11 44.32 45.14 45.35 44.54 43.73 43.56 43.55 43.55 43.55 42.48 39.59 37.06 37.71 34.46
41.02 34.96 37.49 38.60 40.19 36.75 37.41 36.58 36.26 35.17 37.69 34.75 37.76 38.58 42.24 44.40 45.38 46.54 47.66 47.71 47.34 47.54 48.10 48.96 47.12 48.49 47.85 45.34 44.00 43.13 43.89 43.98 44.48 42.89 42.47 42.40 42.63 42.60 42.66 40.82 37.10 35.38 34.90 32.98
40.13 34.27 37.39 34.15 38.99 38.67 36.55 38.79 38.50 37.42 38.41 38.47 39.33 39.19 45.80 46.93 47.81 45.12 44.65 45.15 45.71 47.29 48.30 48.90 48.37 46.75 45.37 46.42 45.11 43.59 42.73 42.82 43.00 42.00 41.49 42.09 41.18 38.83 37.69 36.67 34.77 32.83 32.48 30.46
37.48 34.18 31.82 30.58 36.27 35.12 30.69 35.61 37.82 38.45 40.32 40.15 35.86 41.19 45.69 45.13 45.23 45.46 46.00 46.31 45.20 46.48 47.90 48.22 48.33 48.05 46.86 46.62 45.10 43.36 43.09 42.65 40.81 39.74 38.81 37.91 36.64 34.89 34.98 34.54 33.19 31.75 31.08 29.94
36.99 35.18 33.63 30.38 31.70 23.35 36.19 42.97 42.23 39.71 41.03 42.33 41.83 42.81 44.50 45.31 46.86 47.44 48.44 47.42 47.21 47.91 48.22 47.39 48.35 48.52 48.45 45.93 44.33 43.32 41.48 39.83 37.89 37.04 36.69 36.06 34.84 34.15 33.92 32.98 32.06 31.36 30.20 28.86
38.01 36.67 31.34 28.68 28.57 32.87 35.41 38.84 38.98 37.80 37.93 43.03 42.28 43.51 44.71 45.83 45.81 45.83 48.17 48.65 48.04 48.47 48.50 47.25 45.91 44.16 44.34 43.33 41.94 38.23 36.16 36.73 35.95 35.36 35.62 34.92 34.15 33.12 32.33 31.32 31.50 31.05 29.44 28.25
36.35 37.99 33.04 30.76 26.11 23.74 34.94 40.50 43.28 41.55 32.84 43.70 44.15 43.37 43.85 44.70 39.21 43.52 47.23 42.45 42.30 41.01 39.98 39.70 39.29 39.09 39.66 38.98 37.37 35.02 34.21 33.81 33.73 33.91 34.21 33.66 33.30 32.23 31.04 31.53 30.97 31.49 30.49 28.43
30.06 31.62 29.34 29.53 28.04 32.17 38.53 40.27 40.94 30.00 35.26 36.91 41.72 43.72 43.40 42.16 45.10 47.20 40.11 39.63 38.95 38.48 37.46 36.20 35.48 34.99 33.53 33.69 33.37 32.70 31.91 31.92 32.19 32.25 31.71 31.66 32.08 31.35 31.87 31.46 31.30 30.25 28.95 26.89
29.40 29.83 28.94 29.59 26.66 24.51 36.18 37.03 34.83 36.88 37.90 36.77 36.74 38.34 38.87 40.92 41.05 38.61 37.64 37.51 36.15 36.33 35.00 33.35 33.60 31.97 32.06 31.66 32.21 30.52 30.04 29.47 30.11 30.01 29.50 29.23 29.88 30.51 30.64 29.45 29.68 28.80 28.04 26.38
26.91 32.03 29.79 32.04 32.78 36.57 37.88 37.71 40.15 38.24 37.15 38.88 38.83 39.20 36.03 36.02 36.42 36.77 35.73 34.49 33.35 33.03 31.81 30.64 30.36 29.08 29.11 29.26 31.27 29.49 27.41 28.36 27.71 27.48 26.60 28.20 29.60 30.17 29.80 29.44 28.54 28.49 28.17 27.23
31.25 35.58 32.20 31.60 33.83 35.93 37.69 38.19 38.11 39.12 39.11 40.55 39.43 35.85 37.94 35.94 35.88 35.31 33.31 32.24 31.10 29.19 28.44 29.12 29.56 28.17 27.66 29.45 29.00 28.27 28.31 28.83 27.93 27.56 27.64 28.20 28.49 28.93 29.40 30.00 29.96 29.49 28.88 28.35
31.43 31.83 31.73 30.50 33.21 34.84 35.93 37.19 38.97 39.67 40.43 39.34 39.55 35.82 35.09 34.30 34.56 34.26 31.60 30.15 29.98 29.54 29.59 29.59 27.96 26.07 24.45 25.60 25.57 27.34 31.02 31.85 30.64 29.51 28.97 29.32 29.21 29.50 28.94 29.59 30.11 30.07 31.68 31.85
31.60 29.76 27.28 27.08 33.54 33.70 35.21 37.20 36.23 37.10 38.70 38.72 36.57 34.18 30.48 32.09 32.63 31.38 29.49 29.32 29.64 27.84 26.34 24.15 22.13 20.83 19.69 19.98 19.97 21.79 26.38 32.22 30.70 28.99 28.90 29.25 29.52 29.43 28.59 27.94 26.50 30.41 31.53 32.24

GFSCGP_sfc_wetblb_060.txt.gz
Wetbulb
44.80 39.62 36.65 40.25 41.75 42.03 39.86 38.91 37.59 39.94 42.19 39.58 40.04 40.89 42.92 44.77 44.48 43.91 44.38 45.12 45.92 46.92 48.98 50.08 50.18 51.21 52.91 55.38 57.50 60.17 60.19 59.34 59.29 58.52 57.71 56.31 57.14 57.53 59.19 62.70 62.01 62.86 64.14 63.65
40.54 36.61 42.88 44.70 44.25 41.85 39.46 37.74 36.99 40.46 42.60 39.19 39.19 39.47 42.35 44.00 44.56 45.26 45.33 45.15 45.92 46.51 47.82 49.41 49.45 49.13 51.52 53.18 54.91 56.56 58.66 58.32 58.22 58.47 57.34 55.30 53.74 53.75 55.84 57.42 57.72 60.15 62.39 62.74
39.26 41.63 45.07 43.73 40.31 40.09 38.41 37.40 37.35 37.58 39.76 40.32 36.27 36.12 39.68 43.48 44.78 45.08 46.26 46.82 46.68 46.54 46.76 47.72 49.05 48.73 48.95 50.60 51.89 53.83 56.01 57.05 57.00 55.87 53.94 52.58 52.16 51.98 52.21 53.03 56.12 56.24 57.96 59.14
40.78 43.60 42.17 40.09 39.98 40.78 36.29 41.52 40.80 39.34 35.70 30.73 38.40 28.32 35.55 40.57 40.70 44.05 44.82 44.99 45.33 46.44 47.72 48.05 47.48 47.81 48.22 49.52 50.31 52.07 52.13 51.80 53.06 52.89 52.66 52.17 51.36 50.26 50.32 50.90 52.20 54.66 55.10 55.81
38.71 39.34 39.04 38.89 40.30 41.98 38.74 41.37 39.56 38.59 35.08 34.58 33.36 29.67 34.64 39.30 38.80 41.55 44.13 44.87 45.65 47.60 47.26 47.04 47.86 48.98 49.08 49.10 48.28 49.43 50.67 50.83 51.19 52.65 52.59 52.09 50.29 50.20 49.05 49.52 49.74 52.60 52.89 54.32
39.75 41.75 41.42 41.06 41.47 41.66 42.80 40.20 38.95 37.46 35.56 26.73 34.00 32.96 31.85 36.06 38.77 40.31 42.01 43.66 46.16 45.87 46.14 47.03 47.04 47.67 48.25 48.56 48.82 48.49 48.68 49.23 50.21 50.63 52.00 50.82 50.31 48.84 48.07 49.08 50.03 51.29 51.09 51.86
38.82 38.69 40.73 42.28 38.57 40.61 39.00 35.81 26.91 26.11 25.59 24.31 33.47 31.27 36.17 40.03 42.08 41.45 42.51 42.15 44.39 44.30 45.94 45.91 45.12 45.40 45.30 46.47 47.35 48.16 48.04 47.49 48.67 49.25 49.83 50.61 50.03 49.40 48.47 49.62 50.23 49.68 49.80 49.07
32.98 30.79 38.40 41.22 40.16 37.13 36.83 36.35 28.23 22.55 24.17 25.91 29.71 27.27 34.79 41.63 41.89 42.37 43.73 43.41 44.47 45.39 45.88 45.53 45.95 46.83 45.54 45.74 45.78 46.16 46.66 46.77 47.36 48.10 48.71 49.64 50.59 51.00 50.57 50.07 50.78 50.51 49.66 49.27
33.24 33.97 39.33 40.71 41.05 41.35 36.68 33.30 38.44 30.94 22.88 23.54 29.88 34.23 39.54 41.43 41.36 41.76 42.08 42.89 42.93 44.65 44.96 45.00 45.96 46.46 45.48 44.71 45.07 45.45 45.37 45.94 46.59 47.04 47.51 48.17 49.06 49.40 49.27 49.24 49.18 49.86 49.75 49.16
37.79 32.03 37.00 37.43 39.86 39.38 37.34 40.00 30.68 30.40 19.79 18.94 27.30 29.39 32.66 37.42 40.04 41.79 40.54 41.72 43.64 44.20 44.35 45.19 45.58 45.45 44.66 44.64 45.06 45.47 45.94 45.53 45.92 46.40 46.68 47.17 48.06 48.49 48.80 48.85 47.92 48.48 49.23 49.40
39.40 36.16 31.87 35.84 34.55 34.77 34.49 33.22 34.69 35.06 31.00 24.42 22.96 28.38 37.53 38.58 41.14 41.66 42.39 44.30 43.90 44.14 44.06 44.18 44.29 43.97 44.01 43.68 43.90 44.15 44.69 45.01 45.08 45.68 45.88 45.96 46.14 47.11 47.70 47.86 47.36 47.25 46.65 45.91
40.24 37.61 29.61 32.41 36.66 37.42 35.58 35.58 36.11 29.31 27.62 28.70 28.00 31.81 39.92 41.58 43.00 43.79 42.84 43.55 43.48 44.21 44.73 44.52 44.58 44.42 43.09 42.87 43.15 43.54 43.97 44.18 44.71 45.24 45.38 45.27 45.56 45.88 46.10 46.37 46.26 45.40 45.04 42.94
40.95 34.97 25.54 29.52 33.41 35.10 33.23 36.11 37.14 36.62 31.41 28.01 23.96 30.46 40.86 39.43 41.51 41.71 40.99 41.66 44.52 45.08 44.71 45.26 45.25 44.60 44.52 44.02 43.67 43.50 43.80 43.94 44.42 44.77 44.40 44.28 44.10 44.52 44.98 45.22 45.14 44.56 43.49 40.97
43.02 36.70 33.22 28.66 34.00 37.28 32.00 33.68 36.47 35.34 27.38 30.74 31.02 34.47 39.46 40.07 40.26 41.46 42.18 42.50 43.33 44.45 45.29 44.76 44.04 45.16 45.54 45.57 44.58 43.67 43.62 43.92 43.73 44.08 43.80 42.80 42.53 43.88 44.11 44.40 44.02 43.24 41.64 37.60
40.59 32.81 34.98 36.14 37.47 37.88 37.23 36.63 36.55 35.03 34.76 30.58 33.88 34.47 39.01 41.56 41.94 42.66 44.23 44.59 44.62 45.17 45.38 45.27 45.40 45.91 45.12 45.22 45.34 44.44 43.75 43.51 43.33 43.39 43.16 43.73 41.82 42.80 42.89 41.35 40.05 39.12 37.37 36.36
40.58 33.20 34.80 32.23 36.46 37.09 34.54 36.91 36.70 36.33 36.42 36.14 36.38 35.80 42.76 44.18 44.65 44.09 44.70 44.42 43.91 44.19 45.06 45.35 45.46 45.52 45.42 45.36 45.94 45.78 44.19 42.59 42.46 42.38 42.42 43.05 39.87 38.33 37.83 37.41 37.17 36.10 34.50 33.40
36.93 33.89 32.03 28.20 32.09 32.70 29.97 33.19 35.32 36.79 38.96 38.13 33.87 38.84 41.60 41.53 43.15 44.17 44.40 43.84 45.23 46.03 46.90 46.28 45.87 45.80 45.73 45.37 45.43 44.14 43.47 41.87 39.36 37.80 34.27 34.10 35.10 35.06 35.99 35.71 34.86 33.35 32.25 31.07
35.30 33.01 31.98 28.28 29.96 22.32 31.48 38.04 38.42 36.85 38.58 40.09 40.72 41.74 43.12 43.42 44.96 45.58 44.51 44.48 45.90 46.47 46.61 46.32 46.22 44.74 43.18 42.46 42.03 41.37 37.19 36.76 35.97 32.59 32.57 31.11 33.61 31.95 31.42 31.78 32.10 31.27 30.62 29.04
37.27 33.70 29.34 26.09 23.88 28.27 30.58 34.03 32.61 31.72 33.80 39.61 39.83 42.00 42.86 42.02 40.87 43.07 43.55 42.26 41.76 41.97 42.00 40.93 40.17 39.77 39.36 38.98 37.28 34.42 33.75 34.06 34.33 33.73 33.14 32.38 30.32 29.38 29.62 28.49 28.41 28.38 27.55 25.56
34.30 35.16 29.02 23.93 11.89 7.26 28.02 33.82 37.61 37.25 27.95 37.31 38.57 37.94 37.27 38.07 33.64 38.73 39.62 40.59 40.11 40.09 39.27 37.83 36.31 36.64 37.07 34.84 34.43 32.69 32.56 31.28 31.62 32.23 32.75 32.14 28.94 27.44 26.56 27.66 26.46 25.51 24.99 28.41
25.01 22.69 25.85 26.11 23.77 26.29 30.47 33.66 36.26 23.29 26.65 30.63 34.18 35.71 35.52 34.74 37.12 39.79 40.73 39.73 38.75 37.64 37.01 36.11 34.45 34.67 32.88 32.21 30.95 31.34 30.57 28.40 28.76 28.21 27.74 27.03 27.56 26.13 26.96 25.99 24.62 23.54 23.78 27.51
20.63 17.09 18.59 20.12 21.90 20.27 32.07 32.09 30.07 32.67 31.77 31.53 32.72 34.44 34.53 35.54 37.26 37.51 37.69 36.25 35.93 35.25 35.14 33.91 32.17 31.54 30.25 29.01 28.85 27.68 26.52 27.53 25.23 25.29 25.06 23.59 22.46 26.21 25.65 24.25 22.55 21.99 21.43 25.30
18.12 25.24 21.93 26.50 24.55 33.27 34.19 33.25 38.25 36.98 35.65 35.01 35.23 35.34 36.24 35.56 35.13 36.13 36.43 37.75 35.99 34.47 33.00 30.67 28.08 27.99 28.23 25.75 27.00 26.00 25.89 25.71 24.47 23.52 23.66 23.75 23.61 24.86 24.11 23.72 22.12 22.64 20.88 22.84
23.49 25.49 21.13 20.42 25.17 28.95 31.39 35.26 35.98 37.53 35.50 35.54 35.47 35.28 35.72 36.12 36.15 35.83 35.87 36.08 34.35 31.92 29.57 26.26 25.37 27.68 26.48 24.99 26.71 23.88 24.36 25.60 22.73 22.28 23.00 26.68 27.81 23.87 22.05 24.14 24.58 23.68 23.39 23.17
24.39 23.85 20.21 21.27 26.13 26.11 28.37 30.67 33.04 32.70 33.89 34.75 35.72 35.85 37.14 35.21 35.07 35.22 35.00 32.70 33.23 32.86 26.50 25.35 25.01 24.74 24.56 26.59 27.33 28.04 26.30 27.24 25.97 23.16 26.19 27.73 28.06 27.68 25.01 25.61 25.07 27.68 27.91 26.68
26.03 24.92 22.31 21.98 27.57 28.00 29.57 31.77 32.27 31.12 31.52 32.89 33.48 34.26 34.36 32.82 33.21 33.84 31.90 31.21 30.02 26.13 24.23 22.77 21.40 22.16 20.57 20.66 24.52 26.53 30.25 29.24 28.65 26.68 25.42 27.35 27.30 27.14 26.94 28.24 29.66 33.08 33.05 33.64

GFSCGP_sfc_wetblb_063.txt.gz
Wetbulb
40.61 36.05 33.17 36.16 37.62 38.13 36.79 35.09 32.86 36.09 40.32 38.36 37.52 37.32 39.99 42.71 41.04 40.69 41.51 41.76 42.63 44.36 46.42 46.33 47.83 49.30 52.90 54.85 57.76 59.50 61.15 61.24 61.51 61.52 60.94 58.17 59.59 57.58 58.36 59.68 60.24 62.43 63.92 62.92
36.73 33.21 39.18 40.51 40.48 39.16 37.09 34.11 32.90 36.78 39.85 37.30 36.32 37.42 39.24 41.14 42.79 42.26 43.07 41.27 42.23 42.92 44.85 46.28 46.12 46.62 50.08 54.70 56.75 59.00 60.03 60.22 61.15 61.38 61.35 61.04 56.73 54.71 57.08 57.52 58.30 59.31 62.07 62.87
35.18 38.68 41.39 41.33 37.78 37.75 35.38 34.26 33.73 34.34 37.10 35.99 34.00 33.65 36.07 40.61 41.02 42.08 42.92 43.66 43.64 44.11 44.17 44.87 45.26 45.22 47.92 50.04 53.84 56.95 59.07 59.25 60.41 59.52 55.61 52.20 52.59 51.35 52.66 53.29 56.97 56.54 57.85 61.39
38.30 41.41 40.60 37.79 37.53 38.27 33.70 37.87 38.36 36.77 33.24 28.83 35.45 26.18 32.25 38.93 39.78 39.53 41.43 42.12 42.52 42.88 44.08 44.70 45.02 44.94 44.84 50.28 52.80 54.76 56.35 56.87 58.11 55.64 55.69 54.83 55.53 54.30 55.28 54.75 53.40 53.99 54.73 56.23
36.61 37.45 37.10 36.51 38.02 39.52 36.43 39.07 37.32 36.25 32.83 31.08 30.37 27.56 31.65 35.00 36.52 39.56 41.03 41.45 41.42 43.01 43.43 44.47 44.77 46.16 45.43 46.40 47.68 49.49 50.82 52.24 55.63 55.35 54.92 53.86 53.23 50.17 48.04 48.80 50.02 50.42 50.77 52.70
37.45 39.95 39.29 39.18 39.51 39.64 40.89 38.72 37.48 35.35 32.38 24.46 31.16 30.21 27.78 33.10 37.12 37.16 40.30 40.78 43.30 43.88 43.64 44.12 44.87 45.74 46.20 44.82 45.61 47.40 48.84 48.64 48.98 51.13 49.84 51.43 51.56 47.72 47.51 46.92 47.98 48.16 49.01 49.39
35.90 36.21 38.53 40.59 37.17 39.51 37.75 32.98 24.90 23.79 23.58 23.44 29.30 27.47 31.65 37.31 40.33 39.18 40.33 40.48 43.48 43.45 43.53 44.27 44.75 44.36 44.04 44.71 45.06 45.54 46.24 46.82 47.51 48.08 48.88 49.15 49.85 49.18 48.92 47.64 48.52 47.21 48.09 48.43
30.62 28.38 36.94 39.88 37.99 35.97 35.56 33.36 25.58 20.90 22.10 23.83 28.49 26.57 34.14 39.61 40.70 41.19 41.57 41.00 41.42 42.12 42.79 43.17 43.36 44.04 43.40 43.34 44.59 45.62 45.79 45.60 46.26 47.02 47.56 48.73 48.90 49.11 49.66 48.21 49.54 49.88 49.90 49.77
30.46 30.96 37.31 38.35 39.59 39.63 34.78 31.98 36.31 29.16 18.22 21.61 27.08 31.33 37.32 39.62 40.57 40.88 40.27 41.40 41.46 41.84 43.59 43.36 44.10 43.84 43.67 43.34 43.96 44.44 44.63 45.31 45.46 45.95 46.45 47.12 48.33 48.81 48.99 47.87 48.30 49.90 49.83 49.10
35.24 30.41 35.10 36.28 38.40 37.78 36.63 38.30 30.26 28.48 18.48 17.37 24.03 26.53 30.77 35.81 38.92 40.00 40.52 41.58 42.53 42.53 42.93 42.50 43.15 43.21 43.12 42.96 43.48 43.88 44.19 44.25 44.84 45.11 45.38 46.54 47.66 48.35 49.13 47.73 47.85 47.29 48.62 47.64
37.14 34.27 30.25 33.94 33.06 33.28 33.54 32.32 33.20 33.41 28.79 22.76 20.17 26.63 34.71 36.70 38.31 39.68 40.91 42.31 42.64 42.96 42.49 42.65 42.70 42.60 42.91 42.67 43.10 43.32 43.41 43.83 43.91 44.39 44.61 44.70 45.49 46.42 46.92 47.69 47.91 46.74 45.82 47.22
38.03 35.01 26.50 30.83 34.12 35.18 33.46 33.65 33.88 27.29 25.88 26.49 26.18 30.49 38.75 40.30 40.65 41.53 41.53 42.27 41.38 42.33 42.91 42.89 43.21 42.50 41.75 42.02 42.14 42.68 42.89 42.95 43.49 43.98 44.06 44.04 44.50 44.86 44.90 45.68 45.52 45.04 45.59 44.40
38.94 32.64 22.03 27.61 32.07 33.95 31.51 33.97 35.21 34.00 29.54 26.97 22.34 30.01 37.93 38.26 40.11 40.47 41.69 42.54 43.61 43.13 43.77 43.64 42.80 42.76 42.50 42.02 42.03 42.26 42.39 43.09 43.32 43.31 43.20 43.28 43.52 43.36 44.29 44.57 43.96 43.97 43.61 42.67
42.41 34.94 30.00 25.62 31.27 35.54 30.65 33.39 35.66 34.00 26.44 29.06 29.18 33.51 37.52 38.99 39.04 39.19 40.42 41.06 41.78 43.01 44.02 43.43 43.38 43.20 42.49 43.34 43.36 42.60 42.40 42.69 42.74 42.53 42.53 42.37 42.94 43.27 43.97 43.16 43.02 42.69 42.03 40.71
40.43 33.28 34.54 34.41 36.29 37.36 36.74 35.56 35.84 33.31 32.45 28.81 31.66 32.02 37.12 38.99 40.68 42.10 40.90 42.44 42.32 42.71 42.83 43.47 43.75 44.00 43.77 43.44 43.41 43.58 42.94 42.48 42.43 41.72 41.74 42.55 41.91 41.48 41.71 40.56 39.58 39.09 38.63 39.14
39.11 31.72 35.40 32.02 35.38 36.08 34.17 36.04 35.48 35.85 35.10 33.92 34.12 33.44 40.53 41.78 42.54 41.68 41.64 41.74 41.95 42.15 42.78 43.70 44.33 44.32 44.30 44.33 43.50 43.47 43.04 42.57 41.23 40.77 40.76 41.82 39.33 37.50 37.23 37.05 37.09 36.59 35.98 34.69
37.30 33.74 32.02 28.47 31.98 32.22 28.73 32.15 34.20 35.62 37.18 36.99 33.00 37.37 41.24 40.46 40.37 39.91 42.17 42.45 41.98 41.17 41.83 42.00 41.90 42.36 42.26 41.74 41.69 41.17 40.74 39.42 37.37 35.97 34.82 33.69 34.77 34.81 35.83 35.53 35.22 34.90 34.10 32.47
35.86 32.94 31.89 25.72 27.54 21.18 29.32 34.74 36.84 35.31 36.86 38.59 39.10 40.29 41.33 41.57 40.47 40.88 40.82 39.66 40.02 40.28 40.33 40.53 40.30 39.38 39.16 38.76 38.47 37.21 34.77 34.03 33.93 33.15 32.89 33.10 31.80 31.16 30.28 30.49 31.80 32.66 31.43 29.63
36.00 33.79 25.17 15.52 14.56 24.71 29.95 31.57 31.75 29.28 29.87 35.28 34.89 37.09 37.84 36.86 36.96 37.59 39.76 39.92 39.31 39.59 39.87 39.30 38.83 37.64 37.08 36.77 35.00 32.43 32.30 32.61 32.78 33.07 33.05 33.36 31.38 28.55 28.43 27.50 27.43 27.66 26.31 25.11
34.36 34.38 29.01 12.06 16.87 11.35 26.54 31.95 34.21 34.05 25.14 33.13 34.60 33.97 33.86 34.66 29.71 32.62 38.17 38.39 38.61 38.75 38.10 37.51 36.87 35.84 35.28 34.49 32.84 31.13 31.45 30.20 31.06 31.18 31.81 31.60 28.36 25.50 25.09 26.79 25.22 24.52 23.71 25.68
26.27 27.41 24.97 23.59 19.10 18.58 28.34 29.61 34.51 21.06 23.53 29.30 32.11 33.62 32.85 32.39 34.63 36.66 37.97 37.90 37.63 36.45 36.92 36.45 35.32 34.44 33.87 31.70 29.65 29.64 30.03 29.39 28.07 27.02 26.68 26.04 26.16 24.19 24.68 23.23 22.96 21.52 25.03 28.03
23.93 22.38 22.26 24.97 21.49 18.89 30.29 30.46 27.03 30.39 30.36 31.42 32.04 33.42 33.07 33.08 34.15 34.41 35.18 34.88 35.12 35.12 34.66 34.76 33.29 32.93 31.70 28.93 27.89 28.58 27.43 27.48 24.18 23.27 22.96 21.46 20.30 24.67 23.06 22.25 18.25 19.11 23.46 26.60
15.91 23.00 17.51 23.24 22.71 29.87 32.63 32.06 35.69 36.04 34.40 32.77 33.97 33.78 34.61 33.86 33.39 34.60 34.91 35.38 35.15 34.38 34.63 33.18 30.73 30.50 29.36 24.07 24.48 26.30 25.53 24.04 22.26 21.75 24.44 22.82 21.31 22.27 21.75 23.21 21.65 20.28 21.93 25.59
22.35 22.66 20.20 20.70 23.25 23.87 29.96 33.79 36.06 37.70 35.84 34.01 33.51 33.07 32.80 33.09 33.55 33.84 33.27 33.65 34.08 33.06 31.22 27.46 26.19 26.27 26.30 22.37 24.03 22.51 22.34 21.99 21.74 26.19 26.07 26.87 25.77 22.60 19.48 22.18 21.94 21.08 19.93 24.18
23.17 23.51 18.59 18.21 23.47 24.40 26.13 28.74 31.15 32.29 33.22 32.25 32.36 33.25 33.06 32.51 33.67 33.01 31.91 30.40 31.67 31.05 28.95 24.49 25.12 25.11 23.99 21.32 20.47 20.83 22.54 21.92 21.86 25.93 26.65 27.17 27.31 23.29 21.47 24.41 26.95 26.58 26.39 26.36
24.69 23.80 20.39 17.29 25.10 25.62 27.23 30.26 30.87 29.41 29.22 29.93 29.74 29.94 31.26 31.45 31.46 31.20 30.31 31.14 29.59 29.33 26.29 22.40 20.13 19.33 17.06 16.10 17.05 23.91 22.98 22.78 23.91 25.10 26.71 26.93 27.19 25.59 26.15 28.99 29.87 33.96 33.56 33.06

GFSCGP_sfc_wetblb_069.txt.gz
Wetbulb
38.79 35.83 32.78 35.71 34.64 32.12 33.04 31.74 31.25 33.42 37.38 35.56 34.47 34.88 38.03 40.13 37.05 38.37 38.59 39.05 39.01 40.56 43.46 42.92 43.42 45.75 51.48 53.97 56.56 58.38 60.46 61.56 62.47 62.49 61.52 61.25 61.48 61.16 61.11 62.33 62.65 64.22 63.75 61.78
35.95 32.43 37.22 37.38 36.49 35.30 33.35 31.50 31.09 34.32 36.96 35.65 33.97 35.24 37.54 38.91 38.64 39.15 39.42 39.07 38.89 38.71 39.75 42.55 42.35 41.38 44.86 51.43 55.71 57.45 59.32 60.68 61.56 62.75 63.10 62.89 62.51 61.50 60.41 58.80 59.93 62.62 63.66 63.61
33.78 36.01 38.50 37.93 34.87 34.39 31.47 31.09 30.97 31.45 33.89 33.49 31.53 31.03 32.10 35.93 36.38 38.88 39.55 39.64 39.29 39.81 40.35 40.59 41.07 41.54 40.85 43.79 50.72 55.94 58.03 59.86 61.38 62.15 59.24 54.12 53.77 52.32 53.74 54.04 57.03 58.55 62.35 63.11
35.11 37.99 37.11 36.30 35.06 35.67 31.76 36.30 35.26 34.06 30.79 27.11 30.37 25.12 29.74 33.88 35.63 36.87 38.05 36.46 37.55 38.35 38.97 40.34 40.48 40.70 40.44 41.85 45.46 52.08 56.16 58.75 60.08 60.84 59.16 58.55 59.69 58.91 58.68 59.25 55.43 56.28 57.55 60.41
34.61 36.81 36.04 34.44 35.88 37.07 34.06 36.84 34.99 33.01 30.06 28.98 28.17 26.57 30.00 30.42 34.26 36.09 37.21 38.32 40.31 41.05 41.96 42.33 42.48 42.09 41.66 41.65 42.36 49.05 53.49 56.32 57.40 59.07 59.32 58.37 57.79 57.31 53.97 52.42 53.15 53.34 53.39 58.10
35.27 37.54 36.34 36.50 36.78 36.31 37.99 35.15 32.91 31.27 28.39 23.25 28.00 26.83 26.64 29.96 31.92 36.20 37.77 39.69 40.56 40.09 40.00 40.76 41.20 42.09 42.56 42.01 43.46 46.90 51.66 52.77 54.41 55.61 55.58 56.40 56.88 53.56 49.93 49.02 49.74 50.09 50.63 52.33
33.50 34.01 36.56 38.17 35.81 37.07 33.93 30.86 23.76 21.82 21.09 21.59 26.01 25.08 29.24 33.20 35.01 34.63 36.68 38.02 38.69 39.46 40.02 40.63 41.18 41.32 41.55 42.74 42.34 44.62 47.83 48.35 51.41 52.95 53.06 53.99 55.07 52.35 51.44 50.56 50.84 47.65 48.59 47.87
29.85 28.21 35.81 37.83 36.43 34.68 32.47 31.56 24.65 19.05 18.19 21.83 26.99 24.92 31.80 36.31 36.72 36.34 36.98 38.37 39.32 39.76 39.75 40.42 41.09 41.45 41.38 41.95 43.22 43.41 44.51 45.66 46.42 48.58 49.84 49.71 50.45 50.91 51.91 50.25 49.96 49.73 50.04 50.28
29.21 29.11 35.34 36.16 36.46 37.85 33.07 28.85 32.23 25.11 13.36 19.73 24.60 28.34 34.83 35.75 34.94 37.97 39.86 40.20 39.78 40.24 40.44 41.27 41.95 41.95 42.30 42.39 42.58 43.12 44.07 44.39 44.22 44.68 45.38 45.80 46.83 47.47 48.83 48.06 47.38 48.78 47.42 47.49
34.18 28.36 32.86 34.33 36.47 35.53 33.72 36.28 28.52 25.49 16.05 14.50 21.23 23.46 28.16 32.64 35.07 36.80 38.29 38.98 39.45 39.82 40.70 41.25 41.39 41.67 41.57 41.49 41.67 42.19 42.47 42.71 43.09 43.56 43.65 44.04 44.77 45.47 46.33 46.28 46.17 46.52 46.88 46.11
34.53 32.89 29.40 33.26 32.10 32.03 32.48 30.98 30.59 31.07 26.12 19.84 16.29 24.14 31.66 32.83 36.76 37.26 37.19 39.36 40.06 39.68 40.65 41.25 41.23 41.26 41.28 41.33 41.38 41.39 41.90 42.14 42.46 42.47 42.38 42.48 42.83 43.47 44.08 44.59 45.76 45.90 45.35 44.84
35.73 32.60 26.30 29.59 32.24 33.46 32.98 31.93 31.59 26.15 23.76 24.02 24.50 26.03 35.44 37.76 37.66 38.78 38.62 39.76 39.46 41.66 41.97 41.11 41.30 41.30 41.66 41.58 41.43 41.07 41.29 41.39 41.88 42.06 42.10 42.06 42.46 42.48 42.48 42.95 43.97 43.92 44.33 43.71
36.73 30.14 23.03 28.09 30.62 31.85 30.44 31.83 32.58 31.09 28.75 25.41 22.54 25.65 35.43 34.63 35.51 36.55 37.56 37.96 40.53 40.95 39.78 40.24 40.79 40.69 40.88 40.72 40.77 40.71 40.91 40.90 41.11 40.96 41.01 41.31 41.59 41.67 41.93 42.33 42.62 42.50 42.37 42.26
40.17 31.57 29.37 27.47 28.88 31.78 29.21 30.47 31.87 32.16 25.14 27.87 27.66 29.16 32.19 33.86 34.76 36.28 36.44 36.60 37.66 38.88 39.87 39.71 39.91 39.66 39.98 40.57 40.84 40.76 40.86 40.65 40.09 39.69 39.76 39.71 40.14 40.53 40.99 41.31 41.16 40.97 40.88 40.37
38.46 28.98 31.35 32.31 34.61 33.67 32.03 31.64 32.80 29.86 32.52 28.05 31.17 30.15 33.09 35.60 36.95 37.26 37.59 38.29 38.90 39.10 39.22 39.30 39.29 39.38 39.16 38.86 39.11 38.82 38.90 38.67 37.69 37.11 37.09 37.73 38.10 38.17 37.88 37.29 36.94 36.56 36.19 37.92
38.15 30.73 32.93 30.71 34.19 34.26 31.28 33.97 33.49 32.16 31.81 32.52 32.10 33.02 38.32 39.37 37.55 38.54 38.33 38.64 37.86 37.64 38.09 38.45 38.80 38.94 39.23 38.99 38.84 38.63 37.72 36.73 35.44 35.11 34.35 34.85 33.23 32.73 33.19 33.56 33.94 34.14 34.39 34.41
36.75 33.45 29.62 27.84 32.38 32.88 29.58 31.87 33.07 33.16 34.90 34.59 31.31 35.34 36.72 35.64 36.58 37.08 36.82 36.63 36.21 36.73 37.66 37.61 37.61 37.77 37.80 37.60 37.33 37.37 37.20 34.99 32.58 32.06 32.34 32.11 32.00 32.27 32.52 32.22 32.39 33.10 33.63 33.32
35.38 33.20 31.73 25.64 29.52 22.46 28.98 31.54 36.05 34.95 35.90 37.62 36.55 36.29 36.64 36.72 36.82 36.43 36.19 35.66 35.76 36.29 36.80 37.13 37.12 37.01 37.20 36.69 36.36 35.41 33.35 32.40 32.60 32.56 30.57 29.14 30.41 30.06 30.45 30.82 30.80 31.27 31.71 29.83
38.19 34.26 28.25 25.42 25.18 25.48 27.23 29.57 31.77 31.65 30.97 36.72 36.36 32.17 32.59 33.25 33.35 33.74 36.14 36.27 35.97 35.85 37.10 36.98 36.29 35.98 35.87 35.55 35.29 32.59 32.84 31.69 31.62 31.95 32.03 31.02 29.31 29.13 29.42 27.87 27.90 27.67 25.83 24.89
35.73 36.31 31.01 22.60 22.25 15.10 24.56 29.47 32.21 31.53 23.63 31.73 32.86 32.07 31.75 31.92 27.69 29.50 36.09 33.20 34.18 35.32 35.90 35.65 34.99 34.59 34.49 35.21 33.51 31.30 31.40 29.80 30.73 31.20 30.86 29.33 27.99 28.51 30.06 29.12 27.17 24.40 21.84 25.37
29.59 30.53 28.03 19.03 19.01 21.13 26.57 29.36 30.02 18.55 22.51 27.22 32.42 32.36 31.68 29.98 31.34 32.21 32.72 32.84 32.33 33.06 33.78 33.50 33.01 33.20 33.52 33.10 30.95 29.69 29.16 29.14 29.77 27.54 26.52 25.09 24.88 23.99 24.60 23.79 21.17 19.69 19.67 22.68
27.39 25.76 23.83 24.14 20.87 18.30 28.09 28.18 25.83 27.67 29.44 29.92 30.40 30.63 30.30 30.27 30.53 30.36 30.75 31.40 31.71 31.86 32.23 31.58 30.56 30.63 31.35 30.01 26.80 26.93 26.73 28.89 25.33 24.30 23.31 22.76 25.27 21.78 23.78 15.21 16.56 14.41 15.76 18.68
18.80 23.65 19.85 23.85 24.50 28.17 28.75 28.88 31.15 31.64 30.67 30.05 31.12 30.81 30.59 29.90 28.27 28.64 29.65 30.17 30.68 31.54 31.07 30.62 27.44 27.70 28.58 24.76 23.28 24.32 27.13 24.20 24.59 22.98 22.90 25.63 27.28 20.95 18.57 14.54 16.12 15.32 13.49 15.49
20.81 21.13 18.53 19.77 19.76 25.35 29.58 32.72 32.83 32.52 31.75 31.48 30.99 30.30 30.54 28.97 28.90 28.66 29.11 29.32 29.85 27.79 27.16 24.97 24.10 24.54 25.05 25.25 23.01 22.33 23.00 22.24 19.22 19.17 21.31 26.07 25.65 20.41 16.22 18.71 18.71 22.03 21.54 25.20
21.70 23.24 16.63 16.86 20.57 22.82 24.64 27.19 30.69 29.63 29.27 28.39 29.28 28.63 28.14 27.89 27.66 27.90 28.04 27.77 27.54 27.20 24.84 22.81 23.15 23.54 24.00 24.09 23.88 20.63 20.89 26.17 24.60 20.87 20.22 22.68 21.66 18.33 18.59 21.13 21.13 21.60 22.24 26.68
24.10 23.01 21.24 18.53 25.48 25.79 26.69 29.14 29.54 27.80 29.11 29.67 28.70 27.94 27.65 27.56 27.74 27.94 27.76 26.41 25.68 24.96 22.80 23.15 21.73 20.25 22.81 20.10 20.35 20.05 14.48 18.50 23.90 24.23 24.96 25.55 25.64 20.42 21.67 25.61 26.43 31.23 30.75 31.06

GFSCGP_sfc_wetblb_072.txt.gz
Wetbulb
37.56 34.53 32.84 35.32 34.52 32.17 32.02 30.22 29.47 32.86 35.48 34.19 33.38 34.01 37.17 39.19 37.26 37.65 38.11 38.08 38.08 39.14 41.49 41.88 42.10 45.12 51.37 54.09 56.11 58.56 59.42 60.79 61.63 62.01 61.96 62.06 61.78 62.25 61.57 61.84 62.63 63.31 61.26 60.89
34.99 31.97 35.71 37.11 36.08 35.28 32.97 31.23 30.27 33.00 35.45 34.99 32.41 34.49 36.94 38.02 38.34 38.60 38.25 37.98 37.75 37.36 38.65 40.47 40.74 39.85 44.05 50.29 54.96 56.76 59.24 60.06 61.33 62.31 62.31 61.07 62.23 62.17 61.75 61.19 61.53 63.37 63.13 62.39
32.96 35.01 37.72 36.63 33.11 34.25 31.11 31.05 29.99 31.04 32.03 31.59 29.49 30.49 31.50 34.03 35.02 37.09 37.18 37.38 36.92 37.59 37.56 38.56 39.63 39.07 38.91 41.50 48.58 54.65 57.24 59.29 60.84 62.24 58.34 55.16 56.09 55.60 56.63 56.81 59.40 61.29 63.14 63.06
34.38 36.18 36.03 34.75 32.53 33.73 30.47 34.92 34.07 33.63 29.96 27.12 29.72 24.94 30.00 32.95 34.72 35.53 36.14 35.77 37.35 38.83 39.69 40.06 39.77 39.24 38.66 39.77 40.92 49.59 53.53 55.95 58.69 59.63 59.07 58.96 60.44 59.79 60.18 59.61 56.92 56.84 59.14 62.31
33.59 35.38 34.92 33.85 34.92 35.88 33.01 35.51 33.79 31.44 29.29 28.11 27.36 26.21 30.26 29.84 32.59 35.00 37.88 38.04 37.80 37.64 38.25 39.27 39.96 41.57 41.32 41.10 39.45 42.87 49.56 53.74 55.99 59.01 59.25 58.40 57.28 57.20 54.60 53.63 53.80 53.74 53.97 57.87
34.38 37.19 35.97 35.72 35.83 35.34 36.66 33.69 31.83 29.50 27.57 22.79 26.66 26.07 27.56 30.14 31.09 33.00 34.44 35.87 37.82 38.52 39.01 39.91 40.27 40.83 41.58 41.42 43.35 45.45 48.67 51.19 53.97 56.13 55.92 56.32 56.39 54.91 51.43 50.41 51.10 51.30 51.20 52.36
32.21 33.26 36.42 37.52 35.12 36.02 32.36 30.18 23.56 21.84 20.86 21.26 25.12 24.43 29.09 32.52 34.39 33.49 35.02 36.53 38.15 38.02 38.66 39.68 40.15 40.57 40.80 41.75 41.92 44.97 48.16 49.25 51.12 52.84 53.29 53.57 53.89 53.25 52.03 51.34 51.11 49.36 49.06 48.62
29.19 27.38 35.18 37.37 35.74 34.18 31.21 30.63 24.92 19.03 17.23 21.35 26.14 23.83 30.14 33.40 35.14 34.97 36.83 37.58 37.96 38.91 39.40 40.13 40.47 40.46 40.27 40.66 41.60 42.41 43.92 45.07 46.89 48.89 50.24 50.53 51.23 51.37 51.08 50.76 49.86 49.36 49.34 49.66
28.98 27.99 34.46 35.37 36.13 37.65 32.41 28.42 30.96 23.54 12.07 18.67 23.44 27.10 32.15 33.60 36.19 36.70 37.91 38.64 38.25 38.57 39.35 39.62 40.17 40.08 40.40 40.41 40.58 41.09 41.71 42.16 42.77 43.49 43.82 44.52 45.90 46.93 47.95 48.13 47.59 47.76 47.47 47.43
34.42 27.86 32.35 33.95 35.97 35.77 33.33 34.77 28.03 24.61 14.61 14.71 20.43 22.68 26.48 30.07 33.84 35.12 37.30 37.73 38.22 38.39 39.39 39.52 39.61 39.70 40.01 39.94 40.28 40.87 41.23 41.40 41.39 41.66 41.85 42.40 42.89 43.52 44.27 44.69 45.09 45.18 45.68 45.29
34.34 32.97 29.53 33.32 31.86 30.94 31.43 29.80 29.37 29.49 25.56 18.97 15.29 23.35 29.56 34.31 34.97 35.17 35.79 37.04 38.74 38.80 39.53 39.50 39.99 40.17 40.12 39.92 39.77 39.76 40.01 40.30 40.41 40.63 40.81 40.94 41.27 41.78 42.12 42.25 43.03 43.29 43.54 43.80
35.20 32.38 27.59 30.08 32.36 32.89 31.98 31.04 30.47 24.70 22.30 21.92 22.74 23.98 33.15 35.54 35.66 37.16 36.96 37.98 37.55 38.59 38.25 38.83 39.67 40.02 39.81 39.95 40.34 40.23 40.45 40.38 39.90 39.98 40.20 40.44 40.69 40.86 41.03 41.47 42.23 42.20 42.46 42.54
35.74 29.34 20.72 26.90 30.26 30.83 28.89 30.35 30.27 29.64 28.15 23.67 20.96 23.62 34.35 33.09 34.89 35.50 36.88 38.13 38.50 37.76 38.72 38.87 38.78 38.79 39.08 39.41 39.67 39.38 39.60 39.15 38.86 38.72 38.93 39.46 39.50 39.35 39.51 39.84 40.34 40.60 40.58 40.39
39.56 30.68 28.07 26.25 27.19 31.04 28.96 30.25 31.14 31.76 25.44 26.95 26.15 28.02 31.89 33.44 34.37 35.61 35.47 36.48 36.21 38.29 38.68 38.30 38.19 38.03 38.18 38.45 38.89 38.69 38.91 38.68 37.69 37.41 37.29 37.22 37.49 37.51 37.64 37.74 37.88 37.80 37.90 37.80
36.71 28.24 30.63 31.86 31.90 31.38 30.39 30.31 30.14 29.65 32.24 28.64 29.65 29.93 35.63 36.21 33.50 36.60 36.56 37.42 37.95 37.84 37.48 37.57 37.54 37.68 37.50 37.40 37.68 37.55 37.53 37.34 36.33 35.54 35.29 35.51 35.46 35.29 34.78 34.77 34.57 34.67 34.40 35.79
37.68 30.45 31.36 28.79 32.70 32.56 31.35 32.10 31.17 31.41 31.40 30.12 30.63 30.69 35.90 37.46 37.84 36.57 37.42 37.68 36.80 36.38 36.45 36.63 36.72 36.87 36.96 36.91 36.89 36.86 36.40 35.61 34.12 33.46 33.14 33.47 32.32 31.92 32.01 31.96 32.09 32.24 32.98 33.27
36.22 32.25 27.39 23.04 30.80 31.16 26.69 31.08 31.56 32.02 33.23 33.09 30.31 34.76 36.60 35.62 36.91 37.13 35.63 35.19 35.17 35.81 35.89 35.86 35.83 35.98 36.09 35.93 36.01 35.36 35.09 33.77 31.85 31.34 30.62 29.86 30.37 30.05 30.75 30.79 30.83 31.17 31.18 31.58
36.22 33.31 32.44 26.25 31.07 24.99 30.35 30.79 34.87 34.65 35.00 36.51 35.65 35.63 36.31 36.74 36.42 36.61 35.77 34.72 34.50 35.02 35.36 35.83 35.52 35.28 35.52 35.18 35.08 34.34 32.89 32.39 31.80 31.48 30.22 28.38 29.04 28.52 28.00 28.30 28.34 29.58 30.00 30.11
38.88 34.72 28.66 26.46 26.02 27.11 28.15 29.57 32.06 32.26 31.75 36.58 36.79 34.44 33.92 33.89 34.15 32.26 34.68 35.21 34.08 33.99 35.43 35.96 34.99 34.73 34.33 34.00 33.39 31.60 32.04 31.47 31.26 31.56 31.10 30.29 28.92 27.80 27.54 27.42 27.49 26.55 26.61 25.71
37.04 36.10 31.48 23.94 23.26 17.46 26.53 29.75 33.88 32.22 24.08 31.81 36.07 32.63 31.21 31.58 27.82 30.40 35.49 32.64 32.55 32.42 34.32 34.29 32.95 32.94 32.82 33.00 31.37 30.67 30.56 29.01 30.25 30.53 29.92 28.42 27.25 25.72 25.75 26.66 26.55 24.13 22.08 26.38
31.05 30.82 27.53 26.11 22.35 22.06 27.75 28.48 29.83 21.58 25.21 27.14 31.22 31.54 30.44 30.14 31.03 31.58 31.51 31.06 31.22 31.84 31.80 31.21 30.59 31.32 31.47 31.05 29.69 29.00 28.44 28.18 28.88 26.82 26.20 25.40 24.86 23.68 23.74 23.89 22.34 22.56 22.07 22.88
30.04 28.58 28.41 25.27 22.47 21.05 28.56 27.76 26.72 27.84 28.89 29.52 30.10 30.15 30.75 31.17 31.37 29.99 29.72 30.07 30.46 30.54 31.14 30.55 30.26 29.90 30.21 28.86 25.63 25.76 25.51 27.77 24.13 23.46 23.09 23.10 21.90 25.24 25.07 18.46 19.46 17.42 16.13 17.39
23.35 27.52 23.87 27.03 26.35 27.90 27.13 28.61 30.04 30.68 29.68 29.74 30.13 30.07 30.16 29.70 28.31 28.18 28.48 29.13 29.74 30.00 30.47 30.20 26.44 26.70 27.96 23.61 22.03 23.47 25.26 22.92 22.00 20.32 21.52 21.66 22.06 26.13 20.66 15.58 18.76 17.40 12.32 15.28
21.75 21.60 21.72 23.54 20.52 25.04 29.06 31.13 31.09 31.17 31.08 30.33 30.08 30.03 30.08 28.26 27.52 26.50 27.11 27.61 28.10 26.60 25.25 23.59 22.19 23.50 23.58 23.91 21.86 21.74 22.82 21.58 21.44 25.94 25.40 23.27 24.27 26.32 23.83 20.03 19.34 18.04 18.52 18.63
21.75 23.49 16.09 15.69 19.68 23.46 25.03 27.53 30.80 29.55 29.91 29.96 29.53 29.16 28.92 27.54 26.01 26.03 26.24 25.63 25.81 25.39 23.79 21.80 21.31 22.68 23.06 22.66 22.78 21.25 20.05 17.23 17.72 21.21 25.52 26.46 26.84 25.61 23.76 22.50 22.21 22.05 21.41 22.61
23.77 22.55 21.61 20.19 26.22 28.21 29.57 30.24 29.29 28.15 28.52 28.92 28.74 27.45 27.00 26.94 27.11 26.49 24.43 24.87 24.69 22.47 20.56 19.41 17.33 17.23 17.75 16.59 19.55 20.48 11.92 11.09 12.55 19.62 23.42 25.39 26.60 26.62 26.54 23.45 22.95 28.20 31.54 31.47

GFSCGP_sfc_wetblb_075.txt.gz
Wetbulb
37.33 35.56 33.21 35.45 34.42 32.80 32.39 30.95 30.70 32.69 36.46 35.62 34.55 34.87 37.43 39.43 39.22 39.79 40.25 40.16 40.03 40.44 42.79 43.33 43.82 45.65 52.91 56.54 58.31 59.80 60.71 62.10 62.62 62.54 61.95 61.82 61.29 62.08 62.51 62.84 62.95 62.27 61.60 59.85
35.03 32.16 36.22 36.49 35.13 34.12 32.98 31.85 31.09 34.24 35.89 35.60 33.32 35.45 37.49 38.03 38.75 39.37 39.83 39.81 39.34 39.36 40.18 41.03 41.78 42.39 44.75 51.64 56.37 58.46 59.96 61.07 62.22 63.02 63.11 63.25 62.84 62.88 63.00 62.21 62.37 63.22 62.78 61.25
32.74 34.51 36.94 36.00 33.63 34.02 30.57 31.80 31.47 32.75 33.05 32.84 30.70 31.81 33.00 35.01 36.05 37.12 37.79 37.97 38.47 38.50 39.10 41.19 41.43 42.45 42.19 43.14 49.92 55.72 58.59 60.21 61.67 62.77 62.12 58.59 59.29 58.69 59.76 60.02 61.52 61.87 63.36 63.08
33.73 35.05 35.11 33.17 32.64 33.79 30.92 34.80 33.88 33.36 30.99 28.08 31.23 27.25 31.60 33.39 34.74 36.47 38.04 38.31 38.74 39.33 40.46 40.73 41.60 43.22 43.17 42.93 42.18 49.99 55.04 57.90 60.30 61.54 61.03 61.25 60.93 60.27 61.49 61.69 61.33 61.79 61.85 63.03
32.97 33.62 34.02 32.41 33.72 34.72 32.12 35.05 33.62 31.44 30.15 28.84 29.10 28.15 31.63 31.23 32.27 35.99 37.30 37.97 38.68 39.38 39.96 41.13 41.40 42.53 43.49 43.90 43.72 43.52 49.73 54.82 57.71 60.49 61.42 60.79 60.88 60.85 59.03 58.36 58.13 58.24 58.02 60.74
33.80 36.84 35.73 35.41 35.00 34.82 35.64 33.24 31.55 30.33 28.63 24.04 27.88 27.01 28.72 31.09 32.51 34.44 35.76 37.64 39.51 39.73 40.33 41.12 41.72 42.44 43.27 43.88 46.42 48.93 49.97 52.66 55.89 58.10 58.54 59.01 58.94 57.63 56.13 55.51 56.05 56.03 55.86 56.15
32.24 32.69 35.44 36.63 34.08 35.84 32.48 30.56 24.58 23.31 22.07 22.37 25.88 25.56 30.23 33.18 34.30 34.71 36.00 38.59 38.70 39.52 40.37 40.71 40.91 41.40 41.95 42.67 43.71 46.94 49.91 51.38 54.17 56.30 56.48 56.74 56.98 56.68 56.12 55.73 55.48 54.32 54.33 53.63
28.76 27.49 34.62 36.53 34.85 33.25 31.51 30.69 25.64 20.18 18.74 22.57 26.03 24.56 30.52 33.61 35.78 35.63 38.09 37.82 38.81 39.37 39.78 40.02 40.54 40.89 41.17 41.56 42.37 43.41 43.98 44.71 46.92 49.95 51.54 52.43 53.53 54.37 54.46 54.05 53.83 53.20 53.01 53.18
28.57 27.97 34.28 34.88 35.42 36.80 32.00 28.74 31.03 23.68 12.38 19.42 24.30 27.93 32.59 34.71 36.03 36.80 37.58 38.17 38.04 38.43 39.11 39.38 39.98 40.02 40.40 40.90 41.03 41.90 42.51 42.47 42.91 43.71 44.47 44.94 45.90 46.96 48.16 48.75 49.55 50.15 50.14 49.55
33.73 27.77 32.33 34.05 35.78 35.17 32.66 33.87 28.06 24.72 15.27 15.24 20.97 23.10 27.00 32.52 34.36 35.73 36.58 37.29 38.20 38.91 39.53 39.63 39.71 39.90 40.22 40.26 40.60 41.51 41.69 41.43 41.58 42.25 42.53 42.83 43.32 44.03 44.68 45.11 45.42 45.91 46.53 46.92
33.89 32.34 29.38 33.13 32.20 31.10 31.48 29.80 29.21 29.52 26.34 19.97 15.98 23.78 29.41 33.35 35.31 35.92 36.54 37.51 38.28 38.53 38.78 39.54 40.09 40.24 40.51 40.72 40.94 40.80 40.99 40.61 40.71 41.09 41.52 41.98 42.12 42.52 43.00 43.20 43.59 43.80 44.18 44.45
35.04 32.58 27.53 30.00 32.28 32.92 31.08 31.23 30.85 26.13 22.43 21.48 22.33 24.87 33.12 35.32 35.77 36.42 36.60 37.70 37.75 37.98 38.58 39.29 39.54 39.84 40.04 40.20 40.32 40.23 40.08 39.91 39.41 39.73 40.09 40.10 40.32 40.36 40.53 40.77 41.34 41.90 42.10 42.54
35.90 30.49 24.19 28.49 31.46 31.46 29.33 30.11 29.70 28.98 28.10 22.95 21.69 24.83 33.33 34.00 35.15 36.60 36.78 36.62 37.15 37.76 38.26 38.43 38.50 38.38 38.77 39.13 39.17 39.08 39.12 38.61 38.35 38.41 38.59 38.81 38.59 38.43 38.37 38.40 38.69 38.96 39.31 39.39
39.38 30.38 28.58 27.13 27.58 30.61 28.81 29.56 29.95 31.10 26.22 25.18 26.07 27.34 30.73 33.37 34.58 36.23 37.58 36.88 37.27 37.79 37.93 37.58 37.31 37.20 37.53 37.90 37.89 38.01 38.27 38.02 37.13 37.19 37.24 37.18 36.93 36.63 36.63 36.85 36.95 36.97 36.87 37.20
36.53 28.97 28.77 30.11 29.51 29.98 29.54 29.62 29.67 29.88 32.33 28.59 28.96 29.43 34.02 35.75 34.95 36.78 37.60 37.04 37.62 36.80 36.57 36.45 36.43 36.80 36.76 37.20 37.23 37.31 37.26 36.98 36.06 35.61 35.59 35.56 35.45 35.07 34.64 34.56 34.30 34.38 34.39 35.38
35.89 26.52 30.73 27.95 31.78 31.87 29.88 30.38 31.51 33.44 29.64 28.56 27.86 29.87 35.78 38.76 36.11 36.21 37.43 37.53 36.62 35.81 35.81 35.94 35.99 36.08 36.10 36.41 36.49 36.41 35.93 35.45 34.67 34.03 33.71 33.95 33.14 32.54 32.36 32.35 32.34 32.62 33.10 33.52
34.08 30.50 24.24 19.82 30.11 30.24 24.90 30.70 30.63 31.41 31.92 33.54 29.57 33.90 36.12 34.96 36.35 35.52 36.46 36.73 35.64 35.40 35.41 35.40 35.52 35.64 35.74 35.54 35.61 35.11 35.02 34.21 32.75 32.45 31.84 31.18 31.15 30.37 30.63 30.53 30.49 30.88 31.39 31.62
34.19 31.63 29.70 27.25 28.16 22.05 30.75 31.01 34.25 34.42 34.08 34.86 34.95 35.25 36.93 36.48 36.67 37.26 36.32 34.92 34.65 35.19 35.32 35.41 35.24 35.10 35.16 34.83 34.60 33.80 32.97 32.33 31.88 30.69 30.24 29.34 29.58 28.78 28.48 28.18 28.47 29.21 29.62 29.44
38.13 35.18 29.28 27.55 28.14 27.91 28.90 29.89 32.25 32.76 32.81 36.78 35.60 34.67 34.84 33.87 33.71 32.93 34.74 34.89 34.61 35.16 35.80 35.74 34.94 34.72 33.92 33.49 32.69 31.59 31.65 31.02 30.84 30.58 30.30 29.40 28.17 26.93 26.75 25.57 26.73 27.29 27.71 27.51
37.36 37.03 33.59 26.60 25.44 23.51 28.23 30.37 34.57 34.05 26.21 33.40 37.05 34.93 32.74 33.19 30.97 31.29 33.94 33.02 33.11 33.96 34.66 34.53 33.68 32.93 32.38 32.13 31.15 30.35 30.02 28.46 29.44 29.62 29.08 27.94 26.97 24.93 25.18 26.35 25.86 26.18 24.55 26.09
31.05 31.29 29.51 27.69 24.23 24.05 27.94 29.25 31.25 26.12 27.55 27.55 34.01 33.13 32.25 31.28 32.57 32.68 32.43 32.40 32.61 32.58 33.50 32.99 31.81 31.51 31.13 30.52 29.48 28.93 27.94 27.50 28.15 26.20 25.79 25.27 25.00 23.46 24.07 24.72 23.68 23.92 23.09 23.41
30.22 29.46 26.52 26.80 24.54 24.46 28.65 27.82 28.76 29.77 29.03 29.82 30.36 30.59 30.99 30.05 29.72 29.94 30.79 30.86 31.05 30.73 30.98 31.98 31.28 30.62 29.95 27.99 25.52 25.19 25.29 26.98 23.86 22.95 22.47 22.91 21.17 22.13 24.57 25.28 22.13 20.67 19.72 20.14
25.81 30.78 28.84 30.61 29.72 28.69 27.81 28.19 29.45 31.66 30.47 30.40 30.58 30.66 31.15 29.51 28.43 28.92 28.84 29.45 29.43 29.29 29.72 29.32 26.77 25.71 27.71 22.10 22.33 22.69 24.36 23.19 22.75 19.55 22.55 26.12 25.94 21.52 26.30 25.99 22.99 22.49 19.01 20.00
22.76 22.83 26.81 28.89 25.42 25.44 29.44 30.77 31.01 31.35 31.22 30.70 29.93 29.50 29.44 28.18 28.11 27.87 27.84 27.50 27.83 25.85 24.81 22.55 21.94 20.72 21.37 21.12 21.35 19.09 21.00 21.93 17.93 17.72 20.21 22.96 24.82 27.41 28.33 27.54 25.09 22.42 22.85 22.28
23.11 23.56 17.23 17.63 22.06 23.35 26.08 27.67 30.64 30.16 29.44 28.78 28.81 28.64 28.62 28.38 26.91 26.55 26.10 25.19 25.26 24.65 22.54 20.71 18.81 18.33 18.62 18.71 17.81 16.02 19.41 18.34 17.00 16.95 18.61 21.36 24.72 25.30 26.79 28.01 28.09 25.28 25.09 24.71
22.98 23.09 23.72 23.45 27.29 29.67 30.49 31.10 29.32 28.32 28.27 28.60 28.51 27.54 27.55 27.55 26.90 26.43 24.87 24.38 22.91 19.22 17.63 16.09 13.72 13.22 13.52 13.58 14.50 13.43 10.79 12.74 12.20 15.31 17.43 19.14 20.80 22.73 23.77 24.85 25.90 28.65 29.42 31.00

GFSCGP_sfc_wetblb_078.txt.gz
Wetbulb
44.54 43.55 40.81 42.68 43.52 41.35 41.78 38.95 38.69 39.21 41.01 41.24 41.47 42.10 44.38 46.55 46.45 47.55 48.70 49.07 49.02 49.03 49.72 48.75 50.03 51.47 57.03 62.02 63.51 64.39 65.11 65.83 66.30 63.96 62.64 62.51 62.13 63.05 63.62 64.33 64.48 64.06 63.32 64.05
42.64 40.30 43.90 41.12 39.71 39.59 39.97 38.89 38.71 39.87 40.84 41.03 40.28 41.73 44.97 45.76 45.78 46.34 46.97 47.56 47.38 47.06 47.41 47.83 48.41 48.71 49.93 54.97 60.29 62.66 63.87 65.00 65.62 65.65 64.07 63.82 63.24 63.09 63.57 63.81 63.89 63.96 63.47 63.51
40.59 40.46 41.20 40.29 39.30 39.01 38.72 39.32 38.06 39.39 39.38 39.67 38.89 40.01 40.81 40.42 42.09 42.83 44.76 44.79 45.41 46.24 47.38 48.51 48.14 48.44 48.73 49.60 54.49 59.12 62.01 63.60 64.72 65.46 64.66 63.01 61.92 61.74 63.12 62.89 62.81 63.11 63.21 62.68
40.43 39.30 39.89 39.96 38.92 41.03 36.87 40.00 40.06 38.61 39.39 36.64 38.36 35.53 40.17 40.24 41.38 43.43 44.84 45.66 46.30 46.82 47.85 48.19 49.23 50.17 50.09 49.78 49.17 54.00 58.53 61.48 63.17 64.53 63.10 61.69 61.08 60.64 62.15 62.50 63.06 62.88 62.60 62.84
38.03 37.22 38.27 38.55 39.83 40.72 38.29 40.64 39.75 38.99 38.94 37.82 37.14 36.18 39.46 38.62 40.17 42.74 43.41 44.80 46.39 46.91 47.10 47.71 48.41 48.98 50.13 51.86 50.53 49.74 54.61 58.17 60.95 62.75 63.49 61.77 60.61 61.57 63.39 64.01 63.69 63.82 63.95 63.42
39.13 41.19 40.94 40.02 38.73 40.21 39.98 39.80 39.06 38.69 38.21 32.84 36.06 35.56 37.25 38.61 39.63 41.54 42.83 44.96 45.37 46.57 47.53 47.95 48.42 49.82 50.96 53.87 55.21 53.67 53.60 56.00 58.89 60.96 62.03 61.85 60.64 60.54 60.66 61.53 62.03 62.57 62.68 62.23
37.91 38.51 40.81 41.23 38.53 40.07 39.98 39.50 32.56 31.36 31.44 30.82 31.75 32.43 38.69 38.81 39.93 41.43 42.74 44.55 45.56 46.67 47.72 48.01 48.32 48.68 49.22 50.17 52.66 55.71 56.48 54.40 56.74 57.77 58.54 58.92 59.32 59.69 59.58 59.58 59.29 59.12 59.66 60.26
34.23 31.68 38.49 41.06 40.27 38.53 39.32 38.74 33.71 26.63 26.57 30.90 30.31 31.57 38.42 39.16 40.36 40.85 44.09 44.69 45.43 45.87 46.60 46.90 47.26 47.70 47.71 48.22 49.44 49.77 49.88 49.76 52.65 55.14 55.29 56.63 55.82 56.93 56.54 56.30 56.50 56.88 57.69 57.79
34.35 32.85 38.78 39.10 40.26 41.23 37.13 34.71 37.27 29.95 22.75 30.66 33.76 36.14 39.77 39.81 40.37 41.79 43.07 44.76 45.15 45.54 45.90 45.80 46.20 46.89 47.27 47.38 47.55 48.54 48.49 48.22 48.59 49.09 49.86 49.92 50.46 50.67 50.68 51.02 51.93 52.36 52.51 51.50
37.97 32.05 35.98 38.02 40.42 39.98 38.87 38.71 33.84 33.84 27.78 26.78 30.56 31.30 36.74 37.66 39.19 41.47 42.01 43.42 43.99 44.79 45.34 45.73 46.21 46.37 46.61 46.87 47.12 47.34 47.16 46.46 47.08 47.87 48.03 47.89 48.17 48.68 48.98 49.26 48.70 48.89 49.41 49.47
39.16 37.92 33.22 36.71 36.22 36.39 35.25 35.08 34.61 36.10 34.02 30.54 28.19 33.13 38.94 41.22 42.12 42.18 43.47 44.04 44.34 44.76 45.30 45.58 45.68 46.04 46.25 46.67 46.78 46.55 46.44 46.14 46.04 46.54 46.79 46.63 46.21 46.46 46.70 46.51 46.46 46.26 47.02 46.75
39.37 36.18 32.06 34.45 36.83 37.56 36.57 36.85 37.27 34.16 28.63 30.27 30.56 34.63 38.29 42.40 43.91 44.29 43.03 42.75 44.21 44.93 44.71 44.95 45.42 45.62 45.54 44.94 44.79 44.38 44.50 44.07 44.23 44.91 45.15 44.39 44.33 44.34 44.11 43.85 43.80 43.98 43.93 44.39
38.86 35.48 29.36 30.64 35.29 35.91 35.45 36.02 37.10 35.86 34.73 29.26 31.92 35.09 38.21 40.58 41.51 42.81 42.94 42.75 43.23 43.55 43.88 44.08 44.47 44.24 43.69 43.30 43.26 43.18 42.88 42.33 42.51 43.07 43.26 42.70 42.01 41.69 41.41 41.51 41.59 41.71 41.57 42.18
41.45 34.31 34.59 31.33 34.61 37.39 32.96 33.91 34.60 36.62 32.44 32.20 32.84 34.99 37.07 38.78 40.61 41.51 42.32 43.04 43.68 43.36 42.84 43.36 43.06 42.61 42.34 42.60 42.71 42.35 41.90 41.84 41.39 41.81 41.58 40.64 39.96 39.66 39.66 39.77 39.58 39.75 39.98 40.35
39.97 33.30 34.00 35.25 35.39 36.32 36.28 34.51 33.84 34.51 37.55 33.68 37.02 35.93 39.27 40.75 41.55 42.72 43.36 42.75 41.79 41.17 41.06 41.11 41.02 41.33 41.67 41.74 41.86 42.07 41.67 41.14 40.98 40.85 40.45 39.20 39.10 38.68 38.33 38.05 37.89 38.15 38.24 38.32
38.10 33.25 35.14 32.55 34.34 34.42 33.32 36.04 35.46 36.47 37.73 36.74 36.03 36.33 42.29 44.22 44.12 42.09 41.67 41.61 41.23 40.58 39.86 39.68 39.80 39.99 40.58 40.55 40.41 40.34 40.25 39.44 39.96 39.31 37.90 37.56 36.77 35.77 35.91 35.64 35.20 35.37 35.68 35.87
36.28 33.87 32.49 30.65 33.48 34.13 30.80 33.69 35.44 36.99 39.15 37.95 33.91 38.93 40.16 40.44 39.96 41.85 42.48 42.33 41.55 40.49 39.56 39.38 39.78 39.90 39.77 39.99 39.53 39.43 39.35 38.99 37.72 37.12 35.76 34.66 33.93 33.68 33.93 33.18 33.35 33.49 33.60 33.74
36.53 34.38 33.83 29.74 31.01 24.93 35.66 39.00 39.40 37.63 38.53 39.08 39.74 39.96 40.15 40.91 42.54 43.62 44.07 42.71 40.88 39.72 39.35 39.57 39.74 39.60 39.14 38.89 38.24 37.40 36.94 36.37 35.88 34.85 34.32 33.45 32.89 32.26 32.13 31.75 31.64 32.32 32.62 32.25
39.98 37.06 31.35 30.10 29.47 33.19 35.42 33.35 35.25 34.41 35.97 39.42 39.61 39.87 39.96 39.47 40.44 39.07 40.96 42.28 40.67 40.16 40.53 40.15 39.94 39.27 38.29 37.40 36.09 35.31 34.90 34.31 33.85 33.15 32.97 32.31 31.69 30.57 30.11 29.45 30.70 31.28 31.34 31.33
38.86 39.50 35.38 31.70 29.48 26.53 36.41 35.48 39.42 40.47 32.71 40.07 40.75 38.57 36.69 38.38 35.71 39.35 37.66 38.17 38.78 39.60 39.38 38.22 37.69 36.51 36.23 34.86 34.60 33.79 32.62 32.57 31.79 31.11 30.66 30.56 30.47 29.27 29.16 29.95 30.02 30.99 30.36 29.87
33.32 33.91 32.01 31.61 31.18 33.44 34.73 34.34 37.69 31.78 35.36 37.52 40.84 39.50 37.07 38.66 39.33 37.97 36.66 35.70 37.22 37.82 37.36 37.04 36.49 35.21 33.73 33.02 32.46 31.53 30.62 30.04 29.91 28.87 28.66 28.73 28.98 28.32 28.60 29.20 29.93 29.42 28.68 29.19
32.59 31.95 31.46 31.43 30.45 28.83 33.14 33.31 34.42 36.76 32.99 35.48 36.87 37.63 36.90 34.10 35.88 35.38 35.48 34.71 34.87 34.81 35.85 35.51 35.21 33.73 32.17 30.42 29.78 28.68 28.40 28.22 27.38 26.53 25.76 26.68 27.68 28.36 28.73 27.90 29.95 29.59 28.17 27.72
30.75 34.19 31.71 33.73 34.55 32.23 33.73 33.46 34.66 35.86 35.46 34.80 36.31 36.62 35.18 33.66 33.54 34.14 33.23 33.54 33.56 33.85 33.45 33.36 32.91 30.81 28.56 26.54 26.36 25.17 26.25 25.63 24.53 22.60 21.99 23.82 25.98 27.33 29.44 29.49 29.78 28.69 27.98 27.08
28.37 28.93 33.51 33.21 32.48 31.23 32.92 33.87 34.93 35.57 35.94 35.23 36.43 35.65 35.10 32.70 32.70 32.42 32.34 32.01 31.62 30.69 30.11 28.39 27.32 24.98 24.35 24.04 23.15 22.54 22.63 23.04 20.36 19.97 21.41 23.29 23.83 25.76 27.53 29.08 29.86 30.09 29.13 27.76
29.94 29.21 27.88 27.60 25.93 29.55 32.69 32.42 34.65 33.66 33.93 33.41 34.59 34.71 33.48 32.82 32.10 31.87 29.99 29.54 29.97 28.28 25.23 23.94 22.07 21.03 20.21 19.72 19.27 19.70 19.37 19.20 18.01 19.25 20.82 21.95 23.43 24.52 25.46 26.69 27.65 27.84 29.00 28.81
28.01 28.71 29.98 31.76 31.28 34.13 34.19 34.38 34.13 32.82 32.52 33.14 32.02 30.49 30.70 31.50 30.26 29.41 29.11 29.12 26.94 23.14 21.15 19.54 16.75 15.47 15.67 15.09 15.02 15.59 15.34 15.60 14.54 16.28 18.63 19.69 19.21 20.49 21.54 22.50 23.50 26.89 27.95 28.86

GFSCGP_sfc_wetblb_081.txt.gz
Wetbulb
47.34 43.42 40.60 43.20 45.09 45.81 44.22 42.80 41.13 42.71 43.15 43.19 43.62 44.03 45.57 47.09 47.06 47.89 48.90 49.85 50.52 51.09 52.48 52.11 52.91 54.91 61.23 64.08 64.73 65.33 65.70 66.49 67.12 64.28 63.58 63.23 63.04 64.05 64.36 64.77 64.85 64.44 64.22 63.77
43.60 40.82 44.93 46.02 43.25 42.86 43.05 41.57 40.95 41.68 42.74 42.65 43.13 42.16 45.30 46.42 47.06 48.01 48.72 49.72 50.13 50.17 50.22 50.02 50.69 51.52 52.79 57.87 62.61 63.91 64.84 65.82 66.58 67.02 64.06 63.77 63.50 63.70 64.09 64.55 64.46 64.76 64.44 63.80
41.20 43.38 44.75 42.71 41.16 41.12 41.61 40.25 40.65 40.42 41.57 42.56 41.14 40.67 43.56 44.15 44.39 45.34 46.27 47.83 47.66 48.28 49.19 50.52 50.54 50.69 51.94 52.27 56.13 60.90 63.39 64.64 65.92 66.46 65.09 63.51 62.75 63.15 62.75 62.62 63.02 63.71 64.05 63.40
42.87 41.76 42.09 42.01 41.17 42.43 38.21 42.23 42.53 40.71 40.02 36.60 41.61 36.32 42.04 43.79 43.08 44.47 46.66 47.88 48.42 49.01 49.98 50.41 51.23 51.83 52.16 52.27 52.89 56.04 60.48 62.96 64.40 65.67 65.15 62.34 61.67 60.78 62.02 62.62 63.17 63.19 63.44 63.35
39.32 39.00 40.05 40.75 41.90 43.05 40.40 43.28 42.79 42.15 40.85 39.16 38.72 37.13 41.41 41.65 41.14 44.07 46.50 47.88 48.77 49.42 49.93 50.08 50.76 51.63 53.29 53.70 51.85 52.55 57.08 60.20 62.70 63.91 64.33 62.07 60.90 61.24 62.10 62.26 62.06 62.44 62.45 62.51
40.23 42.53 43.28 42.85 41.91 42.77 43.15 42.18 41.90 41.90 40.25 33.18 38.97 37.62 39.20 40.50 42.02 44.05 45.44 47.26 47.93 48.63 49.26 49.44 50.77 52.73 54.45 56.14 53.55 52.95 55.20 57.44 60.04 61.58 62.73 62.46 60.54 60.39 60.55 60.13 60.03 60.48 61.59 61.47
38.83 38.74 41.80 42.80 39.52 42.44 42.86 39.84 33.52 32.00 32.10 31.36 34.73 34.50 39.52 41.22 43.74 44.62 45.42 46.48 47.63 48.69 49.25 49.58 49.88 50.48 52.20 54.51 56.61 56.29 56.28 56.32 58.69 59.71 60.18 59.91 59.73 59.84 59.04 58.25 58.06 57.28 57.73 58.27
34.90 31.88 39.35 42.54 41.75 39.00 39.94 39.73 34.84 27.54 28.99 33.04 31.94 32.13 38.95 43.02 43.02 43.96 46.76 47.75 47.46 47.59 48.14 48.53 48.89 49.27 49.53 50.47 51.63 52.90 54.30 56.09 56.88 56.69 56.80 56.74 57.49 57.72 57.10 56.83 56.85 56.80 56.55 56.11
35.51 34.73 40.40 41.07 42.12 42.71 39.63 36.54 40.56 32.27 27.40 32.65 35.36 38.22 41.98 41.64 41.51 43.46 45.18 46.29 46.47 46.83 47.26 47.54 48.45 48.98 49.21 49.49 50.00 50.31 50.00 50.07 50.78 51.18 51.42 51.46 51.99 51.98 51.58 52.01 52.36 51.93 52.19 50.50
40.30 32.95 38.51 38.84 41.76 41.18 40.31 41.50 33.84 36.01 28.23 28.38 33.36 34.86 37.78 37.75 39.81 42.57 43.97 45.74 46.40 46.73 46.97 47.50 48.14 48.23 48.48 48.74 49.00 49.36 49.32 48.79 49.28 49.47 49.39 49.18 49.37 49.73 49.89 49.57 48.68 48.68 49.08 48.74
41.24 39.37 34.35 38.35 37.26 37.25 36.50 36.03 37.33 38.23 36.52 32.88 29.98 34.20 40.85 42.48 42.38 42.78 44.43 45.77 45.31 46.26 47.00 47.54 47.61 47.91 48.14 48.62 48.58 48.23 48.15 47.74 47.68 47.93 47.69 47.42 46.92 47.05 46.95 46.43 46.07 45.90 46.75 46.11
41.10 38.09 32.61 35.18 38.58 39.48 39.97 38.95 38.43 34.41 30.22 32.99 32.50 35.76 39.94 43.13 44.68 45.56 45.28 45.60 46.64 47.15 47.26 47.20 47.49 47.76 47.27 46.59 46.32 45.88 45.79 45.27 45.73 46.06 45.50 44.95 44.67 44.70 44.18 43.77 43.78 44.17 43.68 44.64
40.18 36.18 29.67 30.96 35.78 36.73 35.80 38.49 40.02 39.60 37.54 30.83 31.81 35.17 40.38 43.87 45.06 45.98 45.03 45.22 45.71 45.89 46.08 46.49 46.75 46.49 45.59 45.13 44.70 44.36 44.26 43.74 44.38 44.62 44.03 43.07 42.56 42.35 42.05 41.84 41.99 42.07 41.80 42.37
42.53 37.46 35.55 31.47 34.97 38.53 34.50 37.06 37.71 37.98 33.52 34.45 34.67 37.57 38.33 41.26 43.35 44.66 44.64 44.98 45.41 45.33 45.26 46.01 45.42 44.64 44.18 44.04 43.54 43.24 42.90 43.23 43.34 43.24 42.20 41.26 40.65 40.36 40.35 40.33 40.10 39.97 40.16 40.13
41.58 35.04 37.29 38.53 37.72 39.58 37.61 36.74 36.86 35.07 37.81 35.00 37.75 37.37 41.09 41.60 43.35 44.63 45.63 45.43 44.76 44.17 44.58 44.14 43.57 43.36 43.05 42.53 42.74 42.86 42.49 41.84 42.46 41.29 40.16 39.13 39.29 38.55 38.39 38.07 38.09 38.01 37.82 37.99
40.52 35.33 37.50 33.68 35.95 36.14 35.40 38.03 37.91 36.81 37.66 38.21 38.80 38.35 43.52 45.21 46.13 45.43 44.67 44.36 43.77 43.35 43.14 42.97 42.75 42.46 42.37 42.11 41.68 41.77 41.32 40.52 40.94 38.49 37.06 36.82 36.67 36.02 36.21 35.50 35.19 35.30 35.46 35.82
36.94 34.87 33.62 31.01 35.04 34.26 30.73 34.15 37.12 37.36 39.38 39.41 36.09 40.69 42.63 43.56 43.87 44.64 44.53 44.15 44.12 43.91 43.07 41.76 41.37 41.72 41.69 41.33 41.58 40.27 39.51 39.40 37.85 36.74 35.28 34.62 34.59 34.24 34.17 33.75 33.52 33.58 33.82 34.10
36.94 35.29 33.76 31.52 32.89 24.26 36.40 41.90 41.24 39.05 40.14 41.40 41.56 42.89 43.13 44.07 45.06 45.94 47.04 45.05 44.85 43.97 42.33 41.75 42.00 41.15 40.59 40.44 39.18 38.65 38.12 37.05 36.50 35.28 35.35 34.10 33.33 32.34 32.22 31.91 31.65 32.48 32.92 32.53
41.75 37.44 32.78 30.92 29.65 34.31 36.64 36.20 36.97 36.22 37.04 42.13 41.33 42.51 42.93 44.20 44.68 43.94 46.97 46.73 45.52 43.56 42.48 41.94 42.28 40.83 39.73 38.19 37.52 36.10 35.53 35.48 34.34 33.30 32.98 32.27 31.96 30.51 30.35 29.30 30.64 31.17 31.38 31.12
39.39 40.66 35.38 31.13 29.32 25.91 36.22 39.45 42.78 41.44 32.15 42.48 42.44 42.12 41.56 41.18 37.02 41.35 43.57 44.65 42.75 42.14 41.53 39.95 39.38 38.78 37.38 36.23 35.83 34.23 32.80 32.81 30.96 30.01 29.85 30.23 30.53 29.28 28.82 29.84 29.56 30.72 30.92 30.06
33.60 33.91 31.69 31.74 31.64 34.46 36.40 37.45 41.88 30.89 34.89 39.24 42.31 42.46 39.83 39.14 42.42 42.47 41.16 40.98 40.95 39.59 37.92 37.57 37.23 36.24 34.94 33.21 32.74 31.28 31.04 29.06 28.62 28.43 28.08 27.57 28.21 27.49 28.69 29.22 29.80 29.34 29.89 29.43
33.27 31.86 31.44 32.82 30.53 27.66 35.85 36.79 35.48 38.86 35.85 37.67 39.71 41.30 40.28 37.94 37.28 37.85 38.14 36.92 36.82 35.77 35.95 35.68 34.00 33.04 32.32 30.35 30.15 28.77 27.94 27.37 26.72 25.64 24.54 24.40 24.35 26.65 28.08 27.70 28.72 29.18 29.57 28.64
32.43 36.14 34.58 35.44 35.25 34.86 38.31 35.12 37.39 38.05 37.30 37.69 38.79 39.16 37.37 35.75 35.32 35.12 34.63 35.20 35.13 35.18 34.70 35.32 32.98 30.01 28.06 26.72 26.43 25.63 24.67 24.34 23.17 20.28 19.34 21.59 23.69 24.69 26.26 27.06 27.13 28.43 29.47 29.31
32.33 31.88 35.35 35.91 34.14 33.63 35.77 35.64 36.34 37.35 37.89 38.22 38.97 37.51 37.09 35.12 35.27 34.24 34.04 33.45 32.62 31.54 30.98 30.28 29.10 26.98 25.33 24.07 23.34 21.98 21.72 21.24 16.54 17.76 19.96 22.11 22.92 24.34 25.18 27.37 27.87 27.43 27.76 27.76
32.02 32.35 33.17 33.21 29.39 31.57 33.22 34.20 36.82 35.65 36.60 36.76 37.33 37.02 35.89 35.29 34.03 33.24 31.33 30.84 30.91 29.41 27.49 27.11 25.92 24.01 22.12 20.78 20.01 18.98 18.25 17.34 16.73 17.38 19.32 21.33 23.00 23.15 22.57 23.36 24.13 24.48 25.76 26.71
30.84 32.18 32.47 33.99 34.77 34.72 35.70 36.30 36.00 34.87 35.11 35.42 33.41 32.88 33.45 34.07 32.54 31.31 30.25 30.66 28.76 25.62 23.91 22.15 19.95 18.97 17.95 16.76 15.86 15.15 13.11 13.46 12.21 14.89 17.97 19.05 17.95 19.11 19.52 19.70 20.41 24.58 25.74 26.67

GFSCGP_sfc_wetblb_084.txt.gz
Wetbulb
43.65 39.69 37.31 39.83 41.78 42.18 41.37 38.72 37.55 38.87 41.14 39.52 39.00 38.67 41.52 43.30 42.63 42.12 43.11 42.89 44.68 45.89 47.12 48.38 51.20 56.39 58.66 60.28 61.04 62.10 63.34 64.47 63.84 63.43 63.04 62.72 62.58 63.25 63.34 63.87 63.91 63.59 63.34 62.90
40.53 37.15 42.62 44.14 42.61 41.38 39.53 39.04 36.60 38.44 41.36 38.71 38.84 38.69 41.06 42.45 42.46 43.31 44.45 44.52 44.94 46.18 45.14 46.66 44.90 47.48 48.77 56.08 59.61 60.83 61.98 63.26 64.31 63.13 63.32 62.91 62.85 63.06 63.36 63.49 63.45 63.62 63.34 63.15
37.87 40.86 44.57 41.96 39.17 38.94 38.42 38.61 36.43 37.11 38.42 37.97 34.35 34.25 38.30 41.13 43.10 41.64 40.35 41.59 43.34 44.66 44.78 45.99 46.39 44.60 45.49 46.39 50.26 58.91 60.51 61.83 63.51 64.11 62.76 62.13 62.32 61.81 61.47 61.51 62.16 62.92 63.40 63.04
40.79 42.51 41.45 39.68 38.77 39.85 35.83 39.57 40.20 37.73 34.98 30.77 35.70 27.74 33.83 36.98 38.05 40.01 41.35 41.79 42.65 44.55 45.04 46.22 46.34 46.09 47.54 47.33 47.19 48.81 57.18 60.16 61.88 63.19 62.33 61.67 60.78 59.91 61.25 61.74 62.01 62.12 62.59 62.51
37.58 38.33 38.87 38.58 39.71 41.08 38.22 41.10 40.07 38.26 35.04 32.76 32.05 29.38 33.09 37.19 36.26 38.56 42.03 43.30 43.37 44.68 45.86 46.70 46.90 48.97 49.20 49.36 46.09 46.18 51.37 56.92 59.89 61.22 62.02 61.03 60.04 60.00 60.04 60.63 61.18 61.32 61.49 61.83
37.84 40.39 40.36 40.47 40.50 40.87 41.81 39.68 39.28 37.42 35.28 26.46 33.17 30.91 30.71 34.59 37.17 39.41 41.52 43.10 43.99 43.79 44.27 45.67 47.75 50.80 51.02 48.84 46.31 47.79 51.71 54.23 57.65 58.72 60.06 60.46 59.84 59.30 59.03 58.79 58.68 58.91 59.73 60.21
36.20 36.83 39.34 40.73 37.39 38.81 38.81 35.06 25.84 25.01 24.09 24.46 29.95 28.98 33.18 35.89 39.30 40.28 41.09 41.75 42.82 44.03 44.16 44.76 45.68 47.00 49.76 51.51 51.77 53.06 53.54 53.41 55.21 55.97 56.14 57.91 58.86 58.65 57.60 56.77 56.26 55.72 55.88 56.49
30.90 28.06 36.26 39.64 37.54 35.40 36.31 34.91 27.73 22.90 22.32 24.15 27.08 25.54 33.24 36.76 39.31 41.32 43.31 42.94 43.24 42.84 44.00 43.84 44.71 44.90 45.61 47.01 50.35 52.59 53.43 54.01 54.70 54.76 55.44 56.33 56.62 56.44 55.45 53.90 52.56 50.52 49.02 47.84
32.66 31.39 37.79 38.99 39.40 39.05 34.95 32.25 35.93 27.36 20.29 24.02 27.00 31.56 34.67 37.20 37.09 39.89 41.41 42.19 41.91 42.36 42.92 43.49 44.37 44.50 44.44 44.79 45.31 45.42 45.70 46.10 46.67 46.84 46.78 46.65 47.00 47.08 46.36 46.09 46.26 46.17 45.91 46.09
37.31 29.40 36.56 37.05 38.80 37.85 35.92 38.18 29.88 29.97 17.79 19.56 25.57 27.09 30.82 33.25 35.17 38.49 39.92 40.48 41.30 41.96 42.35 43.07 43.49 43.79 44.09 44.38 44.59 44.65 44.67 44.34 44.57 44.57 44.34 44.42 44.20 44.43 44.14 43.53 42.77 43.07 43.12 43.36
38.18 35.48 31.85 35.44 34.11 33.78 33.73 32.34 33.13 34.17 31.13 24.39 20.75 26.10 33.07 37.02 38.08 38.51 40.09 41.92 41.27 41.38 41.95 42.53 43.07 43.87 44.28 44.28 43.71 43.33 43.22 42.94 42.69 42.59 42.23 41.50 41.25 41.43 41.28 40.67 40.56 40.71 40.91 41.21
38.63 35.32 28.44 31.64 35.57 36.60 35.15 35.07 35.00 29.09 26.03 27.36 27.34 28.18 36.94 36.63 39.97 41.27 41.38 42.08 41.63 42.64 42.60 42.49 42.64 42.96 42.64 41.53 41.18 40.81 40.86 40.91 41.04 41.11 40.32 40.03 40.07 39.62 38.84 38.61 38.92 39.23 38.97 39.73
38.67 33.14 26.24 28.74 33.38 34.66 32.48 34.79 35.64 35.00 31.18 26.12 23.16 27.08 37.26 37.28 39.82 42.02 41.73 41.87 42.58 42.47 42.23 42.38 42.41 41.37 40.42 40.10 39.56 39.06 39.28 39.59 40.20 39.86 38.81 38.40 38.11 37.74 37.38 37.39 37.73 37.87 37.69 37.74
41.63 35.42 31.94 27.77 30.16 34.62 31.31 33.82 34.61 34.57 27.40 26.92 28.36 30.64 32.55 37.87 39.04 40.68 41.27 41.74 41.98 42.76 43.14 42.46 41.27 40.04 39.45 38.57 38.15 38.06 38.44 39.30 39.30 38.95 37.95 36.47 35.94 36.41 36.32 36.49 36.23 36.12 36.49 35.99
38.93 30.99 33.76 34.21 35.94 35.64 33.84 33.18 33.56 32.80 35.12 30.76 33.49 32.90 35.96 38.10 39.95 41.29 41.41 42.25 41.99 42.06 42.47 42.19 40.66 38.91 37.70 37.69 38.14 38.54 38.18 38.50 38.17 36.56 35.57 35.15 35.15 35.27 34.74 33.77 33.40 33.30 32.73 34.04
38.09 28.92 33.23 29.85 33.86 34.14 31.84 34.48 35.09 35.29 34.99 33.66 33.60 33.83 38.86 40.55 41.77 41.59 42.06 42.34 41.76 41.94 42.45 41.54 40.23 39.57 38.42 38.84 38.44 38.53 37.40 36.96 35.99 34.24 33.24 33.65 32.45 31.45 30.97 30.91 30.87 30.91 30.92 30.87
35.36 31.29 27.30 21.56 30.92 31.03 25.18 31.92 34.80 35.29 36.81 36.68 32.91 37.83 38.73 38.58 41.51 42.09 41.93 42.63 42.34 42.21 41.82 40.71 39.85 39.10 38.69 37.96 38.21 36.15 35.72 35.30 33.17 31.23 30.83 30.45 30.63 30.02 29.97 29.99 29.62 29.53 29.65 29.94
35.38 33.17 32.17 25.19 26.60 19.17 31.83 37.80 38.81 37.20 37.84 38.88 38.49 37.94 39.02 40.25 42.77 43.88 44.75 43.21 42.85 42.49 41.45 40.33 39.27 38.17 37.22 36.09 35.47 35.54 34.54 32.29 31.09 30.85 29.69 29.29 29.23 28.16 28.58 28.36 28.15 28.54 28.78 28.43
38.81 34.82 30.07 27.66 25.78 29.70 32.70 34.14 33.86 32.81 35.06 38.76 38.60 40.13 38.65 38.80 39.20 38.87 42.73 43.84 43.67 43.13 41.32 39.84 39.06 37.51 35.71 34.74 34.44 32.05 31.18 30.70 29.88 29.05 28.45 28.43 28.16 26.01 26.21 24.09 26.17 27.22 26.87 26.23
37.96 38.01 32.22 30.13 20.37 18.94 33.51 35.84 38.63 38.21 30.28 38.53 40.21 38.67 37.27 38.95 35.43 38.79 41.56 43.55 42.73 41.41 40.03 38.19 37.15 35.53 34.13 33.32 32.83 30.42 29.84 28.39 27.28 27.12 27.23 26.89 26.46 22.66 23.04 25.33 24.43 24.78 23.26 27.27
30.32 29.74 28.78 27.03 19.01 27.34 32.99 35.13 38.00 27.15 30.62 33.56 38.82 39.12 38.80 39.41 42.18 40.79 40.78 40.17 40.60 39.01 36.77 35.98 35.08 33.44 32.57 31.70 30.06 28.72 27.66 26.04 26.42 26.63 25.34 23.49 23.85 20.92 22.11 22.66 21.97 20.81 22.31 25.19
29.55 27.11 25.38 23.73 20.50 23.52 33.46 33.84 33.16 35.73 32.15 33.23 35.10 37.11 39.17 36.67 37.22 38.51 39.29 37.11 35.66 34.41 34.65 34.23 31.99 30.47 29.60 29.33 28.93 27.27 25.93 26.14 23.77 21.77 19.69 16.86 14.50 18.36 21.54 14.96 17.29 18.26 19.61 21.03
30.43 33.06 30.47 31.93 31.00 32.90 32.91 31.82 33.09 34.56 34.26 32.53 35.07 35.68 35.19 34.54 34.20 35.62 34.57 34.23 33.62 32.90 31.94 31.69 29.47 27.16 26.07 24.97 27.11 26.20 22.74 22.11 19.52 13.51 11.97 11.62 13.10 15.92 15.84 13.46 16.35 16.13 14.36 17.56
30.25 29.66 31.28 33.67 30.83 29.71 31.34 32.36 32.88 33.78 33.92 35.20 35.69 35.10 35.05 33.16 34.16 33.95 33.44 32.67 31.96 31.50 30.41 29.01 27.30 24.52 22.83 23.25 21.67 19.85 18.74 16.94 10.47 8.86 10.95 13.50 13.01 14.47 12.30 17.37 18.71 13.11 12.79 18.85
31.39 31.18 30.86 29.46 27.35 27.86 29.74 30.76 33.01 33.58 34.45 34.55 34.48 33.88 33.27 33.51 32.88 33.13 31.84 30.83 30.75 29.81 29.00 29.00 27.44 24.83 20.86 19.32 16.68 15.42 15.03 13.27 13.08 11.49 13.20 12.29 13.65 9.41 14.30 16.05 16.24 18.61 18.21 19.04
28.86 30.90 31.97 32.79 33.67 33.65 33.31 32.70 34.65 33.10 33.28 33.38 31.85 31.18 31.50 32.26 31.73 30.89 29.95 29.88 28.84 26.71 24.82 23.54 21.44 19.58 16.17 14.41 12.88 10.40 8.36 10.01 8.30 9.90 12.14 10.45 10.37 9.75 13.04 13.69 14.37 19.96 22.31 23.84

GFSCGP_sfc_wetblb_087.txt.gz
Wetbulb
43.03 38.37 34.69 35.59 37.12 38.24 38.22 36.75 36.52 35.78 39.90 38.34 36.94 37.00 39.78 41.29 40.10 40.02 38.86 39.31 42.41 45.54 48.98 51.61 55.39 57.47 58.05 58.98 60.43 62.44 62.23 62.34 62.76 63.27 62.72 62.59 62.48 63.03 63.14 63.78 63.80 63.61 63.27 62.99
38.48 34.34 39.96 41.84 40.42 39.05 37.73 36.46 33.38 36.75 39.59 38.21 36.56 37.80 39.28 40.10 40.17 40.99 41.72 40.37 42.16 42.21 42.99 45.62 46.72 49.51 55.57 57.64 59.01 61.01 62.78 62.80 62.76 62.71 63.25 63.01 62.81 62.91 63.24 63.33 63.39 63.51 63.13 62.89
35.51 38.90 42.55 40.94 39.37 37.62 36.84 35.41 33.39 35.00 36.70 36.97 34.99 32.85 37.46 40.58 39.95 40.50 40.73 41.51 41.84 42.77 42.83 42.93 44.88 43.79 44.27 46.66 52.47 58.38 60.97 63.24 63.10 62.71 61.22 61.94 62.02 61.55 61.35 61.40 61.95 62.68 63.07 62.84
38.11 42.49 40.75 39.44 38.05 38.13 34.25 38.11 38.25 36.10 33.64 30.70 34.28 28.33 33.39 36.40 38.23 39.32 39.98 39.95 40.95 43.12 43.46 43.84 43.56 43.75 44.03 45.56 45.53 47.10 56.14 61.16 63.14 62.70 61.37 61.57 60.60 59.45 60.68 61.34 61.64 62.04 62.45 62.46
36.68 38.59 38.58 37.29 38.15 39.01 36.16 39.26 37.66 36.11 34.31 31.33 30.32 28.39 31.33 35.64 35.29 36.56 37.51 39.72 40.74 42.22 44.26 45.28 46.22 47.55 47.68 48.24 45.03 44.46 49.52 56.72 61.17 62.64 62.53 61.60 60.39 59.34 59.77 60.71 61.02 60.87 61.01 61.28
37.31 39.86 40.15 39.79 39.32 39.96 39.82 38.30 37.15 35.39 31.79 25.30 29.96 28.81 28.14 32.38 36.51 35.56 37.84 39.78 41.75 42.35 43.64 45.43 47.61 49.83 48.34 45.73 43.80 44.31 51.27 54.61 57.89 61.42 62.25 60.81 59.63 59.26 58.80 58.52 58.37 58.19 58.85 59.15
35.16 36.24 38.36 40.11 37.65 37.99 38.23 34.08 24.42 24.31 23.02 23.30 27.18 26.92 31.16 35.22 37.54 38.73 40.46 40.09 40.57 42.40 43.00 44.33 46.62 48.03 48.39 48.30 49.00 50.73 52.44 52.34 54.27 55.81 58.70 59.17 59.02 58.54 57.37 56.58 55.87 55.24 54.29 50.71
29.64 27.69 35.73 38.88 37.95 34.78 34.33 32.45 24.60 21.25 20.42 22.91 26.65 26.26 32.42 35.20 37.45 40.18 41.49 40.84 41.24 41.22 42.54 43.12 43.50 44.01 46.14 48.99 49.16 50.40 51.54 51.69 52.63 53.27 53.12 56.07 56.18 54.72 51.62 51.44 49.10 47.94 45.65 45.20
30.90 30.73 37.12 37.81 38.04 38.51 33.76 31.23 34.45 26.41 16.75 22.25 24.97 28.37 34.44 34.76 36.52 38.74 39.32 40.06 39.67 40.54 41.18 41.93 42.36 42.51 42.80 43.59 44.97 46.67 46.87 46.18 46.10 46.10 47.53 47.78 47.45 46.42 44.10 43.85 43.94 42.94 43.00 43.41
35.82 29.09 35.47 36.30 37.97 36.39 35.37 37.12 29.48 26.89 17.69 17.85 22.76 24.36 29.24 31.49 34.05 37.62 38.23 38.61 39.19 40.05 40.66 41.11 41.36 41.50 41.87 42.33 42.45 43.07 43.61 43.21 43.28 43.38 43.81 43.21 42.37 41.90 41.23 41.01 40.19 40.13 40.36 40.57
37.90 34.40 31.50 34.81 33.25 32.22 32.31 29.92 31.12 31.82 27.09 21.84 18.93 25.14 32.66 35.58 35.46 37.01 38.16 39.55 39.83 39.91 40.31 40.44 40.90 41.42 41.60 41.38 41.45 41.24 41.82 41.84 41.31 41.28 40.75 39.99 39.30 39.14 39.04 38.70 38.39 38.64 38.90 38.81
37.89 33.71 28.07 30.37 34.76 35.34 32.85 33.01 32.87 27.66 25.09 26.23 24.83 27.48 35.02 34.62 36.68 38.88 39.38 40.28 39.83 40.67 40.87 40.63 40.75 40.51 39.88 39.54 39.45 39.43 39.61 39.94 39.63 39.60 38.94 38.16 38.14 37.51 37.09 36.73 36.95 37.12 36.83 37.10
38.40 31.65 25.21 28.46 32.36 33.79 32.32 33.79 33.95 32.85 28.08 25.57 22.88 26.66 35.58 35.05 36.08 39.30 39.14 40.00 40.71 40.66 40.36 40.42 39.55 38.43 38.05 37.93 38.42 38.36 38.68 38.50 38.33 37.92 37.32 36.59 36.13 35.99 35.56 35.45 35.45 35.46 35.21 35.04
41.08 34.16 30.30 26.48 29.36 32.79 30.25 32.35 33.03 32.61 25.25 25.24 25.79 29.02 32.41 35.23 36.41 37.80 39.03 40.30 40.25 40.89 41.18 40.44 39.31 38.99 38.30 37.83 37.60 37.65 37.65 38.09 37.02 36.42 35.45 34.67 34.37 34.37 33.89 33.71 33.48 33.56 33.69 33.24
38.10 30.29 33.17 33.42 34.63 34.52 32.82 32.76 32.13 32.49 34.18 30.89 32.54 31.56 34.30 36.31 37.47 39.67 40.28 40.20 40.34 40.39 40.82 40.94 39.40 38.50 37.51 37.18 37.27 37.61 37.45 36.90 35.96 34.69 33.88 33.43 33.15 32.80 32.14 31.32 31.13 30.96 30.68 31.70
37.01 29.25 32.06 29.58 33.08 33.92 30.92 33.69 34.40 33.91 31.45 31.62 30.54 31.54 36.48 37.46 38.61 38.59 40.36 40.82 40.47 40.62 41.20 40.97 39.65 38.54 37.54 37.63 37.19 37.28 36.23 34.56 33.92 33.00 32.16 31.99 30.78 30.02 29.77 29.59 29.55 29.52 29.37 29.37
34.48 29.79 26.08 22.96 29.89 30.41 26.23 30.69 33.27 34.39 33.30 35.86 30.25 36.53 36.75 35.27 39.51 40.17 40.33 41.70 41.67 41.73 41.94 40.76 39.45 38.46 38.21 37.80 37.76 35.77 34.44 32.98 30.97 29.87 29.68 29.49 29.45 29.07 28.93 28.71 28.52 28.45 28.04 28.01
34.16 31.61 28.43 22.19 24.69 19.18 30.70 36.64 36.94 35.93 36.16 37.79 36.57 36.50 38.13 38.55 41.61 42.85 43.38 42.72 42.65 42.75 42.55 41.49 39.73 38.55 37.67 36.76 35.48 34.29 32.70 30.28 29.87 29.48 28.73 28.46 28.16 27.41 27.48 27.05 26.65 26.71 27.06 26.72
38.08 33.85 28.25 24.36 20.02 28.32 31.37 33.64 33.32 32.14 34.12 37.11 37.86 39.14 37.35 37.68 38.84 39.02 43.96 44.61 44.20 44.01 43.79 41.94 39.81 38.82 36.52 35.28 34.52 32.02 30.49 30.13 29.49 28.50 28.01 27.80 27.31 25.37 24.83 22.29 24.08 25.60 25.01 24.30
36.91 36.30 32.63 26.05 25.96 21.56 34.27 35.03 36.51 37.29 29.83 38.34 39.40 38.63 36.07 38.11 34.43 37.98 40.92 43.32 43.70 44.02 42.35 39.27 37.35 35.73 34.92 33.41 32.51 30.71 29.36 28.39 27.44 27.16 26.98 26.19 26.02 21.51 21.06 23.70 21.90 23.70 22.18 25.18
28.92 28.88 28.68 24.75 22.60 25.29 32.16 34.14 37.79 27.51 32.11 34.44 37.84 39.06 36.49 38.02 41.92 41.82 40.29 39.74 41.49 40.90 38.35 36.73 35.79 34.97 33.94 32.20 30.91 29.43 27.89 26.96 26.29 25.10 24.20 22.96 22.96 20.42 21.52 20.77 20.72 18.83 16.82 19.79
29.59 27.38 27.40 25.81 22.21 24.26 32.73 32.79 33.02 36.30 32.62 34.42 35.26 36.31 37.54 38.75 36.47 36.53 38.52 38.10 37.44 35.73 35.43 35.49 34.38 32.22 31.93 30.32 30.18 27.85 26.32 25.21 23.18 20.92 19.77 18.03 16.85 20.34 20.82 12.59 14.20 11.71 10.40 11.05
27.54 30.84 28.39 31.91 31.77 32.74 31.79 31.65 32.27 34.07 34.56 32.93 34.39 35.19 35.91 35.21 34.72 34.32 33.51 34.55 34.33 34.12 33.82 33.43 31.29 29.04 28.78 26.71 28.45 25.92 23.26 22.36 19.46 18.92 17.36 18.11 15.31 15.46 13.65 9.63 10.69 13.77 9.92 9.06
28.69 27.49 29.66 31.47 29.07 29.50 30.58 32.02 32.15 33.20 33.43 34.07 34.57 34.17 34.77 34.31 33.62 32.47 32.63 32.30 31.96 30.72 29.65 28.74 28.20 26.68 23.51 22.94 23.60 22.74 21.68 19.60 19.18 17.83 17.84 17.00 15.31 12.80 9.70 14.92 16.17 9.16 7.89 9.17
31.20 29.13 29.37 28.16 27.94 27.44 30.41 30.15 31.97 32.74 33.85 33.01 33.10 33.33 33.71 33.41 32.53 32.62 31.44 30.52 30.07 29.04 27.63 27.90 26.55 24.62 21.53 20.25 18.69 18.56 18.07 18.27 17.14 15.67 16.41 14.76 13.50 11.11 11.22 13.43 11.51 15.03 15.06 14.31
30.01 32.40 33.01 28.85 31.78 32.13 32.97 32.01 32.36 31.54 32.29 32.37 31.62 30.68 31.06 32.08 31.95 31.23 30.31 30.40 29.52 28.17 27.71 26.38 24.58 21.72 18.66 16.80 14.64 13.64 14.30 15.03 14.83 14.37 13.27 11.44 11.16 9.35 10.95 9.00 9.11 16.40 19.40 21.42

GFSCGP_sfc_wetblb_090.txt.gz
Wetbulb
45.39 40.24 36.53 38.99 39.72 38.49 38.25 36.64 36.07 36.49 39.38 37.37 37.41 37.40 38.41 40.61 38.00 37.75 38.71 39.81 40.77 45.07 50.41 52.08 54.96 56.13 57.16 58.88 61.37 62.55 62.48 62.24 62.30 61.05 62.36 62.36 62.27 62.95 63.13 63.52 63.44 63.32 63.10 63.01
40.87 38.41 41.33 42.97 40.53 38.39 37.45 36.47 34.43 35.43 38.64 37.90 35.78 36.61 37.71 37.82 38.99 39.40 40.12 38.81 40.30 43.42 44.40 48.30 52.27 54.71 56.24 57.99 60.52 61.80 62.28 62.24 62.57 62.23 61.23 62.94 62.74 62.84 63.03 63.28 63.11 63.34 62.99 62.77
38.45 40.85 43.48 40.97 38.91 36.64 36.97 34.36 33.18 34.04 35.72 36.03 35.44 34.69 35.08 38.83 38.09 39.41 40.64 39.99 39.44 42.79 42.94 43.76 46.06 49.91 51.99 55.73 57.56 60.89 61.88 62.12 62.36 62.07 60.53 61.94 61.81 61.57 61.41 61.36 61.82 62.51 62.91 62.67
39.72 43.59 41.40 38.43 37.50 38.64 33.78 38.00 37.29 35.44 33.50 30.34 33.02 27.53 32.81 36.55 37.47 38.12 39.63 40.20 40.16 40.25 40.39 41.06 42.69 42.15 42.81 44.64 45.68 53.19 59.99 61.83 62.13 61.98 61.10 59.65 59.58 59.43 60.64 61.24 61.79 62.07 62.34 62.30
36.07 38.50 39.36 36.49 37.87 40.45 36.38 38.92 37.41 35.24 31.98 31.48 28.68 27.56 30.49 32.16 34.65 36.82 39.07 38.92 39.39 40.41 41.70 42.25 43.09 44.80 46.43 46.96 45.35 45.02 53.33 61.57 61.95 61.76 61.64 61.63 60.60 59.38 60.37 60.76 60.66 60.87 60.76 61.29
37.89 42.50 40.82 39.34 41.20 40.84 39.47 37.49 35.29 34.32 31.80 25.66 29.47 28.68 28.67 30.72 34.85 37.14 36.64 38.73 39.69 40.32 42.32 43.75 46.13 48.01 46.92 44.84 43.82 43.68 49.40 57.04 61.58 61.71 62.28 61.79 60.37 58.95 58.93 58.79 58.49 58.62 57.61 54.64
35.81 35.81 38.81 41.18 37.55 38.54 38.67 35.15 25.50 25.12 24.44 25.37 26.05 25.53 31.89 33.68 35.52 37.78 39.49 39.23 40.17 41.79 42.44 44.58 46.59 46.98 46.30 45.55 45.90 45.65 51.73 53.01 59.33 60.68 61.26 59.99 59.56 59.28 58.44 57.43 56.38 55.14 50.69 48.84
30.01 27.76 35.52 38.84 38.81 34.91 34.96 34.45 24.99 20.87 20.73 21.75 26.53 24.98 31.67 34.38 36.76 37.79 39.44 40.44 40.73 40.97 42.38 44.63 46.44 46.42 46.67 47.39 47.97 49.64 50.69 51.01 52.95 55.44 57.38 57.55 56.72 55.45 53.62 51.46 49.36 47.33 46.43 45.30
30.89 30.69 36.57 37.90 38.65 38.87 34.02 32.64 33.36 25.91 16.64 21.95 24.42 27.97 34.19 33.98 34.86 36.34 37.95 40.17 39.71 40.40 41.79 42.67 43.21 44.65 46.20 46.71 47.50 48.02 48.02 46.59 47.30 48.25 49.24 49.40 48.68 48.02 46.38 44.98 44.41 43.50 41.13 41.02
34.97 29.00 35.14 36.48 37.68 37.36 35.54 37.30 29.76 27.78 19.60 17.71 21.85 23.14 28.38 31.06 34.40 36.21 37.10 38.99 38.91 40.16 40.83 40.98 41.20 41.86 42.40 43.11 43.25 43.39 43.80 43.55 42.88 43.56 44.31 43.99 43.97 43.36 41.43 40.52 39.36 38.81 38.75 38.75
36.66 34.54 31.70 35.13 33.46 33.01 32.50 31.01 31.13 31.83 27.67 21.57 17.94 24.17 31.93 35.08 36.65 37.36 38.59 38.76 39.05 39.33 39.75 40.04 39.96 40.56 40.80 40.76 41.02 40.58 41.01 40.83 40.53 40.97 40.66 40.08 38.87 38.48 38.39 38.15 37.29 37.06 36.90 36.87
37.77 33.90 28.87 30.87 34.94 35.46 33.05 33.10 33.08 28.84 25.13 24.88 24.45 26.56 32.49 33.21 35.03 37.77 37.58 39.19 39.07 39.82 39.55 39.39 39.56 39.55 39.49 39.53 39.45 39.06 38.47 38.51 38.45 38.73 38.14 37.31 36.94 36.71 36.43 35.59 35.68 35.66 35.04 35.16
37.68 31.89 25.84 28.20 32.19 33.45 31.90 33.16 33.57 31.92 28.83 25.10 23.61 26.34 33.86 33.09 33.39 36.69 38.91 38.37 39.22 39.55 38.91 38.94 38.73 38.20 37.68 37.60 37.61 36.87 36.82 36.98 37.23 37.38 36.79 36.00 35.43 34.96 33.93 33.90 34.28 34.15 33.61 32.94
41.18 33.60 31.20 27.61 29.02 32.07 29.32 31.47 31.74 32.77 26.54 25.51 26.31 28.95 31.97 33.82 33.84 35.76 37.83 38.88 38.91 39.97 40.04 39.20 37.35 37.24 36.76 36.49 36.56 36.52 36.11 36.71 36.34 36.06 35.42 33.91 33.07 32.82 32.52 32.75 32.60 32.36 31.85 31.23
38.24 30.69 32.26 34.78 34.33 34.74 32.42 34.13 32.24 32.53 34.85 31.28 32.95 31.08 35.08 35.43 35.29 37.55 38.04 38.23 38.53 39.10 39.44 39.38 38.62 37.30 35.70 35.84 36.26 36.86 36.23 36.13 35.60 34.37 33.29 32.52 32.17 31.68 31.15 30.43 29.88 29.71 29.52 29.74
35.93 28.91 31.71 29.05 32.48 33.23 31.51 33.70 33.23 33.93 31.11 32.01 29.56 29.50 34.58 34.06 37.19 37.27 38.74 38.83 38.92 39.28 39.88 39.99 39.32 37.69 36.99 37.32 36.95 36.95 35.92 34.59 33.74 32.73 31.83 31.31 30.35 29.32 28.82 28.78 28.73 28.45 27.90 27.74
33.92 30.16 26.65 23.71 29.61 30.64 27.17 30.71 32.83 34.35 32.05 34.53 29.49 36.03 33.98 33.55 36.54 37.67 38.13 39.36 39.90 40.47 40.75 40.50 39.78 38.37 38.05 37.84 37.80 36.15 34.88 33.02 31.31 30.68 29.71 29.35 28.93 28.24 28.12 27.82 27.58 27.18 26.93 26.94
33.21 31.14 28.23 23.75 25.98 20.02 30.72 34.11 36.40 35.16 35.96 35.21 33.85 34.97 36.57 37.17 39.97 40.21 41.51 40.76 41.21 41.72 41.55 41.69 40.79 39.38 38.37 37.86 37.18 35.09 32.47 30.98 30.25 29.56 28.78 28.07 27.86 26.93 26.38 26.13 26.10 25.93 26.44 26.21
37.29 33.54 27.06 24.64 19.44 26.85 30.44 32.98 31.86 31.24 33.39 36.03 36.85 38.73 35.97 36.09 37.10 37.28 41.55 43.23 43.27 43.29 43.61 43.35 42.28 40.14 38.55 36.95 35.29 32.45 30.75 30.17 29.37 28.68 27.87 27.26 26.55 25.03 24.41 23.96 24.07 25.42 24.72 23.77
36.61 36.52 31.33 23.89 21.15 20.70 29.11 34.44 36.76 37.58 30.32 37.31 38.12 37.19 34.98 36.89 33.51 38.75 40.60 43.06 43.60 44.36 44.11 43.07 40.50 38.92 37.00 35.51 33.95 31.24 29.41 28.96 28.18 28.06 27.66 26.59 25.25 22.79 22.71 24.19 22.99 23.73 21.93 24.20
31.09 31.67 30.66 27.46 22.74 26.14 32.08 32.94 37.08 28.14 30.70 33.68 37.45 37.92 36.46 37.34 41.24 41.35 40.46 41.78 43.37 42.64 42.32 40.81 38.54 36.10 36.00 34.15 31.98 30.19 29.02 28.34 27.64 25.78 24.43 23.41 22.75 21.87 22.38 21.67 21.34 18.49 16.72 18.68
29.88 28.84 28.20 26.14 23.87 24.51 32.22 32.60 32.98 36.42 33.31 34.82 34.23 36.37 36.98 39.12 36.02 35.94 37.13 37.71 37.81 37.03 35.75 36.47 35.50 35.09 33.55 32.27 31.60 29.20 28.02 26.07 23.95 22.35 20.98 19.72 18.26 22.32 20.38 18.20 16.94 14.10 10.73 9.78
27.12 32.23 29.59 32.03 30.85 32.69 32.19 31.80 33.35 34.93 34.49 33.39 34.71 35.26 34.30 35.01 35.43 33.09 35.08 34.92 34.99 35.39 35.54 35.54 35.31 31.80 31.09 31.29 31.73 28.49 24.33 23.13 20.50 19.02 16.76 16.12 17.87 19.06 19.05 16.89 17.54 13.91 8.23 9.84
29.00 28.24 30.22 30.91 27.59 30.00 31.16 32.37 32.05 33.40 32.87 34.50 34.77 34.10 34.30 35.03 34.87 33.62 32.36 32.15 31.98 31.86 32.53 31.99 30.60 29.34 27.33 27.74 28.46 27.08 22.69 20.22 18.55 16.92 17.10 18.02 17.96 17.24 16.28 18.21 18.25 12.69 10.02 10.91
30.33 30.08 28.55 27.25 27.52 27.86 29.66 30.19 31.30 32.42 33.15 33.11 33.79 33.01 33.52 33.82 33.28 32.67 31.32 29.40 29.38 28.89 27.05 29.71 30.37 28.50 24.90 23.31 21.26 20.90 19.66 19.59 18.96 18.93 19.20 18.02 17.05 16.16 14.64 14.98 14.17 15.80 14.43 14.44
31.35 31.25 30.41 27.81 31.76 32.23 33.70 31.79 32.00 31.48 31.26 31.73 31.61 31.75 31.17 31.39 31.92 30.39 28.89 28.41 27.84 26.35 25.85 25.70 25.32 22.59 20.26 19.28 17.79 16.89 18.76 20.23 19.25 18.41 17.36 16.66 15.59 13.86 13.06 11.24 10.48 16.29 19.18 20.32

GFSCGP_sfc_wetblb_093.txt.gz
Wetbulb
45.66 41.08 38.44 39.90 41.61 39.14 36.18 36.20 35.72 36.95 39.48 37.12 37.21 38.99 39.14 38.61 37.16 40.76 41.84 43.71 47.40 51.06 55.48 55.70 56.28 56.75 57.43 59.87 61.22 62.06 61.88 62.02 61.86 60.05 61.78 62.09 61.95 62.50 62.71 63.14 62.76 62.52 62.54 62.36
41.78 39.15 43.45 43.72 42.62 39.68 37.47 34.43 35.30 36.69 38.47 37.18 35.65 37.89 37.82 37.37 38.42 39.97 42.10 40.63 42.88 44.68 46.17 50.02 51.98 53.96 55.13 57.98 60.85 61.77 62.23 62.01 62.41 62.37 60.51 60.92 62.32 62.63 62.90 63.03 63.06 63.10 62.87 62.68
39.17 42.09 45.13 42.63 39.92 37.67 37.95 33.95 35.45 36.17 36.51 36.47 33.69 34.85 35.46 37.78 36.45 38.35 39.10 38.56 39.76 42.04 45.36 45.55 48.43 52.27 54.08 55.95 59.30 61.24 62.13 61.98 62.45 61.98 60.08 60.59 61.76 61.52 61.42 61.28 61.68 62.37 62.75 62.51
41.11 44.68 41.86 40.87 38.73 39.80 35.20 39.50 37.53 35.63 35.44 31.71 33.67 28.66 32.05 35.88 37.20 37.52 38.45 38.21 38.51 39.16 41.64 43.50 45.76 48.11 51.31 54.54 56.61 60.40 61.63 61.86 62.24 61.49 61.05 58.59 58.25 59.03 60.58 61.20 61.76 61.90 62.27 62.21
37.51 40.89 40.01 38.16 38.55 40.57 37.25 38.55 36.84 35.98 33.14 30.09 29.59 26.68 30.27 31.31 36.41 36.72 38.11 38.34 38.83 38.11 40.06 42.29 42.73 44.29 43.66 45.51 48.10 54.93 59.21 60.72 61.45 61.42 61.42 59.98 58.94 59.57 60.33 60.58 60.73 60.92 60.72 60.71
37.44 42.92 42.66 41.57 41.38 41.97 39.84 37.27 35.97 35.02 31.96 27.02 30.84 28.94 28.53 29.63 34.31 39.04 39.85 40.29 39.17 39.01 38.98 40.28 41.95 44.89 45.85 45.01 44.04 43.97 53.53 59.96 60.87 61.08 60.94 61.03 60.58 58.74 58.77 59.04 58.99 58.20 54.40 52.51
35.67 37.58 39.63 42.38 38.30 40.56 37.79 33.80 26.75 25.64 24.68 25.33 26.01 26.06 36.53 32.34 34.58 36.85 40.82 40.66 38.61 39.56 40.27 41.84 45.03 46.41 45.97 44.58 43.80 43.43 45.62 55.49 61.14 60.88 60.62 61.43 61.03 59.35 59.00 58.66 57.51 53.29 50.26 48.61
30.64 28.43 36.18 39.88 39.48 35.63 34.87 33.69 26.67 21.40 22.85 26.07 25.51 24.33 31.09 34.16 34.46 36.66 36.72 36.97 37.60 39.18 40.73 42.76 44.97 46.20 46.36 46.05 45.06 44.16 46.97 50.76 59.71 60.82 61.19 59.03 59.39 58.40 56.59 55.58 52.66 48.75 46.76 45.54
28.75 29.64 38.03 38.48 39.86 40.28 35.34 31.88 36.18 26.94 18.15 21.39 24.59 27.99 33.53 32.84 34.19 35.99 36.43 36.65 38.52 39.82 41.07 43.28 45.32 45.69 45.55 45.96 46.12 46.30 48.49 50.70 57.65 58.86 57.76 54.72 53.60 52.13 48.62 46.68 46.20 44.46 43.24 41.90
32.89 26.12 34.09 35.22 39.81 39.72 36.62 38.80 29.17 28.34 20.56 16.11 21.66 22.68 30.19 30.89 34.09 34.94 35.81 36.27 38.10 39.66 41.05 42.32 43.44 44.27 44.76 45.43 44.94 45.29 46.20 49.18 49.31 50.11 50.61 49.83 47.43 46.01 44.40 43.68 41.64 40.89 39.29 37.87
33.19 31.91 29.83 34.50 33.61 33.76 33.70 32.30 32.34 33.24 28.14 21.91 17.68 24.39 30.83 34.80 36.69 35.83 37.48 37.83 38.51 39.48 40.41 41.02 40.86 41.96 43.00 42.43 42.56 42.77 42.16 43.26 44.12 44.68 42.64 42.00 42.34 41.13 40.99 40.04 38.27 36.80 36.45 35.87
35.23 32.46 26.18 30.25 34.87 36.77 36.41 35.19 34.20 30.08 24.97 24.46 24.75 26.02 32.65 32.69 34.17 36.46 36.34 37.50 37.89 39.28 40.03 39.89 40.02 39.90 40.10 40.64 40.49 40.21 39.61 39.59 39.27 40.73 40.68 39.89 39.33 38.02 37.32 35.95 35.23 35.20 34.40 34.21
35.93 29.58 24.08 29.27 33.04 34.24 32.20 33.26 33.73 32.54 29.78 27.50 24.29 27.31 33.27 33.24 33.97 34.83 37.19 37.64 38.42 38.84 38.80 38.68 38.39 38.59 38.71 38.48 38.11 37.55 37.51 36.85 38.06 38.94 37.97 36.70 35.98 35.69 34.71 34.12 33.88 33.63 32.66 32.18
39.98 31.88 29.00 27.65 30.28 33.79 29.17 30.51 31.50 33.09 28.02 27.21 26.74 28.72 33.52 34.46 34.52 33.67 36.50 37.97 38.45 38.96 39.27 38.64 37.60 36.98 37.45 37.34 36.71 35.88 35.39 36.15 35.71 36.07 35.60 34.29 33.83 33.88 33.56 32.88 32.34 32.12 31.46 30.37
38.23 28.29 30.04 32.74 34.16 35.41 32.61 32.64 31.85 30.97 33.66 29.84 31.16 30.89 35.06 36.45 35.72 35.54 37.12 37.27 37.10 38.37 38.55 38.45 37.20 37.38 36.93 35.88 35.60 35.70 35.03 34.97 35.07 34.45 33.85 32.42 31.74 31.86 31.51 30.88 30.33 29.99 29.62 28.77
34.33 26.26 31.50 26.51 32.07 33.16 32.47 34.36 34.47 34.08 34.44 33.19 30.22 31.35 36.78 34.67 36.26 36.14 37.15 37.83 37.91 38.71 39.22 38.59 38.30 38.01 36.82 36.81 36.43 35.75 35.02 34.07 33.87 32.66 31.70 31.30 30.64 30.06 29.91 29.24 28.66 28.30 27.89 27.21
32.08 28.50 25.80 24.69 29.58 30.43 26.46 31.94 32.89 34.54 34.65 35.58 28.70 36.56 34.69 35.04 36.44 37.03 37.19 38.48 39.21 39.50 39.34 39.00 38.98 38.53 38.22 37.76 37.10 35.68 34.96 33.19 31.33 30.95 30.49 29.89 29.32 28.91 29.05 28.54 27.72 27.15 26.63 26.44
33.56 30.93 27.96 25.83 27.32 21.52 31.54 35.17 36.81 35.53 36.55 37.09 33.05 34.68 35.92 37.54 38.36 38.58 39.45 39.41 39.47 39.79 39.85 40.28 40.47 39.70 38.88 38.04 36.71 35.89 33.37 32.00 30.96 30.32 29.75 28.82 28.89 28.14 27.04 26.07 26.02 25.80 25.65 25.22
36.36 33.36 29.04 25.65 23.14 27.74 30.49 32.10 31.47 30.80 33.21 36.44 35.70 38.62 35.90 35.28 36.46 36.46 39.62 40.67 41.37 41.80 42.40 42.59 42.73 41.29 39.10 37.37 37.04 33.61 31.57 30.92 30.24 29.62 29.31 28.85 28.18 26.11 24.65 24.23 23.74 24.92 24.11 23.30
36.40 35.65 31.76 24.58 23.74 20.79 29.85 35.16 35.74 36.25 29.36 36.29 37.57 37.26 35.03 36.19 33.07 39.21 39.42 40.87 41.78 42.73 42.97 42.33 41.91 40.37 38.27 37.23 34.68 32.58 31.27 30.32 29.75 29.63 28.87 27.01 26.04 24.22 22.93 24.14 23.36 23.42 22.58 23.82
29.35 31.44 29.15 26.74 18.77 25.34 31.80 33.56 35.33 27.73 30.21 32.31 36.62 38.18 34.80 36.51 40.80 39.90 39.65 40.21 41.56 41.65 41.20 41.03 41.07 39.09 38.01 36.27 34.10 32.62 30.91 29.84 29.91 27.23 25.87 24.02 23.26 22.48 22.79 22.25 21.33 20.10 19.28 19.52
31.58 30.01 28.28 27.56 16.92 21.28 33.43 32.69 31.43 34.18 32.63 33.38 33.62 35.19 36.31 37.94 35.46 35.64 36.78 36.91 38.23 38.82 38.74 39.73 38.88 37.31 36.13 34.05 33.85 31.80 29.97 28.98 26.47 25.07 23.08 21.31 20.96 23.09 21.37 19.22 17.43 16.86 17.14 17.36
28.44 32.80 30.15 31.54 28.37 33.70 31.71 32.80 32.84 34.24 34.61 33.92 35.59 35.33 34.91 34.48 34.59 35.39 35.78 35.90 35.87 36.60 36.23 36.45 36.89 33.31 32.61 32.91 34.10 31.27 29.70 25.72 23.81 22.39 19.82 18.29 19.78 20.03 18.47 17.50 17.32 17.10 17.56 19.33
29.26 29.13 31.43 30.81 27.40 30.10 31.79 32.37 32.19 33.47 32.83 33.76 34.34 33.46 34.12 33.66 34.37 33.71 33.20 33.44 32.81 29.61 31.12 29.73 30.64 30.75 29.97 31.35 32.26 32.18 25.81 24.91 23.26 20.27 19.06 18.96 17.48 16.94 19.14 20.26 19.50 18.71 17.91 17.39
28.57 30.13 25.27 25.82 26.59 29.21 31.04 30.98 32.84 33.03 33.47 33.88 33.41 32.52 32.18 33.04 33.76 32.83 32.84 29.03 30.08 27.75 26.63 28.47 30.26 29.55 28.07 26.63 26.37 25.41 23.75 23.45 21.07 19.41 18.70 18.55 18.91 18.76 17.71 18.20 18.36 18.85 18.77 19.15
30.69 30.02 29.84 26.89 31.43 31.80 32.94 32.49 31.78 32.06 31.90 32.27 32.56 31.82 31.50 31.86 32.63 31.31 28.91 28.54 27.32 25.90 24.71 25.28 24.21 24.30 22.08 22.30 21.70 21.54 22.44 22.81 20.44 18.80 18.79 18.73 17.72 17.32 16.73 16.03 13.86 18.38 20.18 20.69

GFSCGP_sfc_wetblb_096.txt.gz
Wetbulb
45.79 42.59 40.17 42.52 45.22 43.97 42.86 40.41 39.48 36.45 39.97 37.60 36.59 38.15 40.86 38.78 37.98 45.48 48.62 50.36 51.42 53.18 55.67 56.53 56.75 57.90 59.03 60.25 60.52 61.04 60.74 60.82 60.76 59.17 60.71 61.59 61.61 62.25 62.31 62.27 62.23 61.90 61.59 61.11
42.40 40.00 44.67 44.59 44.99 40.73 39.24 38.20 38.25 37.69 38.66 36.94 36.52 36.78 39.42 36.95 38.54 43.31 47.26 47.64 49.53 49.58 49.79 53.20 54.27 54.85 56.44 59.02 60.27 60.86 61.22 61.26 61.57 61.78 60.82 61.82 62.31 62.41 62.91 62.90 62.47 62.61 62.35 62.29
39.82 42.27 44.96 43.48 41.49 38.14 37.77 37.55 37.67 35.45 36.69 36.49 34.67 35.82 35.20 36.94 36.28 37.99 38.90 41.95 45.25 48.82 48.93 49.57 50.48 53.07 55.22 56.49 58.59 60.38 61.36 61.49 62.05 62.26 59.81 60.67 61.53 61.60 61.23 61.24 61.67 62.35 62.56 62.37
41.99 45.04 42.45 41.48 40.11 41.31 36.04 40.52 38.38 35.38 34.67 32.49 33.95 30.56 34.68 35.58 37.43 36.41 39.10 37.67 39.77 39.44 41.67 45.90 46.91 49.47 52.64 55.09 57.18 59.81 61.15 61.61 62.02 61.93 61.32 60.48 60.27 59.19 59.34 61.07 61.81 61.84 62.15 62.12
38.78 41.47 41.06 38.86 39.78 41.94 38.97 39.86 37.22 36.01 32.86 31.01 33.64 26.60 32.14 30.16 34.60 37.03 37.91 37.95 39.41 39.50 39.91 41.63 43.92 48.47 50.01 52.65 55.70 58.83 60.40 61.22 61.60 61.33 61.80 60.32 58.16 57.83 59.54 60.40 60.62 60.81 59.80 59.98
38.30 42.44 43.60 42.29 42.88 42.37 40.54 38.31 37.08 35.95 33.71 26.88 31.72 28.72 30.76 33.89 32.97 37.06 39.84 40.44 40.54 38.71 38.04 37.55 39.86 42.64 44.50 45.93 48.75 54.42 58.09 59.75 60.59 60.83 61.23 60.42 59.19 58.97 58.83 58.90 58.95 57.47 54.56 53.03
36.56 38.37 39.81 43.20 38.72 39.84 38.26 35.97 28.06 27.05 26.20 25.77 29.04 27.09 34.25 35.51 34.82 38.72 41.90 41.77 40.34 39.24 37.48 37.64 39.67 41.76 43.84 43.87 44.11 45.63 53.84 58.71 60.13 60.39 60.41 60.30 60.11 59.94 59.30 58.71 57.94 53.69 51.06 49.60
31.93 30.06 36.50 41.22 39.85 36.45 35.97 36.42 29.11 22.62 22.15 23.94 26.40 26.33 33.75 35.60 35.72 36.02 36.22 36.30 36.23 36.75 38.01 38.72 41.00 42.82 43.75 44.24 44.16 43.43 43.82 52.88 59.85 60.58 60.50 60.20 60.20 60.16 58.92 58.13 56.60 53.25 49.91 47.04
30.48 31.17 37.96 39.09 40.77 40.01 34.68 32.95 35.19 27.03 20.43 23.09 26.78 28.85 33.59 33.26 34.45 35.02 36.09 35.79 36.49 36.74 39.31 41.26 42.43 44.31 44.64 45.03 44.79 43.93 43.45 46.61 55.62 59.79 60.45 60.30 58.94 56.82 54.42 51.86 50.25 47.86 45.31 43.31
33.34 27.79 35.05 36.66 40.14 39.70 37.77 39.28 31.34 29.03 20.53 18.28 22.12 23.46 32.22 32.62 34.40 34.87 35.25 36.66 38.13 37.38 38.88 40.49 42.83 43.89 44.36 44.72 44.97 45.11 45.22 46.78 50.52 56.19 58.33 56.23 53.90 50.95 49.51 48.19 44.79 43.52 41.40 40.19
34.73 31.20 29.07 34.91 35.17 34.80 34.57 33.97 32.55 32.43 26.97 21.36 17.86 24.34 31.03 36.34 36.62 36.98 38.01 39.25 39.11 37.14 39.19 40.27 41.73 43.15 43.37 43.27 43.58 44.45 45.03 47.97 48.73 49.86 49.52 48.87 47.33 46.73 45.48 43.56 41.70 40.61 39.04 37.71
36.32 31.83 25.99 28.52 32.25 36.38 36.66 34.10 33.89 30.35 24.73 24.40 24.20 25.14 31.69 33.25 33.29 35.13 36.27 37.04 36.52 37.68 39.06 39.95 40.36 40.66 40.97 41.54 42.14 43.76 43.50 45.94 46.02 45.32 45.32 44.43 43.66 42.74 40.91 39.74 38.67 37.90 36.42 34.11
35.73 29.70 24.35 28.36 32.24 32.18 33.44 33.31 36.88 34.14 29.65 27.76 23.64 26.94 32.93 32.63 33.36 34.94 35.80 37.56 38.04 38.54 38.67 38.77 38.69 38.81 39.34 39.93 40.05 42.31 41.88 40.76 41.47 42.55 41.61 40.41 39.90 40.34 38.67 37.11 35.70 34.36 33.03 31.63
40.16 30.92 28.23 25.03 26.71 31.38 28.04 34.28 32.95 34.59 28.53 28.13 28.18 27.93 35.91 38.15 35.28 35.34 35.63 37.59 38.09 38.49 39.02 38.18 37.82 38.46 38.11 38.31 38.31 38.40 39.10 40.04 39.65 40.38 40.20 38.87 37.82 37.55 36.52 34.71 32.66 31.82 31.08 30.14
36.30 27.11 29.16 30.64 31.57 32.08 30.75 31.56 32.97 31.35 33.06 28.76 32.92 31.01 33.13 36.41 36.59 36.59 35.81 37.40 37.50 38.12 38.40 38.86 38.22 36.83 36.61 37.05 36.58 36.30 36.73 38.09 38.49 38.42 37.72 36.26 34.59 34.57 33.35 31.51 30.77 29.69 29.43 28.74
33.31 26.30 30.17 26.95 29.97 30.40 29.65 31.35 33.86 33.34 32.95 33.00 32.85 31.20 33.77 34.48 36.86 36.24 37.06 37.31 37.47 38.50 39.31 38.99 37.89 37.92 38.07 38.02 36.83 36.22 34.79 34.94 36.88 36.05 34.71 33.33 33.00 31.09 30.51 29.77 29.30 28.84 28.26 27.58
34.09 28.12 26.60 21.51 28.50 30.17 26.66 30.70 32.83 33.54 32.71 35.50 31.10 35.70 34.62 34.75 36.13 37.37 38.19 37.79 38.40 39.17 39.43 38.69 38.24 38.67 39.09 37.77 37.20 35.41 34.69 32.73 31.88 32.49 31.76 30.92 30.38 29.73 29.21 28.69 28.16 27.54 26.77 26.75
30.47 29.93 24.54 22.75 27.86 22.16 30.03 34.12 36.77 34.88 37.14 38.57 36.72 33.92 35.95 36.94 38.86 38.24 39.05 39.10 39.28 39.32 39.27 39.59 39.79 39.58 38.97 37.28 36.00 35.33 33.29 32.09 30.93 30.41 30.00 28.89 29.15 28.45 27.47 26.85 26.41 26.07 25.90 25.47
36.49 31.33 25.10 25.81 19.65 25.80 29.80 30.69 30.55 29.76 32.74 36.64 35.52 36.46 37.40 34.55 35.26 36.99 39.42 40.68 41.31 40.74 41.58 42.04 41.80 40.82 38.78 37.11 36.57 34.40 32.23 31.12 30.80 30.13 29.55 28.77 28.87 27.85 26.42 25.84 25.10 25.22 25.28 23.81
34.58 35.22 31.34 26.24 14.96 16.13 26.66 33.46 34.72 34.89 27.93 36.74 37.46 36.96 37.26 35.39 32.61 37.89 42.42 39.88 40.68 41.64 41.89 41.32 41.05 40.14 38.39 37.30 35.98 33.38 31.93 31.00 30.84 30.44 29.75 28.93 28.28 27.69 26.28 25.45 25.07 24.41 23.95 23.98
25.42 26.37 28.31 26.67 18.04 21.72 30.10 31.20 34.34 25.06 27.54 31.76 35.92 37.67 36.04 35.76 39.31 38.17 38.56 37.96 39.25 39.60 39.84 40.08 40.66 39.68 38.63 37.03 34.77 33.91 32.25 31.77 32.26 29.88 27.94 26.65 25.96 25.76 25.59 24.55 23.19 22.80 21.97 20.21
27.41 26.69 25.64 20.51 15.00 21.04 31.89 31.09 30.99 33.98 33.07 33.74 33.53 34.55 35.26 35.72 35.50 35.79 37.09 36.92 37.19 37.55 38.05 39.08 39.40 38.68 37.54 35.65 34.90 33.82 32.61 32.73 28.85 27.81 26.51 25.38 24.62 24.77 24.11 22.30 20.21 20.08 19.47 19.03
26.62 29.49 27.30 31.02 29.16 33.18 31.50 31.17 32.15 34.04 34.28 34.23 35.02 35.22 35.08 33.55 33.38 34.05 35.35 35.74 35.09 35.58 36.19 36.21 36.15 33.56 33.21 33.66 35.21 33.97 32.60 28.17 27.71 26.94 25.02 23.04 22.84 22.78 21.90 20.00 18.57 18.52 19.79 20.30
27.75 27.16 27.88 29.54 28.16 30.34 31.28 31.90 32.08 33.19 33.47 33.36 34.15 33.80 34.34 34.42 34.68 34.77 34.26 33.97 33.68 31.10 29.54 27.97 30.36 29.99 28.94 31.26 32.38 33.36 27.49 28.06 27.80 25.21 22.56 21.90 21.01 19.03 19.34 20.87 20.82 20.29 19.89 19.96
27.62 29.42 24.82 24.01 26.82 28.17 29.49 30.55 32.77 32.66 33.55 33.70 33.53 32.77 33.15 33.74 33.95 33.43 32.87 30.71 30.42 27.67 26.53 26.74 27.51 27.23 25.72 26.49 25.99 25.98 26.93 27.65 25.94 23.26 21.24 20.77 19.99 19.72 19.41 20.28 20.52 20.42 20.24 21.52
29.08 28.82 28.32 26.80 31.27 32.12 32.06 31.75 31.78 32.04 32.56 33.19 33.35 33.33 32.59 32.08 32.19 31.95 29.36 27.70 27.25 26.66 25.42 25.37 24.12 24.57 22.49 24.13 23.47 24.00 26.09 27.21 23.89 21.44 20.87 19.97 19.22 18.97 18.97 17.98 16.91 22.34 22.58 23.75

GFSCGP_sfc_wetblb_099.txt.gz
Wetbulb
46.40 43.39 40.38 43.74 44.59 44.65 42.27 40.92 39.50 38.37 40.89 40.68 38.10 38.55 41.69 40.66 43.42 46.48 48.18 50.54 52.60 54.61 57.48 57.27 58.15 60.06 61.03 61.47 61.34 61.10 60.45 60.97 61.29 60.83 60.56 61.02 61.43 62.57 62.92 62.64 62.69 62.17 61.64 61.03
42.38 40.12 44.98 45.65 46.16 43.94 42.16 41.34 40.90 41.00 39.81 39.52 40.92 41.54 41.56 38.55 39.16 42.84 47.30 48.82 50.96 52.29 53.51 55.58 56.53 57.80 59.65 60.97 61.37 61.37 61.24 61.29 61.34 61.90 62.06 62.68 62.93 63.42 63.30 63.18 62.47 62.42 61.97 61.65
40.95 42.74 46.11 44.94 43.80 42.88 40.62 40.66 40.15 39.25 37.62 37.91 35.42 35.88 39.61 38.63 37.90 38.65 42.12 47.23 49.51 51.53 52.61 53.65 54.69 55.98 57.84 59.59 60.77 61.28 61.70 61.73 61.93 62.18 61.41 61.53 62.51 62.09 61.89 62.14 62.28 62.39 62.48 62.42
42.05 44.97 43.57 43.17 42.05 43.67 37.03 40.84 38.77 37.13 36.16 33.92 36.78 27.51 38.64 39.58 38.13 36.73 40.03 39.40 44.52 48.03 49.55 51.71 52.06 53.87 56.09 57.85 59.82 61.30 61.83 62.03 62.24 62.54 61.63 61.45 61.25 60.19 61.11 61.67 62.77 63.15 62.87 62.60
38.78 41.48 41.57 40.66 42.27 43.90 39.96 41.20 38.00 37.02 34.56 34.20 32.89 30.89 35.64 36.93 35.85 37.75 38.88 39.42 41.74 43.70 46.17 48.04 49.59 52.20 54.02 56.40 57.25 59.53 60.93 61.86 62.30 62.41 62.56 61.73 61.61 61.74 61.19 61.23 61.10 61.45 61.35 61.94
38.81 42.30 43.74 42.22 42.34 44.15 41.53 38.80 37.59 36.58 35.45 28.52 33.48 32.48 32.33 36.24 37.44 38.59 40.60 41.73 42.10 42.21 41.31 43.58 43.89 45.51 48.73 52.22 55.38 57.61 59.35 60.58 61.85 62.05 62.34 61.82 61.74 60.26 60.09 59.68 59.32 58.76 57.13 56.20
38.01 39.28 40.32 43.41 38.24 40.21 39.81 37.38 29.16 26.96 26.59 26.89 29.14 29.49 36.96 39.61 37.02 39.54 41.67 41.32 42.74 42.73 41.12 40.40 39.73 40.78 43.50 47.14 52.00 55.13 57.76 58.88 60.79 61.26 61.59 61.78 61.82 61.08 60.87 60.28 59.02 56.28 53.83 52.41
33.15 31.31 37.59 41.44 38.51 36.10 37.28 37.11 30.29 24.78 23.01 24.90 26.50 28.11 33.33 39.92 45.92 45.08 39.45 39.44 39.53 39.92 39.71 40.37 41.37 41.92 42.42 44.63 47.63 51.38 55.29 57.66 59.89 60.81 61.11 61.59 61.69 61.12 61.08 60.18 58.18 56.78 55.21 52.05
33.43 31.38 38.66 40.68 40.82 39.78 35.32 34.16 35.47 28.33 18.32 21.35 25.30 29.56 34.96 34.92 35.41 35.47 35.77 37.29 38.97 39.14 39.41 40.99 41.72 41.63 42.85 44.31 46.01 47.39 50.38 56.51 59.11 60.22 60.76 60.78 60.99 61.03 59.40 58.89 57.25 53.69 49.50 46.38
34.34 29.60 36.09 38.09 40.79 39.76 37.88 38.56 31.40 30.91 24.82 19.66 24.15 24.63 32.07 32.36 34.90 36.15 35.92 37.53 39.47 39.25 38.63 39.43 40.64 41.68 43.55 44.81 44.79 44.70 44.92 48.55 54.83 59.12 59.83 59.81 60.06 58.87 57.10 54.40 51.10 48.70 44.79 42.85
33.10 31.70 31.15 36.59 35.73 35.14 35.65 34.78 34.65 33.04 27.51 23.18 18.86 26.48 31.81 37.56 38.61 37.11 38.84 38.51 39.75 40.05 38.62 39.16 41.22 43.33 44.49 45.01 45.01 45.22 45.02 45.44 47.20 53.36 57.54 55.81 54.14 53.75 52.16 50.98 48.05 45.38 42.53 40.39
34.28 30.92 28.84 29.88 33.58 39.75 36.86 35.78 34.23 28.94 25.56 24.80 24.25 25.19 33.53 32.79 34.87 35.38 36.80 37.20 38.60 39.14 38.94 39.46 41.30 42.56 43.15 43.83 44.08 44.61 45.04 46.41 47.47 50.86 51.78 50.76 50.24 48.77 47.78 45.76 44.05 42.25 40.04 38.31
34.70 28.60 22.02 27.71 32.10 31.79 34.26 35.06 36.42 32.94 30.50 27.50 23.49 31.78 32.92 32.52 34.59 35.56 36.33 37.12 38.40 38.85 39.38 40.18 40.47 41.39 42.03 42.93 43.48 43.88 43.79 46.55 45.64 46.21 47.25 46.55 46.01 46.06 44.36 41.90 40.09 39.37 37.23 35.85
38.06 30.03 26.54 25.46 26.97 31.25 28.83 33.58 35.53 35.79 30.35 29.76 29.85 34.23 36.99 36.09 35.31 35.52 36.27 36.84 38.07 38.73 39.18 39.46 39.42 41.31 41.92 42.05 41.70 43.26 42.66 43.83 43.65 44.15 43.84 43.50 43.28 42.89 41.14 39.10 37.42 36.25 35.91 33.93
34.73 26.06 28.43 29.75 30.62 30.74 30.58 31.68 33.17 33.21 34.98 31.35 34.85 33.74 36.28 38.23 38.26 35.94 36.09 36.40 37.61 38.17 38.65 39.29 39.45 39.80 39.25 39.53 39.44 40.28 41.27 41.25 42.03 42.10 42.06 40.71 38.94 37.80 37.00 35.53 35.20 33.42 33.35 32.05
32.94 24.96 29.42 26.79 29.94 31.23 28.90 31.76 33.73 33.33 34.93 35.05 34.78 32.47 35.34 34.79 35.67 36.23 37.91 37.60 37.77 38.16 39.17 39.66 39.83 39.09 38.54 39.33 39.59 39.03 39.50 39.28 40.72 40.39 39.40 36.88 35.89 34.58 34.15 32.84 31.96 31.42 30.39 29.88
31.24 28.30 22.65 16.75 28.10 30.22 23.72 29.28 31.70 34.05 35.00 34.59 29.72 36.22 34.83 33.95 36.60 36.52 37.77 38.27 39.03 39.50 39.24 39.69 40.30 39.86 40.09 39.86 39.54 37.99 37.09 37.16 37.74 36.84 34.33 34.41 33.92 33.06 32.22 31.24 30.14 29.08 28.71 28.68
33.47 28.64 24.98 17.36 24.13 21.21 29.70 32.06 35.91 33.96 35.52 37.17 37.03 38.15 36.42 38.79 40.62 37.80 38.34 38.46 38.81 39.89 40.17 39.89 40.60 40.74 40.62 39.16 37.68 36.46 35.38 34.74 35.55 35.07 33.82 32.77 32.89 31.66 29.82 29.30 28.77 27.39 27.79 27.53
33.90 31.84 21.02 24.22 17.62 26.06 31.63 30.66 30.18 30.22 32.37 37.13 35.68 38.10 37.44 36.88 33.74 38.76 39.17 39.99 41.44 40.34 41.49 41.87 41.77 41.41 40.01 38.36 37.81 35.94 33.87 33.61 33.28 33.56 33.09 32.13 31.76 30.47 28.96 28.25 26.99 26.80 26.90 26.08
32.92 33.92 29.13 12.97 17.50 16.14 25.94 31.22 33.09 34.35 28.15 36.29 37.58 38.02 36.39 34.04 31.49 38.02 41.33 39.12 39.77 40.40 40.64 40.13 40.05 39.64 38.36 38.19 36.62 34.84 33.73 32.75 32.63 31.80 31.49 31.30 31.24 31.03 28.96 27.66 26.65 26.06 26.80 25.78
26.10 25.02 26.63 23.19 16.16 21.71 29.38 30.08 33.03 23.73 28.33 29.16 33.31 36.98 34.12 34.45 39.14 36.72 36.59 37.47 39.44 38.81 38.82 39.28 39.43 39.00 38.44 37.15 35.13 34.57 33.64 32.96 33.87 31.28 29.62 28.69 28.92 28.88 28.14 26.82 25.27 25.58 25.03 24.01
25.65 24.29 25.52 23.96 20.81 23.36 31.09 30.40 31.03 33.87 32.20 31.84 32.98 32.60 33.85 34.34 33.17 34.10 35.66 35.39 35.55 36.91 38.28 38.21 38.67 38.15 37.10 35.11 34.85 34.53 33.16 33.12 30.15 29.42 28.58 27.82 27.75 27.30 26.76 25.63 24.49 23.75 22.85 21.64
24.51 28.47 25.19 30.75 28.83 33.15 31.35 31.76 32.55 33.41 33.04 31.84 32.10 32.72 33.52 32.93 32.26 33.10 33.77 34.04 34.35 33.07 34.30 34.68 35.55 33.88 33.89 32.52 34.45 33.37 32.18 29.84 29.26 29.14 28.13 27.13 26.25 25.91 25.38 24.19 22.61 21.85 22.31 21.84
26.31 25.74 26.88 28.46 27.19 31.02 31.28 30.94 31.60 33.06 32.74 32.33 32.18 31.34 33.02 33.25 33.00 32.80 32.81 32.23 32.32 30.85 29.95 28.50 29.36 28.95 28.28 28.73 30.12 30.91 29.30 29.36 29.68 28.60 26.47 24.89 24.44 23.04 23.05 23.33 22.96 22.25 21.98 21.69
27.97 29.06 23.74 23.20 26.46 27.82 28.67 30.09 32.17 32.45 32.07 32.37 32.14 31.63 32.04 33.00 32.54 32.10 31.17 29.27 29.82 28.38 27.68 27.91 28.01 27.47 27.53 26.93 27.44 27.68 28.43 29.50 29.13 26.63 24.65 24.56 23.37 23.11 21.60 21.84 22.18 22.26 22.41 24.66
28.73 28.16 28.89 28.41 31.65 31.89 30.54 31.07 32.04 31.63 31.25 30.80 32.10 31.58 31.03 30.95 31.66 31.18 29.54 28.27 27.46 27.11 26.50 27.11 25.33 24.76 23.95 24.96 24.86 26.09 28.38 29.85 26.93 24.53 23.77 23.26 22.38 21.60 21.02 20.68 20.59 24.42 24.32 25.87

GFSCGP_sfc_wetblb_102.txt.gz
Wetbulb
47.92 43.44 41.72 44.35 46.02 46.94 47.39 45.07 44.10 46.28 45.67 46.52 46.44 46.91 47.39 50.22 48.19 48.69 51.50 53.59 56.55 57.97 60.82 62.40 63.22 63.51 64.25 64.62 63.58 62.66 61.69 62.35 62.62 62.42 62.29 62.77 62.49 63.70 64.44 65.52 65.75 64.89 63.70 62.11
44.34 41.82 47.08 47.48 47.05 46.41 44.81 44.28 44.20 43.64 43.09 45.13 46.66 45.35 49.79 51.59 51.53 49.80 49.50 51.73 54.27 56.99 58.90 60.72 62.01 63.25 63.78 64.25 63.91 63.90 62.91 62.27 62.71 62.90 63.90 64.47 64.42 64.95 65.41 65.70 64.95 63.91 63.55 62.82
42.06 44.17 48.15 46.88 44.80 42.86 43.92 43.65 43.96 42.42 42.23 42.17 37.88 40.64 45.81 49.33 52.16 52.81 48.95 49.94 53.23 55.63 57.03 58.73 60.04 61.82 63.41 63.72 63.79 64.17 64.12 63.64 63.28 63.72 64.59 64.71 65.24 65.05 64.33 64.66 63.64 64.23 63.24 62.89
43.27 47.21 45.64 44.73 44.51 44.97 38.82 43.90 43.23 39.32 39.28 36.50 41.58 34.88 45.69 47.40 48.62 50.00 47.71 47.86 50.56 53.99 56.55 58.22 59.22 60.40 61.76 63.16 64.74 64.45 64.83 64.81 64.47 64.57 64.08 63.62 63.12 62.35 63.12 64.10 64.38 64.04 63.94 63.37
41.35 43.28 43.86 42.81 44.21 47.44 40.46 43.18 42.08 39.94 37.52 36.12 36.95 33.18 42.83 47.10 44.78 47.97 50.82 49.78 49.26 51.42 54.75 56.58 57.95 59.56 61.30 62.63 63.57 64.49 64.87 64.89 65.08 64.95 64.52 64.04 63.82 64.54 64.82 64.27 63.08 63.28 64.17 65.17
41.52 44.16 46.14 46.04 47.36 47.47 42.38 39.76 39.01 37.50 36.39 30.50 37.78 36.20 40.33 44.91 44.99 47.48 50.28 48.97 48.76 49.27 50.87 54.54 57.53 58.63 59.75 61.23 62.03 62.64 63.63 64.13 64.95 64.68 64.67 64.11 63.69 64.05 64.26 63.23 61.39 61.63 62.38 61.74
39.64 41.29 41.77 45.39 40.51 42.64 41.96 39.28 31.20 29.53 29.81 32.16 34.66 37.17 40.91 47.29 49.60 48.79 49.10 49.90 49.04 49.59 49.39 49.83 52.25 54.16 56.44 58.15 59.97 61.19 62.05 62.69 64.07 64.64 64.52 64.63 64.52 64.56 64.07 63.59 62.21 60.08 58.17 57.16
34.44 32.74 39.20 42.77 42.79 37.91 38.53 39.50 33.71 27.87 29.28 33.81 32.68 32.93 40.06 45.82 48.94 50.10 46.85 47.99 49.12 49.06 49.17 49.09 49.60 50.66 53.00 54.69 56.42 58.06 60.07 61.27 63.10 63.92 64.05 64.84 64.92 64.88 64.67 64.43 64.06 62.11 60.59 58.26
34.83 33.79 40.20 42.26 42.51 42.74 36.68 35.84 38.33 32.55 25.52 30.20 35.20 37.75 41.63 42.97 43.60 41.68 45.31 48.81 47.51 46.92 46.91 46.53 47.86 48.58 48.85 49.65 52.27 56.30 57.60 59.58 61.68 62.89 63.65 63.91 64.18 64.25 64.14 64.33 64.64 62.20 59.73 53.29
40.03 32.50 37.00 39.08 41.64 41.07 40.95 41.37 33.91 35.19 29.17 27.31 35.18 33.47 36.91 41.69 43.53 43.87 42.49 43.50 46.97 49.06 46.06 45.60 46.32 46.97 47.96 49.02 49.99 52.45 56.07 58.33 60.49 62.05 62.85 62.67 62.70 62.41 62.99 63.23 61.41 58.72 54.43 50.68
42.16 37.35 32.54 37.40 36.79 35.65 36.80 35.81 36.81 36.87 35.56 31.11 29.80 36.01 42.50 41.71 43.54 43.22 43.83 43.30 43.86 45.41 46.58 46.05 45.79 46.58 47.59 48.31 49.28 50.09 51.69 54.57 58.45 60.56 61.51 61.58 61.03 60.79 60.93 59.86 58.50 56.32 49.59 48.24
38.44 36.30 30.95 32.24 36.55 41.47 40.58 37.90 37.79 34.36 30.48 32.61 32.05 34.83 40.28 39.89 39.57 40.25 42.23 43.01 43.94 44.05 45.46 45.59 46.47 47.18 47.64 48.25 48.71 49.43 50.04 51.12 53.49 58.02 59.37 59.00 58.67 57.08 55.73 54.80 52.72 49.58 47.63 45.26
38.38 33.91 27.75 28.70 32.51 35.26 36.69 38.77 39.54 39.32 35.41 31.43 31.81 36.19 38.52 40.26 41.61 41.35 42.24 43.66 44.10 43.64 44.60 44.81 45.16 45.85 46.95 48.03 48.45 48.93 49.27 49.74 50.29 51.86 56.67 54.82 53.49 53.16 53.15 50.71 48.25 46.73 44.05 43.17
40.91 34.56 34.08 31.01 33.81 35.47 32.59 36.30 38.52 37.85 32.46 34.62 35.37 38.67 43.47 44.68 43.22 42.17 42.26 44.69 45.93 44.21 44.05 45.32 44.89 45.49 46.57 47.65 48.43 49.01 49.30 50.52 50.22 50.59 51.78 52.60 51.88 51.89 49.80 48.01 45.94 42.95 41.04 40.15
40.29 32.35 34.24 34.24 35.56 35.87 36.50 36.47 36.70 35.71 37.93 34.41 38.03 38.68 42.10 44.72 46.16 47.42 45.47 43.75 43.45 44.12 44.42 44.85 44.75 45.33 45.72 46.84 47.54 48.28 49.21 48.72 49.21 49.25 48.86 49.47 48.23 47.20 45.54 42.92 42.44 39.79 38.19 38.19
37.52 32.02 35.21 30.28 34.77 35.25 33.57 36.13 38.09 37.86 38.57 38.76 39.31 38.52 45.57 45.38 43.48 42.50 42.86 42.42 43.04 44.39 45.52 44.87 44.94 44.41 44.47 45.56 46.46 46.29 47.04 46.67 47.32 47.91 47.86 46.97 42.89 39.24 39.08 37.86 36.39 35.02 34.59 33.42
36.07 33.35 32.80 29.24 33.11 33.32 30.20 33.85 36.38 37.51 39.39 39.68 35.70 40.74 44.96 43.16 43.45 44.91 45.68 44.31 42.80 44.62 45.31 45.60 45.75 45.26 44.79 45.19 45.66 45.16 46.03 45.28 44.85 44.72 40.36 38.22 37.98 37.31 36.32 34.20 33.00 33.65 32.90 32.45
36.03 33.15 33.41 27.80 29.09 24.45 35.48 36.90 40.13 38.14 38.98 40.89 40.83 42.12 43.63 44.11 45.04 46.23 47.23 46.85 45.89 44.05 44.91 45.85 46.94 46.43 46.40 45.63 44.77 45.07 42.99 41.47 41.67 41.07 38.75 36.52 36.14 34.56 33.00 32.43 33.09 30.60 30.54 30.58
40.43 36.66 29.00 28.29 29.63 32.61 35.40 34.13 35.31 34.98 35.77 41.11 40.35 41.92 43.40 44.38 44.61 43.11 46.07 45.91 45.99 47.29 47.12 46.81 47.94 46.70 46.54 44.73 44.38 42.29 39.63 39.12 38.38 38.10 37.45 36.27 35.78 33.21 31.25 31.04 29.64 29.40 29.91 28.94
38.42 39.78 35.12 26.93 27.55 24.54 33.54 35.83 38.57 40.21 31.68 41.97 41.82 41.57 41.89 42.52 35.93 41.69 46.82 44.02 43.87 44.80 44.33 44.66 45.90 44.77 44.33 43.93 43.09 39.76 38.83 38.02 37.27 36.74 35.97 35.30 34.59 33.48 32.21 31.03 29.82 29.41 29.77 29.36
31.61 33.23 30.90 29.33 30.27 31.18 36.25 36.34 38.96 31.75 35.29 38.03 39.26 41.40 41.50 39.43 42.49 41.86 41.94 41.73 41.40 41.84 42.15 43.28 43.55 43.50 43.25 42.27 39.32 38.47 38.04 37.39 37.82 35.32 33.75 33.35 33.42 33.25 32.63 30.53 28.83 29.35 28.50 28.16
30.67 30.34 30.43 30.20 28.89 26.42 36.41 34.98 35.47 39.67 37.79 39.20 39.04 38.38 38.82 39.91 39.38 38.78 39.04 38.62 38.78 38.56 39.50 41.57 42.44 41.93 41.04 38.87 37.67 37.03 36.52 36.55 34.05 33.26 32.51 32.19 32.74 31.65 30.59 30.08 28.75 28.60 28.17 27.01
31.03 35.27 33.10 34.38 34.74 38.95 37.91 39.65 38.59 38.54 38.87 38.32 39.38 38.51 38.14 38.48 37.76 37.79 37.63 37.55 37.10 36.11 36.30 36.24 36.56 37.69 37.31 36.16 37.21 35.97 35.64 33.50 32.35 32.15 31.64 31.47 31.45 30.85 30.70 29.18 27.95 27.41 27.69 26.51
33.12 33.33 35.58 35.16 34.99 36.36 36.48 36.30 37.51 38.13 37.81 37.83 38.08 37.57 38.01 37.32 37.13 36.85 36.10 35.23 34.98 33.29 32.27 32.74 34.21 34.78 34.45 33.83 33.79 35.46 33.53 32.68 32.25 31.94 30.90 30.12 29.30 28.86 29.07 29.04 28.06 27.58 26.84 26.06
34.68 34.34 31.58 33.75 33.03 33.70 34.70 35.64 37.60 36.54 37.30 36.65 36.01 35.43 35.51 37.08 35.85 35.32 33.35 32.17 31.57 30.90 30.70 31.50 31.57 31.76 31.38 31.97 33.01 33.10 32.22 32.35 32.28 31.60 29.48 29.30 29.50 28.50 27.50 27.85 27.79 27.13 28.31 28.18
32.32 32.62 35.11 35.44 35.76 37.74 34.69 36.54 36.82 36.29 34.90 35.09 35.64 33.99 32.17 32.58 32.64 32.59 30.36 29.37 29.03 28.88 29.06 29.52 29.05 29.03 28.75 29.29 29.61 30.27 31.28 32.40 31.07 29.13 27.99 28.40 27.23 27.29 26.26 25.03 24.03 26.21 26.81 28.00

GFSCGP_sfc_wetblb_105.txt.gz
Wetbulb
47.39 42.71 42.11 45.57 45.85 47.17 46.57 44.39 43.59 46.47 47.99 48.05 46.87 47.40 50.27 53.30 53.93 52.98 51.65 52.15 53.72 57.19 60.22 62.29 63.41 64.73 64.68 63.21 61.14 61.42 62.00 63.03 64.07 64.26 63.47 63.35 62.93 63.61 64.09 65.38 65.82 65.57 64.57 63.70
44.01 40.45 46.20 48.88 48.68 46.90 45.26 44.05 44.28 46.52 46.70 46.61 47.41 47.16 50.14 52.18 53.07 54.39 53.34 53.46 52.80 54.54 58.28 60.46 62.31 63.68 64.21 63.93 62.83 61.82 61.95 61.95 62.47 62.89 63.33 63.45 63.39 63.85 64.24 65.49 65.75 65.85 65.11 64.12
41.97 44.09 47.80 46.62 45.64 44.40 45.40 44.14 45.13 44.09 44.71 45.15 44.89 44.34 47.32 50.90 52.86 54.45 55.60 55.92 54.57 53.26 55.38 58.71 60.68 62.35 64.04 64.25 64.66 63.70 63.40 62.88 62.64 62.65 62.94 63.33 64.50 64.75 63.73 64.31 65.42 65.55 64.84 64.13
43.74 47.18 45.90 44.64 43.39 45.71 41.42 47.10 47.16 42.77 42.38 38.39 44.87 36.26 46.04 49.60 50.82 52.60 54.20 55.16 55.78 53.83 54.30 57.20 59.63 61.32 63.23 64.21 65.88 65.85 65.43 64.41 63.50 62.93 62.64 62.90 62.91 62.21 63.94 64.77 65.57 65.34 65.06 64.41
41.19 43.68 43.69 43.83 44.12 46.59 42.97 47.30 45.68 43.72 39.96 38.10 38.60 34.85 43.44 48.35 47.49 50.62 52.25 54.27 56.23 55.12 54.39 55.32 58.40 60.66 62.46 64.36 64.83 65.99 66.11 65.77 64.86 64.03 63.08 63.45 63.50 64.11 64.98 64.92 64.55 64.49 65.03 65.21
43.95 47.48 47.09 45.58 47.36 48.16 44.77 41.36 40.72 38.22 37.78 32.85 40.31 37.79 40.63 44.89 47.68 50.28 52.22 53.19 55.28 54.62 53.92 55.09 57.90 60.40 61.94 63.67 64.72 65.35 65.41 65.25 65.78 64.88 64.39 64.00 63.92 64.14 64.09 64.13 63.62 64.22 63.98 63.53
41.39 43.03 44.96 47.24 43.50 44.55 44.19 40.28 32.83 31.56 32.00 32.63 39.25 38.57 40.61 47.15 50.27 51.22 52.12 52.90 54.12 55.63 54.96 54.15 55.29 57.99 59.71 61.42 62.99 63.91 64.58 64.01 65.04 65.29 64.96 64.36 64.51 64.81 64.47 64.67 64.25 63.36 62.59 61.89
35.30 31.89 41.88 46.21 44.18 38.29 40.57 42.02 35.15 27.37 29.72 34.10 36.25 34.58 40.77 47.83 50.38 50.50 52.29 52.26 51.47 53.58 52.63 52.97 54.04 56.47 58.94 59.67 61.27 62.46 62.57 62.85 64.46 64.98 65.04 65.52 65.54 65.21 65.20 65.35 64.88 63.69 62.61 61.82
35.84 34.80 41.75 44.88 45.44 44.41 37.52 37.79 43.45 34.30 29.09 32.83 36.95 40.22 44.25 46.24 45.91 47.54 47.56 49.29 51.91 50.99 50.75 52.00 52.96 53.56 56.19 58.44 59.34 60.48 61.27 61.79 63.06 63.90 64.72 65.10 65.09 64.97 64.75 65.30 65.55 64.24 63.75 61.77
41.71 33.23 37.65 39.77 42.94 42.75 42.99 43.04 34.54 36.64 30.21 28.55 35.72 37.41 38.70 43.79 45.82 47.50 47.67 47.93 48.96 50.29 52.58 50.90 49.79 50.89 52.07 53.83 56.13 58.25 60.10 60.54 61.27 62.80 63.72 64.08 64.25 64.52 64.95 65.18 64.46 63.79 62.78 58.70
43.71 38.54 33.15 38.70 37.34 36.73 38.62 37.54 40.15 39.84 38.54 32.22 31.30 37.07 45.80 44.87 41.76 42.76 44.88 45.49 45.90 46.28 47.40 49.04 50.08 49.74 50.17 51.02 51.83 52.59 55.26 57.63 58.93 60.41 62.08 62.75 63.04 63.49 63.92 63.67 63.55 62.90 60.78 56.16
43.24 39.06 31.65 34.09 37.10 42.75 42.63 39.63 40.28 34.42 32.47 35.31 34.20 35.62 42.00 42.96 43.50 43.47 43.87 44.67 45.80 46.14 46.68 47.66 48.23 48.74 49.19 49.48 50.11 50.56 51.64 52.58 55.67 58.90 60.86 61.55 62.54 62.60 62.02 61.74 61.65 60.12 57.00 54.18
41.46 35.86 27.38 29.07 34.33 37.70 37.91 40.64 41.66 41.19 37.60 34.09 32.30 35.89 45.47 45.94 42.89 43.84 43.97 44.47 47.58 47.02 47.58 48.45 48.74 48.40 48.68 49.63 50.51 50.46 50.67 51.05 52.31 55.55 58.94 60.03 60.62 60.20 60.11 59.95 57.64 53.11 51.67 49.63
43.14 38.09 35.26 30.90 34.28 36.81 34.21 38.12 40.35 39.95 34.24 35.22 35.98 39.53 41.60 42.75 43.32 43.87 45.18 48.58 48.01 48.12 47.17 48.04 48.39 48.77 48.96 49.02 49.57 50.05 50.36 51.09 51.75 51.92 54.90 57.79 56.87 57.04 57.29 55.45 52.28 49.77 47.50 45.64
41.56 34.18 37.06 38.58 40.36 38.91 38.02 37.89 38.33 37.15 39.18 36.11 39.35 39.91 43.41 45.99 46.84 47.97 49.24 49.18 47.30 46.84 46.93 48.00 47.98 48.63 48.85 48.69 49.06 49.72 50.45 50.76 51.49 50.91 51.26 53.65 54.61 53.53 50.58 47.11 46.12 43.99 43.38 43.65
41.40 33.81 34.93 32.40 37.82 38.93 36.70 38.58 39.50 39.58 40.06 40.17 40.71 40.17 46.28 47.42 48.17 46.19 46.84 47.21 47.03 46.39 46.91 47.73 48.10 47.86 47.44 48.14 48.30 49.20 49.68 50.19 50.29 49.80 49.90 50.49 49.28 46.25 44.03 42.63 40.25 38.70 38.47 37.47
37.41 35.36 34.29 29.45 35.11 34.34 30.59 36.30 38.95 39.37 41.10 40.96 37.00 41.89 45.57 45.05 45.68 46.25 46.76 47.35 47.54 47.01 46.55 46.98 47.93 48.14 48.51 48.38 48.29 48.33 48.90 49.65 48.14 47.40 44.11 42.88 40.63 39.41 38.95 37.98 37.19 35.76 34.99 35.24
36.30 35.51 34.00 28.39 32.29 24.86 36.54 40.31 42.28 40.41 41.51 43.02 43.14 44.16 45.10 45.78 47.25 48.24 48.78 47.86 47.47 47.92 48.29 47.93 47.60 48.44 49.72 48.97 48.28 48.39 48.50 47.42 44.47 43.36 40.85 39.28 39.04 37.71 35.25 34.57 34.76 34.55 33.21 33.10
40.43 37.13 30.03 28.05 29.55 34.40 34.92 36.35 37.93 37.65 37.66 43.48 42.80 43.88 45.23 46.23 46.40 45.45 48.21 48.66 48.33 48.17 47.89 46.74 47.36 48.10 48.08 48.18 47.64 46.27 43.43 42.51 41.88 41.15 40.28 38.36 37.40 35.33 34.03 33.84 32.34 31.66 31.16 30.38
40.18 41.03 35.28 31.10 28.77 26.34 35.93 40.53 43.03 43.21 32.18 43.38 44.01 43.62 43.94 44.49 38.42 42.59 43.65 44.14 44.10 45.03 44.98 44.68 45.54 46.39 46.05 46.56 45.92 41.78 40.73 40.50 40.58 40.38 39.28 37.96 36.54 34.73 33.55 32.97 31.87 30.87 31.77 30.76
33.09 34.63 32.23 31.32 31.92 34.90 38.20 37.66 43.28 31.84 36.56 39.95 44.35 44.41 43.80 41.58 44.07 43.13 42.83 42.96 42.67 42.21 42.10 43.48 45.09 44.43 44.00 43.10 40.32 39.45 39.65 38.89 39.66 37.75 36.17 34.96 34.99 34.08 34.55 32.55 30.65 30.70 30.54 29.13
32.11 31.38 31.75 31.71 30.67 27.63 39.70 37.78 36.16 40.70 39.58 39.05 40.93 40.40 40.71 42.34 41.57 40.96 41.09 40.25 39.83 39.63 39.63 40.21 42.35 41.72 41.20 39.06 38.38 37.87 37.78 37.34 35.17 34.61 33.87 33.42 33.64 33.39 32.69 31.87 30.59 30.36 29.74 29.51
32.10 36.87 34.72 35.63 35.98 40.59 40.09 41.66 41.50 41.50 41.19 40.54 41.29 40.54 40.40 40.21 39.48 39.42 38.94 38.65 37.46 36.15 36.12 36.29 36.91 36.88 35.85 35.15 36.09 35.53 36.18 33.95 32.64 32.37 31.50 32.54 32.75 32.49 32.26 31.14 29.83 28.79 29.32 28.16
36.35 37.62 36.90 36.26 37.27 38.47 38.97 38.51 40.39 41.11 40.30 40.32 40.76 39.84 41.14 38.75 39.14 37.16 35.01 34.27 33.98 32.94 32.13 32.88 33.23 32.57 31.61 33.13 33.38 33.07 33.20 32.17 31.68 32.11 32.07 31.87 31.63 31.81 32.10 31.10 30.06 29.75 28.47 27.78
35.54 36.14 34.18 34.53 34.34 36.28 36.68 39.00 39.28 39.05 39.15 37.73 38.01 38.28 38.79 37.91 36.25 35.92 32.51 31.60 31.49 30.71 30.76 30.68 29.62 29.76 29.05 30.65 30.81 31.09 31.37 31.65 31.69 32.16 30.87 31.32 31.51 30.85 30.28 30.04 29.58 29.11 29.86 30.02
30.95 31.30 34.99 36.22 37.53 39.41 38.63 38.78 39.34 37.98 37.68 36.73 34.64 32.79 33.27 35.45 33.99 32.51 30.45 29.88 29.37 28.38 28.24 27.83 26.91 26.59 26.97 27.71 27.16 26.97 29.14 30.59 31.49 31.04 29.77 30.19 29.64 29.12 28.29 27.71 25.94 28.00 28.99 30.31

GFSCGP_sfc_wetblb_108.txt.gz
Wetbulb
47.97 43.07 39.90 42.43 45.57 45.75 44.56 42.43 42.02 43.92 47.74 45.00 43.90 45.32 46.85 49.85 49.17 48.54 48.29 47.51 47.98 51.24 56.54 60.00 60.56 61.54 62.12 58.67 57.78 60.66 61.43 62.18 62.40 61.89 61.22 59.55 59.95 60.40 60.14 60.68 61.78 62.65 62.35 61.44
44.07 39.68 44.18 46.40 47.54 45.56 44.75 43.39 41.90 44.76 44.86 44.01 44.37 44.67 48.05 48.98 49.23 50.83 51.60 50.63 48.24 49.02 53.04 57.10 59.42 60.43 61.53 59.77 57.37 58.32 61.40 62.07 62.46 62.58 62.60 61.20 61.12 61.20 61.27 61.19 62.30 62.90 62.06 61.42
40.47 42.44 46.28 45.13 44.22 43.66 43.79 41.78 41.95 41.65 42.28 43.21 41.20 40.51 44.41 48.45 50.32 51.18 52.15 52.72 52.16 49.75 49.88 54.00 57.77 59.57 61.08 60.82 58.54 58.21 59.26 60.72 61.63 62.26 61.92 60.64 59.79 59.60 59.75 60.49 61.74 63.19 62.65 61.75
42.94 45.59 43.84 42.99 41.77 45.26 41.02 46.29 45.65 42.29 40.49 36.91 41.80 34.48 41.86 46.54 47.28 49.27 51.10 51.74 52.97 53.11 50.03 51.57 56.55 58.31 60.25 61.46 61.62 59.82 59.23 59.54 60.19 60.63 60.23 59.35 58.64 58.26 60.15 60.93 62.10 62.67 63.02 61.91
40.76 41.74 41.68 40.41 42.17 46.17 41.92 47.07 44.54 42.96 40.10 38.21 38.64 35.60 38.38 44.83 44.70 48.10 50.75 52.14 52.86 54.08 52.57 50.17 53.38 58.19 60.32 61.50 62.11 62.24 61.04 60.14 60.26 60.19 59.96 59.22 58.62 60.41 61.15 61.85 61.71 62.86 62.84 62.33
43.68 46.26 45.25 43.86 45.56 46.43 44.98 41.91 40.40 39.27 38.67 32.87 38.05 36.23 37.04 41.19 44.21 46.31 49.03 50.62 51.24 53.41 54.49 51.90 51.25 55.71 58.82 60.95 61.67 62.37 62.37 61.79 61.57 60.41 60.09 59.42 59.39 60.16 60.82 61.11 61.40 61.93 62.11 62.12
41.20 41.76 44.69 46.73 42.84 44.11 43.61 40.19 32.30 31.56 31.21 31.45 38.32 36.27 39.14 43.96 46.09 46.65 46.74 48.27 49.90 50.73 53.46 52.30 49.27 51.63 56.57 58.46 60.65 61.67 62.23 62.29 62.87 61.81 60.64 60.03 60.48 61.23 61.40 61.58 61.73 61.00 61.15 61.09
33.64 32.29 41.35 44.83 43.86 39.23 40.68 40.33 31.14 25.55 25.92 27.95 31.91 30.40 37.62 46.66 48.73 48.00 48.19 47.79 48.96 46.71 49.26 50.14 49.44 50.17 53.29 57.24 59.11 60.89 61.56 62.01 62.86 62.94 62.23 61.95 61.48 62.13 62.53 62.56 62.65 62.02 61.73 61.58
35.52 35.10 43.18 44.51 45.58 43.73 39.97 37.69 41.17 31.39 23.34 26.78 31.21 35.47 41.07 43.17 43.15 43.59 43.99 44.57 45.99 47.52 46.92 45.68 47.31 48.83 51.87 54.36 56.93 59.34 60.62 61.55 62.29 62.71 63.06 62.67 62.65 62.26 62.62 62.94 63.13 62.86 62.27 61.03
39.56 32.55 38.89 40.94 44.03 44.07 41.57 42.33 34.00 33.09 23.42 22.60 29.16 31.01 34.19 37.78 40.34 42.36 42.47 42.36 43.72 44.25 43.99 45.34 45.55 46.32 47.14 51.58 54.77 56.02 58.37 59.54 60.60 61.69 62.66 62.83 62.98 62.95 62.99 62.87 62.39 62.67 62.12 59.75
42.23 37.01 33.29 39.01 37.79 36.59 37.93 37.57 37.59 37.44 33.95 27.47 25.00 30.10 39.83 39.66 37.63 39.73 40.53 40.91 40.07 40.17 41.46 42.73 43.52 44.51 45.05 45.61 47.45 51.18 54.09 56.48 57.61 59.04 60.65 61.39 61.96 62.59 62.82 62.65 62.42 62.59 61.24 59.50
42.72 38.05 30.90 35.00 36.89 40.08 40.98 39.34 38.64 32.76 29.72 31.53 29.74 30.14 38.03 38.33 38.79 39.93 40.21 41.85 41.17 40.25 41.47 42.50 43.10 43.54 43.48 43.43 43.94 44.77 46.13 50.21 53.31 55.44 57.11 57.94 59.72 60.04 61.03 61.70 62.00 60.31 60.51 57.11
41.56 35.29 27.62 29.71 35.33 37.67 37.44 39.38 40.75 39.42 34.49 30.82 27.42 30.38 39.43 38.25 38.46 40.11 40.06 40.85 43.01 42.45 41.03 43.04 42.88 42.86 43.01 43.57 44.28 44.65 45.24 45.73 46.87 49.15 52.78 55.07 56.20 57.46 59.01 59.50 58.38 56.01 53.43 53.11
43.25 36.15 33.49 29.94 33.06 36.26 35.18 37.56 39.44 39.16 30.78 31.29 33.09 34.21 36.41 38.86 39.32 39.25 40.22 41.29 43.14 43.33 43.49 42.65 42.64 43.08 43.37 43.62 44.01 44.62 45.31 45.91 46.13 47.40 48.92 51.23 52.78 54.71 56.28 57.12 54.76 52.27 50.30 49.28
41.06 32.30 35.78 35.70 38.29 37.48 36.77 37.06 37.73 36.90 38.10 33.50 35.89 36.24 39.91 39.70 40.13 41.51 43.18 43.62 43.37 43.52 42.15 42.56 43.16 43.24 43.53 43.27 44.01 44.99 45.38 45.90 46.26 46.56 46.69 47.94 51.14 53.30 53.17 51.36 49.66 47.36 46.19 47.15
40.52 32.29 33.63 30.39 37.46 37.73 35.25 37.77 38.61 38.83 38.80 38.55 38.11 36.77 42.54 43.30 42.10 41.20 42.31 43.93 43.92 44.35 44.64 43.94 43.15 42.86 43.71 43.74 43.86 44.85 45.54 45.78 46.61 46.03 45.47 46.57 47.35 46.26 45.71 43.76 41.98 41.10 40.41 39.96
37.56 31.65 30.87 28.47 34.75 34.72 31.47 35.84 37.69 38.28 40.15 39.70 35.13 40.16 40.96 40.89 41.88 40.94 41.30 43.49 43.17 43.53 43.25 43.25 43.47 44.01 43.35 43.81 44.06 43.48 44.88 45.23 44.53 42.62 40.29 39.85 38.97 38.61 39.27 39.51 38.84 38.25 37.98 36.86
36.86 33.03 31.96 28.38 31.09 24.13 32.87 41.04 41.48 39.30 40.38 42.08 41.80 41.67 42.05 42.63 42.94 42.66 44.00 42.75 43.89 44.39 44.27 43.64 42.60 42.43 42.83 44.09 43.88 43.98 43.83 42.99 40.59 38.86 37.98 37.10 36.82 35.73 34.52 34.65 36.13 35.27 34.59 34.74
40.90 35.36 29.11 27.25 26.65 29.37 31.24 34.15 38.31 37.20 37.11 42.37 41.65 43.38 43.27 43.37 40.97 41.41 42.02 41.29 40.84 41.30 41.77 41.93 42.04 42.16 42.11 42.13 42.67 41.21 38.72 37.96 37.40 36.90 36.59 35.44 34.75 31.89 34.06 33.30 33.23 33.11 32.62 31.45
39.73 38.86 32.55 30.38 24.92 21.76 31.51 36.59 40.27 40.39 31.08 41.15 43.08 42.15 42.59 42.27 35.47 37.02 39.68 39.93 39.74 40.27 40.36 40.20 41.27 41.46 40.58 40.08 39.80 36.87 36.35 36.00 35.66 35.82 35.85 34.84 32.98 32.63 33.95 33.19 31.72 30.39 31.12 31.19
31.27 31.82 30.28 29.44 21.85 27.43 32.40 35.61 41.03 27.62 30.19 35.91 41.87 42.55 40.94 38.73 39.33 38.19 39.17 38.14 38.62 38.11 37.80 38.78 40.15 38.88 38.15 36.52 34.83 34.74 34.76 34.53 35.23 33.73 32.56 30.40 29.83 31.36 33.07 31.82 30.01 30.98 30.62 29.64
31.06 30.29 30.05 27.33 19.43 21.72 34.46 34.31 33.24 35.91 32.91 33.80 37.53 36.99 38.11 37.18 37.17 36.92 36.72 35.32 34.73 34.04 34.16 35.74 36.83 34.59 34.50 32.53 33.44 32.81 31.91 31.67 28.32 27.83 27.37 26.45 26.92 29.11 32.17 32.28 30.83 30.38 30.15 29.89
27.81 32.52 30.45 30.46 28.34 35.89 37.46 35.81 35.89 37.81 35.79 35.93 36.55 36.89 37.08 35.96 35.45 35.39 34.42 33.46 32.04 31.79 31.64 31.89 31.20 29.81 29.93 29.44 30.25 29.97 29.32 27.88 26.24 25.16 23.09 23.42 25.54 31.90 32.13 31.68 30.52 29.33 30.32 29.41
30.98 31.53 30.03 29.04 30.38 32.33 33.41 34.96 35.91 37.50 36.81 37.36 37.49 36.88 36.86 35.36 34.61 33.03 32.21 31.55 29.94 28.68 27.87 27.07 26.74 26.00 26.42 27.24 27.95 26.55 27.05 25.45 25.08 23.43 23.36 23.79 24.28 24.17 28.58 30.40 30.24 30.05 29.21 28.54
29.51 31.77 28.37 29.39 29.35 30.01 30.73 32.35 35.67 35.60 35.81 35.53 35.58 35.64 35.61 35.25 33.40 32.09 29.80 28.53 28.27 27.46 26.52 25.44 24.41 24.42 24.10 24.44 23.89 23.85 26.21 26.07 28.09 22.98 22.96 23.20 23.42 23.41 23.60 27.28 28.95 28.28 28.88 30.21
22.57 21.42 26.54 26.37 28.74 31.68 33.89 35.21 35.30 33.76 33.23 31.99 31.29 30.95 30.71 31.70 30.24 28.96 27.21 26.79 25.99 24.34 23.62 23.03 21.70 21.48 20.83 20.63 19.34 19.80 21.90 23.79 22.56 22.24 22.12 21.91 21.47 21.39 22.13 21.54 20.45 29.33 29.81 31.79

GFSCGP_sfc_wetblb_111.txt.gz
Wetbulb
47.84 42.65 39.36 41.08 42.46 42.07 40.37 39.46 39.62 41.39 45.48 42.96 41.47 41.32 43.82 47.15 44.50 43.84 44.06 45.32 45.73 52.79 57.83 59.76 60.62 61.58 61.46 57.56 59.41 60.36 61.28 61.69 62.10 60.97 59.87 58.32 57.79 57.92 58.30 59.68 60.52 60.89 60.62 60.07
43.75 39.92 43.20 44.37 44.95 43.85 42.37 39.51 38.59 42.40 43.72 42.87 41.81 42.26 46.08 45.55 46.45 47.33 47.19 47.39 46.56 46.67 51.85 57.74 58.44 60.46 60.92 57.56 58.52 59.36 60.72 61.36 61.91 62.12 61.09 59.95 59.10 58.98 59.33 59.17 59.70 61.21 60.81 60.61
40.24 42.20 45.08 43.38 41.91 41.86 41.82 39.84 40.09 39.37 40.58 40.77 39.72 39.27 41.96 45.11 46.77 48.22 49.15 50.04 50.87 49.10 47.53 55.45 57.17 58.95 60.14 59.20 56.29 58.90 60.14 60.99 61.86 62.01 61.61 60.15 58.99 58.28 58.18 58.41 59.61 60.88 61.38 60.97
42.30 44.66 43.00 41.46 40.43 42.66 38.81 43.69 43.74 40.81 38.02 34.35 40.53 33.82 40.84 43.65 45.62 47.75 49.37 49.31 50.95 51.10 48.41 50.36 56.96 57.76 58.90 59.95 57.33 57.25 60.13 60.77 61.57 61.91 61.18 60.45 59.12 58.35 59.63 59.95 60.29 60.98 61.69 61.11
40.74 42.04 40.83 39.45 40.58 43.34 40.12 45.27 43.38 40.67 37.62 38.22 38.37 35.63 37.67 43.13 42.06 44.74 48.42 50.25 51.20 51.25 51.37 49.70 54.73 57.93 59.33 60.50 58.89 56.95 57.61 60.27 61.25 61.41 61.25 60.30 59.48 59.40 59.43 59.49 59.03 60.39 61.75 61.58
42.17 46.59 44.48 42.42 43.88 44.14 43.87 41.09 39.97 39.69 38.86 33.16 38.55 36.82 36.06 39.57 41.95 45.56 48.26 49.42 50.32 51.45 51.90 51.92 51.00 57.13 58.48 60.08 60.75 58.97 56.81 57.50 59.38 59.99 60.21 59.69 59.11 58.17 57.99 58.92 59.35 60.39 61.35 61.68
39.58 40.81 44.79 44.33 41.05 42.82 42.59 39.45 32.66 31.91 31.45 29.68 38.02 34.96 38.85 42.85 44.74 45.84 46.37 46.47 47.28 47.84 50.11 52.30 49.24 50.89 56.58 58.29 59.79 60.45 59.03 57.46 58.01 58.31 58.67 59.21 58.92 58.50 58.60 59.38 60.09 60.32 61.01 61.22
33.76 31.66 40.90 44.55 41.04 38.92 40.30 39.96 31.13 25.59 26.45 29.21 32.88 31.12 36.97 45.29 48.29 48.45 46.94 46.35 46.78 46.65 46.16 49.11 50.48 49.38 55.23 57.52 59.11 60.05 60.53 60.15 59.75 58.83 58.50 58.93 58.91 58.85 59.22 60.39 60.96 61.16 61.39 61.75
33.16 34.42 42.77 43.33 43.16 42.87 37.62 37.20 40.57 30.54 19.63 25.13 29.62 33.31 39.65 42.02 44.50 44.12 43.57 43.39 43.21 44.68 46.32 45.71 47.46 46.85 51.35 55.69 57.66 59.36 60.08 60.82 61.42 61.20 60.50 59.32 59.22 58.92 59.50 60.33 61.45 61.57 61.89 61.73
37.81 33.59 40.17 41.97 43.85 43.25 41.02 43.26 34.25 33.53 20.52 20.46 26.49 28.90 32.32 36.97 40.75 42.49 41.27 41.25 42.44 42.08 42.41 44.24 43.94 45.10 46.60 51.42 55.26 57.36 59.97 60.21 61.04 61.74 62.09 61.69 60.62 59.84 60.02 60.77 61.01 61.57 61.60 60.89
41.50 37.81 34.78 39.20 38.89 38.12 37.09 37.83 37.39 37.03 31.84 25.39 22.42 27.70 37.39 39.89 39.73 39.30 39.34 39.55 38.43 38.38 39.30 40.69 41.77 42.52 42.85 43.95 49.95 53.64 56.29 58.72 59.13 60.31 61.47 61.52 61.67 61.44 60.90 60.59 60.98 61.31 59.72 60.02
42.67 38.48 32.27 34.93 37.95 39.89 40.52 39.27 38.80 32.95 29.08 30.02 28.44 29.02 38.65 37.91 37.92 38.92 38.79 40.53 40.22 39.90 40.23 41.01 41.66 41.93 42.11 42.10 42.16 43.39 45.84 51.62 54.74 56.25 58.81 58.82 60.32 60.48 60.72 60.79 61.22 60.49 59.43 60.16
41.79 33.42 30.75 31.10 35.13 37.99 38.48 38.74 40.89 37.09 33.93 30.63 26.72 28.97 37.85 35.40 36.54 37.75 38.96 40.17 41.20 40.99 40.50 41.55 41.36 41.37 41.20 41.35 42.04 42.51 42.86 43.71 45.26 48.85 52.73 54.32 55.91 57.97 59.42 60.53 61.02 59.96 59.65 59.75
43.08 35.36 32.74 29.89 33.23 37.19 35.90 37.33 39.65 38.84 31.14 31.90 33.02 32.97 35.36 35.88 37.12 37.75 38.94 40.26 40.83 41.90 42.36 40.71 40.82 41.16 41.66 42.06 42.29 42.74 43.28 43.97 44.25 44.37 44.92 47.36 50.09 52.64 55.36 56.21 54.83 54.28 54.28 53.69
41.14 32.37 34.86 36.21 37.15 38.05 37.35 37.41 37.56 36.75 37.74 32.92 35.72 34.81 37.80 38.74 37.64 38.81 38.80 39.18 42.28 42.15 41.68 41.11 41.28 41.38 41.55 41.80 42.25 42.78 43.33 44.09 44.38 44.45 44.62 45.08 46.32 49.88 50.88 51.33 50.94 50.35 49.43 50.55
41.97 32.93 35.68 33.48 36.61 37.12 35.83 37.67 38.23 38.38 39.19 38.55 38.16 36.19 40.54 42.22 40.70 39.64 41.43 42.21 42.15 43.18 43.86 42.72 42.46 41.48 42.19 41.96 42.22 42.78 43.56 43.97 44.32 44.21 44.03 44.09 44.41 44.61 44.82 44.80 43.73 44.06 43.39 43.54
39.20 34.48 32.73 30.54 34.54 35.24 31.54 35.81 37.42 38.15 39.95 39.67 35.23 39.63 40.35 39.83 41.22 40.84 41.86 43.08 42.31 42.27 42.75 42.92 42.69 42.44 41.26 40.60 41.56 41.79 42.40 43.54 43.55 42.21 39.74 39.14 39.34 40.94 40.23 39.56 40.07 39.71 39.46 38.42
33.07 35.27 31.89 28.13 32.72 26.14 33.26 40.47 41.08 39.15 40.39 42.11 41.82 40.70 42.78 41.42 42.60 43.11 42.99 41.60 42.22 42.53 42.18 41.24 41.05 41.14 41.70 41.58 42.31 42.66 42.49 41.61 39.79 38.32 37.72 37.16 36.98 36.13 35.72 37.62 37.89 36.98 36.44 36.50
40.62 36.10 29.69 28.10 30.16 29.69 30.53 35.63 37.62 36.66 37.19 42.56 41.61 42.37 41.32 42.05 41.07 40.05 40.80 40.74 40.09 39.92 40.33 40.60 40.99 40.88 40.38 40.40 40.86 39.39 37.18 36.90 37.20 37.13 36.92 36.25 35.71 31.18 34.87 34.21 35.17 35.72 34.63 32.86
40.19 39.73 33.14 28.70 26.79 24.95 30.37 35.44 42.69 41.42 32.59 42.96 43.62 42.90 42.70 41.52 37.12 39.66 38.58 38.29 37.76 38.42 38.43 39.11 39.05 38.50 37.59 37.05 37.20 35.16 34.78 35.05 35.38 35.47 35.62 34.95 33.29 30.43 34.35 34.36 32.61 30.99 31.52 31.70
31.10 31.33 31.13 30.14 22.20 25.79 32.62 35.06 43.52 32.21 33.03 37.78 43.23 43.59 42.83 41.66 43.64 37.95 37.22 36.51 36.47 35.86 36.57 37.46 36.20 34.88 34.56 33.98 33.43 32.68 32.25 32.14 32.51 31.82 31.35 29.23 29.05 32.46 33.30 32.74 30.53 31.39 31.13 30.37
31.31 29.59 29.04 25.55 17.49 23.59 33.61 38.58 35.70 36.79 33.49 33.98 36.75 39.70 40.88 36.71 36.26 36.11 34.96 33.89 33.62 33.30 33.93 34.78 33.06 31.89 31.38 30.61 31.74 30.63 30.34 30.13 26.83 26.21 26.11 25.03 29.56 31.82 32.19 32.72 31.15 31.02 31.10 30.75
30.02 32.33 29.81 30.90 28.63 34.35 34.19 34.80 36.07 35.48 34.90 34.68 34.91 35.84 37.71 35.64 34.09 34.02 32.45 31.62 30.99 30.48 30.05 29.72 28.81 28.20 27.74 27.12 28.28 28.01 27.53 27.08 25.62 24.45 22.34 28.33 26.16 32.00 32.07 32.30 31.21 30.00 30.79 29.77
31.27 31.38 31.86 29.94 28.90 29.81 32.73 34.29 36.41 36.22 35.80 34.63 34.74 35.18 35.67 33.75 33.37 31.74 30.85 29.57 28.34 27.62 26.78 25.67 25.41 23.95 23.31 23.41 24.00 25.08 25.91 28.05 28.18 21.85 22.32 21.53 21.27 21.57 24.99 29.94 30.39 30.86 29.88 28.96
24.32 28.65 28.02 25.87 27.92 29.43 33.01 34.04 34.90 34.73 34.63 33.59 32.99 33.45 33.48 33.32 31.04 30.46 28.44 27.39 26.57 25.50 24.27 23.63 22.42 21.77 20.07 19.99 19.38 18.67 21.72 21.39 22.90 21.22 21.55 21.52 20.46 18.13 19.65 22.34 27.23 28.00 28.46 30.12
16.76 14.49 21.27 24.99 22.87 23.61 31.69 30.13 33.73 32.60 31.68 31.07 30.85 29.91 30.06 30.57 28.70 27.83 25.74 25.12 24.05 22.18 21.08 19.86 18.48 17.68 15.56 14.56 15.03 15.63 16.94 19.61 19.87 21.83 21.14 19.95 18.95 18.05 18.78 17.38 18.13 28.56 29.62 31.30

GFSCGP_sfc_wetblb_114.txt.gz
Wetbulb
47.86 42.87 39.86 41.02 40.73 41.05 38.79 37.67 37.45 38.93 44.24 40.23 40.66 42.56 42.98 46.20 44.14 44.03 43.07 43.17 44.98 52.67 57.07 59.06 59.35 59.97 60.25 59.58 60.04 60.18 61.22 62.83 62.59 61.01 58.35 56.43 56.48 56.45 56.72 57.92 59.17 59.51 59.43 58.89
43.64 40.77 43.23 43.88 42.91 41.89 39.81 36.75 36.11 40.71 42.87 40.73 40.05 40.25 44.35 43.42 43.94 44.81 44.51 44.10 44.06 44.83 52.85 57.09 58.45 59.06 59.82 58.54 59.69 59.89 61.20 62.02 62.20 62.80 60.87 58.16 57.69 56.60 57.81 57.97 58.14 59.69 59.28 59.27
40.45 41.47 45.56 42.67 41.48 40.50 40.26 38.01 37.33 38.30 39.96 40.08 37.67 38.14 40.91 43.49 45.20 45.85 46.63 47.82 47.51 47.22 46.56 53.23 57.19 58.45 59.79 59.53 58.36 59.24 60.68 61.59 62.00 62.15 60.31 58.54 57.59 56.97 56.49 56.25 57.38 59.24 59.71 59.44
42.41 43.79 43.33 40.61 39.77 41.12 36.29 42.22 42.38 41.02 38.20 33.10 38.88 32.31 38.93 42.94 43.97 44.92 47.37 48.00 48.65 49.05 50.65 49.26 55.52 57.37 58.84 60.19 58.64 59.09 59.56 60.68 61.37 61.63 60.87 59.90 59.03 57.53 58.55 58.28 58.68 58.70 59.88 59.98
40.46 41.53 41.45 39.73 40.02 42.52 38.16 43.22 42.18 40.98 38.55 37.79 37.51 34.93 36.35 41.16 40.47 43.69 46.93 49.12 50.19 50.87 50.72 50.49 51.64 56.99 58.98 60.26 59.56 58.10 58.70 59.35 60.23 60.90 61.28 60.32 59.47 59.71 59.26 59.08 58.52 58.77 59.69 60.55
41.54 46.72 44.44 42.10 43.04 43.30 43.39 40.57 39.58 36.89 38.20 33.46 36.50 35.86 34.25 38.84 41.43 43.49 46.28 47.64 48.99 49.33 50.00 51.28 50.58 55.42 57.83 59.67 59.84 57.38 57.15 58.37 59.69 60.15 60.56 60.24 59.74 59.56 58.41 57.60 57.88 58.64 59.36 60.33
38.60 39.71 44.02 44.88 40.77 42.16 42.55 38.35 31.45 30.63 30.46 28.10 35.59 33.75 37.38 41.40 43.31 46.08 46.84 47.10 46.33 46.93 48.04 49.58 49.70 50.30 55.98 57.52 58.75 57.98 55.71 56.59 59.11 59.69 59.88 60.13 59.67 59.34 58.79 57.97 58.19 58.11 58.64 59.23
30.84 27.99 39.05 43.87 41.86 38.27 38.91 38.36 29.35 24.44 25.32 27.39 34.30 32.11 36.56 43.37 47.74 48.69 47.90 46.41 45.44 45.40 46.14 46.85 49.54 48.66 54.07 56.74 58.24 58.86 56.46 55.89 57.05 59.01 59.29 59.87 60.05 59.56 59.24 58.43 58.73 58.87 59.22 59.81
34.07 33.68 39.51 41.81 44.05 42.67 37.39 35.85 38.73 29.26 19.14 24.22 29.49 32.97 37.42 40.78 42.53 45.53 45.50 44.46 44.65 44.05 43.74 45.11 45.87 48.25 48.79 55.06 57.60 58.99 58.83 57.40 56.33 56.75 58.19 58.45 59.01 59.14 58.98 58.79 58.82 59.16 59.67 60.18
35.06 30.74 39.06 40.15 42.79 42.77 41.19 41.94 34.40 34.34 22.58 19.92 25.94 27.37 33.30 35.25 40.08 44.26 41.85 41.88 42.31 42.54 41.92 41.77 43.07 44.00 45.05 52.08 56.23 58.30 59.24 59.35 59.03 58.01 57.68 57.76 57.94 58.40 58.72 58.71 58.05 59.01 60.04 60.17
37.01 34.65 33.13 39.92 38.62 37.44 38.15 37.11 37.87 36.77 30.21 25.54 21.82 27.87 35.84 40.17 42.28 43.62 42.16 41.00 40.27 39.18 39.35 40.27 40.75 41.14 41.51 43.87 50.74 52.95 55.30 57.33 58.26 59.90 60.49 59.60 59.03 58.56 58.40 58.02 58.34 58.84 59.72 59.98
39.80 35.27 29.23 33.71 39.01 40.58 41.03 38.04 38.55 32.84 30.17 29.25 27.77 30.11 37.10 36.02 38.00 39.32 38.96 38.92 38.11 38.80 39.47 40.20 40.48 40.59 41.17 41.66 41.97 46.37 51.46 53.70 55.24 56.62 58.21 58.87 60.31 60.06 59.07 58.32 58.47 59.01 59.48 60.02
40.52 35.20 28.85 31.67 35.09 38.17 36.62 38.95 39.80 39.32 32.58 31.17 29.15 30.84 37.06 35.13 33.54 35.57 37.65 38.83 39.51 39.60 39.87 40.12 40.30 40.34 40.38 40.58 41.46 41.48 41.69 42.84 45.78 51.24 53.51 54.56 55.43 58.12 59.23 59.73 59.49 59.37 59.16 59.48
42.42 34.55 32.59 28.85 31.91 35.89 34.92 37.88 38.81 38.13 32.21 32.45 32.34 34.58 36.10 35.31 35.21 35.81 37.73 39.31 39.93 40.23 41.27 40.14 39.38 39.79 40.29 40.93 41.22 41.53 42.10 42.44 42.74 42.61 43.23 45.74 48.46 51.30 53.24 54.66 56.13 57.27 58.33 58.81
40.90 33.81 34.09 34.65 35.56 36.93 36.77 37.31 38.57 37.00 37.18 33.02 35.76 35.33 39.20 37.79 36.28 36.93 38.30 39.36 39.94 41.02 41.17 40.13 40.02 40.35 40.33 40.75 41.07 41.54 42.07 42.68 43.14 42.95 42.65 42.84 43.38 45.67 47.70 48.67 50.03 50.93 51.52 53.02
39.88 32.86 35.68 32.46 35.39 36.25 34.17 37.69 38.51 38.70 38.75 38.78 38.31 35.17 42.74 42.28 38.95 36.52 37.65 38.04 39.42 41.60 41.72 41.19 40.01 40.22 41.09 41.21 41.05 41.05 41.59 42.19 42.99 42.70 42.58 42.76 42.41 42.96 44.69 44.51 43.25 43.24 43.24 43.73
32.91 32.18 31.73 28.66 32.96 34.03 30.49 34.55 37.03 37.61 39.83 39.52 35.36 40.09 38.39 39.79 38.95 37.88 37.65 38.97 39.36 41.74 42.56 41.86 42.05 41.36 40.69 40.80 41.53 41.01 41.08 42.09 42.39 40.84 39.13 38.71 38.65 40.16 39.63 39.27 39.81 39.45 39.79 39.55
31.06 30.09 28.65 24.98 31.95 24.22 33.97 39.48 39.83 38.89 40.29 42.07 41.73 41.32 42.64 42.23 43.91 42.06 41.29 40.69 41.03 41.44 41.56 41.44 41.06 41.13 41.01 41.07 41.09 41.27 40.45 40.21 39.24 37.98 37.49 37.07 37.36 36.48 36.70 38.34 37.93 36.41 36.15 36.78
34.50 31.51 25.04 23.36 27.93 31.07 31.32 33.44 37.08 36.87 36.96 42.30 41.47 43.22 41.84 41.20 41.16 41.13 41.60 40.95 41.47 40.58 40.15 39.98 40.35 40.44 39.35 38.84 39.06 38.10 36.28 36.06 36.33 36.35 36.25 35.83 35.37 31.08 34.38 35.23 36.09 37.01 34.88 33.69
33.90 34.24 29.41 27.69 26.76 25.02 33.85 34.63 42.49 41.25 33.13 43.19 43.48 43.00 43.01 40.97 37.23 41.66 38.36 38.50 38.26 38.56 39.17 38.54 38.01 37.35 36.71 35.50 35.97 34.62 33.60 33.69 33.73 33.60 34.36 34.27 32.70 30.67 34.72 34.26 33.09 31.46 31.86 31.71
30.89 30.70 27.15 27.96 29.12 28.71 32.41 35.35 43.16 32.34 33.83 40.11 43.33 43.62 43.34 41.06 44.51 40.70 38.16 36.83 36.52 36.37 36.82 35.84 35.05 33.70 32.85 32.94 32.95 32.02 31.30 30.39 31.14 30.78 30.07 29.53 29.86 33.16 33.27 32.80 31.25 31.65 31.59 31.20
31.25 30.71 29.72 31.13 27.94 25.65 33.35 40.08 36.34 37.98 32.64 34.55 36.59 41.89 43.57 44.72 38.66 37.20 36.14 34.12 33.79 34.27 33.70 33.32 31.44 29.33 28.87 29.35 30.84 29.43 29.00 28.51 26.50 26.65 28.43 30.59 32.41 32.20 32.41 32.88 31.67 31.76 31.86 31.56
29.83 34.22 31.04 33.29 31.81 32.87 37.06 33.35 35.95 34.98 34.85 34.17 35.08 37.78 42.94 37.98 34.60 34.59 33.22 32.15 31.42 30.92 29.97 29.77 28.05 26.37 25.18 26.78 29.17 28.64 27.75 28.40 24.38 24.52 28.58 28.23 29.77 31.93 32.10 32.39 31.41 30.65 31.22 30.50
32.62 28.90 32.61 32.07 29.96 29.04 30.79 33.57 33.71 35.16 34.64 34.03 34.26 35.12 37.19 34.65 33.29 30.83 30.09 29.35 28.52 27.46 26.35 25.54 24.68 22.35 20.79 21.11 22.61 23.12 24.78 27.40 20.21 21.89 22.14 21.61 21.88 20.88 28.33 30.08 29.89 31.14 29.80 29.11
19.61 22.03 23.68 28.72 26.42 28.86 31.35 28.18 28.55 32.51 32.72 32.35 32.00 32.45 33.15 32.73 30.61 29.58 27.83 26.69 25.93 24.85 23.76 22.86 21.21 19.26 17.54 18.02 17.60 16.70 19.19 19.96 21.90 20.70 20.60 20.46 19.85 17.49 18.66 21.23 23.72 27.56 28.65 30.28
12.69 9.29 14.78 20.21 17.63 18.68 27.26 26.53 27.52 28.45 27.89 28.65 29.54 28.95 29.07 30.41 28.56 27.59 25.42 24.73 23.29 21.17 20.05 18.14 16.48 15.10 13.28 13.07 13.46 13.09 13.78 17.09 17.14 20.11 19.98 18.84 18.78 17.42 17.70 16.70 18.34 28.16 30.79 31.90

GFSCGP_sfc_wetblb_117.txt.gz
Wetbulb
46.55 42.73 39.90 40.69 39.24 39.37 37.27 36.15 36.32 37.07 42.90 39.53 39.24 41.57 45.24 46.64 43.42 44.05 43.80 43.04 46.79 52.56 56.64 57.68 58.20 58.72 58.93 58.77 59.05 59.70 60.06 62.15 62.21 58.55 56.58 56.51 56.91 56.60 56.64 57.56 58.44 58.39 58.26 57.84
43.39 40.11 43.03 43.54 42.45 40.48 38.13 35.16 34.44 39.22 42.24 39.52 38.91 38.88 41.88 43.28 43.33 44.65 45.45 44.45 44.10 43.74 49.82 54.38 57.54 57.78 58.39 59.04 59.38 59.35 59.73 61.28 62.48 62.31 59.86 58.64 57.73 56.47 57.62 56.87 56.63 58.36 58.22 58.31
39.98 41.43 45.40 42.44 40.43 39.43 38.54 37.49 35.48 36.69 39.92 38.57 36.19 36.94 40.62 41.99 43.85 44.81 44.63 47.09 46.82 46.40 46.34 47.96 55.38 57.55 58.36 58.58 58.68 59.38 59.67 60.44 62.15 62.96 60.57 57.71 56.44 56.02 54.73 54.70 56.32 57.49 58.69 58.58
40.99 42.78 42.87 40.46 39.82 40.61 36.22 40.75 40.84 39.20 37.10 31.89 36.25 30.25 36.81 40.18 42.58 43.44 46.18 46.68 46.61 46.34 46.93 48.25 51.41 56.21 58.01 58.93 59.71 59.82 60.10 60.42 61.44 62.44 61.23 59.83 57.86 55.97 56.89 56.78 56.95 57.31 58.51 58.82
37.19 39.71 40.90 38.94 39.25 41.75 38.09 41.91 40.94 39.79 36.88 35.66 34.57 34.09 34.89 39.21 39.94 41.62 45.19 47.28 48.05 48.76 48.99 49.08 48.40 54.65 57.85 59.52 59.78 59.71 59.76 59.94 61.05 61.55 61.89 60.43 59.95 59.79 58.42 57.28 56.06 56.56 57.35 58.80
39.96 45.99 43.18 40.70 41.80 42.73 42.10 39.48 38.24 36.46 36.02 30.25 34.75 34.00 33.39 37.80 39.26 41.73 44.42 46.45 48.19 48.94 49.35 50.21 51.23 51.51 55.63 58.37 59.61 59.73 58.81 58.67 60.20 60.71 60.69 60.52 59.81 59.62 58.46 56.84 57.13 57.29 57.71 58.02
39.21 40.33 43.81 43.68 39.86 41.07 41.85 36.68 31.22 29.99 29.57 26.19 32.52 32.00 36.28 39.35 41.25 42.91 44.88 45.75 47.21 46.84 47.99 47.98 48.68 48.00 51.38 55.23 58.33 59.52 57.84 57.75 58.54 59.32 60.04 60.24 59.94 59.71 59.18 58.47 57.56 57.60 57.35 57.93
32.58 29.78 38.99 43.37 41.36 38.19 38.93 38.29 30.39 23.33 24.59 26.27 30.78 29.33 34.47 41.84 45.79 46.72 46.45 46.56 45.03 45.51 45.82 46.34 48.23 49.29 49.70 53.93 57.32 58.85 57.52 57.16 57.90 58.51 58.95 59.59 60.10 59.95 59.83 59.84 59.31 58.41 58.70 58.69
29.84 30.85 37.92 40.22 42.51 41.98 37.73 35.74 38.56 31.25 18.59 22.88 28.42 32.99 37.46 39.42 40.18 43.06 45.01 46.22 45.19 45.61 46.34 46.02 46.62 46.62 48.10 51.89 55.96 57.67 58.05 56.52 57.09 58.06 58.82 59.07 59.58 59.60 59.24 59.41 59.41 59.15 58.91 58.94
34.04 31.82 37.10 37.62 41.15 41.46 39.80 41.53 33.84 34.39 24.94 20.34 25.32 26.94 31.85 34.21 38.36 42.23 44.65 44.35 43.39 43.48 43.77 43.68 43.80 44.17 45.45 48.47 54.29 56.62 58.06 57.15 56.38 57.14 58.74 58.91 59.31 59.55 59.65 59.43 58.47 58.00 58.64 58.39
37.98 33.59 30.08 39.40 37.45 36.28 38.02 36.34 37.78 36.49 31.26 24.63 22.11 28.12 34.53 38.90 40.27 41.66 43.32 42.84 41.91 41.61 41.26 41.51 41.27 41.57 41.56 43.85 50.90 53.86 56.12 57.34 56.26 55.56 56.59 57.38 57.92 58.42 58.87 58.61 58.44 58.26 58.09 58.12
38.16 35.12 25.93 30.36 39.42 41.53 40.48 37.83 38.18 32.83 27.76 29.80 26.98 30.63 36.70 37.28 37.25 37.75 40.32 40.80 39.45 38.51 37.75 38.22 39.48 40.51 40.79 40.89 45.31 50.66 52.99 54.23 55.60 56.96 56.75 55.94 56.08 55.94 55.99 56.53 56.99 56.88 56.75 57.31
38.65 32.70 27.07 24.83 31.59 37.59 37.54 39.24 39.39 38.07 34.13 30.70 25.45 31.46 37.50 33.06 34.93 36.60 37.07 37.46 38.40 38.57 38.36 38.66 38.54 38.39 39.11 40.07 40.60 41.06 43.60 48.51 50.19 52.60 54.32 55.28 56.10 56.65 57.53 56.97 56.60 56.10 56.26 57.75
41.27 32.13 28.85 24.33 26.01 31.93 32.24 35.94 37.93 37.71 33.22 32.40 32.62 34.53 37.39 36.82 34.61 35.82 36.10 37.50 38.06 39.56 40.25 39.06 37.94 38.71 39.24 39.88 40.72 41.27 41.81 41.97 42.17 42.17 45.00 48.68 50.11 51.93 53.21 54.61 56.43 57.17 57.88 57.67
39.72 32.42 32.72 33.62 33.85 33.91 35.25 33.97 35.46 35.14 36.08 32.70 35.58 35.55 39.07 40.22 38.85 38.40 37.14 37.12 37.93 39.47 40.09 39.91 38.86 39.20 39.19 39.75 40.56 40.82 41.09 41.89 42.33 42.04 41.81 42.03 41.94 43.06 44.50 45.47 46.32 47.43 49.49 52.26
39.04 30.12 33.63 31.35 34.79 34.21 32.47 35.22 36.59 36.46 36.06 35.67 36.76 36.66 42.59 40.82 39.68 36.48 37.18 37.13 37.65 39.27 40.74 40.87 38.80 38.61 39.91 40.07 39.93 39.95 40.07 41.00 42.60 42.45 42.26 42.21 41.53 41.11 43.56 43.58 42.69 42.74 42.74 43.77
32.71 31.54 29.36 22.33 31.86 31.23 28.82 32.61 34.22 35.80 38.20 38.97 34.79 39.22 40.64 39.93 40.05 40.19 37.46 37.29 38.18 38.50 40.95 41.33 40.41 39.83 39.79 39.30 40.26 40.24 40.52 40.91 41.34 40.42 38.47 38.01 38.19 39.48 39.48 39.48 39.66 39.11 39.26 39.59
28.67 26.34 21.26 16.27 22.55 18.42 29.84 36.00 37.90 35.93 37.60 39.64 40.81 41.78 43.44 43.83 44.55 42.35 43.91 40.78 39.60 38.00 40.34 40.69 40.25 40.04 39.98 39.83 39.58 39.69 38.71 38.80 38.07 36.99 36.79 36.43 36.42 36.00 36.53 37.88 37.73 37.77 37.31 36.43
33.27 28.38 17.86 12.89 9.56 25.65 28.03 32.90 34.00 33.49 34.31 39.86 39.39 41.31 42.86 43.43 38.95 40.75 43.27 41.16 41.11 40.11 39.96 40.12 39.61 39.44 38.22 37.60 37.59 36.86 35.28 35.21 35.23 34.62 34.99 34.89 34.44 32.72 35.03 35.62 36.52 35.59 34.53 33.19
32.75 32.38 25.36 10.31 9.15 13.35 29.65 34.26 39.35 39.59 30.64 40.99 40.83 40.84 41.66 40.33 37.55 42.58 39.34 39.68 39.26 39.59 39.31 38.72 37.61 36.70 36.15 34.61 34.99 33.73 32.68 32.02 32.60 32.82 33.03 32.92 32.63 33.25 34.19 34.10 33.07 31.62 32.05 31.46
27.70 27.96 23.75 22.20 16.16 22.01 30.66 35.13 40.26 30.45 32.54 36.77 42.75 42.78 42.84 40.86 44.29 42.95 38.97 37.38 37.39 37.21 36.52 35.41 34.30 32.32 31.31 32.12 32.34 31.12 30.92 30.18 30.77 30.98 31.20 31.34 32.00 33.42 33.40 32.44 31.45 32.17 32.07 32.14
26.12 25.52 24.71 25.16 22.86 19.51 33.51 35.32 34.86 38.18 33.95 33.40 37.38 43.14 42.94 44.63 44.06 38.06 37.23 34.94 34.77 33.72 32.97 32.08 30.24 29.00 29.58 30.74 31.42 30.12 29.07 28.67 27.42 29.09 30.13 31.66 32.60 32.21 32.59 32.73 32.13 32.08 32.43 32.23
25.79 30.78 28.99 29.46 27.97 31.90 33.68 29.57 31.55 31.98 32.81 34.75 34.81 36.53 39.57 40.54 36.80 34.89 32.68 32.15 31.49 31.35 29.99 29.58 27.62 26.41 26.25 27.18 29.72 28.64 27.99 27.88 24.63 29.15 28.46 29.53 31.18 31.89 32.17 32.53 31.90 31.17 31.56 31.13
30.75 23.50 29.57 30.37 27.99 25.09 27.01 28.47 27.49 28.57 31.43 32.63 33.19 33.21 35.79 34.85 33.43 30.68 30.25 30.08 29.05 28.50 27.14 26.32 25.54 23.51 22.15 22.16 23.20 23.57 24.65 23.77 22.48 23.15 22.87 22.11 22.24 26.64 29.50 30.02 30.16 31.16 30.02 29.92
18.71 17.98 18.08 27.90 24.83 23.17 27.73 23.28 23.72 26.22 28.71 28.25 30.65 29.96 32.24 32.14 29.93 29.76 28.60 27.50 26.81 25.30 24.44 24.11 22.64 20.73 19.37 19.32 18.58 17.41 20.03 21.39 22.59 21.43 20.84 20.71 19.76 18.06 19.01 20.51 24.80 26.60 27.66 29.77
10.19 6.08 10.53 17.56 13.06 11.96 16.19 20.88 21.74 22.85 24.70 25.23 27.42 27.65 28.01 29.65 28.01 27.26 25.17 24.64 23.48 21.38 20.62 18.87 17.38 16.23 14.75 14.56 13.76 13.26 14.13 17.46 18.48 19.62 19.82 18.79 18.25 16.52 16.45 16.33 17.19 28.83 31.85 32.78

GFSCGP_sfc_wetblb_120.txt.gz
Wetbulb
47.28 42.81 40.12 40.17 39.13 38.54 36.83 34.25 34.49 35.55 41.91 38.54 37.89 39.64 43.31 45.66 42.99 42.53 43.73 44.28 45.15 51.29 55.56 56.81 57.38 57.59 58.34 58.47 59.01 59.34 60.71 62.42 60.92 60.71 58.64 58.16 57.89 57.16 56.72 57.51 57.96 58.24 58.23 57.03
43.22 40.32 41.95 43.07 42.12 40.36 37.81 33.93 33.15 38.24 40.78 39.04 38.56 38.73 42.61 42.07 42.98 45.04 46.61 45.30 45.98 44.67 48.38 53.89 56.13 56.46 57.73 58.87 59.36 59.41 59.55 60.76 61.60 59.97 59.73 58.44 58.08 57.56 58.34 57.36 57.06 57.68 57.70 57.62
40.49 41.41 44.90 42.10 39.73 38.84 37.58 39.33 37.48 35.42 39.21 37.90 35.67 35.62 38.79 41.43 42.04 44.54 43.98 46.81 47.38 47.24 45.79 47.14 51.47 56.22 57.55 57.90 58.86 59.41 59.63 60.12 61.42 62.30 59.80 56.21 56.07 55.05 54.83 54.78 56.03 56.78 57.83 57.80
41.42 43.52 41.40 39.10 38.94 40.31 36.14 40.12 39.77 38.52 36.52 30.43 34.55 29.15 35.60 38.25 40.31 42.02 44.15 44.38 45.52 46.89 46.04 47.72 46.74 51.57 56.29 57.99 59.10 59.59 60.07 59.66 60.55 61.85 61.00 58.80 58.41 56.84 57.18 57.56 56.96 56.71 57.23 57.55
36.95 39.95 40.70 38.04 38.38 40.76 36.96 40.87 39.65 38.70 36.88 34.23 33.88 32.84 33.97 36.32 36.69 39.82 42.78 43.97 46.06 46.41 47.58 47.25 48.16 48.83 54.14 57.65 58.80 59.50 59.67 59.76 60.17 61.13 61.87 59.97 59.34 59.77 58.77 56.37 55.03 55.82 56.27 57.43
38.15 42.20 41.82 40.31 40.88 41.73 41.20 38.54 37.06 34.97 35.54 30.42 33.22 32.08 30.85 34.56 36.58 39.70 42.44 43.96 45.34 46.10 47.38 48.69 49.89 49.01 51.05 56.33 57.99 59.16 58.92 59.32 59.90 60.44 61.08 60.84 60.18 59.85 58.38 56.16 55.69 55.13 55.98 56.48
38.61 38.48 40.86 42.29 38.75 39.97 39.54 35.10 26.28 29.21 29.24 25.82 30.28 29.93 34.46 37.70 39.31 41.11 42.47 43.68 45.09 45.06 45.63 46.61 47.92 47.86 49.35 51.98 56.77 58.21 58.57 58.40 59.41 60.03 60.43 60.99 60.64 60.39 59.91 58.67 57.10 56.93 55.93 56.30
32.83 30.81 39.36 42.24 41.03 38.18 38.78 35.61 27.93 23.91 23.44 24.91 29.53 27.11 32.11 39.90 43.74 44.79 45.54 45.89 45.73 44.32 44.31 45.43 47.12 48.11 48.25 49.37 53.59 56.58 57.93 58.10 58.80 59.25 59.83 60.65 61.23 60.74 60.45 60.37 59.43 58.24 58.42 58.22
31.32 31.75 37.50 40.96 41.80 41.81 37.95 35.06 37.75 31.29 16.64 23.98 27.09 31.07 36.60 38.35 39.61 40.92 42.12 43.89 44.21 45.47 44.87 44.44 45.67 46.14 47.37 47.90 49.77 54.61 56.83 57.89 58.12 58.23 59.48 59.99 60.42 60.58 60.23 60.17 60.06 59.46 58.93 58.96
34.79 28.59 35.01 37.09 41.75 42.01 40.22 41.69 32.31 33.70 23.88 19.33 25.08 25.79 30.57 34.10 37.47 39.92 41.04 43.43 43.81 41.91 43.44 43.87 44.07 44.27 44.76 46.03 48.13 53.04 56.39 57.45 57.24 57.64 58.27 58.75 59.28 59.79 60.29 60.04 59.12 59.20 59.42 58.30
37.87 31.40 31.66 37.67 36.63 35.31 37.63 35.61 36.53 35.89 32.48 24.37 19.77 26.33 33.59 37.63 39.83 39.12 40.11 41.51 40.91 41.80 41.95 41.92 41.45 40.05 40.66 41.19 43.76 49.70 53.84 55.37 54.81 55.44 56.98 57.59 58.11 58.60 59.06 58.96 58.76 58.57 57.82 57.19
38.35 33.91 26.03 28.69 39.19 37.94 38.72 36.60 36.44 31.27 26.90 31.84 29.34 30.83 36.66 36.60 37.03 37.60 37.86 38.73 38.27 39.23 38.69 37.35 37.58 38.48 39.00 39.54 40.54 46.80 50.99 53.33 54.13 53.54 53.66 55.24 56.69 56.75 57.26 57.69 58.16 57.11 57.26 56.50
36.85 29.29 25.80 26.56 29.15 36.22 35.33 37.95 38.81 37.08 33.64 29.74 27.55 30.30 36.17 34.55 36.10 36.04 35.38 36.23 36.89 37.14 37.99 37.81 37.87 37.91 37.82 38.75 39.51 40.42 46.15 50.62 51.54 53.04 53.35 52.65 52.99 53.44 54.62 55.30 55.57 54.96 55.33 55.35
40.67 30.50 26.18 23.26 23.86 29.61 30.26 33.97 36.58 35.56 30.29 31.33 31.65 33.28 36.71 37.48 37.31 38.95 40.40 37.08 36.21 36.89 38.10 38.16 37.75 37.91 38.19 38.31 38.90 39.30 40.20 40.92 41.37 43.27 48.50 50.22 50.92 52.06 53.33 54.56 55.02 54.93 55.32 55.62
37.79 30.81 29.85 30.32 30.84 31.18 31.25 31.24 33.94 34.17 33.59 29.57 31.96 33.29 37.99 40.12 40.86 40.88 42.39 41.09 37.27 37.69 38.15 38.87 38.26 38.57 37.88 38.55 38.99 39.17 39.41 40.66 41.37 41.38 41.05 41.09 41.33 42.25 43.32 44.70 46.52 47.06 47.89 50.54
39.24 31.48 34.41 30.52 32.82 33.88 31.40 33.40 33.52 33.86 34.67 34.59 34.50 33.35 38.78 41.43 42.49 41.85 39.24 40.40 39.16 37.23 38.37 39.39 39.26 38.33 39.02 38.86 38.87 38.55 38.39 39.19 40.80 40.84 40.46 40.60 39.99 41.47 43.20 43.26 42.48 42.35 42.37 43.08
33.59 31.93 26.05 13.91 28.54 29.66 22.01 30.66 32.54 33.64 36.37 36.78 32.85 37.07 40.94 40.03 40.06 39.70 40.66 40.27 40.13 38.12 38.59 39.23 40.23 39.45 38.52 38.09 39.31 39.08 39.66 39.53 39.36 38.34 36.75 36.40 38.18 38.49 38.31 38.60 38.62 38.08 38.44 38.79
31.22 28.24 18.97 10.08 15.14 10.05 26.84 33.69 35.36 34.08 35.57 37.27 37.48 39.03 40.88 41.71 43.66 44.08 45.16 43.54 41.71 39.82 38.77 39.10 40.73 38.70 38.41 38.78 38.02 37.82 37.38 36.91 36.47 35.47 35.05 34.94 35.75 36.28 36.75 37.62 37.57 37.47 36.60 36.05
31.09 27.81 12.60 11.14 7.70 20.60 26.40 27.64 29.11 29.60 30.48 37.00 36.99 38.91 40.39 41.64 41.54 41.88 45.79 45.81 44.99 43.13 41.21 40.96 39.46 38.23 37.72 36.88 36.92 35.64 33.51 32.82 33.20 33.15 33.49 34.09 34.99 34.22 35.97 34.85 35.34 35.23 34.18 33.08
30.27 29.22 20.91 9.53 3.94 4.20 27.38 30.51 34.71 34.73 27.28 37.91 38.35 38.97 39.65 38.66 34.88 39.57 43.86 45.29 45.64 43.20 37.95 37.89 37.29 36.47 35.17 34.11 34.60 33.09 32.16 33.23 32.79 33.22 33.42 33.97 34.12 34.74 34.49 34.15 33.09 31.88 32.13 31.62
25.21 26.17 20.93 19.09 6.86 16.26 26.24 32.48 37.62 23.46 27.72 34.84 37.34 39.05 39.90 38.24 41.02 44.03 40.82 37.45 38.34 36.83 36.23 35.16 34.35 32.73 31.55 32.12 31.73 31.45 31.64 31.22 31.60 31.69 32.01 31.74 32.31 33.61 33.44 32.57 31.70 32.38 32.41 32.30
21.59 20.46 19.25 19.94 19.38 13.81 29.83 30.47 29.18 27.26 29.53 30.08 32.20 33.03 33.89 35.51 39.57 42.02 39.52 35.46 34.10 33.25 31.97 31.17 29.86 29.56 30.45 30.09 31.09 30.24 29.66 29.03 28.79 29.95 31.17 32.12 32.62 32.33 32.73 32.89 32.16 32.34 32.72 32.16
20.75 26.23 20.66 24.34 23.68 29.67 27.23 27.59 24.98 24.35 24.55 27.69 27.32 29.38 30.83 31.84 34.28 37.94 34.90 32.46 31.46 30.71 29.37 29.00 28.42 27.74 27.27 28.44 30.87 29.14 28.43 27.72 28.29 30.52 31.23 31.52 31.78 32.04 32.29 32.53 31.93 31.37 31.97 31.28
27.15 22.02 27.69 26.51 25.05 20.84 24.40 24.35 20.83 20.48 20.57 24.73 25.67 25.53 29.46 29.68 33.38 33.43 31.05 31.03 29.70 27.66 26.05 24.99 25.79 24.59 23.26 23.47 23.93 24.53 23.62 23.83 21.71 24.31 25.40 26.55 28.83 28.62 29.50 29.59 30.09 30.71 30.29 30.08
14.00 16.12 14.67 20.90 20.57 19.62 23.62 19.03 17.24 16.68 19.74 20.75 22.78 24.16 27.75 28.04 30.53 29.69 29.86 28.36 27.07 25.32 23.86 23.05 21.90 20.96 19.96 19.65 18.64 18.07 20.50 24.13 24.44 22.91 22.56 22.61 22.03 21.87 22.62 23.66 26.46 26.21 27.34 30.19
7.48 4.06 10.80 17.08 8.57 6.11 9.95 13.61 13.49 14.94 15.98 17.88 20.58 21.56 26.19 25.19 28.10 27.48 25.03 24.18 22.99 21.11 19.89 17.92 17.18 16.76 15.67 15.73 15.02 15.44 17.97 22.89 23.59 22.05 21.11 20.09 20.11 18.89 18.59 19.76 20.90 32.05 32.21 31.85

GFSCGP_sfc_wetblb_123.txt.gz
Wetbulb
46.94 43.10 39.73 40.67 39.09 39.10 37.73 36.20 35.56 37.23 41.50 39.56 38.32 38.95 42.27 44.30 44.13 43.55 44.94 46.03 46.04 47.44 52.82 56.18 57.77 58.92 59.42 60.01 60.29 61.60 62.16 62.58 62.15 62.11 60.74 60.35 59.80 59.66 59.45 60.02 60.45 60.15 60.33 59.79
43.01 39.88 41.60 42.12 42.52 41.26 38.53 36.14 35.20 38.50 40.85 39.75 39.12 39.01 43.07 42.87 44.30 45.02 45.79 45.85 46.84 48.26 48.33 51.40 55.70 57.80 58.35 59.31 60.06 60.41 61.36 62.81 62.11 62.30 62.04 61.23 61.06 60.87 60.82 60.19 59.50 60.12 60.06 59.86
40.08 41.42 44.12 41.69 39.33 38.95 38.34 39.30 37.98 37.80 39.83 39.13 36.60 35.60 38.81 41.57 42.55 44.30 45.23 47.45 48.55 48.38 48.30 48.99 49.60 55.32 57.79 58.51 59.38 59.97 60.42 61.23 62.64 62.33 61.31 58.38 58.38 56.98 58.15 57.97 58.44 58.61 59.43 59.77
41.83 43.76 41.94 40.16 38.96 40.07 37.39 40.83 40.77 39.49 38.08 33.02 36.88 29.66 36.46 38.88 40.66 42.10 43.89 44.11 45.60 47.51 47.71 48.85 49.49 48.80 55.26 57.66 59.57 60.05 60.54 60.71 61.30 62.56 60.68 59.66 59.52 58.16 58.87 59.43 59.18 58.90 58.94 59.14
37.30 39.19 40.54 39.54 39.84 41.07 38.81 41.02 39.90 39.15 37.08 35.58 34.50 33.80 35.04 37.13 37.20 39.70 42.53 44.00 45.07 47.10 48.13 47.85 48.42 49.66 50.48 55.70 58.06 59.45 60.19 60.48 61.11 61.49 62.29 60.61 59.86 60.73 61.06 59.78 58.49 58.71 58.41 59.07
39.49 42.32 41.58 39.77 40.45 41.44 40.74 38.67 37.17 36.30 36.29 30.94 33.09 32.42 30.78 34.52 36.38 38.96 42.56 44.15 44.83 45.83 47.49 48.30 49.74 49.41 49.48 51.40 56.40 58.37 58.96 59.49 60.44 60.68 61.46 61.59 60.57 60.42 59.94 58.79 57.41 57.52 58.10 57.97
38.26 38.62 40.21 41.38 38.41 39.60 40.07 36.98 29.71 28.73 28.43 26.26 30.82 30.56 34.60 37.49 38.80 41.23 42.46 43.53 45.27 45.22 45.43 46.98 47.72 47.74 49.14 48.78 53.76 56.65 58.09 58.19 59.69 59.98 60.52 61.22 61.32 61.10 60.42 59.53 57.93 57.78 56.77 56.99
32.37 30.81 38.86 41.60 38.55 36.22 37.82 36.19 28.54 20.34 22.16 24.32 29.40 27.98 32.15 39.14 43.04 42.71 42.52 43.58 44.03 43.80 44.37 44.95 46.92 48.20 48.47 49.28 50.43 55.16 56.81 57.71 58.80 59.41 59.72 60.81 61.61 61.56 61.17 61.22 60.03 58.92 58.42 58.07
31.19 29.33 37.30 39.74 41.16 39.74 36.08 33.22 36.87 30.11 17.96 24.30 28.16 30.74 36.43 37.31 38.39 39.84 41.39 42.73 43.76 43.84 44.83 45.33 46.05 46.68 48.13 48.28 49.29 52.14 55.51 57.18 58.36 58.93 59.53 59.96 60.76 61.26 61.14 61.43 61.62 60.49 59.99 59.67
33.72 28.87 34.99 37.07 39.69 40.53 38.87 40.32 33.20 33.62 23.88 20.41 24.74 25.99 30.40 34.40 38.51 40.72 40.03 41.24 42.17 42.53 42.56 43.76 44.11 44.62 45.83 46.98 48.06 49.03 52.52 54.87 57.24 58.50 58.94 59.37 60.14 60.77 61.40 61.43 60.70 60.72 60.70 59.59
37.08 31.57 33.67 36.87 34.60 33.40 35.48 35.48 36.19 35.78 32.53 24.28 19.77 26.69 33.07 37.06 38.79 37.39 38.59 40.32 39.69 39.57 40.49 40.04 39.62 40.57 40.79 41.49 42.58 45.58 50.16 53.86 55.72 56.97 57.84 58.14 58.84 59.81 60.31 60.46 60.18 60.11 59.91 58.73
38.46 33.25 27.42 32.38 35.41 37.31 37.34 35.37 36.79 31.47 28.22 32.07 30.18 29.54 37.31 37.29 35.96 37.09 37.04 37.55 37.61 38.22 37.67 37.71 38.18 38.57 39.21 40.01 40.67 43.41 47.28 51.55 54.30 55.19 56.04 56.90 57.64 58.18 58.34 58.74 59.29 58.44 58.29 57.98
37.85 32.46 23.84 25.27 27.69 34.17 35.19 36.87 37.11 36.47 33.55 29.03 25.82 27.99 33.99 35.85 36.95 37.67 37.82 40.89 40.13 38.02 38.74 39.02 38.94 38.33 38.19 38.43 39.44 40.08 43.79 49.58 51.68 53.29 53.00 53.56 55.04 55.83 56.89 57.63 58.00 57.54 57.52 57.32
39.80 30.85 26.01 23.02 23.62 29.52 29.70 32.33 36.15 36.25 30.97 29.33 29.86 32.07 35.52 37.85 39.63 42.13 43.24 44.46 44.87 44.33 37.70 38.88 39.16 39.22 38.86 39.23 39.61 40.08 40.88 41.34 42.72 47.23 51.01 51.32 51.62 52.79 53.79 54.44 54.75 54.99 55.57 56.08
35.57 26.96 28.82 29.33 30.18 31.20 30.63 30.87 32.75 33.25 33.19 27.78 31.52 30.07 33.67 35.91 38.39 39.53 40.41 40.29 42.17 43.32 40.71 40.70 39.25 39.77 39.51 39.08 39.78 39.99 39.91 41.13 41.76 41.57 41.48 41.81 41.97 43.45 45.06 46.34 47.14 47.34 47.88 49.62
37.72 29.75 30.68 27.40 31.07 32.50 29.60 31.00 31.56 32.69 33.63 33.12 33.34 32.32 37.63 36.83 38.59 38.46 39.54 40.79 41.34 42.25 41.43 39.87 39.12 39.35 39.22 39.18 39.35 39.10 39.46 40.24 41.37 41.25 40.83 40.81 41.35 42.84 44.12 44.03 43.43 42.83 43.37 43.65
35.22 31.43 29.35 24.71 28.77 29.46 22.64 28.98 30.03 31.15 33.81 33.97 29.73 34.84 38.81 37.58 39.45 40.69 41.72 42.58 42.35 42.42 43.10 40.84 41.25 40.69 40.16 38.88 38.69 39.40 40.02 39.98 39.78 38.65 37.06 37.58 38.69 38.96 39.19 39.32 39.09 38.88 39.54 39.23
33.28 29.93 26.45 21.45 17.84 12.88 26.28 30.56 33.00 31.82 33.22 35.07 36.01 37.45 38.70 39.17 40.86 42.03 42.88 42.10 42.67 43.75 44.76 44.92 41.74 40.15 39.80 38.10 38.99 38.64 38.68 38.15 37.50 36.33 35.75 36.26 37.53 37.05 37.49 38.06 37.53 37.14 37.12 37.10
32.60 27.73 18.07 14.34 5.54 19.15 24.61 26.80 29.17 29.23 29.05 34.97 34.94 36.72 37.27 38.53 38.76 38.68 41.89 43.32 43.51 44.60 45.94 46.75 46.25 40.59 38.14 38.35 38.03 36.72 35.10 34.82 34.79 34.64 35.41 35.39 35.84 35.24 36.48 35.89 36.61 36.09 35.58 35.12
30.14 28.14 20.72 6.40 3.79 4.31 22.16 28.18 31.60 31.18 24.29 33.13 33.33 33.32 33.63 35.54 32.50 36.50 37.30 39.41 41.79 43.71 44.81 45.15 39.60 37.65 37.77 36.56 35.90 34.17 33.60 34.32 34.41 34.37 34.50 35.06 35.36 35.24 35.60 35.26 34.12 32.59 33.25 32.68
21.32 17.87 12.46 1.90 3.13 14.98 25.19 27.67 34.46 20.60 23.17 26.74 29.34 28.89 27.79 28.64 32.89 31.90 34.28 35.92 38.36 39.41 37.44 35.61 35.78 35.79 34.86 33.86 32.97 33.30 33.31 33.22 33.60 33.04 33.25 32.88 33.09 34.20 34.56 33.22 32.84 33.09 32.86 32.87
19.76 16.07 9.71 6.03 3.79 10.99 27.21 27.56 24.98 23.47 25.12 25.27 24.64 25.63 24.91 25.82 26.62 29.02 31.44 33.15 36.15 35.75 33.32 32.01 30.88 30.90 30.73 31.36 32.28 31.58 31.57 31.08 30.25 31.19 31.99 32.52 32.99 32.72 33.05 33.15 32.73 32.95 33.06 32.80
18.55 23.47 18.46 21.54 20.83 27.05 25.89 25.42 20.23 18.07 18.72 19.66 19.14 21.90 21.96 22.55 24.41 27.07 27.57 31.52 33.49 31.03 30.10 29.72 30.05 28.71 28.26 29.73 31.72 30.16 29.11 29.19 29.74 32.16 32.43 32.22 32.42 32.62 32.73 32.80 32.57 32.48 32.60 32.07
25.17 22.30 25.76 23.99 23.65 22.76 22.55 20.36 16.04 15.84 16.11 16.82 18.07 18.03 19.80 20.41 22.92 25.08 27.33 30.80 31.06 27.91 26.66 27.07 27.30 25.59 23.95 24.04 24.79 25.39 26.47 28.01 30.96 30.71 29.87 30.12 30.38 30.09 30.72 31.19 31.72 32.24 31.53 30.96
13.68 16.25 12.46 19.89 20.26 20.28 18.04 14.94 12.71 13.83 15.33 15.33 15.35 16.28 17.09 20.30 20.48 23.22 26.66 28.06 26.63 24.73 23.08 23.10 22.70 21.29 19.46 20.14 19.53 20.38 23.87 25.60 26.22 26.41 25.93 27.04 27.53 28.01 27.50 27.53 29.42 29.42 30.15 31.04
6.84 2.66 11.55 14.61 4.92 4.25 9.70 9.71 10.59 10.32 11.00 12.36 12.28 13.83 16.87 19.81 18.64 20.88 23.81 22.13 21.56 20.53 19.71 18.76 17.89 16.99 16.26 16.20 15.01 15.63 18.73 22.83 23.28 22.34 23.22 23.61 23.46 23.87 26.07 28.82 29.65 32.35 32.05 31.93